<?xml version="1.0" encoding="UTF-8" standalone="no" ?>
<gpx xmlns="http://www.topografix.com/GPX/1/1" xmlns:xsi="http://www.w3.org/2001/XMLSchema-instance" xsi:schemaLocation="http://www.topografix.com/GPX/1/1 http://www.topografix.com/GPX/1/1/gpx.xsd" version="1.1" creator="VisuGPX - https://www.visugpx.com">
  <metadata>
    <name>Séparation à l\\\'étang Neuf </name>
    <desc><![CDATA[Nous partons de nouveau du pré avec Claire (et ses 2 chevaux).
Nous suivrons le GR de la route aux vaches, jusqu\\\'à l\\\'étang Neuf.
Nous essaierons de pique niquer, (10 mn maxi d\\\'arrêt, les chevaux comme nous, sommes bouffées par les moustiques et les taons...), puis Claire partira vers Tacoignières et moi vers mon pré, en évitant de reprendre le même chemin !
Ténébra a super bien gérer deux tourbières, elle s\\\'est retrouvée, brutalement, les antérieurs enfoncés jusqu\\\'aux genoux... ensemble on en sort et arrivons à faire demi tour puis après un fossé passé, nous récupérons le chemin.... un peu plus loin on doit en traverser un autre, je pensais qu\\\'elle allait sauter mais non...elle a super bien géré !
Ensuite c\\\'est un camion qui est arrivé vraiment trop vite, je m\\\'étais \\\"garé\\\" (car repéré de loin!), mais Ténébra a eu très peur.... Malgré tout elle a bien pris sur elle :)]]></desc>
  </metadata>
  <trk>
    <name><![CDATA[Saint-Léger-en-Yvelines Autre]]></name>
    <trkseg>
      <trkpt lat="48.70775" lon="1.75309">
        <ele>174</ele>
        <time>2015-06-10T09:04:18.000Z</time>
      </trkpt>
      <trkpt lat="48.70781" lon="1.75296">
        <ele>174</ele>
        <time>2015-06-10T09:04:26.000Z</time>
      </trkpt>
      <trkpt lat="48.70784" lon="1.75282">
        <ele>174.2</ele>
        <time>2015-06-10T09:04:34.000Z</time>
      </trkpt>
      <trkpt lat="48.70787" lon="1.75277">
        <ele>174.3</ele>
        <time>2015-06-10T09:04:37.000Z</time>
      </trkpt>
      <trkpt lat="48.70792" lon="1.75266">
        <ele>174.5</ele>
        <time>2015-06-10T09:04:44.000Z</time>
      </trkpt>
      <trkpt lat="48.70799" lon="1.75252">
        <ele>174.8</ele>
        <time>2015-06-10T09:04:53.000Z</time>
      </trkpt>
      <trkpt lat="48.70803" lon="1.75239">
        <ele>174.9</ele>
        <time>2015-06-10T09:05:00.000Z</time>
      </trkpt>
      <trkpt lat="48.70809" lon="1.75226">
        <ele>175</ele>
        <time>2015-06-10T09:05:08.000Z</time>
      </trkpt>
      <trkpt lat="48.70814" lon="1.75212">
        <ele>175</ele>
        <time>2015-06-10T09:05:16.000Z</time>
      </trkpt>
      <trkpt lat="48.70818" lon="1.75203">
        <ele>175</ele>
        <time>2015-06-10T09:05:23.000Z</time>
      </trkpt>
      <trkpt lat="48.70822" lon="1.7519">
        <ele>175</ele>
        <time>2015-06-10T09:05:32.000Z</time>
      </trkpt>
      <trkpt lat="48.70827" lon="1.7518">
        <ele>175</ele>
        <time>2015-06-10T09:05:40.000Z</time>
      </trkpt>
      <trkpt lat="48.70831" lon="1.7517">
        <ele>175</ele>
        <time>2015-06-10T09:05:47.000Z</time>
      </trkpt>
      <trkpt lat="48.70837" lon="1.75154">
        <ele>175</ele>
        <time>2015-06-10T09:05:57.000Z</time>
      </trkpt>
      <trkpt lat="48.70845" lon="1.75138">
        <ele>175</ele>
        <time>2015-06-10T09:06:07.000Z</time>
      </trkpt>
      <trkpt lat="48.70851" lon="1.75124">
        <ele>175</ele>
        <time>2015-06-10T09:06:15.000Z</time>
      </trkpt>
      <trkpt lat="48.70857" lon="1.75112">
        <ele>175</ele>
        <time>2015-06-10T09:06:23.000Z</time>
      </trkpt>
      <trkpt lat="48.70864" lon="1.75099">
        <ele>175</ele>
        <time>2015-06-10T09:06:31.000Z</time>
      </trkpt>
      <trkpt lat="48.7087" lon="1.75084">
        <ele>175</ele>
        <time>2015-06-10T09:06:40.000Z</time>
      </trkpt>
      <trkpt lat="48.7088" lon="1.75068">
        <ele>175</ele>
        <time>2015-06-10T09:06:49.000Z</time>
      </trkpt>
      <trkpt lat="48.70885" lon="1.75056">
        <ele>175</ele>
        <time>2015-06-10T09:06:56.000Z</time>
      </trkpt>
      <trkpt lat="48.70893" lon="1.75043">
        <ele>175.1</ele>
        <time>2015-06-10T09:07:04.000Z</time>
      </trkpt>
      <trkpt lat="48.709" lon="1.75031">
        <ele>175.3</ele>
        <time>2015-06-10T09:07:12.000Z</time>
      </trkpt>
      <trkpt lat="48.70904" lon="1.75021">
        <ele>175.4</ele>
        <time>2015-06-10T09:07:18.000Z</time>
      </trkpt>
      <trkpt lat="48.70909" lon="1.75013">
        <ele>175.3</ele>
        <time>2015-06-10T09:07:23.000Z</time>
      </trkpt>
      <trkpt lat="48.70918" lon="1.74999">
        <ele>175.1</ele>
        <time>2015-06-10T09:07:33.000Z</time>
      </trkpt>
      <trkpt lat="48.70924" lon="1.74988">
        <ele>175.3</ele>
        <time>2015-06-10T09:07:41.000Z</time>
      </trkpt>
      <trkpt lat="48.70924" lon="1.74987">
        <ele>175.3</ele>
        <time>2015-06-10T09:07:44.000Z</time>
      </trkpt>
      <trkpt lat="48.70924" lon="1.74978">
        <ele>175.3</ele>
        <time>2015-06-10T09:08:02.000Z</time>
      </trkpt>
      <trkpt lat="48.7093" lon="1.74966">
        <ele>175.6</ele>
        <time>2015-06-10T09:08:09.000Z</time>
      </trkpt>
      <trkpt lat="48.70936" lon="1.74954">
        <ele>175.9</ele>
        <time>2015-06-10T09:08:16.000Z</time>
      </trkpt>
      <trkpt lat="48.70942" lon="1.7494">
        <ele>176</ele>
        <time>2015-06-10T09:08:24.000Z</time>
      </trkpt>
      <trkpt lat="48.70946" lon="1.74928">
        <ele>176</ele>
        <time>2015-06-10T09:08:31.000Z</time>
      </trkpt>
      <trkpt lat="48.70952" lon="1.74915">
        <ele>176</ele>
        <time>2015-06-10T09:08:38.000Z</time>
      </trkpt>
      <trkpt lat="48.7096" lon="1.74907">
        <ele>176</ele>
        <time>2015-06-10T09:08:45.000Z</time>
      </trkpt>
      <trkpt lat="48.70968" lon="1.74899">
        <ele>176</ele>
        <time>2015-06-10T09:08:51.000Z</time>
      </trkpt>
      <trkpt lat="48.7097" lon="1.74895">
        <ele>176</ele>
        <time>2015-06-10T09:08:54.000Z</time>
      </trkpt>
      <trkpt lat="48.70979" lon="1.74888">
        <ele>176</ele>
        <time>2015-06-10T09:09:01.000Z</time>
      </trkpt>
      <trkpt lat="48.70982" lon="1.74885">
        <ele>176</ele>
        <time>2015-06-10T09:09:04.000Z</time>
      </trkpt>
      <trkpt lat="48.70987" lon="1.74882">
        <ele>176</ele>
        <time>2015-06-10T09:09:09.000Z</time>
      </trkpt>
      <trkpt lat="48.70991" lon="1.74867">
        <ele>176</ele>
        <time>2015-06-10T09:09:17.000Z</time>
      </trkpt>
      <trkpt lat="48.70998" lon="1.74857">
        <ele>176</ele>
        <time>2015-06-10T09:09:24.000Z</time>
      </trkpt>
      <trkpt lat="48.71008" lon="1.74848">
        <ele>176</ele>
        <time>2015-06-10T09:09:31.000Z</time>
      </trkpt>
      <trkpt lat="48.71012" lon="1.74837">
        <ele>176</ele>
        <time>2015-06-10T09:09:38.000Z</time>
      </trkpt>
      <trkpt lat="48.71008" lon="1.74832">
        <ele>176</ele>
        <time>2015-06-10T09:09:44.000Z</time>
      </trkpt>
      <trkpt lat="48.71005" lon="1.74826">
        <ele>176</ele>
        <time>2015-06-10T09:09:49.000Z</time>
      </trkpt>
      <trkpt lat="48.70998" lon="1.74819">
        <ele>176</ele>
        <time>2015-06-10T09:09:57.000Z</time>
      </trkpt>
      <trkpt lat="48.7099" lon="1.74811">
        <ele>176</ele>
        <time>2015-06-10T09:10:05.000Z</time>
      </trkpt>
      <trkpt lat="48.70986" lon="1.74805">
        <ele>176</ele>
        <time>2015-06-10T09:10:11.000Z</time>
      </trkpt>
      <trkpt lat="48.70985" lon="1.74803">
        <ele>176</ele>
        <time>2015-06-10T09:10:13.000Z</time>
      </trkpt>
      <trkpt lat="48.70978" lon="1.74793">
        <ele>176</ele>
        <time>2015-06-10T09:10:21.000Z</time>
      </trkpt>
      <trkpt lat="48.70976" lon="1.74791">
        <ele>176</ele>
        <time>2015-06-10T09:10:22.000Z</time>
      </trkpt>
      <trkpt lat="48.70969" lon="1.74779">
        <ele>176</ele>
        <time>2015-06-10T09:10:28.000Z</time>
      </trkpt>
      <trkpt lat="48.70967" lon="1.74777">
        <ele>176</ele>
        <time>2015-06-10T09:10:30.000Z</time>
      </trkpt>
      <trkpt lat="48.70957" lon="1.74764">
        <ele>176</ele>
        <time>2015-06-10T09:10:38.000Z</time>
      </trkpt>
      <trkpt lat="48.70948" lon="1.74754">
        <ele>176</ele>
        <time>2015-06-10T09:10:46.000Z</time>
      </trkpt>
      <trkpt lat="48.7094" lon="1.74744">
        <ele>176</ele>
        <time>2015-06-10T09:10:53.000Z</time>
      </trkpt>
      <trkpt lat="48.70933" lon="1.74735">
        <ele>176</ele>
        <time>2015-06-10T09:11:00.000Z</time>
      </trkpt>
      <trkpt lat="48.70927" lon="1.74725">
        <ele>176</ele>
        <time>2015-06-10T09:11:07.000Z</time>
      </trkpt>
      <trkpt lat="48.7092" lon="1.74716">
        <ele>175.8</ele>
        <time>2015-06-10T09:11:13.000Z</time>
      </trkpt>
      <trkpt lat="48.70919" lon="1.74716">
        <ele>175.8</ele>
        <time>2015-06-10T09:11:19.000Z</time>
      </trkpt>
      <trkpt lat="48.70919" lon="1.74716">
        <ele>175.8</ele>
        <time>2015-06-10T09:11:21.000Z</time>
      </trkpt>
      <trkpt lat="48.70912" lon="1.74708">
        <ele>175.6</ele>
        <time>2015-06-10T09:11:45.000Z</time>
      </trkpt>
      <trkpt lat="48.70906" lon="1.74699">
        <ele>175.5</ele>
        <time>2015-06-10T09:11:51.000Z</time>
      </trkpt>
      <trkpt lat="48.70901" lon="1.7469">
        <ele>175.6</ele>
        <time>2015-06-10T09:11:58.000Z</time>
      </trkpt>
      <trkpt lat="48.709" lon="1.74689">
        <ele>175.6</ele>
        <time>2015-06-10T09:11:59.000Z</time>
      </trkpt>
      <trkpt lat="48.70893" lon="1.74682">
        <ele>175.5</ele>
        <time>2015-06-10T09:12:05.000Z</time>
      </trkpt>
      <trkpt lat="48.70887" lon="1.74675">
        <ele>175.3</ele>
        <time>2015-06-10T09:12:11.000Z</time>
      </trkpt>
      <trkpt lat="48.70886" lon="1.74673">
        <ele>175.3</ele>
        <time>2015-06-10T09:12:12.000Z</time>
      </trkpt>
      <trkpt lat="48.70875" lon="1.74658">
        <ele>175.5</ele>
        <time>2015-06-10T09:12:23.000Z</time>
      </trkpt>
      <trkpt lat="48.70868" lon="1.74648">
        <ele>175.4</ele>
        <time>2015-06-10T09:12:30.000Z</time>
      </trkpt>
      <trkpt lat="48.70861" lon="1.74639">
        <ele>175</ele>
        <time>2015-06-10T09:12:38.000Z</time>
      </trkpt>
      <trkpt lat="48.70855" lon="1.74629">
        <ele>175.5</ele>
        <time>2015-06-10T09:12:44.000Z</time>
      </trkpt>
      <trkpt lat="48.70848" lon="1.7462">
        <ele>175.8</ele>
        <time>2015-06-10T09:12:51.000Z</time>
      </trkpt>
      <trkpt lat="48.70841" lon="1.74609">
        <ele>176</ele>
        <time>2015-06-10T09:12:59.000Z</time>
      </trkpt>
      <trkpt lat="48.70832" lon="1.74599">
        <ele>176</ele>
        <time>2015-06-10T09:13:07.000Z</time>
      </trkpt>
      <trkpt lat="48.70824" lon="1.74587">
        <ele>176</ele>
        <time>2015-06-10T09:13:16.000Z</time>
      </trkpt>
      <trkpt lat="48.70814" lon="1.74576">
        <ele>176</ele>
        <time>2015-06-10T09:13:25.000Z</time>
      </trkpt>
      <trkpt lat="48.7081" lon="1.74571">
        <ele>176</ele>
        <time>2015-06-10T09:13:31.000Z</time>
      </trkpt>
      <trkpt lat="48.70805" lon="1.74566">
        <ele>176</ele>
        <time>2015-06-10T09:13:36.000Z</time>
      </trkpt>
      <trkpt lat="48.708" lon="1.74559">
        <ele>176.2</ele>
        <time>2015-06-10T09:13:42.000Z</time>
      </trkpt>
      <trkpt lat="48.70796" lon="1.74556">
        <ele>176.3</ele>
        <time>2015-06-10T09:13:46.000Z</time>
      </trkpt>
      <trkpt lat="48.7079" lon="1.74548">
        <ele>176.4</ele>
        <time>2015-06-10T09:13:55.000Z</time>
      </trkpt>
      <trkpt lat="48.70782" lon="1.74539">
        <ele>176.3</ele>
        <time>2015-06-10T09:14:03.000Z</time>
      </trkpt>
      <trkpt lat="48.70781" lon="1.74537">
        <ele>176.3</ele>
        <time>2015-06-10T09:14:05.000Z</time>
      </trkpt>
      <trkpt lat="48.70777" lon="1.74533">
        <ele>176.2</ele>
        <time>2015-06-10T09:14:10.000Z</time>
      </trkpt>
      <trkpt lat="48.70774" lon="1.74527">
        <ele>176</ele>
        <time>2015-06-10T09:14:14.000Z</time>
      </trkpt>
      <trkpt lat="48.70768" lon="1.74522">
        <ele>176</ele>
        <time>2015-06-10T09:14:20.000Z</time>
      </trkpt>
      <trkpt lat="48.70765" lon="1.74517">
        <ele>176</ele>
        <time>2015-06-10T09:14:24.000Z</time>
      </trkpt>
      <trkpt lat="48.70764" lon="1.74515">
        <ele>176</ele>
        <time>2015-06-10T09:14:28.000Z</time>
      </trkpt>
      <trkpt lat="48.70752" lon="1.74501">
        <ele>176</ele>
        <time>2015-06-10T09:14:44.000Z</time>
      </trkpt>
      <trkpt lat="48.70748" lon="1.74497">
        <ele>176</ele>
        <time>2015-06-10T09:14:46.000Z</time>
      </trkpt>
      <trkpt lat="48.70743" lon="1.74489">
        <ele>176</ele>
        <time>2015-06-10T09:14:52.000Z</time>
      </trkpt>
      <trkpt lat="48.70738" lon="1.74483">
        <ele>176</ele>
        <time>2015-06-10T09:14:58.000Z</time>
      </trkpt>
      <trkpt lat="48.70731" lon="1.74471">
        <ele>176</ele>
        <time>2015-06-10T09:15:06.000Z</time>
      </trkpt>
      <trkpt lat="48.70729" lon="1.74464">
        <ele>176</ele>
        <time>2015-06-10T09:15:12.000Z</time>
      </trkpt>
      <trkpt lat="48.70732" lon="1.74456">
        <ele>176</ele>
        <time>2015-06-10T09:15:49.000Z</time>
      </trkpt>
      <trkpt lat="48.70736" lon="1.74452">
        <ele>176</ele>
        <time>2015-06-10T09:15:54.000Z</time>
      </trkpt>
      <trkpt lat="48.70742" lon="1.74448">
        <ele>176</ele>
        <time>2015-06-10T09:16:00.000Z</time>
      </trkpt>
      <trkpt lat="48.70748" lon="1.74447">
        <ele>176</ele>
        <time>2015-06-10T09:16:03.000Z</time>
      </trkpt>
      <trkpt lat="48.70752" lon="1.74445">
        <ele>176</ele>
        <time>2015-06-10T09:16:07.000Z</time>
      </trkpt>
      <trkpt lat="48.70755" lon="1.7444">
        <ele>176</ele>
        <time>2015-06-10T09:16:11.000Z</time>
      </trkpt>
      <trkpt lat="48.70763" lon="1.74435">
        <ele>176</ele>
        <time>2015-06-10T09:16:18.000Z</time>
      </trkpt>
      <trkpt lat="48.70772" lon="1.74426">
        <ele>176</ele>
        <time>2015-06-10T09:16:27.000Z</time>
      </trkpt>
      <trkpt lat="48.70775" lon="1.74424">
        <ele>176</ele>
        <time>2015-06-10T09:16:29.000Z</time>
      </trkpt>
      <trkpt lat="48.70781" lon="1.74421">
        <ele>176</ele>
        <time>2015-06-10T09:16:34.000Z</time>
      </trkpt>
      <trkpt lat="48.70783" lon="1.74419">
        <ele>176</ele>
        <time>2015-06-10T09:16:36.000Z</time>
      </trkpt>
      <trkpt lat="48.7079" lon="1.74415">
        <ele>176</ele>
        <time>2015-06-10T09:16:41.000Z</time>
      </trkpt>
      <trkpt lat="48.70794" lon="1.74414">
        <ele>176</ele>
        <time>2015-06-10T09:16:45.000Z</time>
      </trkpt>
      <trkpt lat="48.70802" lon="1.74412">
        <ele>176</ele>
        <time>2015-06-10T09:16:52.000Z</time>
      </trkpt>
      <trkpt lat="48.70806" lon="1.74409">
        <ele>176</ele>
        <time>2015-06-10T09:16:55.000Z</time>
      </trkpt>
      <trkpt lat="48.7081" lon="1.74404">
        <ele>176</ele>
        <time>2015-06-10T09:17:00.000Z</time>
      </trkpt>
      <trkpt lat="48.70816" lon="1.74401">
        <ele>176</ele>
        <time>2015-06-10T09:17:05.000Z</time>
      </trkpt>
      <trkpt lat="48.70824" lon="1.74391">
        <ele>176</ele>
        <time>2015-06-10T09:17:13.000Z</time>
      </trkpt>
      <trkpt lat="48.70828" lon="1.74387">
        <ele>176</ele>
        <time>2015-06-10T09:17:17.000Z</time>
      </trkpt>
      <trkpt lat="48.70835" lon="1.74381">
        <ele>176</ele>
        <time>2015-06-10T09:17:23.000Z</time>
      </trkpt>
      <trkpt lat="48.70839" lon="1.74373">
        <ele>176</ele>
        <time>2015-06-10T09:17:29.000Z</time>
      </trkpt>
      <trkpt lat="48.7084" lon="1.74372">
        <ele>176</ele>
        <time>2015-06-10T09:17:30.000Z</time>
      </trkpt>
      <trkpt lat="48.70843" lon="1.74367">
        <ele>176</ele>
        <time>2015-06-10T09:17:36.000Z</time>
      </trkpt>
      <trkpt lat="48.70847" lon="1.74363">
        <ele>176</ele>
        <time>2015-06-10T09:17:42.000Z</time>
      </trkpt>
      <trkpt lat="48.70851" lon="1.74354">
        <ele>176</ele>
        <time>2015-06-10T09:17:48.000Z</time>
      </trkpt>
      <trkpt lat="48.70857" lon="1.74344">
        <ele>176</ele>
        <time>2015-06-10T09:17:55.000Z</time>
      </trkpt>
      <trkpt lat="48.70862" lon="1.74336">
        <ele>176</ele>
        <time>2015-06-10T09:18:02.000Z</time>
      </trkpt>
      <trkpt lat="48.70866" lon="1.7433">
        <ele>176</ele>
        <time>2015-06-10T09:18:07.000Z</time>
      </trkpt>
      <trkpt lat="48.70869" lon="1.74324">
        <ele>176</ele>
        <time>2015-06-10T09:18:11.000Z</time>
      </trkpt>
      <trkpt lat="48.70872" lon="1.74319">
        <ele>176</ele>
        <time>2015-06-10T09:18:14.000Z</time>
      </trkpt>
      <trkpt lat="48.70874" lon="1.74315">
        <ele>176</ele>
        <time>2015-06-10T09:18:19.000Z</time>
      </trkpt>
      <trkpt lat="48.70877" lon="1.74308">
        <ele>176</ele>
        <time>2015-06-10T09:18:24.000Z</time>
      </trkpt>
      <trkpt lat="48.70882" lon="1.743">
        <ele>176.1</ele>
        <time>2015-06-10T09:18:30.000Z</time>
      </trkpt>
      <trkpt lat="48.70884" lon="1.74296">
        <ele>176.1</ele>
        <time>2015-06-10T09:18:32.000Z</time>
      </trkpt>
      <trkpt lat="48.70887" lon="1.7429">
        <ele>176</ele>
        <time>2015-06-10T09:18:38.000Z</time>
      </trkpt>
      <trkpt lat="48.70893" lon="1.7428">
        <ele>176</ele>
        <time>2015-06-10T09:18:44.000Z</time>
      </trkpt>
      <trkpt lat="48.70893" lon="1.74278">
        <ele>176</ele>
        <time>2015-06-10T09:18:46.000Z</time>
      </trkpt>
      <trkpt lat="48.70897" lon="1.7427">
        <ele>176.2</ele>
        <time>2015-06-10T09:18:51.000Z</time>
      </trkpt>
      <trkpt lat="48.70903" lon="1.74259">
        <ele>176.3</ele>
        <time>2015-06-10T09:18:58.000Z</time>
      </trkpt>
      <trkpt lat="48.70907" lon="1.74247">
        <ele>176.4</ele>
        <time>2015-06-10T09:19:05.000Z</time>
      </trkpt>
      <trkpt lat="48.70909" lon="1.74244">
        <ele>176.4</ele>
        <time>2015-06-10T09:19:07.000Z</time>
      </trkpt>
      <trkpt lat="48.70909" lon="1.74242">
        <ele>176.5</ele>
        <time>2015-06-10T09:19:10.000Z</time>
      </trkpt>
      <trkpt lat="48.70924" lon="1.74199">
        <ele>177</ele>
        <time>2015-06-10T09:20:02.000Z</time>
      </trkpt>
      <trkpt lat="48.70923" lon="1.74195">
        <ele>177</ele>
        <time>2015-06-10T09:20:03.000Z</time>
      </trkpt>
      <trkpt lat="48.70924" lon="1.74188">
        <ele>177</ele>
        <time>2015-06-10T09:20:07.000Z</time>
      </trkpt>
      <trkpt lat="48.70926" lon="1.74179">
        <ele>177</ele>
        <time>2015-06-10T09:20:14.000Z</time>
      </trkpt>
      <trkpt lat="48.70927" lon="1.74175">
        <ele>177</ele>
        <time>2015-06-10T09:20:21.000Z</time>
      </trkpt>
      <trkpt lat="48.70939" lon="1.7413">
        <ele>177</ele>
        <time>2015-06-10T09:20:58.000Z</time>
      </trkpt>
      <trkpt lat="48.70941" lon="1.74118">
        <ele>177</ele>
        <time>2015-06-10T09:21:04.000Z</time>
      </trkpt>
      <trkpt lat="48.70945" lon="1.74106">
        <ele>177</ele>
        <time>2015-06-10T09:21:12.000Z</time>
      </trkpt>
      <trkpt lat="48.70947" lon="1.74096">
        <ele>177</ele>
        <time>2015-06-10T09:21:18.000Z</time>
      </trkpt>
      <trkpt lat="48.70949" lon="1.74082">
        <ele>177</ele>
        <time>2015-06-10T09:21:26.000Z</time>
      </trkpt>
      <trkpt lat="48.7095" lon="1.74081">
        <ele>177</ele>
        <time>2015-06-10T09:21:27.000Z</time>
      </trkpt>
      <trkpt lat="48.70952" lon="1.74075">
        <ele>177.1</ele>
        <time>2015-06-10T09:21:31.000Z</time>
      </trkpt>
      <trkpt lat="48.70955" lon="1.74059">
        <ele>177.3</ele>
        <time>2015-06-10T09:21:40.000Z</time>
      </trkpt>
      <trkpt lat="48.70956" lon="1.74054">
        <ele>177.5</ele>
        <time>2015-06-10T09:21:43.000Z</time>
      </trkpt>
      <trkpt lat="48.70959" lon="1.74045">
        <ele>177.7</ele>
        <time>2015-06-10T09:21:48.000Z</time>
      </trkpt>
      <trkpt lat="48.70963" lon="1.74033">
        <ele>177.9</ele>
        <time>2015-06-10T09:21:56.000Z</time>
      </trkpt>
      <trkpt lat="48.70966" lon="1.74025">
        <ele>178</ele>
        <time>2015-06-10T09:22:01.000Z</time>
      </trkpt>
      <trkpt lat="48.70969" lon="1.74019">
        <ele>178</ele>
        <time>2015-06-10T09:22:05.000Z</time>
      </trkpt>
      <trkpt lat="48.70972" lon="1.74009">
        <ele>178</ele>
        <time>2015-06-10T09:22:11.000Z</time>
      </trkpt>
      <trkpt lat="48.70974" lon="1.74003">
        <ele>178</ele>
        <time>2015-06-10T09:22:15.000Z</time>
      </trkpt>
      <trkpt lat="48.70975" lon="1.73992">
        <ele>178</ele>
        <time>2015-06-10T09:22:21.000Z</time>
      </trkpt>
      <trkpt lat="48.70977" lon="1.73981">
        <ele>178</ele>
        <time>2015-06-10T09:22:28.000Z</time>
      </trkpt>
      <trkpt lat="48.70978" lon="1.73967">
        <ele>177.9</ele>
        <time>2015-06-10T09:22:36.000Z</time>
      </trkpt>
      <trkpt lat="48.70979" lon="1.73954">
        <ele>177.5</ele>
        <time>2015-06-10T09:22:43.000Z</time>
      </trkpt>
      <trkpt lat="48.70981" lon="1.73941">
        <ele>177.4</ele>
        <time>2015-06-10T09:22:50.000Z</time>
      </trkpt>
      <trkpt lat="48.70983" lon="1.73922">
        <ele>177.9</ele>
        <time>2015-06-10T09:23:00.000Z</time>
      </trkpt>
      <trkpt lat="48.70985" lon="1.7391">
        <ele>178</ele>
        <time>2015-06-10T09:23:07.000Z</time>
      </trkpt>
      <trkpt lat="48.70985" lon="1.73903">
        <ele>178</ele>
        <time>2015-06-10T09:23:13.000Z</time>
      </trkpt>
      <trkpt lat="48.70985" lon="1.73897">
        <ele>178</ele>
        <time>2015-06-10T09:23:18.000Z</time>
      </trkpt>
      <trkpt lat="48.70988" lon="1.73891">
        <ele>178</ele>
        <time>2015-06-10T09:23:23.000Z</time>
      </trkpt>
      <trkpt lat="48.7099" lon="1.73887">
        <ele>178</ele>
        <time>2015-06-10T09:23:26.000Z</time>
      </trkpt>
      <trkpt lat="48.70992" lon="1.73881">
        <ele>178</ele>
        <time>2015-06-10T09:23:30.000Z</time>
      </trkpt>
      <trkpt lat="48.70994" lon="1.73874">
        <ele>178</ele>
        <time>2015-06-10T09:23:35.000Z</time>
      </trkpt>
      <trkpt lat="48.70999" lon="1.7386">
        <ele>178</ele>
        <time>2015-06-10T09:23:43.000Z</time>
      </trkpt>
      <trkpt lat="48.71003" lon="1.73846">
        <ele>177.9</ele>
        <time>2015-06-10T09:23:51.000Z</time>
      </trkpt>
      <trkpt lat="48.71005" lon="1.73839">
        <ele>177.8</ele>
        <time>2015-06-10T09:23:55.000Z</time>
      </trkpt>
      <trkpt lat="48.71007" lon="1.7383">
        <ele>177.8</ele>
        <time>2015-06-10T09:24:00.000Z</time>
      </trkpt>
      <trkpt lat="48.7101" lon="1.73818">
        <ele>177.8</ele>
        <time>2015-06-10T09:24:06.000Z</time>
      </trkpt>
      <trkpt lat="48.7101" lon="1.73813">
        <ele>177.9</ele>
        <time>2015-06-10T09:24:10.000Z</time>
      </trkpt>
      <trkpt lat="48.71009" lon="1.7381">
        <ele>177.9</ele>
        <time>2015-06-10T09:24:14.000Z</time>
      </trkpt>
      <trkpt lat="48.71026" lon="1.73782">
        <ele>178</ele>
        <time>2015-06-10T09:24:58.000Z</time>
      </trkpt>
      <trkpt lat="48.71033" lon="1.73778">
        <ele>177.8</ele>
        <time>2015-06-10T09:25:04.000Z</time>
      </trkpt>
      <trkpt lat="48.71036" lon="1.73777">
        <ele>177.7</ele>
        <time>2015-06-10T09:25:08.000Z</time>
      </trkpt>
      <trkpt lat="48.71042" lon="1.73772">
        <ele>177.5</ele>
        <time>2015-06-10T09:25:14.000Z</time>
      </trkpt>
      <trkpt lat="48.71047" lon="1.73766">
        <ele>177.3</ele>
        <time>2015-06-10T09:25:21.000Z</time>
      </trkpt>
      <trkpt lat="48.71051" lon="1.73758">
        <ele>177.2</ele>
        <time>2015-06-10T09:25:27.000Z</time>
      </trkpt>
      <trkpt lat="48.71057" lon="1.73753">
        <ele>177</ele>
        <time>2015-06-10T09:25:32.000Z</time>
      </trkpt>
      <trkpt lat="48.71061" lon="1.73746">
        <ele>177.1</ele>
        <time>2015-06-10T09:25:37.000Z</time>
      </trkpt>
      <trkpt lat="48.71067" lon="1.73741">
        <ele>177.2</ele>
        <time>2015-06-10T09:25:45.000Z</time>
      </trkpt>
      <trkpt lat="48.71072" lon="1.73738">
        <ele>177.2</ele>
        <time>2015-06-10T09:25:52.000Z</time>
      </trkpt>
      <trkpt lat="48.71077" lon="1.73736">
        <ele>177.1</ele>
        <time>2015-06-10T09:25:56.000Z</time>
      </trkpt>
      <trkpt lat="48.71081" lon="1.73731">
        <ele>177</ele>
        <time>2015-06-10T09:26:00.000Z</time>
      </trkpt>
      <trkpt lat="48.71089" lon="1.73721">
        <ele>177.1</ele>
        <time>2015-06-10T09:26:08.000Z</time>
      </trkpt>
      <trkpt lat="48.71092" lon="1.73717">
        <ele>177.2</ele>
        <time>2015-06-10T09:26:11.000Z</time>
      </trkpt>
      <trkpt lat="48.71096" lon="1.73712">
        <ele>177.4</ele>
        <time>2015-06-10T09:26:15.000Z</time>
      </trkpt>
      <trkpt lat="48.71102" lon="1.73705">
        <ele>177.6</ele>
        <time>2015-06-10T09:26:21.000Z</time>
      </trkpt>
      <trkpt lat="48.71105" lon="1.73701">
        <ele>177.8</ele>
        <time>2015-06-10T09:26:25.000Z</time>
      </trkpt>
      <trkpt lat="48.71109" lon="1.73695">
        <ele>178</ele>
        <time>2015-06-10T09:26:30.000Z</time>
      </trkpt>
      <trkpt lat="48.71113" lon="1.73691">
        <ele>178</ele>
        <time>2015-06-10T09:26:34.000Z</time>
      </trkpt>
      <trkpt lat="48.71118" lon="1.73684">
        <ele>178</ele>
        <time>2015-06-10T09:26:39.000Z</time>
      </trkpt>
      <trkpt lat="48.71119" lon="1.73682">
        <ele>178</ele>
        <time>2015-06-10T09:26:40.000Z</time>
      </trkpt>
      <trkpt lat="48.71125" lon="1.73675">
        <ele>178</ele>
        <time>2015-06-10T09:26:46.000Z</time>
      </trkpt>
      <trkpt lat="48.71126" lon="1.73674">
        <ele>178</ele>
        <time>2015-06-10T09:26:47.000Z</time>
      </trkpt>
      <trkpt lat="48.71128" lon="1.73673">
        <ele>178</ele>
        <time>2015-06-10T09:26:49.000Z</time>
      </trkpt>
      <trkpt lat="48.71131" lon="1.73669">
        <ele>178</ele>
        <time>2015-06-10T09:26:53.000Z</time>
      </trkpt>
      <trkpt lat="48.71134" lon="1.73666">
        <ele>178</ele>
        <time>2015-06-10T09:26:59.000Z</time>
      </trkpt>
      <trkpt lat="48.7115" lon="1.73656">
        <ele>178</ele>
        <time>2015-06-10T09:27:30.000Z</time>
      </trkpt>
      <trkpt lat="48.71153" lon="1.73653">
        <ele>178</ele>
        <time>2015-06-10T09:27:31.000Z</time>
      </trkpt>
      <trkpt lat="48.71158" lon="1.73645">
        <ele>178</ele>
        <time>2015-06-10T09:27:38.000Z</time>
      </trkpt>
      <trkpt lat="48.71165" lon="1.73641">
        <ele>178</ele>
        <time>2015-06-10T09:27:44.000Z</time>
      </trkpt>
      <trkpt lat="48.7117" lon="1.73634">
        <ele>178</ele>
        <time>2015-06-10T09:27:50.000Z</time>
      </trkpt>
      <trkpt lat="48.71174" lon="1.73632">
        <ele>178</ele>
        <time>2015-06-10T09:27:53.000Z</time>
      </trkpt>
      <trkpt lat="48.71178" lon="1.73626">
        <ele>178</ele>
        <time>2015-06-10T09:27:57.000Z</time>
      </trkpt>
      <trkpt lat="48.71184" lon="1.7362">
        <ele>178</ele>
        <time>2015-06-10T09:28:04.000Z</time>
      </trkpt>
      <trkpt lat="48.71186" lon="1.73617">
        <ele>178</ele>
        <time>2015-06-10T09:28:06.000Z</time>
      </trkpt>
      <trkpt lat="48.71195" lon="1.73609">
        <ele>178</ele>
        <time>2015-06-10T09:28:13.000Z</time>
      </trkpt>
      <trkpt lat="48.71199" lon="1.73606">
        <ele>178</ele>
        <time>2015-06-10T09:28:20.000Z</time>
      </trkpt>
      <trkpt lat="48.71201" lon="1.73602">
        <ele>178</ele>
        <time>2015-06-10T09:28:23.000Z</time>
      </trkpt>
      <trkpt lat="48.71204" lon="1.73595">
        <ele>178</ele>
        <time>2015-06-10T09:28:30.000Z</time>
      </trkpt>
      <trkpt lat="48.71205" lon="1.73594">
        <ele>178</ele>
        <time>2015-06-10T09:28:33.000Z</time>
      </trkpt>
      <trkpt lat="48.71206" lon="1.73594">
        <ele>178</ele>
        <time>2015-06-10T09:28:34.000Z</time>
      </trkpt>
      <trkpt lat="48.71207" lon="1.73595">
        <ele>178</ele>
        <time>2015-06-10T09:28:35.000Z</time>
      </trkpt>
      <trkpt lat="48.7121" lon="1.73594">
        <ele>178</ele>
        <time>2015-06-10T09:28:39.000Z</time>
      </trkpt>
      <trkpt lat="48.71202" lon="1.73596">
        <ele>178</ele>
        <time>2015-06-10T09:30:06.000Z</time>
      </trkpt>
      <trkpt lat="48.71211" lon="1.7361">
        <ele>178</ele>
        <time>2015-06-10T09:30:11.000Z</time>
      </trkpt>
      <trkpt lat="48.71213" lon="1.73611">
        <ele>178</ele>
        <time>2015-06-10T09:30:12.000Z</time>
      </trkpt>
      <trkpt lat="48.71224" lon="1.73612">
        <ele>177.9</ele>
        <time>2015-06-10T09:30:18.000Z</time>
      </trkpt>
      <trkpt lat="48.71225" lon="1.73612">
        <ele>177.9</ele>
        <time>2015-06-10T09:30:19.000Z</time>
      </trkpt>
      <trkpt lat="48.71235" lon="1.73615">
        <ele>177.5</ele>
        <time>2015-06-10T09:30:27.000Z</time>
      </trkpt>
      <trkpt lat="48.71237" lon="1.73616">
        <ele>177.5</ele>
        <time>2015-06-10T09:30:29.000Z</time>
      </trkpt>
      <trkpt lat="48.71247" lon="1.73615">
        <ele>177.1</ele>
        <time>2015-06-10T09:30:35.000Z</time>
      </trkpt>
      <trkpt lat="48.71253" lon="1.73617">
        <ele>176.8</ele>
        <time>2015-06-10T09:30:39.000Z</time>
      </trkpt>
      <trkpt lat="48.71259" lon="1.73614">
        <ele>176.4</ele>
        <time>2015-06-10T09:30:45.000Z</time>
      </trkpt>
      <trkpt lat="48.71266" lon="1.73612">
        <ele>175.9</ele>
        <time>2015-06-10T09:30:50.000Z</time>
      </trkpt>
      <trkpt lat="48.71275" lon="1.73605">
        <ele>175.4</ele>
        <time>2015-06-10T09:30:57.000Z</time>
      </trkpt>
      <trkpt lat="48.71281" lon="1.73602">
        <ele>174.7</ele>
        <time>2015-06-10T09:31:01.000Z</time>
      </trkpt>
      <trkpt lat="48.71288" lon="1.73594">
        <ele>173.2</ele>
        <time>2015-06-10T09:31:07.000Z</time>
      </trkpt>
      <trkpt lat="48.71291" lon="1.7359">
        <ele>172.8</ele>
        <time>2015-06-10T09:31:10.000Z</time>
      </trkpt>
      <trkpt lat="48.71298" lon="1.73575">
        <ele>172</ele>
        <time>2015-06-10T09:31:18.000Z</time>
      </trkpt>
      <trkpt lat="48.71301" lon="1.73565">
        <ele>172.1</ele>
        <time>2015-06-10T09:31:24.000Z</time>
      </trkpt>
      <trkpt lat="48.71301" lon="1.73563">
        <ele>172.2</ele>
        <time>2015-06-10T09:31:25.000Z</time>
      </trkpt>
      <trkpt lat="48.71301" lon="1.73555">
        <ele>172.7</ele>
        <time>2015-06-10T09:31:29.000Z</time>
      </trkpt>
      <trkpt lat="48.71304" lon="1.73547">
        <ele>172.8</ele>
        <time>2015-06-10T09:31:34.000Z</time>
      </trkpt>
      <trkpt lat="48.7131" lon="1.73542">
        <ele>171.6</ele>
        <time>2015-06-10T09:31:40.000Z</time>
      </trkpt>
      <trkpt lat="48.71315" lon="1.73537">
        <ele>170.7</ele>
        <time>2015-06-10T09:31:44.000Z</time>
      </trkpt>
      <trkpt lat="48.71325" lon="1.73529">
        <ele>169.6</ele>
        <time>2015-06-10T09:31:49.000Z</time>
      </trkpt>
      <trkpt lat="48.71338" lon="1.73529">
        <ele>168.2</ele>
        <time>2015-06-10T09:31:54.000Z</time>
      </trkpt>
      <trkpt lat="48.71343" lon="1.73533">
        <ele>167.7</ele>
        <time>2015-06-10T09:31:59.000Z</time>
      </trkpt>
      <trkpt lat="48.71354" lon="1.73541">
        <ele>167.2</ele>
        <time>2015-06-10T09:32:07.000Z</time>
      </trkpt>
      <trkpt lat="48.71359" lon="1.73549">
        <ele>166</ele>
        <time>2015-06-10T09:32:13.000Z</time>
      </trkpt>
      <trkpt lat="48.71366" lon="1.73557">
        <ele>164.8</ele>
        <time>2015-06-10T09:32:19.000Z</time>
      </trkpt>
      <trkpt lat="48.71373" lon="1.73564">
        <ele>163.8</ele>
        <time>2015-06-10T09:32:25.000Z</time>
      </trkpt>
      <trkpt lat="48.71377" lon="1.73574">
        <ele>162.9</ele>
        <time>2015-06-10T09:32:31.000Z</time>
      </trkpt>
      <trkpt lat="48.71386" lon="1.73575">
        <ele>163.4</ele>
        <time>2015-06-10T09:32:37.000Z</time>
      </trkpt>
      <trkpt lat="48.71389" lon="1.73576">
        <ele>163.5</ele>
        <time>2015-06-10T09:32:39.000Z</time>
      </trkpt>
      <trkpt lat="48.71396" lon="1.73575">
        <ele>162.9</ele>
        <time>2015-06-10T09:32:45.000Z</time>
      </trkpt>
      <trkpt lat="48.71398" lon="1.73575">
        <ele>162.8</ele>
        <time>2015-06-10T09:32:46.000Z</time>
      </trkpt>
      <trkpt lat="48.71414" lon="1.73572">
        <ele>161.7</ele>
        <time>2015-06-10T09:32:54.000Z</time>
      </trkpt>
      <trkpt lat="48.71422" lon="1.73573">
        <ele>160.6</ele>
        <time>2015-06-10T09:33:01.000Z</time>
      </trkpt>
      <trkpt lat="48.71434" lon="1.73573">
        <ele>159</ele>
        <time>2015-06-10T09:33:09.000Z</time>
      </trkpt>
      <trkpt lat="48.71443" lon="1.7357">
        <ele>157.8</ele>
        <time>2015-06-10T09:33:15.000Z</time>
      </trkpt>
      <trkpt lat="48.71454" lon="1.73564">
        <ele>155.8</ele>
        <time>2015-06-10T09:33:23.000Z</time>
      </trkpt>
      <trkpt lat="48.71456" lon="1.73563">
        <ele>155.4</ele>
        <time>2015-06-10T09:33:25.000Z</time>
      </trkpt>
      <trkpt lat="48.71469" lon="1.73557">
        <ele>153.5</ele>
        <time>2015-06-10T09:33:32.000Z</time>
      </trkpt>
      <trkpt lat="48.7148" lon="1.73554">
        <ele>152.1</ele>
        <time>2015-06-10T09:33:40.000Z</time>
      </trkpt>
      <trkpt lat="48.71488" lon="1.73552">
        <ele>151.1</ele>
        <time>2015-06-10T09:33:45.000Z</time>
      </trkpt>
      <trkpt lat="48.71497" lon="1.73548">
        <ele>150.1</ele>
        <time>2015-06-10T09:33:50.000Z</time>
      </trkpt>
      <trkpt lat="48.71502" lon="1.7355">
        <ele>149.6</ele>
        <time>2015-06-10T09:33:54.000Z</time>
      </trkpt>
      <trkpt lat="48.71512" lon="1.73547">
        <ele>148.8</ele>
        <time>2015-06-10T09:34:01.000Z</time>
      </trkpt>
      <trkpt lat="48.71513" lon="1.73545">
        <ele>148.7</ele>
        <time>2015-06-10T09:34:02.000Z</time>
      </trkpt>
      <trkpt lat="48.71522" lon="1.73543">
        <ele>148.2</ele>
        <time>2015-06-10T09:34:06.000Z</time>
      </trkpt>
      <trkpt lat="48.71531" lon="1.73543">
        <ele>147.7</ele>
        <time>2015-06-10T09:34:11.000Z</time>
      </trkpt>
      <trkpt lat="48.71542" lon="1.73542">
        <ele>147.2</ele>
        <time>2015-06-10T09:34:18.000Z</time>
      </trkpt>
      <trkpt lat="48.71548" lon="1.73541">
        <ele>147</ele>
        <time>2015-06-10T09:34:22.000Z</time>
      </trkpt>
      <trkpt lat="48.71556" lon="1.73542">
        <ele>146.4</ele>
        <time>2015-06-10T09:34:27.000Z</time>
      </trkpt>
      <trkpt lat="48.71558" lon="1.73541">
        <ele>146.3</ele>
        <time>2015-06-10T09:34:29.000Z</time>
      </trkpt>
      <trkpt lat="48.71562" lon="1.7354">
        <ele>145.9</ele>
        <time>2015-06-10T09:34:33.000Z</time>
      </trkpt>
      <trkpt lat="48.7157" lon="1.73535">
        <ele>145.4</ele>
        <time>2015-06-10T09:34:38.000Z</time>
      </trkpt>
      <trkpt lat="48.71571" lon="1.73534">
        <ele>145.3</ele>
        <time>2015-06-10T09:34:39.000Z</time>
      </trkpt>
      <trkpt lat="48.71576" lon="1.73534">
        <ele>144.7</ele>
        <time>2015-06-10T09:34:43.000Z</time>
      </trkpt>
      <trkpt lat="48.71587" lon="1.73533">
        <ele>143.5</ele>
        <time>2015-06-10T09:34:51.000Z</time>
      </trkpt>
      <trkpt lat="48.71596" lon="1.73532">
        <ele>143</ele>
        <time>2015-06-10T09:34:57.000Z</time>
      </trkpt>
      <trkpt lat="48.71603" lon="1.73529">
        <ele>142.6</ele>
        <time>2015-06-10T09:35:02.000Z</time>
      </trkpt>
      <trkpt lat="48.71605" lon="1.7353">
        <ele>142.3</ele>
        <time>2015-06-10T09:35:04.000Z</time>
      </trkpt>
      <trkpt lat="48.71617" lon="1.73526">
        <ele>141.9</ele>
        <time>2015-06-10T09:35:11.000Z</time>
      </trkpt>
      <trkpt lat="48.71629" lon="1.73519">
        <ele>141.7</ele>
        <time>2015-06-10T09:35:19.000Z</time>
      </trkpt>
      <trkpt lat="48.71635" lon="1.73518">
        <ele>141.5</ele>
        <time>2015-06-10T09:35:23.000Z</time>
      </trkpt>
      <trkpt lat="48.71644" lon="1.73514">
        <ele>141.2</ele>
        <time>2015-06-10T09:35:29.000Z</time>
      </trkpt>
      <trkpt lat="48.71653" lon="1.73512">
        <ele>140.8</ele>
        <time>2015-06-10T09:35:36.000Z</time>
      </trkpt>
      <trkpt lat="48.71664" lon="1.7351">
        <ele>140.2</ele>
        <time>2015-06-10T09:35:43.000Z</time>
      </trkpt>
      <trkpt lat="48.71674" lon="1.73508">
        <ele>139.5</ele>
        <time>2015-06-10T09:35:50.000Z</time>
      </trkpt>
      <trkpt lat="48.71681" lon="1.73507">
        <ele>139</ele>
        <time>2015-06-10T09:35:55.000Z</time>
      </trkpt>
      <trkpt lat="48.7169" lon="1.73507">
        <ele>138.3</ele>
        <time>2015-06-10T09:36:01.000Z</time>
      </trkpt>
      <trkpt lat="48.71696" lon="1.73505">
        <ele>137.8</ele>
        <time>2015-06-10T09:36:05.000Z</time>
      </trkpt>
      <trkpt lat="48.71702" lon="1.73504">
        <ele>137.3</ele>
        <time>2015-06-10T09:36:08.000Z</time>
      </trkpt>
      <trkpt lat="48.71707" lon="1.73505">
        <ele>136.8</ele>
        <time>2015-06-10T09:36:11.000Z</time>
      </trkpt>
      <trkpt lat="48.71714" lon="1.73503">
        <ele>136.1</ele>
        <time>2015-06-10T09:36:16.000Z</time>
      </trkpt>
      <trkpt lat="48.71726" lon="1.735">
        <ele>134.8</ele>
        <time>2015-06-10T09:36:22.000Z</time>
      </trkpt>
      <trkpt lat="48.71734" lon="1.73499">
        <ele>134.2</ele>
        <time>2015-06-10T09:36:28.000Z</time>
      </trkpt>
      <trkpt lat="48.71743" lon="1.73495">
        <ele>133.7</ele>
        <time>2015-06-10T09:36:34.000Z</time>
      </trkpt>
      <trkpt lat="48.71754" lon="1.73492">
        <ele>133.1</ele>
        <time>2015-06-10T09:36:41.000Z</time>
      </trkpt>
      <trkpt lat="48.71766" lon="1.73492">
        <ele>132.5</ele>
        <time>2015-06-10T09:36:50.000Z</time>
      </trkpt>
      <trkpt lat="48.71775" lon="1.73489">
        <ele>132.2</ele>
        <time>2015-06-10T09:36:56.000Z</time>
      </trkpt>
      <trkpt lat="48.71787" lon="1.73486">
        <ele>131.8</ele>
        <time>2015-06-10T09:37:04.000Z</time>
      </trkpt>
      <trkpt lat="48.71796" lon="1.73484">
        <ele>131.6</ele>
        <time>2015-06-10T09:37:10.000Z</time>
      </trkpt>
      <trkpt lat="48.71804" lon="1.73477">
        <ele>131.2</ele>
        <time>2015-06-10T09:37:17.000Z</time>
      </trkpt>
      <trkpt lat="48.71805" lon="1.73475">
        <ele>131.1</ele>
        <time>2015-06-10T09:37:21.000Z</time>
      </trkpt>
      <trkpt lat="48.71814" lon="1.7346">
        <ele>130.6</ele>
        <time>2015-06-10T09:37:51.000Z</time>
      </trkpt>
      <trkpt lat="48.71818" lon="1.73463">
        <ele>130.7</ele>
        <time>2015-06-10T09:37:55.000Z</time>
      </trkpt>
      <trkpt lat="48.71818" lon="1.73465">
        <ele>130.7</ele>
        <time>2015-06-10T09:37:59.000Z</time>
      </trkpt>
      <trkpt lat="48.71829" lon="1.73467">
        <ele>130.8</ele>
        <time>2015-06-10T09:38:09.000Z</time>
      </trkpt>
      <trkpt lat="48.71839" lon="1.73466">
        <ele>130.8</ele>
        <time>2015-06-10T09:38:15.000Z</time>
      </trkpt>
      <trkpt lat="48.7185" lon="1.73463">
        <ele>130.7</ele>
        <time>2015-06-10T09:38:23.000Z</time>
      </trkpt>
      <trkpt lat="48.71856" lon="1.73462">
        <ele>130.6</ele>
        <time>2015-06-10T09:38:28.000Z</time>
      </trkpt>
      <trkpt lat="48.71861" lon="1.73463">
        <ele>130.7</ele>
        <time>2015-06-10T09:38:33.000Z</time>
      </trkpt>
      <trkpt lat="48.71866" lon="1.73463">
        <ele>130.7</ele>
        <time>2015-06-10T09:38:37.000Z</time>
      </trkpt>
      <trkpt lat="48.71872" lon="1.73462">
        <ele>130.6</ele>
        <time>2015-06-10T09:38:42.000Z</time>
      </trkpt>
      <trkpt lat="48.7188" lon="1.73463">
        <ele>130.7</ele>
        <time>2015-06-10T09:38:46.000Z</time>
      </trkpt>
      <trkpt lat="48.71891" lon="1.73458">
        <ele>130.4</ele>
        <time>2015-06-10T09:38:53.000Z</time>
      </trkpt>
      <trkpt lat="48.719" lon="1.73457">
        <ele>130.1</ele>
        <time>2015-06-10T09:39:00.000Z</time>
      </trkpt>
      <trkpt lat="48.71907" lon="1.73456">
        <ele>129.7</ele>
        <time>2015-06-10T09:39:05.000Z</time>
      </trkpt>
      <trkpt lat="48.71917" lon="1.73454">
        <ele>129.3</ele>
        <time>2015-06-10T09:39:11.000Z</time>
      </trkpt>
      <trkpt lat="48.71923" lon="1.73453">
        <ele>129.1</ele>
        <time>2015-06-10T09:39:15.000Z</time>
      </trkpt>
      <trkpt lat="48.71928" lon="1.73453">
        <ele>128.9</ele>
        <time>2015-06-10T09:39:19.000Z</time>
      </trkpt>
      <trkpt lat="48.71931" lon="1.73453">
        <ele>128.8</ele>
        <time>2015-06-10T09:39:21.000Z</time>
      </trkpt>
      <trkpt lat="48.7194" lon="1.73449">
        <ele>128.3</ele>
        <time>2015-06-10T09:39:27.000Z</time>
      </trkpt>
      <trkpt lat="48.71945" lon="1.73448">
        <ele>128.1</ele>
        <time>2015-06-10T09:39:31.000Z</time>
      </trkpt>
      <trkpt lat="48.71956" lon="1.73445">
        <ele>127.6</ele>
        <time>2015-06-10T09:39:38.000Z</time>
      </trkpt>
      <trkpt lat="48.71964" lon="1.73445">
        <ele>127.3</ele>
        <time>2015-06-10T09:39:44.000Z</time>
      </trkpt>
      <trkpt lat="48.71973" lon="1.73443">
        <ele>127</ele>
        <time>2015-06-10T09:39:50.000Z</time>
      </trkpt>
      <trkpt lat="48.71982" lon="1.7344">
        <ele>126.6</ele>
        <time>2015-06-10T09:39:56.000Z</time>
      </trkpt>
      <trkpt lat="48.71991" lon="1.73435">
        <ele>126.3</ele>
        <time>2015-06-10T09:40:02.000Z</time>
      </trkpt>
      <trkpt lat="48.72002" lon="1.73433">
        <ele>125.9</ele>
        <time>2015-06-10T09:40:09.000Z</time>
      </trkpt>
      <trkpt lat="48.72008" lon="1.7343">
        <ele>125.7</ele>
        <time>2015-06-10T09:40:13.000Z</time>
      </trkpt>
      <trkpt lat="48.72014" lon="1.73431">
        <ele>125.5</ele>
        <time>2015-06-10T09:40:17.000Z</time>
      </trkpt>
      <trkpt lat="48.72024" lon="1.73427">
        <ele>125.1</ele>
        <time>2015-06-10T09:40:25.000Z</time>
      </trkpt>
      <trkpt lat="48.72025" lon="1.73426">
        <ele>125.1</ele>
        <time>2015-06-10T09:40:28.000Z</time>
      </trkpt>
      <trkpt lat="48.72031" lon="1.73423">
        <ele>124.9</ele>
        <time>2015-06-10T09:40:36.000Z</time>
      </trkpt>
      <trkpt lat="48.72034" lon="1.73421">
        <ele>124.8</ele>
        <time>2015-06-10T09:40:37.000Z</time>
      </trkpt>
      <trkpt lat="48.72039" lon="1.73415">
        <ele>124.6</ele>
        <time>2015-06-10T09:40:43.000Z</time>
      </trkpt>
      <trkpt lat="48.72046" lon="1.7341">
        <ele>124.3</ele>
        <time>2015-06-10T09:40:49.000Z</time>
      </trkpt>
      <trkpt lat="48.72054" lon="1.7341">
        <ele>124</ele>
        <time>2015-06-10T09:40:54.000Z</time>
      </trkpt>
      <trkpt lat="48.72059" lon="1.73411">
        <ele>124</ele>
        <time>2015-06-10T09:40:58.000Z</time>
      </trkpt>
      <trkpt lat="48.72068" lon="1.73409">
        <ele>124</ele>
        <time>2015-06-10T09:41:05.000Z</time>
      </trkpt>
      <trkpt lat="48.72077" lon="1.73409">
        <ele>124</ele>
        <time>2015-06-10T09:41:12.000Z</time>
      </trkpt>
      <trkpt lat="48.72087" lon="1.73406">
        <ele>123.9</ele>
        <time>2015-06-10T09:41:18.000Z</time>
      </trkpt>
      <trkpt lat="48.72095" lon="1.73404">
        <ele>123.6</ele>
        <time>2015-06-10T09:41:23.000Z</time>
      </trkpt>
      <trkpt lat="48.72102" lon="1.73401">
        <ele>123.3</ele>
        <time>2015-06-10T09:41:29.000Z</time>
      </trkpt>
      <trkpt lat="48.7211" lon="1.73401">
        <ele>123</ele>
        <time>2015-06-10T09:41:35.000Z</time>
      </trkpt>
      <trkpt lat="48.72112" lon="1.73401">
        <ele>123</ele>
        <time>2015-06-10T09:41:36.000Z</time>
      </trkpt>
      <trkpt lat="48.7212" lon="1.73397">
        <ele>123</ele>
        <time>2015-06-10T09:41:45.000Z</time>
      </trkpt>
      <trkpt lat="48.7212" lon="1.73397">
        <ele>123</ele>
        <time>2015-06-10T09:41:46.000Z</time>
      </trkpt>
      <trkpt lat="48.72126" lon="1.73396">
        <ele>123</ele>
        <time>2015-06-10T09:41:54.000Z</time>
      </trkpt>
      <trkpt lat="48.72131" lon="1.73396">
        <ele>123</ele>
        <time>2015-06-10T09:41:57.000Z</time>
      </trkpt>
      <trkpt lat="48.72143" lon="1.73395">
        <ele>122.9</ele>
        <time>2015-06-10T09:42:04.000Z</time>
      </trkpt>
      <trkpt lat="48.7215" lon="1.7339">
        <ele>122.6</ele>
        <time>2015-06-10T09:42:10.000Z</time>
      </trkpt>
      <trkpt lat="48.72161" lon="1.73386">
        <ele>122.2</ele>
        <time>2015-06-10T09:42:16.000Z</time>
      </trkpt>
      <trkpt lat="48.72163" lon="1.73388">
        <ele>122.1</ele>
        <time>2015-06-10T09:42:17.000Z</time>
      </trkpt>
      <trkpt lat="48.72167" lon="1.73389">
        <ele>122</ele>
        <time>2015-06-10T09:42:24.000Z</time>
      </trkpt>
      <trkpt lat="48.72171" lon="1.73386">
        <ele>121.8</ele>
        <time>2015-06-10T09:42:30.000Z</time>
      </trkpt>
      <trkpt lat="48.72175" lon="1.73384">
        <ele>121.7</ele>
        <time>2015-06-10T09:42:33.000Z</time>
      </trkpt>
      <trkpt lat="48.72183" lon="1.73383">
        <ele>121.4</ele>
        <time>2015-06-10T09:42:39.000Z</time>
      </trkpt>
      <trkpt lat="48.72189" lon="1.73384">
        <ele>121.2</ele>
        <time>2015-06-10T09:42:43.000Z</time>
      </trkpt>
      <trkpt lat="48.72194" lon="1.73391">
        <ele>121.1</ele>
        <time>2015-06-10T09:42:49.000Z</time>
      </trkpt>
      <trkpt lat="48.72202" lon="1.73387">
        <ele>121</ele>
        <time>2015-06-10T09:42:54.000Z</time>
      </trkpt>
      <trkpt lat="48.72206" lon="1.73388">
        <ele>121</ele>
        <time>2015-06-10T09:42:58.000Z</time>
      </trkpt>
      <trkpt lat="48.72211" lon="1.73387">
        <ele>121</ele>
        <time>2015-06-10T09:43:02.000Z</time>
      </trkpt>
      <trkpt lat="48.72219" lon="1.73389">
        <ele>121</ele>
        <time>2015-06-10T09:43:07.000Z</time>
      </trkpt>
      <trkpt lat="48.7223" lon="1.73387">
        <ele>120.7</ele>
        <time>2015-06-10T09:43:13.000Z</time>
      </trkpt>
      <trkpt lat="48.7224" lon="1.73384">
        <ele>120.4</ele>
        <time>2015-06-10T09:43:19.000Z</time>
      </trkpt>
      <trkpt lat="48.72248" lon="1.73389">
        <ele>120.1</ele>
        <time>2015-06-10T09:43:25.000Z</time>
      </trkpt>
      <trkpt lat="48.72255" lon="1.73388">
        <ele>120</ele>
        <time>2015-06-10T09:43:31.000Z</time>
      </trkpt>
      <trkpt lat="48.72256" lon="1.73389">
        <ele>120</ele>
        <time>2015-06-10T09:43:32.000Z</time>
      </trkpt>
      <trkpt lat="48.72263" lon="1.73393">
        <ele>120</ele>
        <time>2015-06-10T09:43:37.000Z</time>
      </trkpt>
      <trkpt lat="48.72275" lon="1.73394">
        <ele>120</ele>
        <time>2015-06-10T09:43:45.000Z</time>
      </trkpt>
      <trkpt lat="48.72278" lon="1.73394">
        <ele>120</ele>
        <time>2015-06-10T09:43:47.000Z</time>
      </trkpt>
      <trkpt lat="48.7228" lon="1.73394">
        <ele>120</ele>
        <time>2015-06-10T09:43:49.000Z</time>
      </trkpt>
      <trkpt lat="48.72294" lon="1.73393">
        <ele>120</ele>
        <time>2015-06-10T09:43:56.000Z</time>
      </trkpt>
      <trkpt lat="48.72302" lon="1.734">
        <ele>120</ele>
        <time>2015-06-10T09:44:01.000Z</time>
      </trkpt>
      <trkpt lat="48.72307" lon="1.73404">
        <ele>119.9</ele>
        <time>2015-06-10T09:44:06.000Z</time>
      </trkpt>
      <trkpt lat="48.72318" lon="1.73409">
        <ele>119.6</ele>
        <time>2015-06-10T09:44:12.000Z</time>
      </trkpt>
      <trkpt lat="48.72325" lon="1.73409">
        <ele>119.3</ele>
        <time>2015-06-10T09:44:18.000Z</time>
      </trkpt>
      <trkpt lat="48.72334" lon="1.73409">
        <ele>119</ele>
        <time>2015-06-10T09:44:24.000Z</time>
      </trkpt>
      <trkpt lat="48.72343" lon="1.73409">
        <ele>119.3</ele>
        <time>2015-06-10T09:44:30.000Z</time>
      </trkpt>
      <trkpt lat="48.72346" lon="1.7341">
        <ele>119.5</ele>
        <time>2015-06-10T09:44:32.000Z</time>
      </trkpt>
      <trkpt lat="48.72352" lon="1.73412">
        <ele>119.7</ele>
        <time>2015-06-10T09:44:36.000Z</time>
      </trkpt>
      <trkpt lat="48.72355" lon="1.73413">
        <ele>119.8</ele>
        <time>2015-06-10T09:44:38.000Z</time>
      </trkpt>
      <trkpt lat="48.72364" lon="1.73415">
        <ele>120</ele>
        <time>2015-06-10T09:44:45.000Z</time>
      </trkpt>
      <trkpt lat="48.72367" lon="1.73415">
        <ele>120</ele>
        <time>2015-06-10T09:44:47.000Z</time>
      </trkpt>
      <trkpt lat="48.72374" lon="1.7342">
        <ele>120</ele>
        <time>2015-06-10T09:44:51.000Z</time>
      </trkpt>
      <trkpt lat="48.72376" lon="1.7342">
        <ele>120</ele>
        <time>2015-06-10T09:44:53.000Z</time>
      </trkpt>
      <trkpt lat="48.72385" lon="1.73417">
        <ele>120</ele>
        <time>2015-06-10T09:44:59.000Z</time>
      </trkpt>
      <trkpt lat="48.72391" lon="1.73419">
        <ele>120.1</ele>
        <time>2015-06-10T09:45:04.000Z</time>
      </trkpt>
      <trkpt lat="48.72401" lon="1.7342">
        <ele>120.4</ele>
        <time>2015-06-10T09:45:10.000Z</time>
      </trkpt>
      <trkpt lat="48.72407" lon="1.73422">
        <ele>120.5</ele>
        <time>2015-06-10T09:45:15.000Z</time>
      </trkpt>
      <trkpt lat="48.72414" lon="1.73426">
        <ele>120.6</ele>
        <time>2015-06-10T09:45:20.000Z</time>
      </trkpt>
      <trkpt lat="48.72422" lon="1.7343">
        <ele>120.6</ele>
        <time>2015-06-10T09:45:26.000Z</time>
      </trkpt>
      <trkpt lat="48.72435" lon="1.73432">
        <ele>120.8</ele>
        <time>2015-06-10T09:45:33.000Z</time>
      </trkpt>
      <trkpt lat="48.72444" lon="1.73434">
        <ele>121</ele>
        <time>2015-06-10T09:45:38.000Z</time>
      </trkpt>
      <trkpt lat="48.72452" lon="1.73436">
        <ele>121.2</ele>
        <time>2015-06-10T09:45:43.000Z</time>
      </trkpt>
      <trkpt lat="48.72457" lon="1.73437">
        <ele>121.3</ele>
        <time>2015-06-10T09:45:46.000Z</time>
      </trkpt>
      <trkpt lat="48.72462" lon="1.73441">
        <ele>121.6</ele>
        <time>2015-06-10T09:45:51.000Z</time>
      </trkpt>
      <trkpt lat="48.72472" lon="1.73443">
        <ele>121.9</ele>
        <time>2015-06-10T09:45:57.000Z</time>
      </trkpt>
      <trkpt lat="48.72483" lon="1.73446">
        <ele>122</ele>
        <time>2015-06-10T09:46:05.000Z</time>
      </trkpt>
      <trkpt lat="48.72486" lon="1.73445">
        <ele>122</ele>
        <time>2015-06-10T09:46:08.000Z</time>
      </trkpt>
      <trkpt lat="48.72498" lon="1.73445">
        <ele>122</ele>
        <time>2015-06-10T09:46:14.000Z</time>
      </trkpt>
      <trkpt lat="48.72508" lon="1.73448">
        <ele>122.5</ele>
        <time>2015-06-10T09:46:19.000Z</time>
      </trkpt>
      <trkpt lat="48.72509" lon="1.73448">
        <ele>122.6</ele>
        <time>2015-06-10T09:46:20.000Z</time>
      </trkpt>
      <trkpt lat="48.72511" lon="1.73451">
        <ele>122.8</ele>
        <time>2015-06-10T09:46:26.000Z</time>
      </trkpt>
      <trkpt lat="48.72517" lon="1.73451">
        <ele>123.2</ele>
        <time>2015-06-10T09:46:34.000Z</time>
      </trkpt>
      <trkpt lat="48.72521" lon="1.73452">
        <ele>123.5</ele>
        <time>2015-06-10T09:46:36.000Z</time>
      </trkpt>
      <trkpt lat="48.72529" lon="1.73456">
        <ele>124</ele>
        <time>2015-06-10T09:46:41.000Z</time>
      </trkpt>
      <trkpt lat="48.72529" lon="1.73456">
        <ele>124</ele>
        <time>2015-06-10T09:46:42.000Z</time>
      </trkpt>
      <trkpt lat="48.72539" lon="1.73459">
        <ele>124.2</ele>
        <time>2015-06-10T09:46:50.000Z</time>
      </trkpt>
      <trkpt lat="48.72547" lon="1.73468">
        <ele>124.6</ele>
        <time>2015-06-10T09:46:55.000Z</time>
      </trkpt>
      <trkpt lat="48.72555" lon="1.73478">
        <ele>125</ele>
        <time>2015-06-10T09:47:00.000Z</time>
      </trkpt>
      <trkpt lat="48.72558" lon="1.73483">
        <ele>125</ele>
        <time>2015-06-10T09:47:02.000Z</time>
      </trkpt>
      <trkpt lat="48.72565" lon="1.73488">
        <ele>125.2</ele>
        <time>2015-06-10T09:47:08.000Z</time>
      </trkpt>
      <trkpt lat="48.72574" lon="1.73497">
        <ele>125.6</ele>
        <time>2015-06-10T09:47:16.000Z</time>
      </trkpt>
      <trkpt lat="48.72575" lon="1.73498">
        <ele>125.7</ele>
        <time>2015-06-10T09:47:17.000Z</time>
      </trkpt>
      <trkpt lat="48.72582" lon="1.73503">
        <ele>125.9</ele>
        <time>2015-06-10T09:47:22.000Z</time>
      </trkpt>
      <trkpt lat="48.72589" lon="1.73513">
        <ele>126</ele>
        <time>2015-06-10T09:47:28.000Z</time>
      </trkpt>
      <trkpt lat="48.72592" lon="1.73518">
        <ele>126</ele>
        <time>2015-06-10T09:47:31.000Z</time>
      </trkpt>
      <trkpt lat="48.72594" lon="1.7352">
        <ele>126</ele>
        <time>2015-06-10T09:47:33.000Z</time>
      </trkpt>
      <trkpt lat="48.72598" lon="1.73523">
        <ele>126</ele>
        <time>2015-06-10T09:47:37.000Z</time>
      </trkpt>
      <trkpt lat="48.72601" lon="1.73529">
        <ele>126</ele>
        <time>2015-06-10T09:47:42.000Z</time>
      </trkpt>
      <trkpt lat="48.72608" lon="1.73534">
        <ele>126</ele>
        <time>2015-06-10T09:47:47.000Z</time>
      </trkpt>
      <trkpt lat="48.72613" lon="1.73538">
        <ele>125.9</ele>
        <time>2015-06-10T09:47:51.000Z</time>
      </trkpt>
      <trkpt lat="48.72615" lon="1.73539">
        <ele>125.9</ele>
        <time>2015-06-10T09:47:52.000Z</time>
      </trkpt>
      <trkpt lat="48.72623" lon="1.73549">
        <ele>125.6</ele>
        <time>2015-06-10T09:47:59.000Z</time>
      </trkpt>
      <trkpt lat="48.72625" lon="1.73552">
        <ele>125.5</ele>
        <time>2015-06-10T09:48:01.000Z</time>
      </trkpt>
      <trkpt lat="48.72632" lon="1.73561">
        <ele>125.4</ele>
        <time>2015-06-10T09:48:07.000Z</time>
      </trkpt>
      <trkpt lat="48.72634" lon="1.73562">
        <ele>125.4</ele>
        <time>2015-06-10T09:48:08.000Z</time>
      </trkpt>
      <trkpt lat="48.72646" lon="1.73569">
        <ele>125.6</ele>
        <time>2015-06-10T09:48:17.000Z</time>
      </trkpt>
      <trkpt lat="48.72647" lon="1.73571">
        <ele>125.7</ele>
        <time>2015-06-10T09:48:18.000Z</time>
      </trkpt>
      <trkpt lat="48.72655" lon="1.73577">
        <ele>125.9</ele>
        <time>2015-06-10T09:48:24.000Z</time>
      </trkpt>
      <trkpt lat="48.72657" lon="1.73578">
        <ele>125.9</ele>
        <time>2015-06-10T09:48:25.000Z</time>
      </trkpt>
      <trkpt lat="48.7266" lon="1.73583">
        <ele>126</ele>
        <time>2015-06-10T09:48:28.000Z</time>
      </trkpt>
      <trkpt lat="48.72667" lon="1.73587">
        <ele>126.2</ele>
        <time>2015-06-10T09:48:34.000Z</time>
      </trkpt>
      <trkpt lat="48.72675" lon="1.73598">
        <ele>126.7</ele>
        <time>2015-06-10T09:48:42.000Z</time>
      </trkpt>
      <trkpt lat="48.72679" lon="1.73601">
        <ele>126.8</ele>
        <time>2015-06-10T09:48:46.000Z</time>
      </trkpt>
      <trkpt lat="48.72685" lon="1.73609">
        <ele>127</ele>
        <time>2015-06-10T09:48:52.000Z</time>
      </trkpt>
      <trkpt lat="48.72691" lon="1.73615">
        <ele>127.1</ele>
        <time>2015-06-10T09:48:57.000Z</time>
      </trkpt>
      <trkpt lat="48.72698" lon="1.73619">
        <ele>127.3</ele>
        <time>2015-06-10T09:49:03.000Z</time>
      </trkpt>
      <trkpt lat="48.72703" lon="1.73624">
        <ele>127.4</ele>
        <time>2015-06-10T09:49:07.000Z</time>
      </trkpt>
      <trkpt lat="48.72707" lon="1.73628">
        <ele>127.6</ele>
        <time>2015-06-10T09:49:13.000Z</time>
      </trkpt>
      <trkpt lat="48.72709" lon="1.73635">
        <ele>127.9</ele>
        <time>2015-06-10T09:49:18.000Z</time>
      </trkpt>
      <trkpt lat="48.72716" lon="1.73643">
        <ele>128.1</ele>
        <time>2015-06-10T09:49:24.000Z</time>
      </trkpt>
      <trkpt lat="48.72719" lon="1.73645">
        <ele>128.2</ele>
        <time>2015-06-10T09:49:26.000Z</time>
      </trkpt>
      <trkpt lat="48.72729" lon="1.73654">
        <ele>128.5</ele>
        <time>2015-06-10T09:49:34.000Z</time>
      </trkpt>
      <trkpt lat="48.72735" lon="1.73662">
        <ele>128.8</ele>
        <time>2015-06-10T09:49:40.000Z</time>
      </trkpt>
      <trkpt lat="48.7274" lon="1.7367">
        <ele>129.1</ele>
        <time>2015-06-10T09:49:45.000Z</time>
      </trkpt>
      <trkpt lat="48.72742" lon="1.73674">
        <ele>129.2</ele>
        <time>2015-06-10T09:49:48.000Z</time>
      </trkpt>
      <trkpt lat="48.7275" lon="1.7368">
        <ele>129.5</ele>
        <time>2015-06-10T09:49:55.000Z</time>
      </trkpt>
      <trkpt lat="48.72756" lon="1.73683">
        <ele>129.6</ele>
        <time>2015-06-10T09:50:00.000Z</time>
      </trkpt>
      <trkpt lat="48.72764" lon="1.73689">
        <ele>129.8</ele>
        <time>2015-06-10T09:50:06.000Z</time>
      </trkpt>
      <trkpt lat="48.72776" lon="1.73701">
        <ele>130.2</ele>
        <time>2015-06-10T09:50:14.000Z</time>
      </trkpt>
      <trkpt lat="48.72785" lon="1.73713">
        <ele>130.5</ele>
        <time>2015-06-10T09:50:21.000Z</time>
      </trkpt>
      <trkpt lat="48.72793" lon="1.73722">
        <ele>130.5</ele>
        <time>2015-06-10T09:50:27.000Z</time>
      </trkpt>
      <trkpt lat="48.72799" lon="1.7373">
        <ele>130.5</ele>
        <time>2015-06-10T09:50:33.000Z</time>
      </trkpt>
      <trkpt lat="48.72801" lon="1.73732">
        <ele>130.5</ele>
        <time>2015-06-10T09:50:35.000Z</time>
      </trkpt>
      <trkpt lat="48.72806" lon="1.73739">
        <ele>130.6</ele>
        <time>2015-06-10T09:50:39.000Z</time>
      </trkpt>
      <trkpt lat="48.72814" lon="1.73746">
        <ele>130.9</ele>
        <time>2015-06-10T09:50:46.000Z</time>
      </trkpt>
      <trkpt lat="48.72817" lon="1.73747">
        <ele>130.9</ele>
        <time>2015-06-10T09:50:48.000Z</time>
      </trkpt>
      <trkpt lat="48.72824" lon="1.73756">
        <ele>131.2</ele>
        <time>2015-06-10T09:50:55.000Z</time>
      </trkpt>
      <trkpt lat="48.72832" lon="1.73766">
        <ele>131.6</ele>
        <time>2015-06-10T09:51:02.000Z</time>
      </trkpt>
      <trkpt lat="48.72837" lon="1.7377">
        <ele>131.8</ele>
        <time>2015-06-10T09:51:06.000Z</time>
      </trkpt>
      <trkpt lat="48.72844" lon="1.73777">
        <ele>132.3</ele>
        <time>2015-06-10T09:51:11.000Z</time>
      </trkpt>
      <trkpt lat="48.72853" lon="1.7379">
        <ele>132.8</ele>
        <time>2015-06-10T09:51:19.000Z</time>
      </trkpt>
      <trkpt lat="48.7286" lon="1.73796">
        <ele>133</ele>
        <time>2015-06-10T09:51:24.000Z</time>
      </trkpt>
      <trkpt lat="48.72866" lon="1.73801">
        <ele>133.1</ele>
        <time>2015-06-10T09:51:30.000Z</time>
      </trkpt>
      <trkpt lat="48.72868" lon="1.73804">
        <ele>133.2</ele>
        <time>2015-06-10T09:51:32.000Z</time>
      </trkpt>
      <trkpt lat="48.72873" lon="1.73811">
        <ele>133.6</ele>
        <time>2015-06-10T09:51:38.000Z</time>
      </trkpt>
      <trkpt lat="48.72876" lon="1.73815">
        <ele>133.7</ele>
        <time>2015-06-10T09:51:41.000Z</time>
      </trkpt>
      <trkpt lat="48.72883" lon="1.73821">
        <ele>133.9</ele>
        <time>2015-06-10T09:51:46.000Z</time>
      </trkpt>
      <trkpt lat="48.72889" lon="1.73827">
        <ele>134</ele>
        <time>2015-06-10T09:51:52.000Z</time>
      </trkpt>
      <trkpt lat="48.72896" lon="1.73834">
        <ele>134</ele>
        <time>2015-06-10T09:51:58.000Z</time>
      </trkpt>
      <trkpt lat="48.72898" lon="1.73836">
        <ele>134.1</ele>
        <time>2015-06-10T09:52:00.000Z</time>
      </trkpt>
      <trkpt lat="48.72902" lon="1.73843">
        <ele>134.2</ele>
        <time>2015-06-10T09:52:05.000Z</time>
      </trkpt>
      <trkpt lat="48.7291" lon="1.7385">
        <ele>134.1</ele>
        <time>2015-06-10T09:52:12.000Z</time>
      </trkpt>
      <trkpt lat="48.72922" lon="1.73863">
        <ele>133.7</ele>
        <time>2015-06-10T09:52:21.000Z</time>
      </trkpt>
      <trkpt lat="48.72932" lon="1.73871">
        <ele>133.3</ele>
        <time>2015-06-10T09:52:28.000Z</time>
      </trkpt>
      <trkpt lat="48.72934" lon="1.73873">
        <ele>133.2</ele>
        <time>2015-06-10T09:52:30.000Z</time>
      </trkpt>
      <trkpt lat="48.72939" lon="1.73878">
        <ele>133</ele>
        <time>2015-06-10T09:52:35.000Z</time>
      </trkpt>
      <trkpt lat="48.72946" lon="1.73884">
        <ele>132.7</ele>
        <time>2015-06-10T09:52:40.000Z</time>
      </trkpt>
      <trkpt lat="48.72954" lon="1.73887">
        <ele>132.6</ele>
        <time>2015-06-10T09:52:46.000Z</time>
      </trkpt>
      <trkpt lat="48.72959" lon="1.73892">
        <ele>132.6</ele>
        <time>2015-06-10T09:52:50.000Z</time>
      </trkpt>
      <trkpt lat="48.72965" lon="1.73898">
        <ele>132.5</ele>
        <time>2015-06-10T09:52:55.000Z</time>
      </trkpt>
      <trkpt lat="48.7297" lon="1.73904">
        <ele>132.1</ele>
        <time>2015-06-10T09:52:59.000Z</time>
      </trkpt>
      <trkpt lat="48.72973" lon="1.73907">
        <ele>132</ele>
        <time>2015-06-10T09:53:01.000Z</time>
      </trkpt>
      <trkpt lat="48.72982" lon="1.73916">
        <ele>131.7</ele>
        <time>2015-06-10T09:53:07.000Z</time>
      </trkpt>
      <trkpt lat="48.72986" lon="1.73921">
        <ele>131.6</ele>
        <time>2015-06-10T09:53:11.000Z</time>
      </trkpt>
      <trkpt lat="48.72994" lon="1.73928">
        <ele>131.3</ele>
        <time>2015-06-10T09:53:17.000Z</time>
      </trkpt>
      <trkpt lat="48.73002" lon="1.73936">
        <ele>131</ele>
        <time>2015-06-10T09:53:23.000Z</time>
      </trkpt>
      <trkpt lat="48.7301" lon="1.73938">
        <ele>130.9</ele>
        <time>2015-06-10T09:53:29.000Z</time>
      </trkpt>
      <trkpt lat="48.73015" lon="1.73942">
        <ele>130.9</ele>
        <time>2015-06-10T09:53:33.000Z</time>
      </trkpt>
      <trkpt lat="48.73023" lon="1.73953">
        <ele>131</ele>
        <time>2015-06-10T09:53:40.000Z</time>
      </trkpt>
      <trkpt lat="48.73026" lon="1.73958">
        <ele>131</ele>
        <time>2015-06-10T09:53:43.000Z</time>
      </trkpt>
      <trkpt lat="48.73032" lon="1.73966">
        <ele>131</ele>
        <time>2015-06-10T09:53:49.000Z</time>
      </trkpt>
      <trkpt lat="48.73034" lon="1.73969">
        <ele>131</ele>
        <time>2015-06-10T09:53:51.000Z</time>
      </trkpt>
      <trkpt lat="48.7304" lon="1.73975">
        <ele>131</ele>
        <time>2015-06-10T09:53:56.000Z</time>
      </trkpt>
      <trkpt lat="48.73045" lon="1.73981">
        <ele>131</ele>
        <time>2015-06-10T09:54:01.000Z</time>
      </trkpt>
      <trkpt lat="48.73056" lon="1.73991">
        <ele>131</ele>
        <time>2015-06-10T09:54:09.000Z</time>
      </trkpt>
      <trkpt lat="48.73062" lon="1.73998">
        <ele>130.8</ele>
        <time>2015-06-10T09:54:15.000Z</time>
      </trkpt>
      <trkpt lat="48.73065" lon="1.74001">
        <ele>130.7</ele>
        <time>2015-06-10T09:54:18.000Z</time>
      </trkpt>
      <trkpt lat="48.73067" lon="1.74003">
        <ele>130.7</ele>
        <time>2015-06-10T09:54:23.000Z</time>
      </trkpt>
      <trkpt lat="48.73067" lon="1.74019">
        <ele>131.2</ele>
        <time>2015-06-10T09:55:07.000Z</time>
      </trkpt>
      <trkpt lat="48.73067" lon="1.7403">
        <ele>131.6</ele>
        <time>2015-06-10T09:55:12.000Z</time>
      </trkpt>
      <trkpt lat="48.7307" lon="1.7404">
        <ele>131.5</ele>
        <time>2015-06-10T09:55:17.000Z</time>
      </trkpt>
      <trkpt lat="48.7307" lon="1.74057">
        <ele>131.5</ele>
        <time>2015-06-10T09:55:24.000Z</time>
      </trkpt>
      <trkpt lat="48.73069" lon="1.74066">
        <ele>131.7</ele>
        <time>2015-06-10T09:55:28.000Z</time>
      </trkpt>
      <trkpt lat="48.7307" lon="1.74074">
        <ele>131.8</ele>
        <time>2015-06-10T09:55:32.000Z</time>
      </trkpt>
      <trkpt lat="48.73071" lon="1.74087">
        <ele>132.1</ele>
        <time>2015-06-10T09:55:38.000Z</time>
      </trkpt>
      <trkpt lat="48.73072" lon="1.7409">
        <ele>132.1</ele>
        <time>2015-06-10T09:55:40.000Z</time>
      </trkpt>
      <trkpt lat="48.73072" lon="1.74093">
        <ele>132.1</ele>
        <time>2015-06-10T09:55:45.000Z</time>
      </trkpt>
      <trkpt lat="48.7307" lon="1.74082">
        <ele>132</ele>
        <time>2015-06-10T09:56:07.000Z</time>
      </trkpt>
      <trkpt lat="48.73069" lon="1.74075">
        <ele>131.9</ele>
        <time>2015-06-10T09:56:10.000Z</time>
      </trkpt>
      <trkpt lat="48.73066" lon="1.74069">
        <ele>131.8</ele>
        <time>2015-06-10T09:56:14.000Z</time>
      </trkpt>
      <trkpt lat="48.73065" lon="1.74065">
        <ele>131.8</ele>
        <time>2015-06-10T09:56:16.000Z</time>
      </trkpt>
      <trkpt lat="48.73065" lon="1.7405">
        <ele>131.7</ele>
        <time>2015-06-10T09:56:23.000Z</time>
      </trkpt>
      <trkpt lat="48.73066" lon="1.74041">
        <ele>131.6</ele>
        <time>2015-06-10T09:56:28.000Z</time>
      </trkpt>
      <trkpt lat="48.73066" lon="1.74031">
        <ele>131.6</ele>
        <time>2015-06-10T09:56:33.000Z</time>
      </trkpt>
      <trkpt lat="48.73066" lon="1.74026">
        <ele>131.6</ele>
        <time>2015-06-10T09:56:35.000Z</time>
      </trkpt>
      <trkpt lat="48.73067" lon="1.74021">
        <ele>131.4</ele>
        <time>2015-06-10T09:56:41.000Z</time>
      </trkpt>
      <trkpt lat="48.73081" lon="1.7402">
        <ele>130.8</ele>
        <time>2015-06-10T09:58:32.000Z</time>
      </trkpt>
      <trkpt lat="48.73084" lon="1.74026">
        <ele>131</ele>
        <time>2015-06-10T09:58:35.000Z</time>
      </trkpt>
      <trkpt lat="48.73089" lon="1.74029">
        <ele>131.2</ele>
        <time>2015-06-10T09:58:40.000Z</time>
      </trkpt>
      <trkpt lat="48.73091" lon="1.74029">
        <ele>131.3</ele>
        <time>2015-06-10T09:58:43.000Z</time>
      </trkpt>
      <trkpt lat="48.73096" lon="1.74034">
        <ele>131.5</ele>
        <time>2015-06-10T09:58:47.000Z</time>
      </trkpt>
      <trkpt lat="48.73106" lon="1.74045">
        <ele>131.8</ele>
        <time>2015-06-10T09:58:56.000Z</time>
      </trkpt>
      <trkpt lat="48.73108" lon="1.74047">
        <ele>131.9</ele>
        <time>2015-06-10T09:58:58.000Z</time>
      </trkpt>
      <trkpt lat="48.73113" lon="1.74048">
        <ele>132.3</ele>
        <time>2015-06-10T09:59:04.000Z</time>
      </trkpt>
      <trkpt lat="48.73115" lon="1.74051">
        <ele>132.6</ele>
        <time>2015-06-10T09:59:08.000Z</time>
      </trkpt>
      <trkpt lat="48.73116" lon="1.74052">
        <ele>132.9</ele>
        <time>2015-06-10T09:59:13.000Z</time>
      </trkpt>
      <trkpt lat="48.73116" lon="1.74052">
        <ele>132.9</ele>
        <time>2015-06-10T09:59:14.000Z</time>
      </trkpt>
      <trkpt lat="48.73127" lon="1.74071">
        <ele>135.8</ele>
        <time>2015-06-10T10:00:18.000Z</time>
      </trkpt>
      <trkpt lat="48.73132" lon="1.74077">
        <ele>137</ele>
        <time>2015-06-10T10:00:22.000Z</time>
      </trkpt>
      <trkpt lat="48.73137" lon="1.74084">
        <ele>138.5</ele>
        <time>2015-06-10T10:00:27.000Z</time>
      </trkpt>
      <trkpt lat="48.7314" lon="1.74086">
        <ele>139.1</ele>
        <time>2015-06-10T10:00:30.000Z</time>
      </trkpt>
      <trkpt lat="48.73143" lon="1.74088">
        <ele>139.3</ele>
        <time>2015-06-10T10:00:33.000Z</time>
      </trkpt>
      <trkpt lat="48.73153" lon="1.741">
        <ele>140.1</ele>
        <time>2015-06-10T10:00:42.000Z</time>
      </trkpt>
      <trkpt lat="48.73163" lon="1.74109">
        <ele>140.8</ele>
        <time>2015-06-10T10:00:50.000Z</time>
      </trkpt>
      <trkpt lat="48.73169" lon="1.74115">
        <ele>141</ele>
        <time>2015-06-10T10:00:56.000Z</time>
      </trkpt>
      <trkpt lat="48.73177" lon="1.74123">
        <ele>141</ele>
        <time>2015-06-10T10:01:04.000Z</time>
      </trkpt>
      <trkpt lat="48.73185" lon="1.74132">
        <ele>141</ele>
        <time>2015-06-10T10:01:12.000Z</time>
      </trkpt>
      <trkpt lat="48.73194" lon="1.74138">
        <ele>141</ele>
        <time>2015-06-10T10:01:18.000Z</time>
      </trkpt>
      <trkpt lat="48.73201" lon="1.74146">
        <ele>141.2</ele>
        <time>2015-06-10T10:01:24.000Z</time>
      </trkpt>
      <trkpt lat="48.73203" lon="1.74149">
        <ele>141.3</ele>
        <time>2015-06-10T10:01:26.000Z</time>
      </trkpt>
      <trkpt lat="48.73209" lon="1.74154">
        <ele>141.3</ele>
        <time>2015-06-10T10:01:31.000Z</time>
      </trkpt>
      <trkpt lat="48.7321" lon="1.74156">
        <ele>141.3</ele>
        <time>2015-06-10T10:01:32.000Z</time>
      </trkpt>
      <trkpt lat="48.73219" lon="1.74164">
        <ele>141.1</ele>
        <time>2015-06-10T10:01:39.000Z</time>
      </trkpt>
      <trkpt lat="48.73224" lon="1.74171">
        <ele>140.9</ele>
        <time>2015-06-10T10:01:43.000Z</time>
      </trkpt>
      <trkpt lat="48.73229" lon="1.74177">
        <ele>140.8</ele>
        <time>2015-06-10T10:01:47.000Z</time>
      </trkpt>
      <trkpt lat="48.73238" lon="1.74188">
        <ele>140.4</ele>
        <time>2015-06-10T10:01:52.000Z</time>
      </trkpt>
      <trkpt lat="48.73248" lon="1.74198">
        <ele>140.1</ele>
        <time>2015-06-10T10:01:57.000Z</time>
      </trkpt>
      <trkpt lat="48.73257" lon="1.74207">
        <ele>139.5</ele>
        <time>2015-06-10T10:02:04.000Z</time>
      </trkpt>
      <trkpt lat="48.73265" lon="1.74213">
        <ele>138.9</ele>
        <time>2015-06-10T10:02:09.000Z</time>
      </trkpt>
      <trkpt lat="48.73272" lon="1.74221">
        <ele>138.4</ele>
        <time>2015-06-10T10:02:14.000Z</time>
      </trkpt>
      <trkpt lat="48.73275" lon="1.74223">
        <ele>138.2</ele>
        <time>2015-06-10T10:02:18.000Z</time>
      </trkpt>
      <trkpt lat="48.7328" lon="1.74228">
        <ele>138.3</ele>
        <time>2015-06-10T10:02:25.000Z</time>
      </trkpt>
      <trkpt lat="48.73286" lon="1.74235">
        <ele>138.6</ele>
        <time>2015-06-10T10:02:30.000Z</time>
      </trkpt>
      <trkpt lat="48.73289" lon="1.74239">
        <ele>138.8</ele>
        <time>2015-06-10T10:02:33.000Z</time>
      </trkpt>
      <trkpt lat="48.73298" lon="1.74247">
        <ele>139</ele>
        <time>2015-06-10T10:02:41.000Z</time>
      </trkpt>
      <trkpt lat="48.73306" lon="1.74259">
        <ele>139.4</ele>
        <time>2015-06-10T10:02:48.000Z</time>
      </trkpt>
      <trkpt lat="48.73313" lon="1.74266">
        <ele>139.8</ele>
        <time>2015-06-10T10:02:52.000Z</time>
      </trkpt>
      <trkpt lat="48.73323" lon="1.74276">
        <ele>140</ele>
        <time>2015-06-10T10:02:59.000Z</time>
      </trkpt>
      <trkpt lat="48.73333" lon="1.74287">
        <ele>140</ele>
        <time>2015-06-10T10:03:07.000Z</time>
      </trkpt>
      <trkpt lat="48.73335" lon="1.74288">
        <ele>140.1</ele>
        <time>2015-06-10T10:03:12.000Z</time>
      </trkpt>
      <trkpt lat="48.73338" lon="1.74291">
        <ele>140.4</ele>
        <time>2015-06-10T10:03:20.000Z</time>
      </trkpt>
      <trkpt lat="48.73348" lon="1.74297">
        <ele>140.8</ele>
        <time>2015-06-10T10:03:25.000Z</time>
      </trkpt>
      <trkpt lat="48.73354" lon="1.74305">
        <ele>140.8</ele>
        <time>2015-06-10T10:03:31.000Z</time>
      </trkpt>
      <trkpt lat="48.73356" lon="1.74306">
        <ele>140.8</ele>
        <time>2015-06-10T10:03:32.000Z</time>
      </trkpt>
      <trkpt lat="48.73364" lon="1.74316">
        <ele>140.6</ele>
        <time>2015-06-10T10:03:39.000Z</time>
      </trkpt>
      <trkpt lat="48.73371" lon="1.74323">
        <ele>140.2</ele>
        <time>2015-06-10T10:03:45.000Z</time>
      </trkpt>
      <trkpt lat="48.73379" lon="1.7433">
        <ele>140</ele>
        <time>2015-06-10T10:03:51.000Z</time>
      </trkpt>
      <trkpt lat="48.73386" lon="1.74339">
        <ele>139.8</ele>
        <time>2015-06-10T10:03:58.000Z</time>
      </trkpt>
      <trkpt lat="48.73391" lon="1.74347">
        <ele>139.5</ele>
        <time>2015-06-10T10:04:04.000Z</time>
      </trkpt>
      <trkpt lat="48.73402" lon="1.74358">
        <ele>139.1</ele>
        <time>2015-06-10T10:04:13.000Z</time>
      </trkpt>
      <trkpt lat="48.73411" lon="1.74368">
        <ele>139</ele>
        <time>2015-06-10T10:04:20.000Z</time>
      </trkpt>
      <trkpt lat="48.73424" lon="1.7438">
        <ele>138.9</ele>
        <time>2015-06-10T10:04:29.000Z</time>
      </trkpt>
      <trkpt lat="48.73435" lon="1.7439">
        <ele>139</ele>
        <time>2015-06-10T10:04:37.000Z</time>
      </trkpt>
      <trkpt lat="48.73446" lon="1.74402">
        <ele>139</ele>
        <time>2015-06-10T10:04:45.000Z</time>
      </trkpt>
      <trkpt lat="48.73454" lon="1.74409">
        <ele>139</ele>
        <time>2015-06-10T10:04:51.000Z</time>
      </trkpt>
      <trkpt lat="48.73464" lon="1.7442">
        <ele>139.1</ele>
        <time>2015-06-10T10:04:59.000Z</time>
      </trkpt>
      <trkpt lat="48.73472" lon="1.74429">
        <ele>139.4</ele>
        <time>2015-06-10T10:05:06.000Z</time>
      </trkpt>
      <trkpt lat="48.73475" lon="1.74433">
        <ele>139.6</ele>
        <time>2015-06-10T10:05:09.000Z</time>
      </trkpt>
      <trkpt lat="48.73482" lon="1.74441">
        <ele>139.9</ele>
        <time>2015-06-10T10:05:15.000Z</time>
      </trkpt>
      <trkpt lat="48.73488" lon="1.74448">
        <ele>140</ele>
        <time>2015-06-10T10:05:20.000Z</time>
      </trkpt>
      <trkpt lat="48.73495" lon="1.74455">
        <ele>140</ele>
        <time>2015-06-10T10:05:25.000Z</time>
      </trkpt>
      <trkpt lat="48.73501" lon="1.74461">
        <ele>140</ele>
        <time>2015-06-10T10:05:30.000Z</time>
      </trkpt>
      <trkpt lat="48.73514" lon="1.74475">
        <ele>140.5</ele>
        <time>2015-06-10T10:05:39.000Z</time>
      </trkpt>
      <trkpt lat="48.73515" lon="1.74476">
        <ele>140.5</ele>
        <time>2015-06-10T10:05:40.000Z</time>
      </trkpt>
      <trkpt lat="48.73521" lon="1.74483">
        <ele>140.7</ele>
        <time>2015-06-10T10:05:45.000Z</time>
      </trkpt>
      <trkpt lat="48.73527" lon="1.74491">
        <ele>141</ele>
        <time>2015-06-10T10:05:51.000Z</time>
      </trkpt>
      <trkpt lat="48.73535" lon="1.74498">
        <ele>141</ele>
        <time>2015-06-10T10:05:57.000Z</time>
      </trkpt>
      <trkpt lat="48.73536" lon="1.74499">
        <ele>141</ele>
        <time>2015-06-10T10:05:58.000Z</time>
      </trkpt>
      <trkpt lat="48.73543" lon="1.74504">
        <ele>141.1</ele>
        <time>2015-06-10T10:06:03.000Z</time>
      </trkpt>
      <trkpt lat="48.73546" lon="1.74508">
        <ele>141.2</ele>
        <time>2015-06-10T10:06:05.000Z</time>
      </trkpt>
      <trkpt lat="48.73555" lon="1.74517">
        <ele>141.6</ele>
        <time>2015-06-10T10:06:12.000Z</time>
      </trkpt>
      <trkpt lat="48.73563" lon="1.74521">
        <ele>141.8</ele>
        <time>2015-06-10T10:06:17.000Z</time>
      </trkpt>
      <trkpt lat="48.73569" lon="1.74533">
        <ele>142.1</ele>
        <time>2015-06-10T10:06:24.000Z</time>
      </trkpt>
      <trkpt lat="48.73575" lon="1.74539">
        <ele>142.3</ele>
        <time>2015-06-10T10:06:30.000Z</time>
      </trkpt>
      <trkpt lat="48.73578" lon="1.74542">
        <ele>142.4</ele>
        <time>2015-06-10T10:06:32.000Z</time>
      </trkpt>
      <trkpt lat="48.73583" lon="1.74546">
        <ele>142.7</ele>
        <time>2015-06-10T10:06:36.000Z</time>
      </trkpt>
      <trkpt lat="48.73594" lon="1.74559">
        <ele>143.4</ele>
        <time>2015-06-10T10:06:45.000Z</time>
      </trkpt>
      <trkpt lat="48.73605" lon="1.7457">
        <ele>143.8</ele>
        <time>2015-06-10T10:06:53.000Z</time>
      </trkpt>
      <trkpt lat="48.73615" lon="1.74581">
        <ele>144.1</ele>
        <time>2015-06-10T10:07:01.000Z</time>
      </trkpt>
      <trkpt lat="48.73625" lon="1.7459">
        <ele>144.6</ele>
        <time>2015-06-10T10:07:08.000Z</time>
      </trkpt>
      <trkpt lat="48.73628" lon="1.74591">
        <ele>144.7</ele>
        <time>2015-06-10T10:07:10.000Z</time>
      </trkpt>
      <trkpt lat="48.73639" lon="1.74603">
        <ele>145</ele>
        <time>2015-06-10T10:07:19.000Z</time>
      </trkpt>
      <trkpt lat="48.73642" lon="1.74605">
        <ele>145.1</ele>
        <time>2015-06-10T10:07:21.000Z</time>
      </trkpt>
      <trkpt lat="48.73649" lon="1.74614">
        <ele>145.5</ele>
        <time>2015-06-10T10:07:27.000Z</time>
      </trkpt>
      <trkpt lat="48.73656" lon="1.74622">
        <ele>146</ele>
        <time>2015-06-10T10:07:33.000Z</time>
      </trkpt>
      <trkpt lat="48.73661" lon="1.74627">
        <ele>146.4</ele>
        <time>2015-06-10T10:07:37.000Z</time>
      </trkpt>
      <trkpt lat="48.73668" lon="1.74635">
        <ele>146.9</ele>
        <time>2015-06-10T10:07:43.000Z</time>
      </trkpt>
      <trkpt lat="48.73673" lon="1.74642">
        <ele>147</ele>
        <time>2015-06-10T10:07:48.000Z</time>
      </trkpt>
      <trkpt lat="48.7368" lon="1.74648">
        <ele>147.2</ele>
        <time>2015-06-10T10:07:54.000Z</time>
      </trkpt>
      <trkpt lat="48.73687" lon="1.74655">
        <ele>147.4</ele>
        <time>2015-06-10T10:08:00.000Z</time>
      </trkpt>
      <trkpt lat="48.73689" lon="1.74658">
        <ele>147.6</ele>
        <time>2015-06-10T10:08:02.000Z</time>
      </trkpt>
      <trkpt lat="48.73695" lon="1.74666">
        <ele>148</ele>
        <time>2015-06-10T10:08:07.000Z</time>
      </trkpt>
      <trkpt lat="48.73701" lon="1.74676">
        <ele>148.1</ele>
        <time>2015-06-10T10:08:13.000Z</time>
      </trkpt>
      <trkpt lat="48.7371" lon="1.74683">
        <ele>148.3</ele>
        <time>2015-06-10T10:08:21.000Z</time>
      </trkpt>
      <trkpt lat="48.73712" lon="1.74684">
        <ele>148.4</ele>
        <time>2015-06-10T10:08:25.000Z</time>
      </trkpt>
      <trkpt lat="48.73719" lon="1.74685">
        <ele>148.6</ele>
        <time>2015-06-10T10:08:35.000Z</time>
      </trkpt>
      <trkpt lat="48.73723" lon="1.7469">
        <ele>148.8</ele>
        <time>2015-06-10T10:08:38.000Z</time>
      </trkpt>
      <trkpt lat="48.73734" lon="1.74701">
        <ele>149.2</ele>
        <time>2015-06-10T10:08:47.000Z</time>
      </trkpt>
      <trkpt lat="48.73739" lon="1.74707">
        <ele>149.5</ele>
        <time>2015-06-10T10:08:52.000Z</time>
      </trkpt>
      <trkpt lat="48.73745" lon="1.74715">
        <ele>149.8</ele>
        <time>2015-06-10T10:08:58.000Z</time>
      </trkpt>
      <trkpt lat="48.73756" lon="1.74727">
        <ele>150.3</ele>
        <time>2015-06-10T10:09:06.000Z</time>
      </trkpt>
      <trkpt lat="48.7376" lon="1.74732">
        <ele>150.7</ele>
        <time>2015-06-10T10:09:10.000Z</time>
      </trkpt>
      <trkpt lat="48.73767" lon="1.7474">
        <ele>151.3</ele>
        <time>2015-06-10T10:09:16.000Z</time>
      </trkpt>
      <trkpt lat="48.73772" lon="1.74745">
        <ele>151.6</ele>
        <time>2015-06-10T10:09:20.000Z</time>
      </trkpt>
      <trkpt lat="48.73781" lon="1.74753">
        <ele>152</ele>
        <time>2015-06-10T10:09:27.000Z</time>
      </trkpt>
      <trkpt lat="48.73783" lon="1.74755">
        <ele>152</ele>
        <time>2015-06-10T10:09:29.000Z</time>
      </trkpt>
      <trkpt lat="48.73786" lon="1.74757">
        <ele>152</ele>
        <time>2015-06-10T10:09:31.000Z</time>
      </trkpt>
      <trkpt lat="48.7379" lon="1.74761">
        <ele>152.1</ele>
        <time>2015-06-10T10:09:35.000Z</time>
      </trkpt>
      <trkpt lat="48.73794" lon="1.74766">
        <ele>152.3</ele>
        <time>2015-06-10T10:09:39.000Z</time>
      </trkpt>
      <trkpt lat="48.73798" lon="1.7477">
        <ele>152.5</ele>
        <time>2015-06-10T10:09:43.000Z</time>
      </trkpt>
      <trkpt lat="48.73806" lon="1.74779">
        <ele>153.1</ele>
        <time>2015-06-10T10:09:50.000Z</time>
      </trkpt>
      <trkpt lat="48.73808" lon="1.7478">
        <ele>153.2</ele>
        <time>2015-06-10T10:09:51.000Z</time>
      </trkpt>
      <trkpt lat="48.73814" lon="1.74788">
        <ele>153.9</ele>
        <time>2015-06-10T10:09:57.000Z</time>
      </trkpt>
      <trkpt lat="48.73825" lon="1.74794">
        <ele>154.5</ele>
        <time>2015-06-10T10:10:04.000Z</time>
      </trkpt>
      <trkpt lat="48.73831" lon="1.74805">
        <ele>155</ele>
        <time>2015-06-10T10:10:11.000Z</time>
      </trkpt>
      <trkpt lat="48.73835" lon="1.74809">
        <ele>155.1</ele>
        <time>2015-06-10T10:10:16.000Z</time>
      </trkpt>
      <trkpt lat="48.73836" lon="1.74809">
        <ele>155.2</ele>
        <time>2015-06-10T10:10:17.000Z</time>
      </trkpt>
      <trkpt lat="48.73843" lon="1.74819">
        <ele>155.6</ele>
        <time>2015-06-10T10:10:24.000Z</time>
      </trkpt>
      <trkpt lat="48.7385" lon="1.74826">
        <ele>156.2</ele>
        <time>2015-06-10T10:10:29.000Z</time>
      </trkpt>
      <trkpt lat="48.73855" lon="1.74832">
        <ele>156.7</ele>
        <time>2015-06-10T10:10:33.000Z</time>
      </trkpt>
      <trkpt lat="48.73858" lon="1.74833">
        <ele>156.9</ele>
        <time>2015-06-10T10:10:35.000Z</time>
      </trkpt>
      <trkpt lat="48.73862" lon="1.74836">
        <ele>157.1</ele>
        <time>2015-06-10T10:10:38.000Z</time>
      </trkpt>
      <trkpt lat="48.73871" lon="1.74843">
        <ele>157.3</ele>
        <time>2015-06-10T10:10:43.000Z</time>
      </trkpt>
      <trkpt lat="48.73874" lon="1.74849">
        <ele>157.7</ele>
        <time>2015-06-10T10:10:46.000Z</time>
      </trkpt>
      <trkpt lat="48.73886" lon="1.74857">
        <ele>157.8</ele>
        <time>2015-06-10T10:10:54.000Z</time>
      </trkpt>
      <trkpt lat="48.7389" lon="1.74862">
        <ele>158.2</ele>
        <time>2015-06-10T10:10:58.000Z</time>
      </trkpt>
      <trkpt lat="48.73895" lon="1.74867">
        <ele>159</ele>
        <time>2015-06-10T10:11:02.000Z</time>
      </trkpt>
      <trkpt lat="48.73899" lon="1.74873">
        <ele>159.5</ele>
        <time>2015-06-10T10:11:06.000Z</time>
      </trkpt>
      <trkpt lat="48.73904" lon="1.7488">
        <ele>159.9</ele>
        <time>2015-06-10T10:11:11.000Z</time>
      </trkpt>
      <trkpt lat="48.73907" lon="1.74884">
        <ele>160</ele>
        <time>2015-06-10T10:11:14.000Z</time>
      </trkpt>
      <trkpt lat="48.73913" lon="1.74891">
        <ele>160.1</ele>
        <time>2015-06-10T10:11:20.000Z</time>
      </trkpt>
      <trkpt lat="48.73914" lon="1.74893">
        <ele>160.2</ele>
        <time>2015-06-10T10:11:21.000Z</time>
      </trkpt>
      <trkpt lat="48.73916" lon="1.74897">
        <ele>160.3</ele>
        <time>2015-06-10T10:11:25.000Z</time>
      </trkpt>
      <trkpt lat="48.73923" lon="1.74904">
        <ele>161.5</ele>
        <time>2015-06-10T10:11:32.000Z</time>
      </trkpt>
      <trkpt lat="48.73925" lon="1.74905">
        <ele>161.8</ele>
        <time>2015-06-10T10:11:34.000Z</time>
      </trkpt>
      <trkpt lat="48.73926" lon="1.74908">
        <ele>162</ele>
        <time>2015-06-10T10:11:39.000Z</time>
      </trkpt>
      <trkpt lat="48.73927" lon="1.74911">
        <ele>162.2</ele>
        <time>2015-06-10T10:11:46.000Z</time>
      </trkpt>
      <trkpt lat="48.73943" lon="1.74921">
        <ele>164</ele>
        <time>2015-06-10T10:11:50.000Z</time>
      </trkpt>
      <trkpt lat="48.73957" lon="1.74928">
        <ele>167</ele>
        <time>2015-06-10T10:11:54.000Z</time>
      </trkpt>
      <trkpt lat="48.73965" lon="1.74935">
        <ele>168.4</ele>
        <time>2015-06-10T10:11:59.000Z</time>
      </trkpt>
      <trkpt lat="48.73967" lon="1.74937">
        <ele>168.6</ele>
        <time>2015-06-10T10:12:00.000Z</time>
      </trkpt>
      <trkpt lat="48.73974" lon="1.74953">
        <ele>170.2</ele>
        <time>2015-06-10T10:12:06.000Z</time>
      </trkpt>
      <trkpt lat="48.73981" lon="1.74959">
        <ele>172</ele>
        <time>2015-06-10T10:12:10.000Z</time>
      </trkpt>
      <trkpt lat="48.73986" lon="1.74967">
        <ele>173.4</ele>
        <time>2015-06-10T10:12:15.000Z</time>
      </trkpt>
      <trkpt lat="48.73993" lon="1.74978">
        <ele>175.3</ele>
        <time>2015-06-10T10:12:21.000Z</time>
      </trkpt>
      <trkpt lat="48.74" lon="1.74987">
        <ele>177.1</ele>
        <time>2015-06-10T10:12:25.000Z</time>
      </trkpt>
      <trkpt lat="48.74001" lon="1.74988">
        <ele>177.2</ele>
        <time>2015-06-10T10:12:26.000Z</time>
      </trkpt>
      <trkpt lat="48.74009" lon="1.74994">
        <ele>178</ele>
        <time>2015-06-10T10:12:33.000Z</time>
      </trkpt>
      <trkpt lat="48.74015" lon="1.75004">
        <ele>178.6</ele>
        <time>2015-06-10T10:12:39.000Z</time>
      </trkpt>
      <trkpt lat="48.74026" lon="1.75009">
        <ele>179</ele>
        <time>2015-06-10T10:12:45.000Z</time>
      </trkpt>
      <trkpt lat="48.7403" lon="1.75014">
        <ele>179</ele>
        <time>2015-06-10T10:12:48.000Z</time>
      </trkpt>
      <trkpt lat="48.74034" lon="1.75017">
        <ele>179</ele>
        <time>2015-06-10T10:12:54.000Z</time>
      </trkpt>
      <trkpt lat="48.7404" lon="1.75022">
        <ele>179</ele>
        <time>2015-06-10T10:13:04.000Z</time>
      </trkpt>
      <trkpt lat="48.74049" lon="1.7503">
        <ele>179</ele>
        <time>2015-06-10T10:13:10.000Z</time>
      </trkpt>
      <trkpt lat="48.74056" lon="1.75039">
        <ele>179</ele>
        <time>2015-06-10T10:13:17.000Z</time>
      </trkpt>
      <trkpt lat="48.74067" lon="1.7505">
        <ele>179.4</ele>
        <time>2015-06-10T10:13:26.000Z</time>
      </trkpt>
      <trkpt lat="48.74073" lon="1.75055">
        <ele>179.6</ele>
        <time>2015-06-10T10:13:31.000Z</time>
      </trkpt>
      <trkpt lat="48.74076" lon="1.75063">
        <ele>179.8</ele>
        <time>2015-06-10T10:13:36.000Z</time>
      </trkpt>
      <trkpt lat="48.74078" lon="1.75072">
        <ele>179.9</ele>
        <time>2015-06-10T10:13:41.000Z</time>
      </trkpt>
      <trkpt lat="48.74083" lon="1.75084">
        <ele>180</ele>
        <time>2015-06-10T10:13:47.000Z</time>
      </trkpt>
      <trkpt lat="48.7409" lon="1.75095">
        <ele>180</ele>
        <time>2015-06-10T10:13:54.000Z</time>
      </trkpt>
      <trkpt lat="48.74101" lon="1.7511">
        <ele>180</ele>
        <time>2015-06-10T10:14:03.000Z</time>
      </trkpt>
      <trkpt lat="48.74108" lon="1.75121">
        <ele>180</ele>
        <time>2015-06-10T10:14:10.000Z</time>
      </trkpt>
      <trkpt lat="48.74114" lon="1.75131">
        <ele>180</ele>
        <time>2015-06-10T10:14:17.000Z</time>
      </trkpt>
      <trkpt lat="48.74123" lon="1.75137">
        <ele>180</ele>
        <time>2015-06-10T10:14:23.000Z</time>
      </trkpt>
      <trkpt lat="48.74128" lon="1.75136">
        <ele>180</ele>
        <time>2015-06-10T10:14:26.000Z</time>
      </trkpt>
      <trkpt lat="48.74139" lon="1.75133">
        <ele>180</ele>
        <time>2015-06-10T10:14:33.000Z</time>
      </trkpt>
      <trkpt lat="48.74145" lon="1.7513">
        <ele>179.8</ele>
        <time>2015-06-10T10:14:38.000Z</time>
      </trkpt>
      <trkpt lat="48.74155" lon="1.75128">
        <ele>179.7</ele>
        <time>2015-06-10T10:14:42.000Z</time>
      </trkpt>
      <trkpt lat="48.74164" lon="1.75126">
        <ele>179.5</ele>
        <time>2015-06-10T10:14:47.000Z</time>
      </trkpt>
      <trkpt lat="48.74181" lon="1.75123">
        <ele>179.6</ele>
        <time>2015-06-10T10:14:57.000Z</time>
      </trkpt>
      <trkpt lat="48.74192" lon="1.75122">
        <ele>179.6</ele>
        <time>2015-06-10T10:15:05.000Z</time>
      </trkpt>
      <trkpt lat="48.74203" lon="1.75122">
        <ele>179.4</ele>
        <time>2015-06-10T10:15:13.000Z</time>
      </trkpt>
      <trkpt lat="48.74207" lon="1.75123">
        <ele>179.3</ele>
        <time>2015-06-10T10:15:16.000Z</time>
      </trkpt>
      <trkpt lat="48.74212" lon="1.75123">
        <ele>179.2</ele>
        <time>2015-06-10T10:15:20.000Z</time>
      </trkpt>
      <trkpt lat="48.74222" lon="1.75122">
        <ele>179</ele>
        <time>2015-06-10T10:15:27.000Z</time>
      </trkpt>
      <trkpt lat="48.74231" lon="1.75122">
        <ele>178.7</ele>
        <time>2015-06-10T10:15:33.000Z</time>
      </trkpt>
      <trkpt lat="48.74241" lon="1.75121">
        <ele>178.3</ele>
        <time>2015-06-10T10:15:40.000Z</time>
      </trkpt>
      <trkpt lat="48.74252" lon="1.75121">
        <ele>178</ele>
        <time>2015-06-10T10:15:47.000Z</time>
      </trkpt>
      <trkpt lat="48.74263" lon="1.75122">
        <ele>177.7</ele>
        <time>2015-06-10T10:15:54.000Z</time>
      </trkpt>
      <trkpt lat="48.74277" lon="1.75119">
        <ele>177.3</ele>
        <time>2015-06-10T10:16:03.000Z</time>
      </trkpt>
      <trkpt lat="48.74288" lon="1.75117">
        <ele>177.1</ele>
        <time>2015-06-10T10:16:10.000Z</time>
      </trkpt>
      <trkpt lat="48.74301" lon="1.75118">
        <ele>177</ele>
        <time>2015-06-10T10:16:19.000Z</time>
      </trkpt>
      <trkpt lat="48.74309" lon="1.75117">
        <ele>176.9</ele>
        <time>2015-06-10T10:16:25.000Z</time>
      </trkpt>
      <trkpt lat="48.7431" lon="1.75117">
        <ele>176.8</ele>
        <time>2015-06-10T10:16:26.000Z</time>
      </trkpt>
      <trkpt lat="48.74325" lon="1.75118">
        <ele>176.3</ele>
        <time>2015-06-10T10:16:35.000Z</time>
      </trkpt>
      <trkpt lat="48.74332" lon="1.75119">
        <ele>176.1</ele>
        <time>2015-06-10T10:16:40.000Z</time>
      </trkpt>
      <trkpt lat="48.74337" lon="1.75118">
        <ele>175.9</ele>
        <time>2015-06-10T10:16:44.000Z</time>
      </trkpt>
      <trkpt lat="48.74347" lon="1.75114">
        <ele>175.5</ele>
        <time>2015-06-10T10:16:53.000Z</time>
      </trkpt>
      <trkpt lat="48.74356" lon="1.75111">
        <ele>175.2</ele>
        <time>2015-06-10T10:16:59.000Z</time>
      </trkpt>
      <trkpt lat="48.74367" lon="1.75108">
        <ele>174.7</ele>
        <time>2015-06-10T10:17:06.000Z</time>
      </trkpt>
      <trkpt lat="48.74368" lon="1.75107">
        <ele>174.7</ele>
        <time>2015-06-10T10:17:07.000Z</time>
      </trkpt>
      <trkpt lat="48.74373" lon="1.75103">
        <ele>174.5</ele>
        <time>2015-06-10T10:17:11.000Z</time>
      </trkpt>
      <trkpt lat="48.74381" lon="1.75103">
        <ele>173.8</ele>
        <time>2015-06-10T10:17:17.000Z</time>
      </trkpt>
      <trkpt lat="48.7439" lon="1.75106">
        <ele>173.1</ele>
        <time>2015-06-10T10:17:23.000Z</time>
      </trkpt>
      <trkpt lat="48.74392" lon="1.75107">
        <ele>172.9</ele>
        <time>2015-06-10T10:17:26.000Z</time>
      </trkpt>
      <trkpt lat="48.74398" lon="1.75108">
        <ele>172.5</ele>
        <time>2015-06-10T10:17:30.000Z</time>
      </trkpt>
      <trkpt lat="48.74407" lon="1.75103">
        <ele>172</ele>
        <time>2015-06-10T10:17:37.000Z</time>
      </trkpt>
      <trkpt lat="48.74415" lon="1.75098">
        <ele>171.6</ele>
        <time>2015-06-10T10:17:43.000Z</time>
      </trkpt>
      <trkpt lat="48.74423" lon="1.75099">
        <ele>170.9</ele>
        <time>2015-06-10T10:17:48.000Z</time>
      </trkpt>
      <trkpt lat="48.7443" lon="1.75102">
        <ele>170</ele>
        <time>2015-06-10T10:17:52.000Z</time>
      </trkpt>
      <trkpt lat="48.7444" lon="1.75102">
        <ele>169.1</ele>
        <time>2015-06-10T10:17:59.000Z</time>
      </trkpt>
      <trkpt lat="48.74444" lon="1.75102">
        <ele>168.7</ele>
        <time>2015-06-10T10:18:01.000Z</time>
      </trkpt>
      <trkpt lat="48.74448" lon="1.75102">
        <ele>168.5</ele>
        <time>2015-06-10T10:18:03.000Z</time>
      </trkpt>
      <trkpt lat="48.74457" lon="1.75117">
        <ele>167.2</ele>
        <time>2015-06-10T10:18:10.000Z</time>
      </trkpt>
      <trkpt lat="48.74461" lon="1.7512">
        <ele>166.9</ele>
        <time>2015-06-10T10:18:12.000Z</time>
      </trkpt>
      <trkpt lat="48.74472" lon="1.75128">
        <ele>165.8</ele>
        <time>2015-06-10T10:18:19.000Z</time>
      </trkpt>
      <trkpt lat="48.74481" lon="1.75135">
        <ele>165</ele>
        <time>2015-06-10T10:18:25.000Z</time>
      </trkpt>
      <trkpt lat="48.74487" lon="1.75141">
        <ele>164.3</ele>
        <time>2015-06-10T10:18:30.000Z</time>
      </trkpt>
      <trkpt lat="48.74495" lon="1.75146">
        <ele>163.9</ele>
        <time>2015-06-10T10:18:35.000Z</time>
      </trkpt>
      <trkpt lat="48.74497" lon="1.7515">
        <ele>163.7</ele>
        <time>2015-06-10T10:18:38.000Z</time>
      </trkpt>
      <trkpt lat="48.74506" lon="1.7516">
        <ele>163.2</ele>
        <time>2015-06-10T10:18:45.000Z</time>
      </trkpt>
      <trkpt lat="48.74514" lon="1.75164">
        <ele>163.1</ele>
        <time>2015-06-10T10:18:50.000Z</time>
      </trkpt>
      <trkpt lat="48.74518" lon="1.75173">
        <ele>162.8</ele>
        <time>2015-06-10T10:18:54.000Z</time>
      </trkpt>
      <trkpt lat="48.74527" lon="1.75182">
        <ele>162.4</ele>
        <time>2015-06-10T10:19:01.000Z</time>
      </trkpt>
      <trkpt lat="48.74536" lon="1.75187">
        <ele>161.7</ele>
        <time>2015-06-10T10:19:06.000Z</time>
      </trkpt>
      <trkpt lat="48.7454" lon="1.7519">
        <ele>161.3</ele>
        <time>2015-06-10T10:19:09.000Z</time>
      </trkpt>
      <trkpt lat="48.74547" lon="1.75199">
        <ele>160.4</ele>
        <time>2015-06-10T10:19:15.000Z</time>
      </trkpt>
      <trkpt lat="48.74554" lon="1.75207">
        <ele>159.7</ele>
        <time>2015-06-10T10:19:20.000Z</time>
      </trkpt>
      <trkpt lat="48.74556" lon="1.7521">
        <ele>159.4</ele>
        <time>2015-06-10T10:19:22.000Z</time>
      </trkpt>
      <trkpt lat="48.74562" lon="1.75216">
        <ele>158.5</ele>
        <time>2015-06-10T10:19:27.000Z</time>
      </trkpt>
      <trkpt lat="48.74571" lon="1.75224">
        <ele>157.3</ele>
        <time>2015-06-10T10:19:34.000Z</time>
      </trkpt>
      <trkpt lat="48.74578" lon="1.75233">
        <ele>156.2</ele>
        <time>2015-06-10T10:19:41.000Z</time>
      </trkpt>
      <trkpt lat="48.74579" lon="1.75235">
        <ele>156</ele>
        <time>2015-06-10T10:19:42.000Z</time>
      </trkpt>
      <trkpt lat="48.74587" lon="1.75239">
        <ele>154.8</ele>
        <time>2015-06-10T10:19:48.000Z</time>
      </trkpt>
      <trkpt lat="48.74593" lon="1.75243">
        <ele>153.6</ele>
        <time>2015-06-10T10:19:53.000Z</time>
      </trkpt>
      <trkpt lat="48.74598" lon="1.75247">
        <ele>152.4</ele>
        <time>2015-06-10T10:19:58.000Z</time>
      </trkpt>
      <trkpt lat="48.74607" lon="1.75257">
        <ele>150.5</ele>
        <time>2015-06-10T10:20:05.000Z</time>
      </trkpt>
      <trkpt lat="48.74615" lon="1.75264">
        <ele>149.2</ele>
        <time>2015-06-10T10:20:12.000Z</time>
      </trkpt>
      <trkpt lat="48.74623" lon="1.75272">
        <ele>148.3</ele>
        <time>2015-06-10T10:20:18.000Z</time>
      </trkpt>
      <trkpt lat="48.74634" lon="1.75276">
        <ele>147.4</ele>
        <time>2015-06-10T10:20:24.000Z</time>
      </trkpt>
      <trkpt lat="48.74635" lon="1.75278">
        <ele>147.3</ele>
        <time>2015-06-10T10:20:26.000Z</time>
      </trkpt>
      <trkpt lat="48.74638" lon="1.75284">
        <ele>147.1</ele>
        <time>2015-06-10T10:20:30.000Z</time>
      </trkpt>
      <trkpt lat="48.74648" lon="1.75295">
        <ele>146.5</ele>
        <time>2015-06-10T10:20:38.000Z</time>
      </trkpt>
      <trkpt lat="48.74655" lon="1.75301">
        <ele>146</ele>
        <time>2015-06-10T10:20:43.000Z</time>
      </trkpt>
      <trkpt lat="48.74657" lon="1.75305">
        <ele>145.7</ele>
        <time>2015-06-10T10:20:46.000Z</time>
      </trkpt>
      <trkpt lat="48.74668" lon="1.75314">
        <ele>145</ele>
        <time>2015-06-10T10:20:54.000Z</time>
      </trkpt>
      <trkpt lat="48.74678" lon="1.75325">
        <ele>144.6</ele>
        <time>2015-06-10T10:21:01.000Z</time>
      </trkpt>
      <trkpt lat="48.74686" lon="1.7533">
        <ele>144.3</ele>
        <time>2015-06-10T10:21:07.000Z</time>
      </trkpt>
      <trkpt lat="48.74689" lon="1.75333">
        <ele>144.2</ele>
        <time>2015-06-10T10:21:09.000Z</time>
      </trkpt>
      <trkpt lat="48.74704" lon="1.7534">
        <ele>143.2</ele>
        <time>2015-06-10T10:21:16.000Z</time>
      </trkpt>
      <trkpt lat="48.7471" lon="1.75347">
        <ele>142.7</ele>
        <time>2015-06-10T10:21:22.000Z</time>
      </trkpt>
      <trkpt lat="48.74721" lon="1.75358">
        <ele>142.1</ele>
        <time>2015-06-10T10:21:30.000Z</time>
      </trkpt>
      <trkpt lat="48.74728" lon="1.7537">
        <ele>141.8</ele>
        <time>2015-06-10T10:21:36.000Z</time>
      </trkpt>
      <trkpt lat="48.7473" lon="1.75374">
        <ele>141.7</ele>
        <time>2015-06-10T10:21:38.000Z</time>
      </trkpt>
      <trkpt lat="48.74736" lon="1.75382">
        <ele>141.5</ele>
        <time>2015-06-10T10:21:44.000Z</time>
      </trkpt>
      <trkpt lat="48.74737" lon="1.75382">
        <ele>141.5</ele>
        <time>2015-06-10T10:21:45.000Z</time>
      </trkpt>
      <trkpt lat="48.74744" lon="1.75388">
        <ele>141.2</ele>
        <time>2015-06-10T10:21:59.000Z</time>
      </trkpt>
      <trkpt lat="48.74745" lon="1.75391">
        <ele>141.2</ele>
        <time>2015-06-10T10:22:00.000Z</time>
      </trkpt>
      <trkpt lat="48.74751" lon="1.75396">
        <ele>141</ele>
        <time>2015-06-10T10:22:04.000Z</time>
      </trkpt>
      <trkpt lat="48.74758" lon="1.75405">
        <ele>140.7</ele>
        <time>2015-06-10T10:22:11.000Z</time>
      </trkpt>
      <trkpt lat="48.74761" lon="1.75408">
        <ele>140.6</ele>
        <time>2015-06-10T10:22:14.000Z</time>
      </trkpt>
      <trkpt lat="48.74767" lon="1.75413">
        <ele>140.4</ele>
        <time>2015-06-10T10:22:21.000Z</time>
      </trkpt>
      <trkpt lat="48.74772" lon="1.75417">
        <ele>140.2</ele>
        <time>2015-06-10T10:22:27.000Z</time>
      </trkpt>
      <trkpt lat="48.74779" lon="1.75425">
        <ele>140</ele>
        <time>2015-06-10T10:22:34.000Z</time>
      </trkpt>
      <trkpt lat="48.74785" lon="1.7543">
        <ele>140</ele>
        <time>2015-06-10T10:22:40.000Z</time>
      </trkpt>
      <trkpt lat="48.74796" lon="1.75439">
        <ele>140</ele>
        <time>2015-06-10T10:22:47.000Z</time>
      </trkpt>
      <trkpt lat="48.74803" lon="1.75449">
        <ele>140</ele>
        <time>2015-06-10T10:22:53.000Z</time>
      </trkpt>
      <trkpt lat="48.74808" lon="1.75465">
        <ele>140.3</ele>
        <time>2015-06-10T10:23:00.000Z</time>
      </trkpt>
      <trkpt lat="48.74812" lon="1.75479">
        <ele>141</ele>
        <time>2015-06-10T10:23:05.000Z</time>
      </trkpt>
      <trkpt lat="48.74819" lon="1.75485">
        <ele>141.9</ele>
        <time>2015-06-10T10:23:12.000Z</time>
      </trkpt>
      <trkpt lat="48.74821" lon="1.75476">
        <ele>141.8</ele>
        <time>2015-06-10T10:23:18.000Z</time>
      </trkpt>
      <trkpt lat="48.74821" lon="1.75474">
        <ele>141.8</ele>
        <time>2015-06-10T10:23:19.000Z</time>
      </trkpt>
      <trkpt lat="48.7482" lon="1.7546">
        <ele>141.5</ele>
        <time>2015-06-10T10:23:25.000Z</time>
      </trkpt>
      <trkpt lat="48.7482" lon="1.7545">
        <ele>141.5</ele>
        <time>2015-06-10T10:23:30.000Z</time>
      </trkpt>
      <trkpt lat="48.74819" lon="1.75439">
        <ele>141.6</ele>
        <time>2015-06-10T10:23:35.000Z</time>
      </trkpt>
      <trkpt lat="48.7482" lon="1.75426">
        <ele>141.9</ele>
        <time>2015-06-10T10:23:41.000Z</time>
      </trkpt>
      <trkpt lat="48.74819" lon="1.75413">
        <ele>142</ele>
        <time>2015-06-10T10:23:45.000Z</time>
      </trkpt>
      <trkpt lat="48.74818" lon="1.75396">
        <ele>141.8</ele>
        <time>2015-06-10T10:23:52.000Z</time>
      </trkpt>
      <trkpt lat="48.74817" lon="1.75382">
        <ele>141.5</ele>
        <time>2015-06-10T10:23:58.000Z</time>
      </trkpt>
      <trkpt lat="48.74815" lon="1.75367">
        <ele>141.1</ele>
        <time>2015-06-10T10:24:02.000Z</time>
      </trkpt>
      <trkpt lat="48.74814" lon="1.7536">
        <ele>140.9</ele>
        <time>2015-06-10T10:24:06.000Z</time>
      </trkpt>
      <trkpt lat="48.74814" lon="1.75353">
        <ele>140.8</ele>
        <time>2015-06-10T10:24:10.000Z</time>
      </trkpt>
      <trkpt lat="48.7481" lon="1.75337">
        <ele>140.3</ele>
        <time>2015-06-10T10:24:18.000Z</time>
      </trkpt>
      <trkpt lat="48.74805" lon="1.75322">
        <ele>140</ele>
        <time>2015-06-10T10:24:25.000Z</time>
      </trkpt>
      <trkpt lat="48.74802" lon="1.75309">
        <ele>140</ele>
        <time>2015-06-10T10:24:33.000Z</time>
      </trkpt>
      <trkpt lat="48.74799" lon="1.75302">
        <ele>140.1</ele>
        <time>2015-06-10T10:24:39.000Z</time>
      </trkpt>
      <trkpt lat="48.74792" lon="1.75291">
        <ele>140.3</ele>
        <time>2015-06-10T10:24:45.000Z</time>
      </trkpt>
      <trkpt lat="48.74791" lon="1.75285">
        <ele>140.3</ele>
        <time>2015-06-10T10:24:47.000Z</time>
      </trkpt>
      <trkpt lat="48.7479" lon="1.75279">
        <ele>140.4</ele>
        <time>2015-06-10T10:24:50.000Z</time>
      </trkpt>
      <trkpt lat="48.74787" lon="1.75266">
        <ele>140.5</ele>
        <time>2015-06-10T10:24:57.000Z</time>
      </trkpt>
      <trkpt lat="48.74783" lon="1.75253">
        <ele>140.4</ele>
        <time>2015-06-10T10:25:03.000Z</time>
      </trkpt>
      <trkpt lat="48.74778" lon="1.7524">
        <ele>140.7</ele>
        <time>2015-06-10T10:25:08.000Z</time>
      </trkpt>
      <trkpt lat="48.74775" lon="1.75228">
        <ele>141.3</ele>
        <time>2015-06-10T10:25:14.000Z</time>
      </trkpt>
      <trkpt lat="48.74774" lon="1.75226">
        <ele>141.4</ele>
        <time>2015-06-10T10:25:15.000Z</time>
      </trkpt>
      <trkpt lat="48.74772" lon="1.75217">
        <ele>141.7</ele>
        <time>2015-06-10T10:25:19.000Z</time>
      </trkpt>
      <trkpt lat="48.74769" lon="1.75211">
        <ele>141.8</ele>
        <time>2015-06-10T10:25:23.000Z</time>
      </trkpt>
      <trkpt lat="48.74766" lon="1.75201">
        <ele>141.9</ele>
        <time>2015-06-10T10:25:29.000Z</time>
      </trkpt>
      <trkpt lat="48.74765" lon="1.75192">
        <ele>142.4</ele>
        <time>2015-06-10T10:25:33.000Z</time>
      </trkpt>
      <trkpt lat="48.74762" lon="1.75186">
        <ele>142.4</ele>
        <time>2015-06-10T10:25:36.000Z</time>
      </trkpt>
      <trkpt lat="48.74759" lon="1.75176">
        <ele>142.6</ele>
        <time>2015-06-10T10:25:42.000Z</time>
      </trkpt>
      <trkpt lat="48.74753" lon="1.75161">
        <ele>142.5</ele>
        <time>2015-06-10T10:25:48.000Z</time>
      </trkpt>
      <trkpt lat="48.74751" lon="1.75148">
        <ele>142.2</ele>
        <time>2015-06-10T10:25:54.000Z</time>
      </trkpt>
      <trkpt lat="48.74749" lon="1.7514">
        <ele>141.9</ele>
        <time>2015-06-10T10:25:58.000Z</time>
      </trkpt>
      <trkpt lat="48.74748" lon="1.75137">
        <ele>141.7</ele>
        <time>2015-06-10T10:26:00.000Z</time>
      </trkpt>
      <trkpt lat="48.74747" lon="1.7513">
        <ele>141.3</ele>
        <time>2015-06-10T10:26:03.000Z</time>
      </trkpt>
      <trkpt lat="48.74743" lon="1.75117">
        <ele>140.4</ele>
        <time>2015-06-10T10:26:09.000Z</time>
      </trkpt>
      <trkpt lat="48.74742" lon="1.75104">
        <ele>139.8</ele>
        <time>2015-06-10T10:26:15.000Z</time>
      </trkpt>
      <trkpt lat="48.74742" lon="1.75096">
        <ele>139.4</ele>
        <time>2015-06-10T10:26:18.000Z</time>
      </trkpt>
      <trkpt lat="48.74744" lon="1.7508">
        <ele>138.7</ele>
        <time>2015-06-10T10:26:24.000Z</time>
      </trkpt>
      <trkpt lat="48.74747" lon="1.75061">
        <ele>138.3</ele>
        <time>2015-06-10T10:26:31.000Z</time>
      </trkpt>
      <trkpt lat="48.74751" lon="1.75048">
        <ele>138.2</ele>
        <time>2015-06-10T10:26:37.000Z</time>
      </trkpt>
      <trkpt lat="48.74757" lon="1.75035">
        <ele>139.2</ele>
        <time>2015-06-10T10:26:45.000Z</time>
      </trkpt>
      <trkpt lat="48.74759" lon="1.75023">
        <ele>139.1</ele>
        <time>2015-06-10T10:26:50.000Z</time>
      </trkpt>
      <trkpt lat="48.74759" lon="1.75019">
        <ele>139</ele>
        <time>2015-06-10T10:26:52.000Z</time>
      </trkpt>
      <trkpt lat="48.74761" lon="1.75003">
        <ele>138.5</ele>
        <time>2015-06-10T10:26:59.000Z</time>
      </trkpt>
      <trkpt lat="48.74764" lon="1.74998">
        <ele>138.4</ele>
        <time>2015-06-10T10:27:02.000Z</time>
      </trkpt>
      <trkpt lat="48.74767" lon="1.74994">
        <ele>138.3</ele>
        <time>2015-06-10T10:27:05.000Z</time>
      </trkpt>
      <trkpt lat="48.74773" lon="1.74991">
        <ele>138.3</ele>
        <time>2015-06-10T10:27:11.000Z</time>
      </trkpt>
      <trkpt lat="48.74776" lon="1.74984">
        <ele>137.8</ele>
        <time>2015-06-10T10:27:15.000Z</time>
      </trkpt>
      <trkpt lat="48.74778" lon="1.74981">
        <ele>137.7</ele>
        <time>2015-06-10T10:27:17.000Z</time>
      </trkpt>
      <trkpt lat="48.74778" lon="1.74976">
        <ele>137.5</ele>
        <time>2015-06-10T10:27:22.000Z</time>
      </trkpt>
      <trkpt lat="48.74779" lon="1.74975">
        <ele>137.5</ele>
        <time>2015-06-10T10:27:25.000Z</time>
      </trkpt>
      <trkpt lat="48.74785" lon="1.74971">
        <ele>138.7</ele>
        <time>2015-06-10T10:27:39.000Z</time>
      </trkpt>
      <trkpt lat="48.74791" lon="1.74961">
        <ele>139.5</ele>
        <time>2015-06-10T10:27:45.000Z</time>
      </trkpt>
      <trkpt lat="48.74794" lon="1.74956">
        <ele>139.7</ele>
        <time>2015-06-10T10:27:50.000Z</time>
      </trkpt>
      <trkpt lat="48.74795" lon="1.74954">
        <ele>139.6</ele>
        <time>2015-06-10T10:27:57.000Z</time>
      </trkpt>
      <trkpt lat="48.74798" lon="1.74943">
        <ele>138.7</ele>
        <time>2015-06-10T10:28:13.000Z</time>
      </trkpt>
      <trkpt lat="48.74788" lon="1.74941">
        <ele>138.3</ele>
        <time>2015-06-10T10:28:22.000Z</time>
      </trkpt>
      <trkpt lat="48.74793" lon="1.7494">
        <ele>138.5</ele>
        <time>2015-06-10T10:28:31.000Z</time>
      </trkpt>
      <trkpt lat="48.74799" lon="1.74935">
        <ele>138.5</ele>
        <time>2015-06-10T10:28:36.000Z</time>
      </trkpt>
      <trkpt lat="48.74803" lon="1.74931">
        <ele>138.5</ele>
        <time>2015-06-10T10:28:41.000Z</time>
      </trkpt>
      <trkpt lat="48.74809" lon="1.74922">
        <ele>138.8</ele>
        <time>2015-06-10T10:28:48.000Z</time>
      </trkpt>
      <trkpt lat="48.7481" lon="1.74921">
        <ele>139</ele>
        <time>2015-06-10T10:28:49.000Z</time>
      </trkpt>
      <trkpt lat="48.74816" lon="1.74913">
        <ele>139.7</ele>
        <time>2015-06-10T10:28:56.000Z</time>
      </trkpt>
      <trkpt lat="48.74817" lon="1.74909">
        <ele>139.5</ele>
        <time>2015-06-10T10:28:58.000Z</time>
      </trkpt>
      <trkpt lat="48.74823" lon="1.74899">
        <ele>139.3</ele>
        <time>2015-06-10T10:29:04.000Z</time>
      </trkpt>
      <trkpt lat="48.74824" lon="1.74898">
        <ele>139.3</ele>
        <time>2015-06-10T10:29:05.000Z</time>
      </trkpt>
      <trkpt lat="48.74832" lon="1.74883">
        <ele>138.9</ele>
        <time>2015-06-10T10:29:14.000Z</time>
      </trkpt>
      <trkpt lat="48.74833" lon="1.7488">
        <ele>139</ele>
        <time>2015-06-10T10:29:16.000Z</time>
      </trkpt>
      <trkpt lat="48.74838" lon="1.74873">
        <ele>140</ele>
        <time>2015-06-10T10:29:21.000Z</time>
      </trkpt>
      <trkpt lat="48.74843" lon="1.74864">
        <ele>140.9</ele>
        <time>2015-06-10T10:29:27.000Z</time>
      </trkpt>
      <trkpt lat="48.74843" lon="1.74851">
        <ele>140.5</ele>
        <time>2015-06-10T10:29:32.000Z</time>
      </trkpt>
      <trkpt lat="48.74849" lon="1.74835">
        <ele>140.7</ele>
        <time>2015-06-10T10:29:42.000Z</time>
      </trkpt>
      <trkpt lat="48.74854" lon="1.74823">
        <ele>141</ele>
        <time>2015-06-10T10:29:49.000Z</time>
      </trkpt>
      <trkpt lat="48.74855" lon="1.74817">
        <ele>140.9</ele>
        <time>2015-06-10T10:29:51.000Z</time>
      </trkpt>
      <trkpt lat="48.7486" lon="1.74794">
        <ele>140.5</ele>
        <time>2015-06-10T10:30:00.000Z</time>
      </trkpt>
      <trkpt lat="48.74863" lon="1.74777">
        <ele>140.3</ele>
        <time>2015-06-10T10:30:06.000Z</time>
      </trkpt>
      <trkpt lat="48.74866" lon="1.74767">
        <ele>140.2</ele>
        <time>2015-06-10T10:30:12.000Z</time>
      </trkpt>
      <trkpt lat="48.7487" lon="1.74758">
        <ele>140.1</ele>
        <time>2015-06-10T10:30:17.000Z</time>
      </trkpt>
      <trkpt lat="48.74872" lon="1.74747">
        <ele>139.7</ele>
        <time>2015-06-10T10:30:22.000Z</time>
      </trkpt>
      <trkpt lat="48.74875" lon="1.74741">
        <ele>139.5</ele>
        <time>2015-06-10T10:30:26.000Z</time>
      </trkpt>
      <trkpt lat="48.74875" lon="1.74735">
        <ele>139.2</ele>
        <time>2015-06-10T10:30:32.000Z</time>
      </trkpt>
      <trkpt lat="48.74874" lon="1.74732">
        <ele>139</ele>
        <time>2015-06-10T10:30:36.000Z</time>
      </trkpt>
      <trkpt lat="48.74873" lon="1.74721">
        <ele>138.4</ele>
        <time>2015-06-10T10:30:56.000Z</time>
      </trkpt>
      <trkpt lat="48.74876" lon="1.74706">
        <ele>138.5</ele>
        <time>2015-06-10T10:31:03.000Z</time>
      </trkpt>
      <trkpt lat="48.74876" lon="1.74702">
        <ele>138.5</ele>
        <time>2015-06-10T10:31:05.000Z</time>
      </trkpt>
      <trkpt lat="48.74884" lon="1.74691">
        <ele>138.8</ele>
        <time>2015-06-10T10:31:12.000Z</time>
      </trkpt>
      <trkpt lat="48.74891" lon="1.74685">
        <ele>139.3</ele>
        <time>2015-06-10T10:31:18.000Z</time>
      </trkpt>
      <trkpt lat="48.74894" lon="1.7468">
        <ele>139.7</ele>
        <time>2015-06-10T10:31:21.000Z</time>
      </trkpt>
      <trkpt lat="48.74899" lon="1.74677">
        <ele>140.4</ele>
        <time>2015-06-10T10:31:26.000Z</time>
      </trkpt>
      <trkpt lat="48.74901" lon="1.74673">
        <ele>140.5</ele>
        <time>2015-06-10T10:31:30.000Z</time>
      </trkpt>
      <trkpt lat="48.74903" lon="1.7467">
        <ele>140.6</ele>
        <time>2015-06-10T10:31:32.000Z</time>
      </trkpt>
      <trkpt lat="48.7491" lon="1.74657">
        <ele>140.6</ele>
        <time>2015-06-10T10:31:39.000Z</time>
      </trkpt>
      <trkpt lat="48.74911" lon="1.74654">
        <ele>140.5</ele>
        <time>2015-06-10T10:31:41.000Z</time>
      </trkpt>
      <trkpt lat="48.74915" lon="1.74643">
        <ele>140.1</ele>
        <time>2015-06-10T10:31:47.000Z</time>
      </trkpt>
      <trkpt lat="48.74919" lon="1.74631">
        <ele>139.9</ele>
        <time>2015-06-10T10:31:52.000Z</time>
      </trkpt>
      <trkpt lat="48.74925" lon="1.74619">
        <ele>140</ele>
        <time>2015-06-10T10:31:58.000Z</time>
      </trkpt>
      <trkpt lat="48.74926" lon="1.74611">
        <ele>139.7</ele>
        <time>2015-06-10T10:32:02.000Z</time>
      </trkpt>
      <trkpt lat="48.74932" lon="1.74597">
        <ele>139.5</ele>
        <time>2015-06-10T10:32:09.000Z</time>
      </trkpt>
      <trkpt lat="48.74936" lon="1.74593">
        <ele>139.5</ele>
        <time>2015-06-10T10:32:12.000Z</time>
      </trkpt>
      <trkpt lat="48.74943" lon="1.74575">
        <ele>138.3</ele>
        <time>2015-06-10T10:32:20.000Z</time>
      </trkpt>
      <trkpt lat="48.74947" lon="1.74563">
        <ele>138.1</ele>
        <time>2015-06-10T10:32:25.000Z</time>
      </trkpt>
      <trkpt lat="48.74952" lon="1.74553">
        <ele>138.6</ele>
        <time>2015-06-10T10:32:32.000Z</time>
      </trkpt>
      <trkpt lat="48.74956" lon="1.74543">
        <ele>139</ele>
        <time>2015-06-10T10:32:36.000Z</time>
      </trkpt>
      <trkpt lat="48.74961" lon="1.74533">
        <ele>139.7</ele>
        <time>2015-06-10T10:32:42.000Z</time>
      </trkpt>
      <trkpt lat="48.74962" lon="1.7453">
        <ele>139.9</ele>
        <time>2015-06-10T10:32:44.000Z</time>
      </trkpt>
      <trkpt lat="48.74968" lon="1.74518">
        <ele>140.5</ele>
        <time>2015-06-10T10:32:52.000Z</time>
      </trkpt>
      <trkpt lat="48.74971" lon="1.74502">
        <ele>139.9</ele>
        <time>2015-06-10T10:32:58.000Z</time>
      </trkpt>
      <trkpt lat="48.74974" lon="1.74489">
        <ele>139.5</ele>
        <time>2015-06-10T10:33:04.000Z</time>
      </trkpt>
      <trkpt lat="48.74974" lon="1.74487">
        <ele>139.4</ele>
        <time>2015-06-10T10:33:05.000Z</time>
      </trkpt>
      <trkpt lat="48.7498" lon="1.74462">
        <ele>139.2</ele>
        <time>2015-06-10T10:33:15.000Z</time>
      </trkpt>
      <trkpt lat="48.7498" lon="1.7446">
        <ele>139.4</ele>
        <time>2015-06-10T10:33:16.000Z</time>
      </trkpt>
      <trkpt lat="48.74983" lon="1.7444">
        <ele>138.5</ele>
        <time>2015-06-10T10:33:24.000Z</time>
      </trkpt>
      <trkpt lat="48.74985" lon="1.74424">
        <ele>137.9</ele>
        <time>2015-06-10T10:33:31.000Z</time>
      </trkpt>
      <trkpt lat="48.74987" lon="1.74411">
        <ele>137.3</ele>
        <time>2015-06-10T10:33:36.000Z</time>
      </trkpt>
      <trkpt lat="48.74992" lon="1.74401">
        <ele>136.9</ele>
        <time>2015-06-10T10:33:41.000Z</time>
      </trkpt>
      <trkpt lat="48.74995" lon="1.74388">
        <ele>135.8</ele>
        <time>2015-06-10T10:33:47.000Z</time>
      </trkpt>
      <trkpt lat="48.74997" lon="1.74379">
        <ele>135.6</ele>
        <time>2015-06-10T10:33:50.000Z</time>
      </trkpt>
      <trkpt lat="48.74999" lon="1.74363">
        <ele>135.1</ele>
        <time>2015-06-10T10:33:57.000Z</time>
      </trkpt>
      <trkpt lat="48.75006" lon="1.74349">
        <ele>136.7</ele>
        <time>2015-06-10T10:34:05.000Z</time>
      </trkpt>
      <trkpt lat="48.75009" lon="1.74342">
        <ele>137.4</ele>
        <time>2015-06-10T10:34:11.000Z</time>
      </trkpt>
      <trkpt lat="48.75013" lon="1.74332">
        <ele>137.8</ele>
        <time>2015-06-10T10:34:17.000Z</time>
      </trkpt>
      <trkpt lat="48.75016" lon="1.74326">
        <ele>137.9</ele>
        <time>2015-06-10T10:34:21.000Z</time>
      </trkpt>
      <trkpt lat="48.75017" lon="1.74322">
        <ele>138</ele>
        <time>2015-06-10T10:34:24.000Z</time>
      </trkpt>
      <trkpt lat="48.75021" lon="1.74309">
        <ele>137.6</ele>
        <time>2015-06-10T10:34:31.000Z</time>
      </trkpt>
      <trkpt lat="48.75024" lon="1.74298">
        <ele>137.1</ele>
        <time>2015-06-10T10:34:38.000Z</time>
      </trkpt>
      <trkpt lat="48.75025" lon="1.74294">
        <ele>136.9</ele>
        <time>2015-06-10T10:34:41.000Z</time>
      </trkpt>
      <trkpt lat="48.75026" lon="1.74287">
        <ele>136.5</ele>
        <time>2015-06-10T10:34:46.000Z</time>
      </trkpt>
      <trkpt lat="48.75027" lon="1.74279">
        <ele>136</ele>
        <time>2015-06-10T10:34:50.000Z</time>
      </trkpt>
      <trkpt lat="48.75028" lon="1.74265">
        <ele>135.6</ele>
        <time>2015-06-10T10:34:54.000Z</time>
      </trkpt>
      <trkpt lat="48.75034" lon="1.7425">
        <ele>135.9</ele>
        <time>2015-06-10T10:35:00.000Z</time>
      </trkpt>
      <trkpt lat="48.75038" lon="1.74241">
        <ele>136</ele>
        <time>2015-06-10T10:35:06.000Z</time>
      </trkpt>
      <trkpt lat="48.75044" lon="1.74227">
        <ele>136</ele>
        <time>2015-06-10T10:35:12.000Z</time>
      </trkpt>
      <trkpt lat="48.75045" lon="1.74225">
        <ele>136</ele>
        <time>2015-06-10T10:35:13.000Z</time>
      </trkpt>
      <trkpt lat="48.7505" lon="1.74222">
        <ele>136.3</ele>
        <time>2015-06-10T10:35:19.000Z</time>
      </trkpt>
      <trkpt lat="48.75054" lon="1.74213">
        <ele>135.8</ele>
        <time>2015-06-10T10:35:24.000Z</time>
      </trkpt>
      <trkpt lat="48.75061" lon="1.74199">
        <ele>135.6</ele>
        <time>2015-06-10T10:35:30.000Z</time>
      </trkpt>
      <trkpt lat="48.75067" lon="1.74194">
        <ele>136.5</ele>
        <time>2015-06-10T10:35:36.000Z</time>
      </trkpt>
      <trkpt lat="48.75072" lon="1.7418">
        <ele>136.7</ele>
        <time>2015-06-10T10:35:43.000Z</time>
      </trkpt>
      <trkpt lat="48.75074" lon="1.74172">
        <ele>136.4</ele>
        <time>2015-06-10T10:35:47.000Z</time>
      </trkpt>
      <trkpt lat="48.75078" lon="1.74162">
        <ele>136</ele>
        <time>2015-06-10T10:35:53.000Z</time>
      </trkpt>
      <trkpt lat="48.75081" lon="1.74153">
        <ele>135.4</ele>
        <time>2015-06-10T10:35:58.000Z</time>
      </trkpt>
      <trkpt lat="48.75085" lon="1.74142">
        <ele>135.1</ele>
        <time>2015-06-10T10:36:05.000Z</time>
      </trkpt>
      <trkpt lat="48.75087" lon="1.74128">
        <ele>135.2</ele>
        <time>2015-06-10T10:36:11.000Z</time>
      </trkpt>
      <trkpt lat="48.75086" lon="1.74117">
        <ele>134.3</ele>
        <time>2015-06-10T10:36:16.000Z</time>
      </trkpt>
      <trkpt lat="48.75087" lon="1.74106">
        <ele>134.9</ele>
        <time>2015-06-10T10:36:21.000Z</time>
      </trkpt>
      <trkpt lat="48.75088" lon="1.74091">
        <ele>136.2</ele>
        <time>2015-06-10T10:36:26.000Z</time>
      </trkpt>
      <trkpt lat="48.75087" lon="1.74073">
        <ele>136.6</ele>
        <time>2015-06-10T10:36:33.000Z</time>
      </trkpt>
      <trkpt lat="48.75086" lon="1.74068">
        <ele>136.4</ele>
        <time>2015-06-10T10:36:35.000Z</time>
      </trkpt>
      <trkpt lat="48.75086" lon="1.74061">
        <ele>136.4</ele>
        <time>2015-06-10T10:36:38.000Z</time>
      </trkpt>
      <trkpt lat="48.75086" lon="1.74054">
        <ele>136.2</ele>
        <time>2015-06-10T10:36:42.000Z</time>
      </trkpt>
      <trkpt lat="48.75089" lon="1.74039">
        <ele>137.7</ele>
        <time>2015-06-10T10:36:50.000Z</time>
      </trkpt>
      <trkpt lat="48.75092" lon="1.7403">
        <ele>139.1</ele>
        <time>2015-06-10T10:36:55.000Z</time>
      </trkpt>
      <trkpt lat="48.75096" lon="1.74019">
        <ele>140.2</ele>
        <time>2015-06-10T10:37:01.000Z</time>
      </trkpt>
      <trkpt lat="48.75099" lon="1.74006">
        <ele>139.7</ele>
        <time>2015-06-10T10:37:07.000Z</time>
      </trkpt>
      <trkpt lat="48.75103" lon="1.74">
        <ele>140.7</ele>
        <time>2015-06-10T10:37:11.000Z</time>
      </trkpt>
      <trkpt lat="48.75108" lon="1.73994">
        <ele>141.5</ele>
        <time>2015-06-10T10:37:17.000Z</time>
      </trkpt>
      <trkpt lat="48.75114" lon="1.73985">
        <ele>141.8</ele>
        <time>2015-06-10T10:37:23.000Z</time>
      </trkpt>
      <trkpt lat="48.7512" lon="1.73981">
        <ele>142.9</ele>
        <time>2015-06-10T10:37:28.000Z</time>
      </trkpt>
      <trkpt lat="48.75122" lon="1.73978">
        <ele>142.9</ele>
        <time>2015-06-10T10:37:30.000Z</time>
      </trkpt>
      <trkpt lat="48.75127" lon="1.73968">
        <ele>142.8</ele>
        <time>2015-06-10T10:37:36.000Z</time>
      </trkpt>
      <trkpt lat="48.7513" lon="1.73966">
        <ele>143.2</ele>
        <time>2015-06-10T10:37:38.000Z</time>
      </trkpt>
      <trkpt lat="48.75132" lon="1.73966">
        <ele>143.9</ele>
        <time>2015-06-10T10:37:40.000Z</time>
      </trkpt>
      <trkpt lat="48.75135" lon="1.73963">
        <ele>144.2</ele>
        <time>2015-06-10T10:37:43.000Z</time>
      </trkpt>
      <trkpt lat="48.75142" lon="1.73957">
        <ele>144.9</ele>
        <time>2015-06-10T10:37:48.000Z</time>
      </trkpt>
      <trkpt lat="48.75154" lon="1.73946">
        <ele>144.6</ele>
        <time>2015-06-10T10:37:57.000Z</time>
      </trkpt>
      <trkpt lat="48.75164" lon="1.73936">
        <ele>142.8</ele>
        <time>2015-06-10T10:38:05.000Z</time>
      </trkpt>
      <trkpt lat="48.75174" lon="1.73928">
        <ele>142</ele>
        <time>2015-06-10T10:38:12.000Z</time>
      </trkpt>
      <trkpt lat="48.75181" lon="1.73922">
        <ele>141.4</ele>
        <time>2015-06-10T10:38:17.000Z</time>
      </trkpt>
      <trkpt lat="48.75192" lon="1.73912">
        <ele>141.6</ele>
        <time>2015-06-10T10:38:25.000Z</time>
      </trkpt>
      <trkpt lat="48.752" lon="1.73907">
        <ele>140.9</ele>
        <time>2015-06-10T10:38:32.000Z</time>
      </trkpt>
      <trkpt lat="48.7521" lon="1.73906">
        <ele>141.5</ele>
        <time>2015-06-10T10:38:39.000Z</time>
      </trkpt>
      <trkpt lat="48.75216" lon="1.73901">
        <ele>140.7</ele>
        <time>2015-06-10T10:38:44.000Z</time>
      </trkpt>
      <trkpt lat="48.75219" lon="1.739">
        <ele>140.6</ele>
        <time>2015-06-10T10:38:46.000Z</time>
      </trkpt>
      <trkpt lat="48.7523" lon="1.73893">
        <ele>139.4</ele>
        <time>2015-06-10T10:38:52.000Z</time>
      </trkpt>
      <trkpt lat="48.75235" lon="1.73889">
        <ele>138.8</ele>
        <time>2015-06-10T10:38:55.000Z</time>
      </trkpt>
      <trkpt lat="48.75246" lon="1.73881">
        <ele>138.4</ele>
        <time>2015-06-10T10:39:02.000Z</time>
      </trkpt>
      <trkpt lat="48.75252" lon="1.73879">
        <ele>138.1</ele>
        <time>2015-06-10T10:39:07.000Z</time>
      </trkpt>
      <trkpt lat="48.75259" lon="1.73877">
        <ele>137.4</ele>
        <time>2015-06-10T10:39:12.000Z</time>
      </trkpt>
      <trkpt lat="48.75261" lon="1.73876">
        <ele>137.3</ele>
        <time>2015-06-10T10:39:14.000Z</time>
      </trkpt>
      <trkpt lat="48.75274" lon="1.73867">
        <ele>135.1</ele>
        <time>2015-06-10T10:39:21.000Z</time>
      </trkpt>
      <trkpt lat="48.75284" lon="1.73864">
        <ele>134</ele>
        <time>2015-06-10T10:39:27.000Z</time>
      </trkpt>
      <trkpt lat="48.75289" lon="1.73867">
        <ele>133.8</ele>
        <time>2015-06-10T10:39:32.000Z</time>
      </trkpt>
      <trkpt lat="48.75293" lon="1.73873">
        <ele>134.2</ele>
        <time>2015-06-10T10:39:36.000Z</time>
      </trkpt>
      <trkpt lat="48.75301" lon="1.73885">
        <ele>134.5</ele>
        <time>2015-06-10T10:39:43.000Z</time>
      </trkpt>
      <trkpt lat="48.75306" lon="1.7389">
        <ele>134.1</ele>
        <time>2015-06-10T10:39:46.000Z</time>
      </trkpt>
      <trkpt lat="48.75312" lon="1.73894">
        <ele>134.4</ele>
        <time>2015-06-10T10:39:51.000Z</time>
      </trkpt>
      <trkpt lat="48.75321" lon="1.73898">
        <ele>134.3</ele>
        <time>2015-06-10T10:39:57.000Z</time>
      </trkpt>
      <trkpt lat="48.75321" lon="1.73899">
        <ele>134.4</ele>
        <time>2015-06-10T10:39:59.000Z</time>
      </trkpt>
      <trkpt lat="48.75313" lon="1.73899">
        <ele>135.1</ele>
        <time>2015-06-10T10:40:16.000Z</time>
      </trkpt>
      <trkpt lat="48.75304" lon="1.73894">
        <ele>135.3</ele>
        <time>2015-06-10T10:40:22.000Z</time>
      </trkpt>
      <trkpt lat="48.753" lon="1.73891">
        <ele>135.6</ele>
        <time>2015-06-10T10:40:25.000Z</time>
      </trkpt>
      <trkpt lat="48.75295" lon="1.73886">
        <ele>135.9</ele>
        <time>2015-06-10T10:40:29.000Z</time>
      </trkpt>
      <trkpt lat="48.75292" lon="1.73881">
        <ele>135.7</ele>
        <time>2015-06-10T10:40:33.000Z</time>
      </trkpt>
      <trkpt lat="48.75287" lon="1.73868">
        <ele>134.2</ele>
        <time>2015-06-10T10:40:40.000Z</time>
      </trkpt>
      <trkpt lat="48.75282" lon="1.73852">
        <ele>133.2</ele>
        <time>2015-06-10T10:40:48.000Z</time>
      </trkpt>
      <trkpt lat="48.7528" lon="1.73848">
        <ele>133.4</ele>
        <time>2015-06-10T10:40:50.000Z</time>
      </trkpt>
      <trkpt lat="48.75276" lon="1.73843">
        <ele>133.2</ele>
        <time>2015-06-10T10:40:57.000Z</time>
      </trkpt>
      <trkpt lat="48.75279" lon="1.73838">
        <ele>133.1</ele>
        <time>2015-06-10T10:41:04.000Z</time>
      </trkpt>
      <trkpt lat="48.75279" lon="1.73832">
        <ele>132.8</ele>
        <time>2015-06-10T10:41:09.000Z</time>
      </trkpt>
      <trkpt lat="48.75276" lon="1.73824">
        <ele>132.3</ele>
        <time>2015-06-10T10:41:14.000Z</time>
      </trkpt>
      <trkpt lat="48.75274" lon="1.73812">
        <ele>131.6</ele>
        <time>2015-06-10T10:41:21.000Z</time>
      </trkpt>
      <trkpt lat="48.75274" lon="1.73811">
        <ele>131.6</ele>
        <time>2015-06-10T10:41:22.000Z</time>
      </trkpt>
      <trkpt lat="48.75272" lon="1.73807">
        <ele>131.5</ele>
        <time>2015-06-10T10:41:26.000Z</time>
      </trkpt>
      <trkpt lat="48.7527" lon="1.73811">
        <ele>131.8</ele>
        <time>2015-06-10T10:41:34.000Z</time>
      </trkpt>
      <trkpt lat="48.75274" lon="1.73816">
        <ele>131.8</ele>
        <time>2015-06-10T10:41:40.000Z</time>
      </trkpt>
      <trkpt lat="48.75272" lon="1.73818">
        <ele>131.9</ele>
        <time>2015-06-10T10:41:48.000Z</time>
      </trkpt>
      <trkpt lat="48.75266" lon="1.73826">
        <ele>132.1</ele>
        <time>2015-06-10T10:42:01.000Z</time>
      </trkpt>
      <trkpt lat="48.7527" lon="1.73816">
        <ele>131.9</ele>
        <time>2015-06-10T10:42:10.000Z</time>
      </trkpt>
      <trkpt lat="48.7527" lon="1.73816">
        <ele>131.9</ele>
        <time>2015-06-10T10:42:13.000Z</time>
      </trkpt>
      <trkpt lat="48.75273" lon="1.73806">
        <ele>131.4</ele>
        <time>2015-06-10T10:43:05.000Z</time>
      </trkpt>
      <trkpt lat="48.75269" lon="1.73802">
        <ele>131.8</ele>
        <time>2015-06-10T10:43:10.000Z</time>
      </trkpt>
      <trkpt lat="48.75265" lon="1.73801">
        <ele>132.1</ele>
        <time>2015-06-10T10:43:16.000Z</time>
      </trkpt>
      <trkpt lat="48.75261" lon="1.73801">
        <ele>132.3</ele>
        <time>2015-06-10T10:43:20.000Z</time>
      </trkpt>
      <trkpt lat="48.75259" lon="1.738">
        <ele>132.5</ele>
        <time>2015-06-10T10:43:22.000Z</time>
      </trkpt>
      <trkpt lat="48.75252" lon="1.73789">
        <ele>133</ele>
        <time>2015-06-10T10:43:30.000Z</time>
      </trkpt>
      <trkpt lat="48.75247" lon="1.7378">
        <ele>132.9</ele>
        <time>2015-06-10T10:43:35.000Z</time>
      </trkpt>
      <trkpt lat="48.7524" lon="1.73767">
        <ele>132.8</ele>
        <time>2015-06-10T10:43:42.000Z</time>
      </trkpt>
      <trkpt lat="48.75234" lon="1.73759">
        <ele>132.8</ele>
        <time>2015-06-10T10:43:47.000Z</time>
      </trkpt>
      <trkpt lat="48.75229" lon="1.73746">
        <ele>133.1</ele>
        <time>2015-06-10T10:43:52.000Z</time>
      </trkpt>
      <trkpt lat="48.75223" lon="1.73731">
        <ele>133.7</ele>
        <time>2015-06-10T10:43:57.000Z</time>
      </trkpt>
      <trkpt lat="48.75216" lon="1.73716">
        <ele>134.4</ele>
        <time>2015-06-10T10:44:03.000Z</time>
      </trkpt>
      <trkpt lat="48.75212" lon="1.73704">
        <ele>135</ele>
        <time>2015-06-10T10:44:09.000Z</time>
      </trkpt>
      <trkpt lat="48.7521" lon="1.73697">
        <ele>135.3</ele>
        <time>2015-06-10T10:44:14.000Z</time>
      </trkpt>
      <trkpt lat="48.75206" lon="1.7369">
        <ele>135.8</ele>
        <time>2015-06-10T10:44:18.000Z</time>
      </trkpt>
      <trkpt lat="48.75206" lon="1.73684">
        <ele>136.1</ele>
        <time>2015-06-10T10:44:21.000Z</time>
      </trkpt>
      <trkpt lat="48.75218" lon="1.73678">
        <ele>136.2</ele>
        <time>2015-06-10T10:44:28.000Z</time>
      </trkpt>
      <trkpt lat="48.7523" lon="1.73672">
        <ele>136.6</ele>
        <time>2015-06-10T10:44:36.000Z</time>
      </trkpt>
      <trkpt lat="48.75239" lon="1.73672">
        <ele>136.6</ele>
        <time>2015-06-10T10:44:42.000Z</time>
      </trkpt>
      <trkpt lat="48.75243" lon="1.73672">
        <ele>136.6</ele>
        <time>2015-06-10T10:44:44.000Z</time>
      </trkpt>
      <trkpt lat="48.75248" lon="1.73671">
        <ele>136.7</ele>
        <time>2015-06-10T10:44:47.000Z</time>
      </trkpt>
      <trkpt lat="48.75256" lon="1.7367">
        <ele>136.6</ele>
        <time>2015-06-10T10:44:51.000Z</time>
      </trkpt>
      <trkpt lat="48.75267" lon="1.73666">
        <ele>136.4</ele>
        <time>2015-06-10T10:44:58.000Z</time>
      </trkpt>
      <trkpt lat="48.75268" lon="1.73665">
        <ele>136.4</ele>
        <time>2015-06-10T10:44:59.000Z</time>
      </trkpt>
      <trkpt lat="48.75276" lon="1.73661">
        <ele>136.5</ele>
        <time>2015-06-10T10:45:05.000Z</time>
      </trkpt>
      <trkpt lat="48.75277" lon="1.73661">
        <ele>136.5</ele>
        <time>2015-06-10T10:45:06.000Z</time>
      </trkpt>
      <trkpt lat="48.7529" lon="1.73659">
        <ele>136.5</ele>
        <time>2015-06-10T10:45:14.000Z</time>
      </trkpt>
      <trkpt lat="48.75299" lon="1.73656">
        <ele>136.5</ele>
        <time>2015-06-10T10:45:21.000Z</time>
      </trkpt>
      <trkpt lat="48.75306" lon="1.73652">
        <ele>136.5</ele>
        <time>2015-06-10T10:45:26.000Z</time>
      </trkpt>
      <trkpt lat="48.75316" lon="1.73647">
        <ele>136.6</ele>
        <time>2015-06-10T10:45:33.000Z</time>
      </trkpt>
      <trkpt lat="48.75323" lon="1.73645">
        <ele>136.7</ele>
        <time>2015-06-10T10:45:38.000Z</time>
      </trkpt>
      <trkpt lat="48.75332" lon="1.7364">
        <ele>136.9</ele>
        <time>2015-06-10T10:45:43.000Z</time>
      </trkpt>
      <trkpt lat="48.75337" lon="1.73637">
        <ele>136.8</ele>
        <time>2015-06-10T10:45:47.000Z</time>
      </trkpt>
      <trkpt lat="48.75346" lon="1.73631">
        <ele>136.7</ele>
        <time>2015-06-10T10:45:54.000Z</time>
      </trkpt>
      <trkpt lat="48.75355" lon="1.73626">
        <ele>136.6</ele>
        <time>2015-06-10T10:46:01.000Z</time>
      </trkpt>
      <trkpt lat="48.75364" lon="1.73621">
        <ele>136.8</ele>
        <time>2015-06-10T10:46:07.000Z</time>
      </trkpt>
      <trkpt lat="48.75367" lon="1.73618">
        <ele>136.8</ele>
        <time>2015-06-10T10:46:09.000Z</time>
      </trkpt>
      <trkpt lat="48.75377" lon="1.73611">
        <ele>136.9</ele>
        <time>2015-06-10T10:46:15.000Z</time>
      </trkpt>
      <trkpt lat="48.75379" lon="1.73609">
        <ele>136.8</ele>
        <time>2015-06-10T10:46:16.000Z</time>
      </trkpt>
      <trkpt lat="48.7539" lon="1.73598">
        <ele>136.4</ele>
        <time>2015-06-10T10:46:24.000Z</time>
      </trkpt>
      <trkpt lat="48.75398" lon="1.73587">
        <ele>136.2</ele>
        <time>2015-06-10T10:46:31.000Z</time>
      </trkpt>
      <trkpt lat="48.75405" lon="1.73576">
        <ele>136</ele>
        <time>2015-06-10T10:46:36.000Z</time>
      </trkpt>
      <trkpt lat="48.75412" lon="1.73564">
        <ele>135.9</ele>
        <time>2015-06-10T10:46:43.000Z</time>
      </trkpt>
      <trkpt lat="48.75417" lon="1.73554">
        <ele>136</ele>
        <time>2015-06-10T10:46:49.000Z</time>
      </trkpt>
      <trkpt lat="48.75421" lon="1.73547">
        <ele>135.9</ele>
        <time>2015-06-10T10:46:54.000Z</time>
      </trkpt>
      <trkpt lat="48.75422" lon="1.73538">
        <ele>135.9</ele>
        <time>2015-06-10T10:46:59.000Z</time>
      </trkpt>
      <trkpt lat="48.7543" lon="1.73523">
        <ele>136.2</ele>
        <time>2015-06-10T10:47:08.000Z</time>
      </trkpt>
      <trkpt lat="48.75439" lon="1.73505">
        <ele>136.8</ele>
        <time>2015-06-10T10:47:16.000Z</time>
      </trkpt>
      <trkpt lat="48.75445" lon="1.73495">
        <ele>137.1</ele>
        <time>2015-06-10T10:47:20.000Z</time>
      </trkpt>
      <trkpt lat="48.75448" lon="1.73486">
        <ele>137.4</ele>
        <time>2015-06-10T10:47:25.000Z</time>
      </trkpt>
      <trkpt lat="48.7545" lon="1.73483">
        <ele>137.4</ele>
        <time>2015-06-10T10:47:27.000Z</time>
      </trkpt>
      <trkpt lat="48.75458" lon="1.73468">
        <ele>137.6</ele>
        <time>2015-06-10T10:47:35.000Z</time>
      </trkpt>
      <trkpt lat="48.75463" lon="1.73451">
        <ele>137.8</ele>
        <time>2015-06-10T10:47:42.000Z</time>
      </trkpt>
      <trkpt lat="48.75464" lon="1.73447">
        <ele>137.9</ele>
        <time>2015-06-10T10:47:44.000Z</time>
      </trkpt>
      <trkpt lat="48.75469" lon="1.73433">
        <ele>138</ele>
        <time>2015-06-10T10:47:52.000Z</time>
      </trkpt>
      <trkpt lat="48.75474" lon="1.73419">
        <ele>137.9</ele>
        <time>2015-06-10T10:47:59.000Z</time>
      </trkpt>
      <trkpt lat="48.75475" lon="1.73417">
        <ele>137.9</ele>
        <time>2015-06-10T10:48:00.000Z</time>
      </trkpt>
      <trkpt lat="48.75478" lon="1.73409">
        <ele>137.8</ele>
        <time>2015-06-10T10:48:05.000Z</time>
      </trkpt>
      <trkpt lat="48.75485" lon="1.73393">
        <ele>137.5</ele>
        <time>2015-06-10T10:48:12.000Z</time>
      </trkpt>
      <trkpt lat="48.75488" lon="1.73385">
        <ele>137.4</ele>
        <time>2015-06-10T10:48:19.000Z</time>
      </trkpt>
      <trkpt lat="48.75492" lon="1.73378">
        <ele>137.3</ele>
        <time>2015-06-10T10:48:29.000Z</time>
      </trkpt>
      <trkpt lat="48.75498" lon="1.73368">
        <ele>137.1</ele>
        <time>2015-06-10T10:48:35.000Z</time>
      </trkpt>
      <trkpt lat="48.75506" lon="1.73356">
        <ele>136.8</ele>
        <time>2015-06-10T10:48:43.000Z</time>
      </trkpt>
      <trkpt lat="48.75516" lon="1.73342">
        <ele>136.4</ele>
        <time>2015-06-10T10:48:52.000Z</time>
      </trkpt>
      <trkpt lat="48.75522" lon="1.73331">
        <ele>136.2</ele>
        <time>2015-06-10T10:48:59.000Z</time>
      </trkpt>
      <trkpt lat="48.75529" lon="1.73319">
        <ele>136</ele>
        <time>2015-06-10T10:49:06.000Z</time>
      </trkpt>
      <trkpt lat="48.75535" lon="1.73305">
        <ele>135.7</ele>
        <time>2015-06-10T10:49:13.000Z</time>
      </trkpt>
      <trkpt lat="48.75541" lon="1.73293">
        <ele>135.5</ele>
        <time>2015-06-10T10:49:20.000Z</time>
      </trkpt>
      <trkpt lat="48.75548" lon="1.73279">
        <ele>135.3</ele>
        <time>2015-06-10T10:49:28.000Z</time>
      </trkpt>
      <trkpt lat="48.75553" lon="1.73266">
        <ele>135.1</ele>
        <time>2015-06-10T10:49:34.000Z</time>
      </trkpt>
      <trkpt lat="48.75559" lon="1.73252">
        <ele>134.8</ele>
        <time>2015-06-10T10:49:41.000Z</time>
      </trkpt>
      <trkpt lat="48.7556" lon="1.73249">
        <ele>134.7</ele>
        <time>2015-06-10T10:49:43.000Z</time>
      </trkpt>
      <trkpt lat="48.7556" lon="1.73244">
        <ele>134.7</ele>
        <time>2015-06-10T10:49:48.000Z</time>
      </trkpt>
      <trkpt lat="48.75563" lon="1.73235">
        <ele>134.6</ele>
        <time>2015-06-10T10:50:44.000Z</time>
      </trkpt>
      <trkpt lat="48.7557" lon="1.73221">
        <ele>134.4</ele>
        <time>2015-06-10T10:50:52.000Z</time>
      </trkpt>
      <trkpt lat="48.75572" lon="1.73215">
        <ele>134.2</ele>
        <time>2015-06-10T10:50:58.000Z</time>
      </trkpt>
      <trkpt lat="48.75572" lon="1.73215">
        <ele>134.2</ele>
        <time>2015-06-10T10:50:59.000Z</time>
      </trkpt>
      <trkpt lat="48.75583" lon="1.73198">
        <ele>133.1</ele>
        <time>2015-06-10T10:51:17.000Z</time>
      </trkpt>
      <trkpt lat="48.7559" lon="1.73187">
        <ele>133.2</ele>
        <time>2015-06-10T10:51:23.000Z</time>
      </trkpt>
      <trkpt lat="48.75591" lon="1.73182">
        <ele>133.3</ele>
        <time>2015-06-10T10:51:26.000Z</time>
      </trkpt>
      <trkpt lat="48.75594" lon="1.73173">
        <ele>133.5</ele>
        <time>2015-06-10T10:51:31.000Z</time>
      </trkpt>
      <trkpt lat="48.75601" lon="1.73161">
        <ele>133.4</ele>
        <time>2015-06-10T10:51:38.000Z</time>
      </trkpt>
      <trkpt lat="48.75612" lon="1.73144">
        <ele>133</ele>
        <time>2015-06-10T10:51:49.000Z</time>
      </trkpt>
      <trkpt lat="48.7562" lon="1.73129">
        <ele>133.2</ele>
        <time>2015-06-10T10:51:57.000Z</time>
      </trkpt>
      <trkpt lat="48.75625" lon="1.73118">
        <ele>133.4</ele>
        <time>2015-06-10T10:52:03.000Z</time>
      </trkpt>
      <trkpt lat="48.75634" lon="1.73106">
        <ele>133.2</ele>
        <time>2015-06-10T10:52:11.000Z</time>
      </trkpt>
      <trkpt lat="48.75643" lon="1.73089">
        <ele>132.7</ele>
        <time>2015-06-10T10:52:21.000Z</time>
      </trkpt>
      <trkpt lat="48.75649" lon="1.73081">
        <ele>132.3</ele>
        <time>2015-06-10T10:52:26.000Z</time>
      </trkpt>
      <trkpt lat="48.75653" lon="1.73075">
        <ele>132.1</ele>
        <time>2015-06-10T10:52:30.000Z</time>
      </trkpt>
      <trkpt lat="48.75658" lon="1.73065">
        <ele>132.1</ele>
        <time>2015-06-10T10:52:35.000Z</time>
      </trkpt>
      <trkpt lat="48.75662" lon="1.73059">
        <ele>132.1</ele>
        <time>2015-06-10T10:52:39.000Z</time>
      </trkpt>
      <trkpt lat="48.75667" lon="1.73053">
        <ele>132</ele>
        <time>2015-06-10T10:52:43.000Z</time>
      </trkpt>
      <trkpt lat="48.75673" lon="1.73039">
        <ele>131.8</ele>
        <time>2015-06-10T10:52:50.000Z</time>
      </trkpt>
      <trkpt lat="48.75681" lon="1.73027">
        <ele>131.5</ele>
        <time>2015-06-10T10:52:58.000Z</time>
      </trkpt>
      <trkpt lat="48.75689" lon="1.73007">
        <ele>131.8</ele>
        <time>2015-06-10T10:53:06.000Z</time>
      </trkpt>
      <trkpt lat="48.75697" lon="1.72993">
        <ele>131.9</ele>
        <time>2015-06-10T10:53:14.000Z</time>
      </trkpt>
      <trkpt lat="48.75703" lon="1.72985">
        <ele>131.7</ele>
        <time>2015-06-10T10:53:20.000Z</time>
      </trkpt>
      <trkpt lat="48.7571" lon="1.72976">
        <ele>131.4</ele>
        <time>2015-06-10T10:53:26.000Z</time>
      </trkpt>
      <trkpt lat="48.75721" lon="1.72958">
        <ele>131.1</ele>
        <time>2015-06-10T10:53:36.000Z</time>
      </trkpt>
      <trkpt lat="48.75729" lon="1.72946">
        <ele>130.8</ele>
        <time>2015-06-10T10:53:44.000Z</time>
      </trkpt>
      <trkpt lat="48.75737" lon="1.72933">
        <ele>130.9</ele>
        <time>2015-06-10T10:53:52.000Z</time>
      </trkpt>
      <trkpt lat="48.75743" lon="1.72921">
        <ele>131.1</ele>
        <time>2015-06-10T10:53:59.000Z</time>
      </trkpt>
      <trkpt lat="48.75751" lon="1.72908">
        <ele>131</ele>
        <time>2015-06-10T10:54:07.000Z</time>
      </trkpt>
      <trkpt lat="48.75761" lon="1.72889">
        <ele>130.6</ele>
        <time>2015-06-10T10:54:18.000Z</time>
      </trkpt>
      <trkpt lat="48.75767" lon="1.72879">
        <ele>130.4</ele>
        <time>2015-06-10T10:54:24.000Z</time>
      </trkpt>
      <trkpt lat="48.75771" lon="1.72875">
        <ele>130.3</ele>
        <time>2015-06-10T10:54:27.000Z</time>
      </trkpt>
      <trkpt lat="48.75775" lon="1.7287">
        <ele>130.1</ele>
        <time>2015-06-10T10:54:31.000Z</time>
      </trkpt>
      <trkpt lat="48.75784" lon="1.72855">
        <ele>130</ele>
        <time>2015-06-10T10:54:41.000Z</time>
      </trkpt>
      <trkpt lat="48.75791" lon="1.72846">
        <ele>130.1</ele>
        <time>2015-06-10T10:54:47.000Z</time>
      </trkpt>
      <trkpt lat="48.75797" lon="1.7284">
        <ele>130.1</ele>
        <time>2015-06-10T10:54:51.000Z</time>
      </trkpt>
      <trkpt lat="48.75802" lon="1.72833">
        <ele>130.1</ele>
        <time>2015-06-10T10:54:56.000Z</time>
      </trkpt>
      <trkpt lat="48.75805" lon="1.72827">
        <ele>130</ele>
        <time>2015-06-10T10:54:59.000Z</time>
      </trkpt>
      <trkpt lat="48.7581" lon="1.72823">
        <ele>129.7</ele>
        <time>2015-06-10T10:55:03.000Z</time>
      </trkpt>
      <trkpt lat="48.75818" lon="1.72814">
        <ele>129.4</ele>
        <time>2015-06-10T10:55:10.000Z</time>
      </trkpt>
      <trkpt lat="48.75826" lon="1.72804">
        <ele>129.3</ele>
        <time>2015-06-10T10:55:18.000Z</time>
      </trkpt>
      <trkpt lat="48.75835" lon="1.72794">
        <ele>128.9</ele>
        <time>2015-06-10T10:55:25.000Z</time>
      </trkpt>
      <trkpt lat="48.75841" lon="1.72788">
        <ele>128.7</ele>
        <time>2015-06-10T10:55:30.000Z</time>
      </trkpt>
      <trkpt lat="48.75845" lon="1.72783">
        <ele>128.6</ele>
        <time>2015-06-10T10:55:34.000Z</time>
      </trkpt>
      <trkpt lat="48.75848" lon="1.72777">
        <ele>128.5</ele>
        <time>2015-06-10T10:55:38.000Z</time>
      </trkpt>
      <trkpt lat="48.75855" lon="1.72772">
        <ele>128.2</ele>
        <time>2015-06-10T10:55:45.000Z</time>
      </trkpt>
      <trkpt lat="48.75855" lon="1.72771">
        <ele>128.2</ele>
        <time>2015-06-10T10:55:46.000Z</time>
      </trkpt>
      <trkpt lat="48.75865" lon="1.7276">
        <ele>127.9</ele>
        <time>2015-06-10T10:55:53.000Z</time>
      </trkpt>
      <trkpt lat="48.75868" lon="1.72757">
        <ele>127.8</ele>
        <time>2015-06-10T10:55:55.000Z</time>
      </trkpt>
      <trkpt lat="48.75871" lon="1.72753">
        <ele>127.6</ele>
        <time>2015-06-10T10:55:58.000Z</time>
      </trkpt>
      <trkpt lat="48.75878" lon="1.72751">
        <ele>127.4</ele>
        <time>2015-06-10T10:56:03.000Z</time>
      </trkpt>
      <trkpt lat="48.75884" lon="1.72742">
        <ele>127.2</ele>
        <time>2015-06-10T10:56:08.000Z</time>
      </trkpt>
      <trkpt lat="48.75889" lon="1.72739">
        <ele>127</ele>
        <time>2015-06-10T10:56:10.000Z</time>
      </trkpt>
      <trkpt lat="48.75899" lon="1.72733">
        <ele>126.9</ele>
        <time>2015-06-10T10:56:17.000Z</time>
      </trkpt>
      <trkpt lat="48.75909" lon="1.72727">
        <ele>126.9</ele>
        <time>2015-06-10T10:56:24.000Z</time>
      </trkpt>
      <trkpt lat="48.75913" lon="1.7272">
        <ele>127</ele>
        <time>2015-06-10T10:56:29.000Z</time>
      </trkpt>
      <trkpt lat="48.75919" lon="1.72714">
        <ele>126.9</ele>
        <time>2015-06-10T10:56:34.000Z</time>
      </trkpt>
      <trkpt lat="48.75923" lon="1.72709">
        <ele>126.8</ele>
        <time>2015-06-10T10:56:39.000Z</time>
      </trkpt>
      <trkpt lat="48.75931" lon="1.72701">
        <ele>126.5</ele>
        <time>2015-06-10T10:56:44.000Z</time>
      </trkpt>
      <trkpt lat="48.75942" lon="1.72693">
        <ele>126.1</ele>
        <time>2015-06-10T10:56:51.000Z</time>
      </trkpt>
      <trkpt lat="48.75946" lon="1.72691">
        <ele>126</ele>
        <time>2015-06-10T10:56:53.000Z</time>
      </trkpt>
      <trkpt lat="48.75951" lon="1.72686">
        <ele>126</ele>
        <time>2015-06-10T10:56:57.000Z</time>
      </trkpt>
      <trkpt lat="48.75958" lon="1.72679">
        <ele>126</ele>
        <time>2015-06-10T10:57:03.000Z</time>
      </trkpt>
      <trkpt lat="48.75962" lon="1.72676">
        <ele>126</ele>
        <time>2015-06-10T10:57:06.000Z</time>
      </trkpt>
      <trkpt lat="48.75964" lon="1.7267">
        <ele>126</ele>
        <time>2015-06-10T10:57:11.000Z</time>
      </trkpt>
      <trkpt lat="48.75973" lon="1.72661">
        <ele>126</ele>
        <time>2015-06-10T10:57:16.000Z</time>
      </trkpt>
      <trkpt lat="48.75981" lon="1.72656">
        <ele>125.7</ele>
        <time>2015-06-10T10:57:22.000Z</time>
      </trkpt>
      <trkpt lat="48.75987" lon="1.72648">
        <ele>125.5</ele>
        <time>2015-06-10T10:57:26.000Z</time>
      </trkpt>
      <trkpt lat="48.76" lon="1.72633">
        <ele>125</ele>
        <time>2015-06-10T10:57:34.000Z</time>
      </trkpt>
      <trkpt lat="48.76001" lon="1.72632">
        <ele>125</ele>
        <time>2015-06-10T10:57:35.000Z</time>
      </trkpt>
      <trkpt lat="48.76008" lon="1.72622">
        <ele>124.7</ele>
        <time>2015-06-10T10:57:41.000Z</time>
      </trkpt>
      <trkpt lat="48.76017" lon="1.72614">
        <ele>124.4</ele>
        <time>2015-06-10T10:57:47.000Z</time>
      </trkpt>
      <trkpt lat="48.76022" lon="1.72607">
        <ele>124.3</ele>
        <time>2015-06-10T10:57:53.000Z</time>
      </trkpt>
      <trkpt lat="48.76022" lon="1.72607">
        <ele>124.3</ele>
        <time>2015-06-10T10:57:54.000Z</time>
      </trkpt>
      <trkpt lat="48.76023" lon="1.72602">
        <ele>124.4</ele>
        <time>2015-06-10T10:59:20.000Z</time>
      </trkpt>
      <trkpt lat="48.76022" lon="1.72606">
        <ele>124.4</ele>
        <time>2015-06-10T10:59:24.000Z</time>
      </trkpt>
      <trkpt lat="48.76021" lon="1.72604">
        <ele>124.4</ele>
        <time>2015-06-10T10:59:27.000Z</time>
      </trkpt>
      <trkpt lat="48.76022" lon="1.72605">
        <ele>124.4</ele>
        <time>2015-06-10T10:59:30.000Z</time>
      </trkpt>
      <trkpt lat="48.76029" lon="1.72598">
        <ele>124.4</ele>
        <time>2015-06-10T10:59:42.000Z</time>
      </trkpt>
      <trkpt lat="48.76036" lon="1.72593">
        <ele>124.5</ele>
        <time>2015-06-10T10:59:46.000Z</time>
      </trkpt>
      <trkpt lat="48.76041" lon="1.72587">
        <ele>124.5</ele>
        <time>2015-06-10T10:59:53.000Z</time>
      </trkpt>
      <trkpt lat="48.76044" lon="1.72586">
        <ele>124.4</ele>
        <time>2015-06-10T10:59:59.000Z</time>
      </trkpt>
      <trkpt lat="48.76052" lon="1.7259">
        <ele>124.1</ele>
        <time>2015-06-10T11:00:31.000Z</time>
      </trkpt>
      <trkpt lat="48.76052" lon="1.72588">
        <ele>124.1</ele>
        <time>2015-06-10T11:00:35.000Z</time>
      </trkpt>
      <trkpt lat="48.76059" lon="1.72577">
        <ele>123.9</ele>
        <time>2015-06-10T11:00:42.000Z</time>
      </trkpt>
      <trkpt lat="48.76065" lon="1.72568">
        <ele>123.7</ele>
        <time>2015-06-10T11:00:48.000Z</time>
      </trkpt>
      <trkpt lat="48.76071" lon="1.72561">
        <ele>123.4</ele>
        <time>2015-06-10T11:00:54.000Z</time>
      </trkpt>
      <trkpt lat="48.76074" lon="1.7256">
        <ele>123.4</ele>
        <time>2015-06-10T11:00:58.000Z</time>
      </trkpt>
      <trkpt lat="48.7608" lon="1.72553">
        <ele>123.1</ele>
        <time>2015-06-10T11:01:10.000Z</time>
      </trkpt>
      <trkpt lat="48.76083" lon="1.72548">
        <ele>123</ele>
        <time>2015-06-10T11:01:14.000Z</time>
      </trkpt>
      <trkpt lat="48.76083" lon="1.72547">
        <ele>123</ele>
        <time>2015-06-10T11:01:15.000Z</time>
      </trkpt>
      <trkpt lat="48.76097" lon="1.7253">
        <ele>122.5</ele>
        <time>2015-06-10T11:02:03.000Z</time>
      </trkpt>
      <trkpt lat="48.76102" lon="1.72524">
        <ele>122.3</ele>
        <time>2015-06-10T11:02:07.000Z</time>
      </trkpt>
      <trkpt lat="48.76109" lon="1.72512">
        <ele>122.1</ele>
        <time>2015-06-10T11:02:15.000Z</time>
      </trkpt>
      <trkpt lat="48.76119" lon="1.72498">
        <ele>121.7</ele>
        <time>2015-06-10T11:02:23.000Z</time>
      </trkpt>
      <trkpt lat="48.76126" lon="1.72487">
        <ele>121.5</ele>
        <time>2015-06-10T11:02:30.000Z</time>
      </trkpt>
      <trkpt lat="48.76134" lon="1.72473">
        <ele>121.2</ele>
        <time>2015-06-10T11:02:39.000Z</time>
      </trkpt>
      <trkpt lat="48.76139" lon="1.7246">
        <ele>121</ele>
        <time>2015-06-10T11:02:45.000Z</time>
      </trkpt>
      <trkpt lat="48.76145" lon="1.72448">
        <ele>120.8</ele>
        <time>2015-06-10T11:02:52.000Z</time>
      </trkpt>
      <trkpt lat="48.76147" lon="1.72447">
        <ele>120.7</ele>
        <time>2015-06-10T11:02:57.000Z</time>
      </trkpt>
      <trkpt lat="48.76148" lon="1.72448">
        <ele>120.7</ele>
        <time>2015-06-10T11:02:59.000Z</time>
      </trkpt>
      <trkpt lat="48.76145" lon="1.72453">
        <ele>120.8</ele>
        <time>2015-06-10T11:03:07.000Z</time>
      </trkpt>
      <trkpt lat="48.76141" lon="1.72466">
        <ele>120.9</ele>
        <time>2015-06-10T11:03:12.000Z</time>
      </trkpt>
      <trkpt lat="48.76136" lon="1.72474">
        <ele>121.1</ele>
        <time>2015-06-10T11:03:16.000Z</time>
      </trkpt>
      <trkpt lat="48.7613" lon="1.72485">
        <ele>121.3</ele>
        <time>2015-06-10T11:03:23.000Z</time>
      </trkpt>
      <trkpt lat="48.76129" lon="1.72487">
        <ele>121.3</ele>
        <time>2015-06-10T11:03:24.000Z</time>
      </trkpt>
      <trkpt lat="48.76123" lon="1.72498">
        <ele>121.6</ele>
        <time>2015-06-10T11:03:29.000Z</time>
      </trkpt>
      <trkpt lat="48.76117" lon="1.72508">
        <ele>121.8</ele>
        <time>2015-06-10T11:03:34.000Z</time>
      </trkpt>
      <trkpt lat="48.76112" lon="1.72524">
        <ele>122</ele>
        <time>2015-06-10T11:03:40.000Z</time>
      </trkpt>
      <trkpt lat="48.76108" lon="1.7253">
        <ele>122.1</ele>
        <time>2015-06-10T11:03:44.000Z</time>
      </trkpt>
      <trkpt lat="48.7611" lon="1.72536">
        <ele>122</ele>
        <time>2015-06-10T11:03:54.000Z</time>
      </trkpt>
      <trkpt lat="48.7611" lon="1.72535">
        <ele>122.1</ele>
        <time>2015-06-10T11:03:59.000Z</time>
      </trkpt>
      <trkpt lat="48.76112" lon="1.72521">
        <ele>122</ele>
        <time>2015-06-10T11:05:07.000Z</time>
      </trkpt>
      <trkpt lat="48.76113" lon="1.72518">
        <ele>121.9</ele>
        <time>2015-06-10T11:05:09.000Z</time>
      </trkpt>
      <trkpt lat="48.76118" lon="1.72506">
        <ele>121.7</ele>
        <time>2015-06-10T11:05:17.000Z</time>
      </trkpt>
      <trkpt lat="48.76124" lon="1.72493">
        <ele>121.5</ele>
        <time>2015-06-10T11:05:25.000Z</time>
      </trkpt>
      <trkpt lat="48.76128" lon="1.72488">
        <ele>121.4</ele>
        <time>2015-06-10T11:05:29.000Z</time>
      </trkpt>
      <trkpt lat="48.7613" lon="1.72484">
        <ele>121.3</ele>
        <time>2015-06-10T11:05:32.000Z</time>
      </trkpt>
      <trkpt lat="48.76133" lon="1.72481">
        <ele>121.2</ele>
        <time>2015-06-10T11:05:36.000Z</time>
      </trkpt>
      <trkpt lat="48.76137" lon="1.72474">
        <ele>121.1</ele>
        <time>2015-06-10T11:05:40.000Z</time>
      </trkpt>
      <trkpt lat="48.7614" lon="1.72467">
        <ele>120.9</ele>
        <time>2015-06-10T11:05:44.000Z</time>
      </trkpt>
      <trkpt lat="48.76149" lon="1.72457">
        <ele>120.7</ele>
        <time>2015-06-10T11:05:50.000Z</time>
      </trkpt>
      <trkpt lat="48.76154" lon="1.7245">
        <ele>120.5</ele>
        <time>2015-06-10T11:05:55.000Z</time>
      </trkpt>
      <trkpt lat="48.76158" lon="1.72441">
        <ele>120.4</ele>
        <time>2015-06-10T11:06:01.000Z</time>
      </trkpt>
      <trkpt lat="48.76166" lon="1.72431">
        <ele>120.5</ele>
        <time>2015-06-10T11:06:07.000Z</time>
      </trkpt>
      <trkpt lat="48.76166" lon="1.7243">
        <ele>120.5</ele>
        <time>2015-06-10T11:06:09.000Z</time>
      </trkpt>
      <trkpt lat="48.76172" lon="1.7242">
        <ele>120.5</ele>
        <time>2015-06-10T11:06:25.000Z</time>
      </trkpt>
      <trkpt lat="48.76179" lon="1.72401">
        <ele>120.4</ele>
        <time>2015-06-10T11:06:32.000Z</time>
      </trkpt>
      <trkpt lat="48.76183" lon="1.7239">
        <ele>120.4</ele>
        <time>2015-06-10T11:06:39.000Z</time>
      </trkpt>
      <trkpt lat="48.76189" lon="1.72377">
        <ele>120.1</ele>
        <time>2015-06-10T11:06:46.000Z</time>
      </trkpt>
      <trkpt lat="48.76196" lon="1.72364">
        <ele>119.9</ele>
        <time>2015-06-10T11:06:53.000Z</time>
      </trkpt>
      <trkpt lat="48.76201" lon="1.72356">
        <ele>119.8</ele>
        <time>2015-06-10T11:06:58.000Z</time>
      </trkpt>
      <trkpt lat="48.76202" lon="1.72355">
        <ele>119.7</ele>
        <time>2015-06-10T11:06:59.000Z</time>
      </trkpt>
      <trkpt lat="48.76208" lon="1.72349">
        <ele>119.5</ele>
        <time>2015-06-10T11:07:03.000Z</time>
      </trkpt>
      <trkpt lat="48.76213" lon="1.72337">
        <ele>119.3</ele>
        <time>2015-06-10T11:07:11.000Z</time>
      </trkpt>
      <trkpt lat="48.76214" lon="1.72333">
        <ele>119.3</ele>
        <time>2015-06-10T11:07:16.000Z</time>
      </trkpt>
      <trkpt lat="48.76229" lon="1.72311">
        <ele>119</ele>
        <time>2015-06-10T11:07:42.000Z</time>
      </trkpt>
      <trkpt lat="48.76233" lon="1.72302">
        <ele>119</ele>
        <time>2015-06-10T11:07:48.000Z</time>
      </trkpt>
      <trkpt lat="48.76237" lon="1.72291">
        <ele>119</ele>
        <time>2015-06-10T11:07:54.000Z</time>
      </trkpt>
      <trkpt lat="48.76242" lon="1.72277">
        <ele>119</ele>
        <time>2015-06-10T11:08:01.000Z</time>
      </trkpt>
      <trkpt lat="48.76247" lon="1.72263">
        <ele>119</ele>
        <time>2015-06-10T11:08:08.000Z</time>
      </trkpt>
      <trkpt lat="48.76249" lon="1.72257">
        <ele>119</ele>
        <time>2015-06-10T11:08:11.000Z</time>
      </trkpt>
      <trkpt lat="48.76248" lon="1.72247">
        <ele>119</ele>
        <time>2015-06-10T11:08:16.000Z</time>
      </trkpt>
      <trkpt lat="48.76248" lon="1.72243">
        <ele>119</ele>
        <time>2015-06-10T11:08:21.000Z</time>
      </trkpt>
      <trkpt lat="48.76247" lon="1.72233">
        <ele>119</ele>
        <time>2015-06-10T11:08:50.000Z</time>
      </trkpt>
      <trkpt lat="48.76248" lon="1.72219">
        <ele>119</ele>
        <time>2015-06-10T11:08:56.000Z</time>
      </trkpt>
      <trkpt lat="48.76249" lon="1.72209">
        <ele>119</ele>
        <time>2015-06-10T11:09:00.000Z</time>
      </trkpt>
      <trkpt lat="48.76249" lon="1.72199">
        <ele>119</ele>
        <time>2015-06-10T11:09:04.000Z</time>
      </trkpt>
      <trkpt lat="48.76246" lon="1.72186">
        <ele>119</ele>
        <time>2015-06-10T11:09:10.000Z</time>
      </trkpt>
      <trkpt lat="48.76245" lon="1.72183">
        <ele>119</ele>
        <time>2015-06-10T11:09:11.000Z</time>
      </trkpt>
      <trkpt lat="48.76244" lon="1.72178">
        <ele>119</ele>
        <time>2015-06-10T11:09:13.000Z</time>
      </trkpt>
      <trkpt lat="48.76246" lon="1.7216">
        <ele>118.8</ele>
        <time>2015-06-10T11:09:21.000Z</time>
      </trkpt>
      <trkpt lat="48.76245" lon="1.7215">
        <ele>118.5</ele>
        <time>2015-06-10T11:09:26.000Z</time>
      </trkpt>
      <trkpt lat="48.76245" lon="1.72148">
        <ele>118.5</ele>
        <time>2015-06-10T11:09:27.000Z</time>
      </trkpt>
      <trkpt lat="48.76248" lon="1.72141">
        <ele>118.2</ele>
        <time>2015-06-10T11:09:33.000Z</time>
      </trkpt>
      <trkpt lat="48.76247" lon="1.7213">
        <ele>118.4</ele>
        <time>2015-06-10T11:09:38.000Z</time>
      </trkpt>
      <trkpt lat="48.76245" lon="1.72115">
        <ele>118.9</ele>
        <time>2015-06-10T11:09:44.000Z</time>
      </trkpt>
      <trkpt lat="48.76245" lon="1.72107">
        <ele>119</ele>
        <time>2015-06-10T11:09:48.000Z</time>
      </trkpt>
      <trkpt lat="48.76245" lon="1.721">
        <ele>119</ele>
        <time>2015-06-10T11:09:52.000Z</time>
      </trkpt>
      <trkpt lat="48.76246" lon="1.72092">
        <ele>119</ele>
        <time>2015-06-10T11:09:57.000Z</time>
      </trkpt>
      <trkpt lat="48.76244" lon="1.72083">
        <ele>119</ele>
        <time>2015-06-10T11:10:02.000Z</time>
      </trkpt>
      <trkpt lat="48.76248" lon="1.72074">
        <ele>118.7</ele>
        <time>2015-06-10T11:10:07.000Z</time>
      </trkpt>
      <trkpt lat="48.76248" lon="1.72067">
        <ele>118.5</ele>
        <time>2015-06-10T11:10:11.000Z</time>
      </trkpt>
      <trkpt lat="48.7625" lon="1.72059">
        <ele>118.1</ele>
        <time>2015-06-10T11:10:16.000Z</time>
      </trkpt>
      <trkpt lat="48.76249" lon="1.72047">
        <ele>118</ele>
        <time>2015-06-10T11:10:21.000Z</time>
      </trkpt>
      <trkpt lat="48.76251" lon="1.72047">
        <ele>118</ele>
        <time>2015-06-10T11:10:30.000Z</time>
      </trkpt>
      <trkpt lat="48.7625" lon="1.72047">
        <ele>118</ele>
        <time>2015-06-10T11:10:31.000Z</time>
      </trkpt>
      <trkpt lat="48.76254" lon="1.72037">
        <ele>118</ele>
        <time>2015-06-10T11:10:39.000Z</time>
      </trkpt>
      <trkpt lat="48.76255" lon="1.72032">
        <ele>118</ele>
        <time>2015-06-10T11:10:41.000Z</time>
      </trkpt>
      <trkpt lat="48.76256" lon="1.72026">
        <ele>118</ele>
        <time>2015-06-10T11:10:45.000Z</time>
      </trkpt>
      <trkpt lat="48.76256" lon="1.72022">
        <ele>118</ele>
        <time>2015-06-10T11:10:47.000Z</time>
      </trkpt>
      <trkpt lat="48.76257" lon="1.72014">
        <ele>118</ele>
        <time>2015-06-10T11:10:51.000Z</time>
      </trkpt>
      <trkpt lat="48.76261" lon="1.71999">
        <ele>118</ele>
        <time>2015-06-10T11:10:59.000Z</time>
      </trkpt>
      <trkpt lat="48.76262" lon="1.71988">
        <ele>118</ele>
        <time>2015-06-10T11:11:06.000Z</time>
      </trkpt>
      <trkpt lat="48.76265" lon="1.71972">
        <ele>118</ele>
        <time>2015-06-10T11:11:14.000Z</time>
      </trkpt>
      <trkpt lat="48.7627" lon="1.71959">
        <ele>118</ele>
        <time>2015-06-10T11:11:21.000Z</time>
      </trkpt>
      <trkpt lat="48.7627" lon="1.71956">
        <ele>118</ele>
        <time>2015-06-10T11:11:23.000Z</time>
      </trkpt>
      <trkpt lat="48.76276" lon="1.71942">
        <ele>118</ele>
        <time>2015-06-10T11:11:31.000Z</time>
      </trkpt>
      <trkpt lat="48.76277" lon="1.71938">
        <ele>118</ele>
        <time>2015-06-10T11:11:33.000Z</time>
      </trkpt>
      <trkpt lat="48.76278" lon="1.71934">
        <ele>118</ele>
        <time>2015-06-10T11:11:35.000Z</time>
      </trkpt>
      <trkpt lat="48.7628" lon="1.7192">
        <ele>117.9</ele>
        <time>2015-06-10T11:11:41.000Z</time>
      </trkpt>
      <trkpt lat="48.76281" lon="1.71907">
        <ele>117.9</ele>
        <time>2015-06-10T11:11:47.000Z</time>
      </trkpt>
      <trkpt lat="48.76282" lon="1.71893">
        <ele>117.9</ele>
        <time>2015-06-10T11:11:53.000Z</time>
      </trkpt>
      <trkpt lat="48.76285" lon="1.7188">
        <ele>117.7</ele>
        <time>2015-06-10T11:12:01.000Z</time>
      </trkpt>
      <trkpt lat="48.76287" lon="1.71877">
        <ele>117.7</ele>
        <time>2015-06-10T11:12:03.000Z</time>
      </trkpt>
      <trkpt lat="48.76289" lon="1.71875">
        <ele>117.6</ele>
        <time>2015-06-10T11:12:06.000Z</time>
      </trkpt>
      <trkpt lat="48.76294" lon="1.71859">
        <ele>117.4</ele>
        <time>2015-06-10T11:12:14.000Z</time>
      </trkpt>
      <trkpt lat="48.76293" lon="1.71844">
        <ele>117.5</ele>
        <time>2015-06-10T11:12:21.000Z</time>
      </trkpt>
      <trkpt lat="48.76293" lon="1.71842">
        <ele>117.5</ele>
        <time>2015-06-10T11:12:22.000Z</time>
      </trkpt>
      <trkpt lat="48.76298" lon="1.71831">
        <ele>117.3</ele>
        <time>2015-06-10T11:12:30.000Z</time>
      </trkpt>
      <trkpt lat="48.763" lon="1.71818">
        <ele>117.2</ele>
        <time>2015-06-10T11:12:37.000Z</time>
      </trkpt>
      <trkpt lat="48.76302" lon="1.71813">
        <ele>117.1</ele>
        <time>2015-06-10T11:12:43.000Z</time>
      </trkpt>
      <trkpt lat="48.76302" lon="1.71808">
        <ele>117.1</ele>
        <time>2015-06-10T11:12:45.000Z</time>
      </trkpt>
      <trkpt lat="48.76304" lon="1.71799">
        <ele>117.1</ele>
        <time>2015-06-10T11:12:50.000Z</time>
      </trkpt>
      <trkpt lat="48.76304" lon="1.71789">
        <ele>117.1</ele>
        <time>2015-06-10T11:12:55.000Z</time>
      </trkpt>
      <trkpt lat="48.76306" lon="1.71781">
        <ele>117</ele>
        <time>2015-06-10T11:12:59.000Z</time>
      </trkpt>
      <trkpt lat="48.76306" lon="1.7177">
        <ele>117</ele>
        <time>2015-06-10T11:13:04.000Z</time>
      </trkpt>
      <trkpt lat="48.76307" lon="1.7176">
        <ele>117</ele>
        <time>2015-06-10T11:13:10.000Z</time>
      </trkpt>
      <trkpt lat="48.76307" lon="1.71761">
        <ele>117</ele>
        <time>2015-06-10T11:13:13.000Z</time>
      </trkpt>
      <trkpt lat="48.76308" lon="1.71758">
        <ele>117</ele>
        <time>2015-06-10T11:13:30.000Z</time>
      </trkpt>
      <trkpt lat="48.7631" lon="1.71755">
        <ele>117</ele>
        <time>2015-06-10T11:13:31.000Z</time>
      </trkpt>
      <trkpt lat="48.76312" lon="1.71744">
        <ele>117</ele>
        <time>2015-06-10T11:13:38.000Z</time>
      </trkpt>
      <trkpt lat="48.76313" lon="1.71741">
        <ele>117</ele>
        <time>2015-06-10T11:13:40.000Z</time>
      </trkpt>
      <trkpt lat="48.76315" lon="1.71734">
        <ele>117</ele>
        <time>2015-06-10T11:13:44.000Z</time>
      </trkpt>
      <trkpt lat="48.76315" lon="1.71722">
        <ele>117</ele>
        <time>2015-06-10T11:13:50.000Z</time>
      </trkpt>
      <trkpt lat="48.76316" lon="1.71715">
        <ele>117</ele>
        <time>2015-06-10T11:13:53.000Z</time>
      </trkpt>
      <trkpt lat="48.76319" lon="1.71707">
        <ele>117</ele>
        <time>2015-06-10T11:13:57.000Z</time>
      </trkpt>
      <trkpt lat="48.76319" lon="1.71704">
        <ele>117</ele>
        <time>2015-06-10T11:13:59.000Z</time>
      </trkpt>
      <trkpt lat="48.7632" lon="1.71696">
        <ele>117</ele>
        <time>2015-06-10T11:14:03.000Z</time>
      </trkpt>
      <trkpt lat="48.76322" lon="1.71684">
        <ele>117.1</ele>
        <time>2015-06-10T11:14:10.000Z</time>
      </trkpt>
      <trkpt lat="48.76323" lon="1.71682">
        <ele>117.2</ele>
        <time>2015-06-10T11:14:12.000Z</time>
      </trkpt>
      <trkpt lat="48.76324" lon="1.71674">
        <ele>117.3</ele>
        <time>2015-06-10T11:14:17.000Z</time>
      </trkpt>
      <trkpt lat="48.76324" lon="1.71674">
        <ele>117.2</ele>
        <time>2015-06-10T11:14:19.000Z</time>
      </trkpt>
      <trkpt lat="48.76329" lon="1.71658">
        <ele>117.2</ele>
        <time>2015-06-10T11:14:31.000Z</time>
      </trkpt>
      <trkpt lat="48.7633" lon="1.71652">
        <ele>117.1</ele>
        <time>2015-06-10T11:14:35.000Z</time>
      </trkpt>
      <trkpt lat="48.7633" lon="1.71651">
        <ele>117.1</ele>
        <time>2015-06-10T11:14:36.000Z</time>
      </trkpt>
      <trkpt lat="48.76332" lon="1.71638">
        <ele>117.1</ele>
        <time>2015-06-10T11:14:43.000Z</time>
      </trkpt>
      <trkpt lat="48.76332" lon="1.71625">
        <ele>117</ele>
        <time>2015-06-10T11:14:50.000Z</time>
      </trkpt>
      <trkpt lat="48.76332" lon="1.71621">
        <ele>117.1</ele>
        <time>2015-06-10T11:14:53.000Z</time>
      </trkpt>
      <trkpt lat="48.76334" lon="1.71612">
        <ele>117</ele>
        <time>2015-06-10T11:14:57.000Z</time>
      </trkpt>
      <trkpt lat="48.76336" lon="1.71602">
        <ele>117</ele>
        <time>2015-06-10T11:15:02.000Z</time>
      </trkpt>
      <trkpt lat="48.76342" lon="1.71588">
        <ele>117</ele>
        <time>2015-06-10T11:15:09.000Z</time>
      </trkpt>
      <trkpt lat="48.76344" lon="1.7158">
        <ele>117</ele>
        <time>2015-06-10T11:15:13.000Z</time>
      </trkpt>
      <trkpt lat="48.76347" lon="1.7157">
        <ele>117</ele>
        <time>2015-06-10T11:15:18.000Z</time>
      </trkpt>
      <trkpt lat="48.76352" lon="1.71552">
        <ele>117</ele>
        <time>2015-06-10T11:15:28.000Z</time>
      </trkpt>
      <trkpt lat="48.76354" lon="1.71549">
        <ele>117</ele>
        <time>2015-06-10T11:15:30.000Z</time>
      </trkpt>
      <trkpt lat="48.76354" lon="1.71535">
        <ele>117</ele>
        <time>2015-06-10T11:15:37.000Z</time>
      </trkpt>
      <trkpt lat="48.76355" lon="1.71521">
        <ele>117</ele>
        <time>2015-06-10T11:15:44.000Z</time>
      </trkpt>
      <trkpt lat="48.76358" lon="1.71511">
        <ele>117</ele>
        <time>2015-06-10T11:15:49.000Z</time>
      </trkpt>
      <trkpt lat="48.76357" lon="1.7151">
        <ele>117</ele>
        <time>2015-06-10T11:15:50.000Z</time>
      </trkpt>
      <trkpt lat="48.76364" lon="1.715">
        <ele>116.9</ele>
        <time>2015-06-10T11:15:57.000Z</time>
      </trkpt>
      <trkpt lat="48.76366" lon="1.71495">
        <ele>116.8</ele>
        <time>2015-06-10T11:16:00.000Z</time>
      </trkpt>
      <trkpt lat="48.76375" lon="1.71477">
        <ele>116.5</ele>
        <time>2015-06-10T11:16:09.000Z</time>
      </trkpt>
      <trkpt lat="48.76378" lon="1.71469">
        <ele>116.5</ele>
        <time>2015-06-10T11:16:13.000Z</time>
      </trkpt>
      <trkpt lat="48.7638" lon="1.71464">
        <ele>116.5</ele>
        <time>2015-06-10T11:16:17.000Z</time>
      </trkpt>
      <trkpt lat="48.76384" lon="1.71456">
        <ele>116.6</ele>
        <time>2015-06-10T11:16:24.000Z</time>
      </trkpt>
      <trkpt lat="48.76389" lon="1.71446">
        <ele>117</ele>
        <time>2015-06-10T11:16:31.000Z</time>
      </trkpt>
      <trkpt lat="48.7639" lon="1.71443">
        <ele>117</ele>
        <time>2015-06-10T11:16:33.000Z</time>
      </trkpt>
      <trkpt lat="48.76392" lon="1.71439">
        <ele>117</ele>
        <time>2015-06-10T11:16:36.000Z</time>
      </trkpt>
      <trkpt lat="48.76402" lon="1.71424">
        <ele>117</ele>
        <time>2015-06-10T11:16:44.000Z</time>
      </trkpt>
      <trkpt lat="48.76404" lon="1.71412">
        <ele>117.1</ele>
        <time>2015-06-10T11:16:50.000Z</time>
      </trkpt>
      <trkpt lat="48.76406" lon="1.71406">
        <ele>117.1</ele>
        <time>2015-06-10T11:16:55.000Z</time>
      </trkpt>
      <trkpt lat="48.7641" lon="1.71391">
        <ele>117.2</ele>
        <time>2015-06-10T11:17:03.000Z</time>
      </trkpt>
      <trkpt lat="48.7641" lon="1.71389">
        <ele>117.2</ele>
        <time>2015-06-10T11:17:04.000Z</time>
      </trkpt>
      <trkpt lat="48.76414" lon="1.71379">
        <ele>117.1</ele>
        <time>2015-06-10T11:17:11.000Z</time>
      </trkpt>
      <trkpt lat="48.76416" lon="1.71374">
        <ele>117</ele>
        <time>2015-06-10T11:17:14.000Z</time>
      </trkpt>
      <trkpt lat="48.76414" lon="1.71371">
        <ele>117.1</ele>
        <time>2015-06-10T11:17:17.000Z</time>
      </trkpt>
      <trkpt lat="48.76415" lon="1.71366">
        <ele>117.1</ele>
        <time>2015-06-10T11:17:20.000Z</time>
      </trkpt>
      <trkpt lat="48.7642" lon="1.71355">
        <ele>117</ele>
        <time>2015-06-10T11:17:26.000Z</time>
      </trkpt>
      <trkpt lat="48.7642" lon="1.71339">
        <ele>117</ele>
        <time>2015-06-10T11:17:33.000Z</time>
      </trkpt>
      <trkpt lat="48.76424" lon="1.71322">
        <ele>117.4</ele>
        <time>2015-06-10T11:17:41.000Z</time>
      </trkpt>
      <trkpt lat="48.7643" lon="1.7131">
        <ele>117.9</ele>
        <time>2015-06-10T11:17:49.000Z</time>
      </trkpt>
      <trkpt lat="48.76433" lon="1.71303">
        <ele>118</ele>
        <time>2015-06-10T11:17:53.000Z</time>
      </trkpt>
      <trkpt lat="48.76437" lon="1.71298">
        <ele>118.1</ele>
        <time>2015-06-10T11:17:57.000Z</time>
      </trkpt>
      <trkpt lat="48.76441" lon="1.71293">
        <ele>118.1</ele>
        <time>2015-06-10T11:18:02.000Z</time>
      </trkpt>
      <trkpt lat="48.76445" lon="1.71287">
        <ele>118</ele>
        <time>2015-06-10T11:18:06.000Z</time>
      </trkpt>
      <trkpt lat="48.76452" lon="1.71279">
        <ele>117.7</ele>
        <time>2015-06-10T11:18:13.000Z</time>
      </trkpt>
      <trkpt lat="48.76458" lon="1.71272">
        <ele>117.7</ele>
        <time>2015-06-10T11:18:18.000Z</time>
      </trkpt>
      <trkpt lat="48.76463" lon="1.71265">
        <ele>117.8</ele>
        <time>2015-06-10T11:18:24.000Z</time>
      </trkpt>
      <trkpt lat="48.7647" lon="1.71255">
        <ele>117.9</ele>
        <time>2015-06-10T11:18:30.000Z</time>
      </trkpt>
      <trkpt lat="48.76476" lon="1.71247">
        <ele>118</ele>
        <time>2015-06-10T11:18:36.000Z</time>
      </trkpt>
      <trkpt lat="48.76483" lon="1.71236">
        <ele>118.1</ele>
        <time>2015-06-10T11:18:45.000Z</time>
      </trkpt>
      <trkpt lat="48.76485" lon="1.71234">
        <ele>118.1</ele>
        <time>2015-06-10T11:18:47.000Z</time>
      </trkpt>
      <trkpt lat="48.7649" lon="1.71229">
        <ele>118.1</ele>
        <time>2015-06-10T11:18:53.000Z</time>
      </trkpt>
      <trkpt lat="48.76491" lon="1.71225">
        <ele>118.2</ele>
        <time>2015-06-10T11:18:56.000Z</time>
      </trkpt>
      <trkpt lat="48.76496" lon="1.71211">
        <ele>118.1</ele>
        <time>2015-06-10T11:19:03.000Z</time>
      </trkpt>
      <trkpt lat="48.76499" lon="1.71204">
        <ele>118</ele>
        <time>2015-06-10T11:19:07.000Z</time>
      </trkpt>
      <trkpt lat="48.76502" lon="1.71199">
        <ele>118</ele>
        <time>2015-06-10T11:19:11.000Z</time>
      </trkpt>
      <trkpt lat="48.76505" lon="1.71191">
        <ele>118.1</ele>
        <time>2015-06-10T11:19:16.000Z</time>
      </trkpt>
      <trkpt lat="48.76508" lon="1.71183">
        <ele>118.3</ele>
        <time>2015-06-10T11:19:20.000Z</time>
      </trkpt>
      <trkpt lat="48.76512" lon="1.71178">
        <ele>118.3</ele>
        <time>2015-06-10T11:19:25.000Z</time>
      </trkpt>
      <trkpt lat="48.76513" lon="1.71174">
        <ele>118.4</ele>
        <time>2015-06-10T11:19:29.000Z</time>
      </trkpt>
      <trkpt lat="48.7652" lon="1.71158">
        <ele>118.6</ele>
        <time>2015-06-10T11:19:38.000Z</time>
      </trkpt>
      <trkpt lat="48.76529" lon="1.71148">
        <ele>118.6</ele>
        <time>2015-06-10T11:19:47.000Z</time>
      </trkpt>
      <trkpt lat="48.76535" lon="1.71138">
        <ele>118.8</ele>
        <time>2015-06-10T11:19:55.000Z</time>
      </trkpt>
      <trkpt lat="48.76537" lon="1.71135">
        <ele>118.8</ele>
        <time>2015-06-10T11:19:57.000Z</time>
      </trkpt>
      <trkpt lat="48.76542" lon="1.71128">
        <ele>118.9</ele>
        <time>2015-06-10T11:20:02.000Z</time>
      </trkpt>
      <trkpt lat="48.76544" lon="1.71126">
        <ele>118.9</ele>
        <time>2015-06-10T11:20:05.000Z</time>
      </trkpt>
      <trkpt lat="48.76546" lon="1.71121">
        <ele>119</ele>
        <time>2015-06-10T11:20:09.000Z</time>
      </trkpt>
      <trkpt lat="48.76551" lon="1.71116">
        <ele>119</ele>
        <time>2015-06-10T11:20:16.000Z</time>
      </trkpt>
      <trkpt lat="48.76556" lon="1.71108">
        <ele>119.1</ele>
        <time>2015-06-10T11:20:23.000Z</time>
      </trkpt>
      <trkpt lat="48.76558" lon="1.71105">
        <ele>119.1</ele>
        <time>2015-06-10T11:20:25.000Z</time>
      </trkpt>
      <trkpt lat="48.76563" lon="1.71099">
        <ele>119.2</ele>
        <time>2015-06-10T11:20:30.000Z</time>
      </trkpt>
      <trkpt lat="48.76565" lon="1.71098">
        <ele>119.2</ele>
        <time>2015-06-10T11:20:31.000Z</time>
      </trkpt>
      <trkpt lat="48.76571" lon="1.71091">
        <ele>119.2</ele>
        <time>2015-06-10T11:20:35.000Z</time>
      </trkpt>
      <trkpt lat="48.76575" lon="1.71087">
        <ele>119.2</ele>
        <time>2015-06-10T11:20:38.000Z</time>
      </trkpt>
      <trkpt lat="48.76582" lon="1.71081">
        <ele>119.1</ele>
        <time>2015-06-10T11:20:43.000Z</time>
      </trkpt>
      <trkpt lat="48.76586" lon="1.71075">
        <ele>118.9</ele>
        <time>2015-06-10T11:20:49.000Z</time>
      </trkpt>
      <trkpt lat="48.76595" lon="1.71068">
        <ele>118.6</ele>
        <time>2015-06-10T11:20:56.000Z</time>
      </trkpt>
      <trkpt lat="48.76601" lon="1.7106">
        <ele>118.4</ele>
        <time>2015-06-10T11:21:03.000Z</time>
      </trkpt>
      <trkpt lat="48.76606" lon="1.71054">
        <ele>118.2</ele>
        <time>2015-06-10T11:21:11.000Z</time>
      </trkpt>
      <trkpt lat="48.76615" lon="1.71041">
        <ele>118.4</ele>
        <time>2015-06-10T11:21:25.000Z</time>
      </trkpt>
      <trkpt lat="48.76617" lon="1.71039">
        <ele>118.5</ele>
        <time>2015-06-10T11:21:26.000Z</time>
      </trkpt>
      <trkpt lat="48.76625" lon="1.71031">
        <ele>118.4</ele>
        <time>2015-06-10T11:21:32.000Z</time>
      </trkpt>
      <trkpt lat="48.76629" lon="1.71028">
        <ele>118.3</ele>
        <time>2015-06-10T11:21:35.000Z</time>
      </trkpt>
      <trkpt lat="48.76638" lon="1.71016">
        <ele>118.4</ele>
        <time>2015-06-10T11:21:43.000Z</time>
      </trkpt>
      <trkpt lat="48.76644" lon="1.71005">
        <ele>118.6</ele>
        <time>2015-06-10T11:21:51.000Z</time>
      </trkpt>
      <trkpt lat="48.76649" lon="1.71001">
        <ele>118.6</ele>
        <time>2015-06-10T11:21:55.000Z</time>
      </trkpt>
      <trkpt lat="48.7665" lon="1.71">
        <ele>118.6</ele>
        <time>2015-06-10T11:21:56.000Z</time>
      </trkpt>
      <trkpt lat="48.76656" lon="1.70993">
        <ele>118.5</ele>
        <time>2015-06-10T11:22:02.000Z</time>
      </trkpt>
      <trkpt lat="48.76662" lon="1.70987">
        <ele>118.6</ele>
        <time>2015-06-10T11:22:07.000Z</time>
      </trkpt>
      <trkpt lat="48.76666" lon="1.70983">
        <ele>118.6</ele>
        <time>2015-06-10T11:22:11.000Z</time>
      </trkpt>
      <trkpt lat="48.76668" lon="1.70981">
        <ele>118.6</ele>
        <time>2015-06-10T11:22:13.000Z</time>
      </trkpt>
      <trkpt lat="48.76674" lon="1.70974">
        <ele>118.7</ele>
        <time>2015-06-10T11:22:18.000Z</time>
      </trkpt>
      <trkpt lat="48.76676" lon="1.70972">
        <ele>118.7</ele>
        <time>2015-06-10T11:22:20.000Z</time>
      </trkpt>
      <trkpt lat="48.76682" lon="1.70963">
        <ele>118.6</ele>
        <time>2015-06-10T11:22:27.000Z</time>
      </trkpt>
      <trkpt lat="48.76689" lon="1.70953">
        <ele>118.7</ele>
        <time>2015-06-10T11:22:34.000Z</time>
      </trkpt>
      <trkpt lat="48.76694" lon="1.70945">
        <ele>119</ele>
        <time>2015-06-10T11:22:40.000Z</time>
      </trkpt>
      <trkpt lat="48.76701" lon="1.70935">
        <ele>118.9</ele>
        <time>2015-06-10T11:22:47.000Z</time>
      </trkpt>
      <trkpt lat="48.76705" lon="1.70929">
        <ele>118.8</ele>
        <time>2015-06-10T11:22:52.000Z</time>
      </trkpt>
      <trkpt lat="48.76714" lon="1.70918">
        <ele>119</ele>
        <time>2015-06-10T11:23:00.000Z</time>
      </trkpt>
      <trkpt lat="48.76721" lon="1.70908">
        <ele>119</ele>
        <time>2015-06-10T11:23:07.000Z</time>
      </trkpt>
      <trkpt lat="48.76727" lon="1.709">
        <ele>118.8</ele>
        <time>2015-06-10T11:23:14.000Z</time>
      </trkpt>
      <trkpt lat="48.76729" lon="1.70896">
        <ele>118.7</ele>
        <time>2015-06-10T11:23:17.000Z</time>
      </trkpt>
      <trkpt lat="48.76733" lon="1.70889">
        <ele>118.6</ele>
        <time>2015-06-10T11:23:22.000Z</time>
      </trkpt>
      <trkpt lat="48.76739" lon="1.70882">
        <ele>118.4</ele>
        <time>2015-06-10T11:23:27.000Z</time>
      </trkpt>
      <trkpt lat="48.76745" lon="1.70865">
        <ele>118.2</ele>
        <time>2015-06-10T11:23:36.000Z</time>
      </trkpt>
      <trkpt lat="48.76752" lon="1.70854">
        <ele>118.2</ele>
        <time>2015-06-10T11:23:43.000Z</time>
      </trkpt>
      <trkpt lat="48.7676" lon="1.70843">
        <ele>118.4</ele>
        <time>2015-06-10T11:23:51.000Z</time>
      </trkpt>
      <trkpt lat="48.76766" lon="1.70836">
        <ele>118.4</ele>
        <time>2015-06-10T11:23:58.000Z</time>
      </trkpt>
      <trkpt lat="48.76771" lon="1.70828">
        <ele>118.4</ele>
        <time>2015-06-10T11:24:04.000Z</time>
      </trkpt>
      <trkpt lat="48.76775" lon="1.70824">
        <ele>118.4</ele>
        <time>2015-06-10T11:24:08.000Z</time>
      </trkpt>
      <trkpt lat="48.76782" lon="1.70815">
        <ele>118.5</ele>
        <time>2015-06-10T11:24:16.000Z</time>
      </trkpt>
      <trkpt lat="48.76789" lon="1.70805">
        <ele>118.6</ele>
        <time>2015-06-10T11:24:24.000Z</time>
      </trkpt>
      <trkpt lat="48.76794" lon="1.70801">
        <ele>118.3</ele>
        <time>2015-06-10T11:24:29.000Z</time>
      </trkpt>
      <trkpt lat="48.76797" lon="1.70799">
        <ele>118.2</ele>
        <time>2015-06-10T11:24:33.000Z</time>
      </trkpt>
      <trkpt lat="48.76801" lon="1.70793">
        <ele>118.1</ele>
        <time>2015-06-10T11:24:38.000Z</time>
      </trkpt>
      <trkpt lat="48.76805" lon="1.70786">
        <ele>118</ele>
        <time>2015-06-10T11:24:43.000Z</time>
      </trkpt>
      <trkpt lat="48.76806" lon="1.70786">
        <ele>118</ele>
        <time>2015-06-10T11:24:46.000Z</time>
      </trkpt>
      <trkpt lat="48.76804" lon="1.70778">
        <ele>118</ele>
        <time>2015-06-10T11:25:23.000Z</time>
      </trkpt>
      <trkpt lat="48.76808" lon="1.70769">
        <ele>117.9</ele>
        <time>2015-06-10T11:25:28.000Z</time>
      </trkpt>
      <trkpt lat="48.76811" lon="1.70766">
        <ele>117.9</ele>
        <time>2015-06-10T11:25:30.000Z</time>
      </trkpt>
      <trkpt lat="48.76813" lon="1.70764">
        <ele>117.9</ele>
        <time>2015-06-10T11:25:32.000Z</time>
      </trkpt>
      <trkpt lat="48.76818" lon="1.70757">
        <ele>117.9</ele>
        <time>2015-06-10T11:25:37.000Z</time>
      </trkpt>
      <trkpt lat="48.76823" lon="1.70752">
        <ele>118</ele>
        <time>2015-06-10T11:25:42.000Z</time>
      </trkpt>
      <trkpt lat="48.76825" lon="1.70745">
        <ele>118</ele>
        <time>2015-06-10T11:25:47.000Z</time>
      </trkpt>
      <trkpt lat="48.76831" lon="1.70738">
        <ele>118</ele>
        <time>2015-06-10T11:25:52.000Z</time>
      </trkpt>
      <trkpt lat="48.76834" lon="1.70734">
        <ele>118</ele>
        <time>2015-06-10T11:25:56.000Z</time>
      </trkpt>
      <trkpt lat="48.76841" lon="1.70724">
        <ele>118</ele>
        <time>2015-06-10T11:26:02.000Z</time>
      </trkpt>
      <trkpt lat="48.76845" lon="1.70717">
        <ele>118.1</ele>
        <time>2015-06-10T11:26:07.000Z</time>
      </trkpt>
      <trkpt lat="48.76854" lon="1.70707">
        <ele>118.1</ele>
        <time>2015-06-10T11:26:15.000Z</time>
      </trkpt>
      <trkpt lat="48.76856" lon="1.70704">
        <ele>118.1</ele>
        <time>2015-06-10T11:26:17.000Z</time>
      </trkpt>
      <trkpt lat="48.7686" lon="1.70698">
        <ele>118</ele>
        <time>2015-06-10T11:26:21.000Z</time>
      </trkpt>
      <trkpt lat="48.76866" lon="1.70692">
        <ele>117.9</ele>
        <time>2015-06-10T11:26:27.000Z</time>
      </trkpt>
      <trkpt lat="48.7687" lon="1.70686">
        <ele>118</ele>
        <time>2015-06-10T11:26:32.000Z</time>
      </trkpt>
      <trkpt lat="48.76873" lon="1.70681">
        <ele>118.1</ele>
        <time>2015-06-10T11:26:36.000Z</time>
      </trkpt>
      <trkpt lat="48.76876" lon="1.7068">
        <ele>118</ele>
        <time>2015-06-10T11:26:39.000Z</time>
      </trkpt>
      <trkpt lat="48.76883" lon="1.7067">
        <ele>118.1</ele>
        <time>2015-06-10T11:26:46.000Z</time>
      </trkpt>
      <trkpt lat="48.76887" lon="1.7066">
        <ele>118.1</ele>
        <time>2015-06-10T11:26:53.000Z</time>
      </trkpt>
      <trkpt lat="48.76889" lon="1.70658">
        <ele>118</ele>
        <time>2015-06-10T11:26:55.000Z</time>
      </trkpt>
      <trkpt lat="48.76901" lon="1.70642">
        <ele>117.6</ele>
        <time>2015-06-10T11:27:05.000Z</time>
      </trkpt>
      <trkpt lat="48.76912" lon="1.7063">
        <ele>117.5</ele>
        <time>2015-06-10T11:27:14.000Z</time>
      </trkpt>
      <trkpt lat="48.76918" lon="1.70617">
        <ele>117.7</ele>
        <time>2015-06-10T11:27:21.000Z</time>
      </trkpt>
      <trkpt lat="48.76921" lon="1.70613">
        <ele>117.8</ele>
        <time>2015-06-10T11:27:25.000Z</time>
      </trkpt>
      <trkpt lat="48.76926" lon="1.70608">
        <ele>117.7</ele>
        <time>2015-06-10T11:27:32.000Z</time>
      </trkpt>
      <trkpt lat="48.76932" lon="1.70598">
        <ele>117.5</ele>
        <time>2015-06-10T11:27:39.000Z</time>
      </trkpt>
      <trkpt lat="48.76935" lon="1.70594">
        <ele>117.3</ele>
        <time>2015-06-10T11:27:43.000Z</time>
      </trkpt>
      <trkpt lat="48.76939" lon="1.70593">
        <ele>117.2</ele>
        <time>2015-06-10T11:27:47.000Z</time>
      </trkpt>
      <trkpt lat="48.76947" lon="1.70582">
        <ele>117</ele>
        <time>2015-06-10T11:27:54.000Z</time>
      </trkpt>
      <trkpt lat="48.76955" lon="1.70571">
        <ele>117.1</ele>
        <time>2015-06-10T11:28:00.000Z</time>
      </trkpt>
      <trkpt lat="48.76957" lon="1.70564">
        <ele>117.2</ele>
        <time>2015-06-10T11:28:04.000Z</time>
      </trkpt>
      <trkpt lat="48.76965" lon="1.70555">
        <ele>117.3</ele>
        <time>2015-06-10T11:28:12.000Z</time>
      </trkpt>
      <trkpt lat="48.76973" lon="1.70543">
        <ele>117</ele>
        <time>2015-06-10T11:28:19.000Z</time>
      </trkpt>
      <trkpt lat="48.76974" lon="1.70535">
        <ele>116.9</ele>
        <time>2015-06-10T11:28:23.000Z</time>
      </trkpt>
      <trkpt lat="48.76977" lon="1.70527">
        <ele>116.9</ele>
        <time>2015-06-10T11:28:27.000Z</time>
      </trkpt>
      <trkpt lat="48.76985" lon="1.70518">
        <ele>116.7</ele>
        <time>2015-06-10T11:28:35.000Z</time>
      </trkpt>
      <trkpt lat="48.7699" lon="1.70512">
        <ele>116.5</ele>
        <time>2015-06-10T11:28:41.000Z</time>
      </trkpt>
      <trkpt lat="48.76996" lon="1.70506">
        <ele>116.2</ele>
        <time>2015-06-10T11:28:46.000Z</time>
      </trkpt>
      <trkpt lat="48.76997" lon="1.70504">
        <ele>116.2</ele>
        <time>2015-06-10T11:28:47.000Z</time>
      </trkpt>
      <trkpt lat="48.77003" lon="1.70491">
        <ele>116.2</ele>
        <time>2015-06-10T11:28:54.000Z</time>
      </trkpt>
      <trkpt lat="48.77008" lon="1.70484">
        <ele>116.1</ele>
        <time>2015-06-10T11:28:59.000Z</time>
      </trkpt>
      <trkpt lat="48.77011" lon="1.7048">
        <ele>116</ele>
        <time>2015-06-10T11:29:02.000Z</time>
      </trkpt>
      <trkpt lat="48.77023" lon="1.70467">
        <ele>115.5</ele>
        <time>2015-06-10T11:29:11.000Z</time>
      </trkpt>
      <trkpt lat="48.7703" lon="1.70461">
        <ele>115.3</ele>
        <time>2015-06-10T11:29:17.000Z</time>
      </trkpt>
      <trkpt lat="48.77032" lon="1.7046">
        <ele>115.2</ele>
        <time>2015-06-10T11:29:19.000Z</time>
      </trkpt>
      <trkpt lat="48.77037" lon="1.70453">
        <ele>115.1</ele>
        <time>2015-06-10T11:29:27.000Z</time>
      </trkpt>
      <trkpt lat="48.77046" lon="1.70444">
        <ele>114.7</ele>
        <time>2015-06-10T11:29:42.000Z</time>
      </trkpt>
      <trkpt lat="48.77052" lon="1.70442">
        <ele>114.3</ele>
        <time>2015-06-10T11:29:52.000Z</time>
      </trkpt>
      <trkpt lat="48.77053" lon="1.70441">
        <ele>114.3</ele>
        <time>2015-06-10T11:29:55.000Z</time>
      </trkpt>
      <trkpt lat="48.77052" lon="1.70446">
        <ele>114.3</ele>
        <time>2015-06-10T11:30:22.000Z</time>
      </trkpt>
      <trkpt lat="48.77058" lon="1.70444">
        <ele>113.9</ele>
        <time>2015-06-10T11:30:27.000Z</time>
      </trkpt>
      <trkpt lat="48.77062" lon="1.70446">
        <ele>113.8</ele>
        <time>2015-06-10T11:30:30.000Z</time>
      </trkpt>
      <trkpt lat="48.77069" lon="1.70455">
        <ele>113.5</ele>
        <time>2015-06-10T11:30:37.000Z</time>
      </trkpt>
      <trkpt lat="48.77069" lon="1.70456">
        <ele>113.5</ele>
        <time>2015-06-10T11:30:38.000Z</time>
      </trkpt>
      <trkpt lat="48.77072" lon="1.70462">
        <ele>113.4</ele>
        <time>2015-06-10T11:30:43.000Z</time>
      </trkpt>
      <trkpt lat="48.77074" lon="1.70462">
        <ele>113.3</ele>
        <time>2015-06-10T11:30:46.000Z</time>
      </trkpt>
      <trkpt lat="48.77082" lon="1.70459">
        <ele>113.1</ele>
        <time>2015-06-10T11:30:54.000Z</time>
      </trkpt>
      <trkpt lat="48.77087" lon="1.70459">
        <ele>113.1</ele>
        <time>2015-06-10T11:31:00.000Z</time>
      </trkpt>
      <trkpt lat="48.77091" lon="1.70458">
        <ele>113.1</ele>
        <time>2015-06-10T11:31:05.000Z</time>
      </trkpt>
      <trkpt lat="48.77094" lon="1.70459">
        <ele>113.2</ele>
        <time>2015-06-10T11:31:07.000Z</time>
      </trkpt>
      <trkpt lat="48.77101" lon="1.7046">
        <ele>113.3</ele>
        <time>2015-06-10T11:31:14.000Z</time>
      </trkpt>
      <trkpt lat="48.77108" lon="1.70461">
        <ele>113.5</ele>
        <time>2015-06-10T11:31:22.000Z</time>
      </trkpt>
      <trkpt lat="48.77117" lon="1.70459">
        <ele>113.5</ele>
        <time>2015-06-10T11:31:29.000Z</time>
      </trkpt>
      <trkpt lat="48.77125" lon="1.70461">
        <ele>113.6</ele>
        <time>2015-06-10T11:31:36.000Z</time>
      </trkpt>
      <trkpt lat="48.77128" lon="1.70465">
        <ele>113.7</ele>
        <time>2015-06-10T11:31:42.000Z</time>
      </trkpt>
      <trkpt lat="48.77137" lon="1.70466">
        <ele>113.8</ele>
        <time>2015-06-10T11:31:50.000Z</time>
      </trkpt>
      <trkpt lat="48.77144" lon="1.70463">
        <ele>113.6</ele>
        <time>2015-06-10T11:31:55.000Z</time>
      </trkpt>
      <trkpt lat="48.77153" lon="1.70462">
        <ele>113.5</ele>
        <time>2015-06-10T11:32:03.000Z</time>
      </trkpt>
      <trkpt lat="48.77154" lon="1.70463">
        <ele>113.5</ele>
        <time>2015-06-10T11:32:04.000Z</time>
      </trkpt>
      <trkpt lat="48.7716" lon="1.70466">
        <ele>113.6</ele>
        <time>2015-06-10T11:32:09.000Z</time>
      </trkpt>
      <trkpt lat="48.77165" lon="1.70464">
        <ele>113.4</ele>
        <time>2015-06-10T11:32:13.000Z</time>
      </trkpt>
      <trkpt lat="48.77167" lon="1.70464">
        <ele>113.4</ele>
        <time>2015-06-10T11:32:15.000Z</time>
      </trkpt>
      <trkpt lat="48.7717" lon="1.70464">
        <ele>113.3</ele>
        <time>2015-06-10T11:32:18.000Z</time>
      </trkpt>
      <trkpt lat="48.77174" lon="1.70463">
        <ele>113.2</ele>
        <time>2015-06-10T11:32:21.000Z</time>
      </trkpt>
      <trkpt lat="48.77183" lon="1.70464">
        <ele>113</ele>
        <time>2015-06-10T11:32:27.000Z</time>
      </trkpt>
      <trkpt lat="48.77184" lon="1.70464">
        <ele>113</ele>
        <time>2015-06-10T11:32:28.000Z</time>
      </trkpt>
      <trkpt lat="48.77195" lon="1.70466">
        <ele>112.8</ele>
        <time>2015-06-10T11:32:36.000Z</time>
      </trkpt>
      <trkpt lat="48.77201" lon="1.70466">
        <ele>113</ele>
        <time>2015-06-10T11:32:42.000Z</time>
      </trkpt>
      <trkpt lat="48.77205" lon="1.70468">
        <ele>113.2</ele>
        <time>2015-06-10T11:32:47.000Z</time>
      </trkpt>
      <trkpt lat="48.77205" lon="1.70468">
        <ele>113.2</ele>
        <time>2015-06-10T11:32:49.000Z</time>
      </trkpt>
      <trkpt lat="48.77221" lon="1.70468">
        <ele>113.8</ele>
        <time>2015-06-10T11:33:19.000Z</time>
      </trkpt>
      <trkpt lat="48.7723" lon="1.7047">
        <ele>114</ele>
        <time>2015-06-10T11:33:24.000Z</time>
      </trkpt>
      <trkpt lat="48.77238" lon="1.70471">
        <ele>114</ele>
        <time>2015-06-10T11:33:29.000Z</time>
      </trkpt>
      <trkpt lat="48.77248" lon="1.70468">
        <ele>114.1</ele>
        <time>2015-06-10T11:33:37.000Z</time>
      </trkpt>
      <trkpt lat="48.77256" lon="1.70467">
        <ele>114.2</ele>
        <time>2015-06-10T11:33:44.000Z</time>
      </trkpt>
      <trkpt lat="48.77258" lon="1.70467">
        <ele>114.1</ele>
        <time>2015-06-10T11:33:46.000Z</time>
      </trkpt>
      <trkpt lat="48.77267" lon="1.70467">
        <ele>114.1</ele>
        <time>2015-06-10T11:33:54.000Z</time>
      </trkpt>
      <trkpt lat="48.77269" lon="1.70467">
        <ele>114.1</ele>
        <time>2015-06-10T11:33:56.000Z</time>
      </trkpt>
      <trkpt lat="48.77274" lon="1.70468">
        <ele>114</ele>
        <time>2015-06-10T11:34:00.000Z</time>
      </trkpt>
      <trkpt lat="48.77276" lon="1.70467">
        <ele>114</ele>
        <time>2015-06-10T11:34:02.000Z</time>
      </trkpt>
      <trkpt lat="48.77282" lon="1.70468">
        <ele>114.2</ele>
        <time>2015-06-10T11:34:07.000Z</time>
      </trkpt>
      <trkpt lat="48.77288" lon="1.70469">
        <ele>114.4</ele>
        <time>2015-06-10T11:34:12.000Z</time>
      </trkpt>
      <trkpt lat="48.77295" lon="1.7047">
        <ele>114.6</ele>
        <time>2015-06-10T11:34:17.000Z</time>
      </trkpt>
      <trkpt lat="48.77298" lon="1.70469">
        <ele>114.7</ele>
        <time>2015-06-10T11:34:21.000Z</time>
      </trkpt>
      <trkpt lat="48.77304" lon="1.70468">
        <ele>115</ele>
        <time>2015-06-10T11:34:27.000Z</time>
      </trkpt>
      <trkpt lat="48.77313" lon="1.70463">
        <ele>115</ele>
        <time>2015-06-10T11:34:33.000Z</time>
      </trkpt>
      <trkpt lat="48.77315" lon="1.70462">
        <ele>115</ele>
        <time>2015-06-10T11:34:35.000Z</time>
      </trkpt>
      <trkpt lat="48.77324" lon="1.70461">
        <ele>115</ele>
        <time>2015-06-10T11:34:42.000Z</time>
      </trkpt>
      <trkpt lat="48.77331" lon="1.7046">
        <ele>115</ele>
        <time>2015-06-10T11:34:47.000Z</time>
      </trkpt>
      <trkpt lat="48.77337" lon="1.70463">
        <ele>115</ele>
        <time>2015-06-10T11:34:53.000Z</time>
      </trkpt>
      <trkpt lat="48.77345" lon="1.70461">
        <ele>115</ele>
        <time>2015-06-10T11:34:59.000Z</time>
      </trkpt>
      <trkpt lat="48.77351" lon="1.7046">
        <ele>115</ele>
        <time>2015-06-10T11:35:04.000Z</time>
      </trkpt>
      <trkpt lat="48.77356" lon="1.70462">
        <ele>115</ele>
        <time>2015-06-10T11:35:07.000Z</time>
      </trkpt>
      <trkpt lat="48.77363" lon="1.70461">
        <ele>115.1</ele>
        <time>2015-06-10T11:35:12.000Z</time>
      </trkpt>
      <trkpt lat="48.77371" lon="1.70463">
        <ele>115.4</ele>
        <time>2015-06-10T11:35:18.000Z</time>
      </trkpt>
      <trkpt lat="48.77374" lon="1.70462">
        <ele>115.5</ele>
        <time>2015-06-10T11:35:20.000Z</time>
      </trkpt>
      <trkpt lat="48.77378" lon="1.70465">
        <ele>115.6</ele>
        <time>2015-06-10T11:35:24.000Z</time>
      </trkpt>
      <trkpt lat="48.7738" lon="1.70468">
        <ele>115.7</ele>
        <time>2015-06-10T11:35:26.000Z</time>
      </trkpt>
      <trkpt lat="48.77386" lon="1.70471">
        <ele>115.9</ele>
        <time>2015-06-10T11:35:30.000Z</time>
      </trkpt>
      <trkpt lat="48.77389" lon="1.70473">
        <ele>116</ele>
        <time>2015-06-10T11:35:35.000Z</time>
      </trkpt>
      <trkpt lat="48.77396" lon="1.70478">
        <ele>116.8</ele>
        <time>2015-06-10T11:35:40.000Z</time>
      </trkpt>
      <trkpt lat="48.77398" lon="1.70479">
        <ele>117</ele>
        <time>2015-06-10T11:35:42.000Z</time>
      </trkpt>
      <trkpt lat="48.77407" lon="1.70485">
        <ele>117.9</ele>
        <time>2015-06-10T11:35:48.000Z</time>
      </trkpt>
      <trkpt lat="48.77415" lon="1.70494">
        <ele>118.8</ele>
        <time>2015-06-10T11:35:55.000Z</time>
      </trkpt>
      <trkpt lat="48.77416" lon="1.70497">
        <ele>119</ele>
        <time>2015-06-10T11:35:58.000Z</time>
      </trkpt>
      <trkpt lat="48.77422" lon="1.70506">
        <ele>119.4</ele>
        <time>2015-06-10T11:36:04.000Z</time>
      </trkpt>
      <trkpt lat="48.77425" lon="1.70508">
        <ele>119.6</ele>
        <time>2015-06-10T11:36:06.000Z</time>
      </trkpt>
      <trkpt lat="48.77429" lon="1.70511">
        <ele>119.9</ele>
        <time>2015-06-10T11:36:11.000Z</time>
      </trkpt>
      <trkpt lat="48.77437" lon="1.70516">
        <ele>120.5</ele>
        <time>2015-06-10T11:36:17.000Z</time>
      </trkpt>
      <trkpt lat="48.77441" lon="1.70522">
        <ele>120.8</ele>
        <time>2015-06-10T11:36:21.000Z</time>
      </trkpt>
      <trkpt lat="48.7745" lon="1.70527">
        <ele>121.2</ele>
        <time>2015-06-10T11:36:27.000Z</time>
      </trkpt>
      <trkpt lat="48.77453" lon="1.7053">
        <ele>121.3</ele>
        <time>2015-06-10T11:36:31.000Z</time>
      </trkpt>
      <trkpt lat="48.77458" lon="1.70536">
        <ele>121.5</ele>
        <time>2015-06-10T11:36:38.000Z</time>
      </trkpt>
      <trkpt lat="48.77473" lon="1.7052">
        <ele>122</ele>
        <time>2015-06-10T11:37:35.000Z</time>
      </trkpt>
      <trkpt lat="48.77477" lon="1.70509">
        <ele>122</ele>
        <time>2015-06-10T11:37:40.000Z</time>
      </trkpt>
      <trkpt lat="48.77477" lon="1.70506">
        <ele>122</ele>
        <time>2015-06-10T11:37:41.000Z</time>
      </trkpt>
      <trkpt lat="48.77479" lon="1.70495">
        <ele>121.9</ele>
        <time>2015-06-10T11:37:48.000Z</time>
      </trkpt>
      <trkpt lat="48.77479" lon="1.70497">
        <ele>121.9</ele>
        <time>2015-06-10T11:37:53.000Z</time>
      </trkpt>
      <trkpt lat="48.77485" lon="1.70499">
        <ele>122</ele>
        <time>2015-06-10T11:38:01.000Z</time>
      </trkpt>
      <trkpt lat="48.77484" lon="1.70494">
        <ele>121.9</ele>
        <time>2015-06-10T11:38:03.000Z</time>
      </trkpt>
      <trkpt lat="48.77488" lon="1.70489">
        <ele>121.8</ele>
        <time>2015-06-10T11:38:09.000Z</time>
      </trkpt>
      <trkpt lat="48.77488" lon="1.70489">
        <ele>121.8</ele>
        <time>2015-06-10T11:38:10.000Z</time>
      </trkpt>
      <trkpt lat="48.77482" lon="1.70492">
        <ele>121.8</ele>
        <time>2015-06-10T11:41:00.000Z</time>
      </trkpt>
      <trkpt lat="48.77487" lon="1.7049">
        <ele>121.8</ele>
        <time>2015-06-10T11:41:03.000Z</time>
      </trkpt>
      <trkpt lat="48.77488" lon="1.70491">
        <ele>121.9</ele>
        <time>2015-06-10T11:41:06.000Z</time>
      </trkpt>
      <trkpt lat="48.77474" lon="1.70493">
        <ele>121.7</ele>
        <time>2015-06-10T11:42:08.000Z</time>
      </trkpt>
      <trkpt lat="48.77472" lon="1.70488">
        <ele>121.6</ele>
        <time>2015-06-10T11:42:11.000Z</time>
      </trkpt>
      <trkpt lat="48.77475" lon="1.70488">
        <ele>121.6</ele>
        <time>2015-06-10T11:42:16.000Z</time>
      </trkpt>
      <trkpt lat="48.77482" lon="1.70489">
        <ele>121.8</ele>
        <time>2015-06-10T11:42:20.000Z</time>
      </trkpt>
      <trkpt lat="48.77485" lon="1.70492">
        <ele>121.8</ele>
        <time>2015-06-10T11:42:26.000Z</time>
      </trkpt>
      <trkpt lat="48.77485" lon="1.70492">
        <ele>121.8</ele>
        <time>2015-06-10T11:42:27.000Z</time>
      </trkpt>
      <trkpt lat="48.77481" lon="1.70491">
        <ele>121.8</ele>
        <time>2015-06-10T11:42:34.000Z</time>
      </trkpt>
      <trkpt lat="48.7748" lon="1.7049">
        <ele>121.7</ele>
        <time>2015-06-10T11:42:35.000Z</time>
      </trkpt>
      <trkpt lat="48.77475" lon="1.70487">
        <ele>121.6</ele>
        <time>2015-06-10T11:42:39.000Z</time>
      </trkpt>
      <trkpt lat="48.77473" lon="1.70488">
        <ele>121.6</ele>
        <time>2015-06-10T11:42:41.000Z</time>
      </trkpt>
      <trkpt lat="48.77467" lon="1.70493">
        <ele>121.5</ele>
        <time>2015-06-10T11:42:47.000Z</time>
      </trkpt>
      <trkpt lat="48.77462" lon="1.70492">
        <ele>121.3</ele>
        <time>2015-06-10T11:42:51.000Z</time>
      </trkpt>
      <trkpt lat="48.77464" lon="1.70489">
        <ele>121.3</ele>
        <time>2015-06-10T11:42:56.000Z</time>
      </trkpt>
      <trkpt lat="48.77463" lon="1.70489">
        <ele>121.3</ele>
        <time>2015-06-10T11:43:01.000Z</time>
      </trkpt>
      <trkpt lat="48.77468" lon="1.7049">
        <ele>121.5</ele>
        <time>2015-06-10T11:43:42.000Z</time>
      </trkpt>
      <trkpt lat="48.77472" lon="1.70489">
        <ele>121.6</ele>
        <time>2015-06-10T11:43:45.000Z</time>
      </trkpt>
      <trkpt lat="48.77474" lon="1.70488">
        <ele>121.6</ele>
        <time>2015-06-10T11:43:49.000Z</time>
      </trkpt>
      <trkpt lat="48.77476" lon="1.70489">
        <ele>121.7</ele>
        <time>2015-06-10T11:43:52.000Z</time>
      </trkpt>
      <trkpt lat="48.7748" lon="1.70488">
        <ele>121.7</ele>
        <time>2015-06-10T11:43:57.000Z</time>
      </trkpt>
      <trkpt lat="48.77483" lon="1.70487">
        <ele>121.7</ele>
        <time>2015-06-10T11:44:01.000Z</time>
      </trkpt>
      <trkpt lat="48.77483" lon="1.70488">
        <ele>121.7</ele>
        <time>2015-06-10T11:44:34.000Z</time>
      </trkpt>
      <trkpt lat="48.77482" lon="1.70489">
        <ele>121.7</ele>
        <time>2015-06-10T11:44:38.000Z</time>
      </trkpt>
      <trkpt lat="48.77483" lon="1.70488">
        <ele>121.7</ele>
        <time>2015-06-10T11:44:44.000Z</time>
      </trkpt>
      <trkpt lat="48.77484" lon="1.70488">
        <ele>121.8</ele>
        <time>2015-06-10T11:44:49.000Z</time>
      </trkpt>
      <trkpt lat="48.77482" lon="1.70491">
        <ele>121.8</ele>
        <time>2015-06-10T11:44:53.000Z</time>
      </trkpt>
      <trkpt lat="48.7748" lon="1.70487">
        <ele>121.7</ele>
        <time>2015-06-10T11:45:13.000Z</time>
      </trkpt>
      <trkpt lat="48.77098" lon="1.70464">
        <ele>113.4</ele>
        <time>2015-06-10T12:09:03.000Z</time>
      </trkpt>
      <trkpt lat="48.77098" lon="1.70464">
        <ele>113.4</ele>
        <time>2015-06-10T12:09:03.000Z</time>
      </trkpt>
      <trkpt lat="48.77092" lon="1.70462">
        <ele>113.2</ele>
        <time>2015-06-10T12:09:07.000Z</time>
      </trkpt>
      <trkpt lat="48.77091" lon="1.70461">
        <ele>113.2</ele>
        <time>2015-06-10T12:09:10.000Z</time>
      </trkpt>
      <trkpt lat="48.7709" lon="1.70461">
        <ele>113.1</ele>
        <time>2015-06-10T12:09:11.000Z</time>
      </trkpt>
      <trkpt lat="48.77084" lon="1.70461">
        <ele>113</ele>
        <time>2015-06-10T12:09:15.000Z</time>
      </trkpt>
      <trkpt lat="48.77077" lon="1.70463">
        <ele>113.2</ele>
        <time>2015-06-10T12:09:19.000Z</time>
      </trkpt>
      <trkpt lat="48.77069" lon="1.70466">
        <ele>113.5</ele>
        <time>2015-06-10T12:09:24.000Z</time>
      </trkpt>
      <trkpt lat="48.77068" lon="1.70468">
        <ele>113.5</ele>
        <time>2015-06-10T12:09:27.000Z</time>
      </trkpt>
      <trkpt lat="48.77066" lon="1.70468">
        <ele>113.6</ele>
        <time>2015-06-10T12:09:30.000Z</time>
      </trkpt>
      <trkpt lat="48.77063" lon="1.70464">
        <ele>113.7</ele>
        <time>2015-06-10T12:09:33.000Z</time>
      </trkpt>
      <trkpt lat="48.77057" lon="1.70456">
        <ele>114</ele>
        <time>2015-06-10T12:09:38.000Z</time>
      </trkpt>
      <trkpt lat="48.77058" lon="1.70455">
        <ele>113.9</ele>
        <time>2015-06-10T12:09:44.000Z</time>
      </trkpt>
      <trkpt lat="48.7705" lon="1.70456">
        <ele>114.3</ele>
        <time>2015-06-10T12:09:48.000Z</time>
      </trkpt>
      <trkpt lat="48.77042" lon="1.70454">
        <ele>114.8</ele>
        <time>2015-06-10T12:10:00.000Z</time>
      </trkpt>
      <trkpt lat="48.7704" lon="1.70449">
        <ele>115.1</ele>
        <time>2015-06-10T12:10:04.000Z</time>
      </trkpt>
      <trkpt lat="48.77038" lon="1.70448">
        <ele>115.2</ele>
        <time>2015-06-10T12:10:07.000Z</time>
      </trkpt>
      <trkpt lat="48.77035" lon="1.70447">
        <ele>115.4</ele>
        <time>2015-06-10T12:10:08.000Z</time>
      </trkpt>
      <trkpt lat="48.77032" lon="1.70447">
        <ele>115.6</ele>
        <time>2015-06-10T12:10:09.000Z</time>
      </trkpt>
      <trkpt lat="48.77033" lon="1.70457">
        <ele>115.3</ele>
        <time>2015-06-10T12:10:14.000Z</time>
      </trkpt>
      <trkpt lat="48.77031" lon="1.70466">
        <ele>115.1</ele>
        <time>2015-06-10T12:10:18.000Z</time>
      </trkpt>
      <trkpt lat="48.7702" lon="1.70476">
        <ele>115.5</ele>
        <time>2015-06-10T12:10:25.000Z</time>
      </trkpt>
      <trkpt lat="48.77012" lon="1.70482">
        <ele>115.9</ele>
        <time>2015-06-10T12:10:30.000Z</time>
      </trkpt>
      <trkpt lat="48.77005" lon="1.70485">
        <ele>116.3</ele>
        <time>2015-06-10T12:10:33.000Z</time>
      </trkpt>
      <trkpt lat="48.76994" lon="1.70498">
        <ele>116.5</ele>
        <time>2015-06-10T12:10:40.000Z</time>
      </trkpt>
      <trkpt lat="48.76993" lon="1.705">
        <ele>116.5</ele>
        <time>2015-06-10T12:10:41.000Z</time>
      </trkpt>
      <trkpt lat="48.76985" lon="1.7051">
        <ele>116.9</ele>
        <time>2015-06-10T12:10:47.000Z</time>
      </trkpt>
      <trkpt lat="48.76981" lon="1.70518">
        <ele>116.9</ele>
        <time>2015-06-10T12:10:51.000Z</time>
      </trkpt>
      <trkpt lat="48.76973" lon="1.70524">
        <ele>117.1</ele>
        <time>2015-06-10T12:10:56.000Z</time>
      </trkpt>
      <trkpt lat="48.76965" lon="1.70537">
        <ele>117.3</ele>
        <time>2015-06-10T12:11:03.000Z</time>
      </trkpt>
      <trkpt lat="48.76962" lon="1.7054">
        <ele>117.4</ele>
        <time>2015-06-10T12:11:05.000Z</time>
      </trkpt>
      <trkpt lat="48.76959" lon="1.70549">
        <ele>117.5</ele>
        <time>2015-06-10T12:11:10.000Z</time>
      </trkpt>
      <trkpt lat="48.76948" lon="1.70558">
        <ele>117.8</ele>
        <time>2015-06-10T12:11:15.000Z</time>
      </trkpt>
      <trkpt lat="48.76936" lon="1.70569">
        <ele>117.8</ele>
        <time>2015-06-10T12:11:23.000Z</time>
      </trkpt>
      <trkpt lat="48.76927" lon="1.70578">
        <ele>117.8</ele>
        <time>2015-06-10T12:11:29.000Z</time>
      </trkpt>
      <trkpt lat="48.76919" lon="1.70589">
        <ele>117.9</ele>
        <time>2015-06-10T12:11:35.000Z</time>
      </trkpt>
      <trkpt lat="48.76915" lon="1.70609">
        <ele>118.1</ele>
        <time>2015-06-10T12:11:44.000Z</time>
      </trkpt>
      <trkpt lat="48.76913" lon="1.70613">
        <ele>118.1</ele>
        <time>2015-06-10T12:11:46.000Z</time>
      </trkpt>
      <trkpt lat="48.76909" lon="1.70622">
        <ele>117.9</ele>
        <time>2015-06-10T12:11:50.000Z</time>
      </trkpt>
      <trkpt lat="48.76899" lon="1.70635">
        <ele>117.8</ele>
        <time>2015-06-10T12:11:57.000Z</time>
      </trkpt>
      <trkpt lat="48.76892" lon="1.70645">
        <ele>117.9</ele>
        <time>2015-06-10T12:12:03.000Z</time>
      </trkpt>
      <trkpt lat="48.76884" lon="1.70653">
        <ele>118.2</ele>
        <time>2015-06-10T12:12:08.000Z</time>
      </trkpt>
      <trkpt lat="48.76883" lon="1.70655">
        <ele>118.2</ele>
        <time>2015-06-10T12:12:09.000Z</time>
      </trkpt>
      <trkpt lat="48.76878" lon="1.70669">
        <ele>118.3</ele>
        <time>2015-06-10T12:12:16.000Z</time>
      </trkpt>
      <trkpt lat="48.76874" lon="1.70677">
        <ele>118.1</ele>
        <time>2015-06-10T12:12:20.000Z</time>
      </trkpt>
      <trkpt lat="48.76865" lon="1.7069">
        <ele>118</ele>
        <time>2015-06-10T12:12:27.000Z</time>
      </trkpt>
      <trkpt lat="48.76857" lon="1.70704">
        <ele>118.1</ele>
        <time>2015-06-10T12:12:35.000Z</time>
      </trkpt>
      <trkpt lat="48.76849" lon="1.70715">
        <ele>118.1</ele>
        <time>2015-06-10T12:12:41.000Z</time>
      </trkpt>
      <trkpt lat="48.76846" lon="1.70718">
        <ele>118.1</ele>
        <time>2015-06-10T12:12:43.000Z</time>
      </trkpt>
      <trkpt lat="48.76836" lon="1.70731">
        <ele>118</ele>
        <time>2015-06-10T12:12:51.000Z</time>
      </trkpt>
      <trkpt lat="48.76832" lon="1.7074">
        <ele>118</ele>
        <time>2015-06-10T12:12:56.000Z</time>
      </trkpt>
      <trkpt lat="48.76826" lon="1.70751">
        <ele>118</ele>
        <time>2015-06-10T12:13:01.000Z</time>
      </trkpt>
      <trkpt lat="48.76818" lon="1.7076">
        <ele>117.8</ele>
        <time>2015-06-10T12:13:06.000Z</time>
      </trkpt>
      <trkpt lat="48.76809" lon="1.70772">
        <ele>117.9</ele>
        <time>2015-06-10T12:13:13.000Z</time>
      </trkpt>
      <trkpt lat="48.76808" lon="1.70774">
        <ele>117.9</ele>
        <time>2015-06-10T12:13:14.000Z</time>
      </trkpt>
      <trkpt lat="48.76805" lon="1.70777">
        <ele>118</ele>
        <time>2015-06-10T12:13:16.000Z</time>
      </trkpt>
      <trkpt lat="48.76799" lon="1.70786">
        <ele>118.1</ele>
        <time>2015-06-10T12:13:21.000Z</time>
      </trkpt>
      <trkpt lat="48.76798" lon="1.70789">
        <ele>118.1</ele>
        <time>2015-06-10T12:13:23.000Z</time>
      </trkpt>
      <trkpt lat="48.76793" lon="1.70799">
        <ele>118.4</ele>
        <time>2015-06-10T12:13:27.000Z</time>
      </trkpt>
      <trkpt lat="48.76786" lon="1.70806">
        <ele>118.7</ele>
        <time>2015-06-10T12:13:32.000Z</time>
      </trkpt>
      <trkpt lat="48.76785" lon="1.70808">
        <ele>118.7</ele>
        <time>2015-06-10T12:13:33.000Z</time>
      </trkpt>
      <trkpt lat="48.76775" lon="1.70816">
        <ele>118.7</ele>
        <time>2015-06-10T12:13:39.000Z</time>
      </trkpt>
      <trkpt lat="48.76766" lon="1.7083">
        <ele>118.5</ele>
        <time>2015-06-10T12:13:47.000Z</time>
      </trkpt>
      <trkpt lat="48.76754" lon="1.70842">
        <ele>118.6</ele>
        <time>2015-06-10T12:13:54.000Z</time>
      </trkpt>
      <trkpt lat="48.76749" lon="1.70851">
        <ele>118.4</ele>
        <time>2015-06-10T12:13:58.000Z</time>
      </trkpt>
      <trkpt lat="48.7674" lon="1.70863">
        <ele>118.4</ele>
        <time>2015-06-10T12:14:05.000Z</time>
      </trkpt>
      <trkpt lat="48.7673" lon="1.7088">
        <ele>118.7</ele>
        <time>2015-06-10T12:14:14.000Z</time>
      </trkpt>
      <trkpt lat="48.76723" lon="1.70895">
        <ele>119</ele>
        <time>2015-06-10T12:14:22.000Z</time>
      </trkpt>
      <trkpt lat="48.76718" lon="1.7091">
        <ele>119</ele>
        <time>2015-06-10T12:14:29.000Z</time>
      </trkpt>
      <trkpt lat="48.76709" lon="1.70922">
        <ele>118.9</ele>
        <time>2015-06-10T12:14:35.000Z</time>
      </trkpt>
      <trkpt lat="48.76697" lon="1.70936">
        <ele>118.9</ele>
        <time>2015-06-10T12:14:42.000Z</time>
      </trkpt>
      <trkpt lat="48.76686" lon="1.70949">
        <ele>118.9</ele>
        <time>2015-06-10T12:14:49.000Z</time>
      </trkpt>
      <trkpt lat="48.76673" lon="1.70961">
        <ele>118.9</ele>
        <time>2015-06-10T12:14:56.000Z</time>
      </trkpt>
      <trkpt lat="48.76669" lon="1.70972">
        <ele>118.9</ele>
        <time>2015-06-10T12:15:02.000Z</time>
      </trkpt>
      <trkpt lat="48.76663" lon="1.70985">
        <ele>118.6</ele>
        <time>2015-06-10T12:15:10.000Z</time>
      </trkpt>
      <trkpt lat="48.76657" lon="1.70997">
        <ele>118.4</ele>
        <time>2015-06-10T12:15:15.000Z</time>
      </trkpt>
      <trkpt lat="48.76655" lon="1.70999">
        <ele>118.4</ele>
        <time>2015-06-10T12:15:16.000Z</time>
      </trkpt>
      <trkpt lat="48.76648" lon="1.71005">
        <ele>118.5</ele>
        <time>2015-06-10T12:15:20.000Z</time>
      </trkpt>
      <trkpt lat="48.76641" lon="1.71013">
        <ele>118.5</ele>
        <time>2015-06-10T12:15:25.000Z</time>
      </trkpt>
      <trkpt lat="48.76636" lon="1.71022">
        <ele>118.3</ele>
        <time>2015-06-10T12:15:30.000Z</time>
      </trkpt>
      <trkpt lat="48.76627" lon="1.71035">
        <ele>118.3</ele>
        <time>2015-06-10T12:15:39.000Z</time>
      </trkpt>
      <trkpt lat="48.76621" lon="1.71043">
        <ele>118.3</ele>
        <time>2015-06-10T12:15:44.000Z</time>
      </trkpt>
      <trkpt lat="48.76614" lon="1.7105">
        <ele>118.2</ele>
        <time>2015-06-10T12:15:50.000Z</time>
      </trkpt>
      <trkpt lat="48.76607" lon="1.71063">
        <ele>118.2</ele>
        <time>2015-06-10T12:15:56.000Z</time>
      </trkpt>
      <trkpt lat="48.76604" lon="1.71075">
        <ele>118.3</ele>
        <time>2015-06-10T12:16:01.000Z</time>
      </trkpt>
      <trkpt lat="48.76601" lon="1.71076">
        <ele>118.4</ele>
        <time>2015-06-10T12:16:02.000Z</time>
      </trkpt>
      <trkpt lat="48.76594" lon="1.71085">
        <ele>118.5</ele>
        <time>2015-06-10T12:16:08.000Z</time>
      </trkpt>
      <trkpt lat="48.76583" lon="1.71092">
        <ele>118.7</ele>
        <time>2015-06-10T12:16:14.000Z</time>
      </trkpt>
      <trkpt lat="48.76575" lon="1.71099">
        <ele>118.7</ele>
        <time>2015-06-10T12:16:19.000Z</time>
      </trkpt>
      <trkpt lat="48.76565" lon="1.71106">
        <ele>118.8</ele>
        <time>2015-06-10T12:16:24.000Z</time>
      </trkpt>
      <trkpt lat="48.76559" lon="1.71117">
        <ele>118.7</ele>
        <time>2015-06-10T12:16:30.000Z</time>
      </trkpt>
      <trkpt lat="48.76554" lon="1.71125">
        <ele>118.6</ele>
        <time>2015-06-10T12:16:35.000Z</time>
      </trkpt>
      <trkpt lat="48.76544" lon="1.71133">
        <ele>118.7</ele>
        <time>2015-06-10T12:16:41.000Z</time>
      </trkpt>
      <trkpt lat="48.76537" lon="1.7114">
        <ele>118.6</ele>
        <time>2015-06-10T12:16:46.000Z</time>
      </trkpt>
      <trkpt lat="48.76532" lon="1.71145">
        <ele>118.6</ele>
        <time>2015-06-10T12:16:50.000Z</time>
      </trkpt>
      <trkpt lat="48.76523" lon="1.71164">
        <ele>118.3</ele>
        <time>2015-06-10T12:16:58.000Z</time>
      </trkpt>
      <trkpt lat="48.76518" lon="1.71174">
        <ele>118.3</ele>
        <time>2015-06-10T12:17:02.000Z</time>
      </trkpt>
      <trkpt lat="48.76511" lon="1.71184">
        <ele>118.2</ele>
        <time>2015-06-10T12:17:07.000Z</time>
      </trkpt>
      <trkpt lat="48.7651" lon="1.7119">
        <ele>118.1</ele>
        <time>2015-06-10T12:17:10.000Z</time>
      </trkpt>
      <trkpt lat="48.76504" lon="1.71205">
        <ele>117.9</ele>
        <time>2015-06-10T12:17:17.000Z</time>
      </trkpt>
      <trkpt lat="48.765" lon="1.71217">
        <ele>118</ele>
        <time>2015-06-10T12:17:23.000Z</time>
      </trkpt>
      <trkpt lat="48.76499" lon="1.71219">
        <ele>118</ele>
        <time>2015-06-10T12:17:24.000Z</time>
      </trkpt>
      <trkpt lat="48.76492" lon="1.71231">
        <ele>118</ele>
        <time>2015-06-10T12:17:31.000Z</time>
      </trkpt>
      <trkpt lat="48.76491" lon="1.71237">
        <ele>117.8</ele>
        <time>2015-06-10T12:17:33.000Z</time>
      </trkpt>
      <trkpt lat="48.7648" lon="1.7125">
        <ele>117.7</ele>
        <time>2015-06-10T12:17:39.000Z</time>
      </trkpt>
      <trkpt lat="48.76469" lon="1.71265">
        <ele>117.6</ele>
        <time>2015-06-10T12:17:46.000Z</time>
      </trkpt>
      <trkpt lat="48.76467" lon="1.71268">
        <ele>117.5</ele>
        <time>2015-06-10T12:17:47.000Z</time>
      </trkpt>
      <trkpt lat="48.76465" lon="1.71272">
        <ele>117.5</ele>
        <time>2015-06-10T12:17:49.000Z</time>
      </trkpt>
      <trkpt lat="48.76458" lon="1.71279">
        <ele>117.5</ele>
        <time>2015-06-10T12:17:53.000Z</time>
      </trkpt>
      <trkpt lat="48.76439" lon="1.71304">
        <ele>118</ele>
        <time>2015-06-10T12:18:01.000Z</time>
      </trkpt>
      <trkpt lat="48.76421" lon="1.71333">
        <ele>117</ele>
        <time>2015-06-10T12:18:08.000Z</time>
      </trkpt>
      <trkpt lat="48.76415" lon="1.71354">
        <ele>117.1</ele>
        <time>2015-06-10T12:18:13.000Z</time>
      </trkpt>
      <trkpt lat="48.76409" lon="1.71381">
        <ele>117.3</ele>
        <time>2015-06-10T12:18:19.000Z</time>
      </trkpt>
      <trkpt lat="48.76402" lon="1.71402">
        <ele>117.3</ele>
        <time>2015-06-10T12:18:24.000Z</time>
      </trkpt>
      <trkpt lat="48.76389" lon="1.7143">
        <ele>117</ele>
        <time>2015-06-10T12:18:30.000Z</time>
      </trkpt>
      <trkpt lat="48.76378" lon="1.71454">
        <ele>116.8</ele>
        <time>2015-06-10T12:18:35.000Z</time>
      </trkpt>
      <trkpt lat="48.76364" lon="1.71482">
        <ele>116.9</ele>
        <time>2015-06-10T12:18:41.000Z</time>
      </trkpt>
      <trkpt lat="48.76355" lon="1.7151">
        <ele>117</ele>
        <time>2015-06-10T12:18:47.000Z</time>
      </trkpt>
      <trkpt lat="48.76352" lon="1.71536">
        <ele>117</ele>
        <time>2015-06-10T12:18:53.000Z</time>
      </trkpt>
      <trkpt lat="48.76345" lon="1.71563">
        <ele>117</ele>
        <time>2015-06-10T12:18:58.000Z</time>
      </trkpt>
      <trkpt lat="48.76339" lon="1.71589">
        <ele>117</ele>
        <time>2015-06-10T12:19:03.000Z</time>
      </trkpt>
      <trkpt lat="48.76332" lon="1.71615">
        <ele>117</ele>
        <time>2015-06-10T12:19:08.000Z</time>
      </trkpt>
      <trkpt lat="48.76327" lon="1.71639">
        <ele>117.2</ele>
        <time>2015-06-10T12:19:12.000Z</time>
      </trkpt>
      <trkpt lat="48.76323" lon="1.71659">
        <ele>117.4</ele>
        <time>2015-06-10T12:19:16.000Z</time>
      </trkpt>
      <trkpt lat="48.76319" lon="1.71685">
        <ele>117.2</ele>
        <time>2015-06-10T12:19:21.000Z</time>
      </trkpt>
      <trkpt lat="48.76313" lon="1.71717">
        <ele>117</ele>
        <time>2015-06-10T12:19:27.000Z</time>
      </trkpt>
      <trkpt lat="48.76312" lon="1.7174">
        <ele>117</ele>
        <time>2015-06-10T12:19:32.000Z</time>
      </trkpt>
      <trkpt lat="48.76307" lon="1.71766">
        <ele>117</ele>
        <time>2015-06-10T12:19:37.000Z</time>
      </trkpt>
      <trkpt lat="48.76302" lon="1.71801">
        <ele>117.1</ele>
        <time>2015-06-10T12:19:43.000Z</time>
      </trkpt>
      <trkpt lat="48.76294" lon="1.71835">
        <ele>117.4</ele>
        <time>2015-06-10T12:19:49.000Z</time>
      </trkpt>
      <trkpt lat="48.76286" lon="1.71874">
        <ele>117.7</ele>
        <time>2015-06-10T12:19:56.000Z</time>
      </trkpt>
      <trkpt lat="48.7628" lon="1.719">
        <ele>117.9</ele>
        <time>2015-06-10T12:20:01.000Z</time>
      </trkpt>
      <trkpt lat="48.76273" lon="1.71922">
        <ele>118</ele>
        <time>2015-06-10T12:20:06.000Z</time>
      </trkpt>
      <trkpt lat="48.76268" lon="1.71955">
        <ele>118</ele>
        <time>2015-06-10T12:20:12.000Z</time>
      </trkpt>
      <trkpt lat="48.76263" lon="1.71987">
        <ele>118</ele>
        <time>2015-06-10T12:20:18.000Z</time>
      </trkpt>
      <trkpt lat="48.76258" lon="1.72019">
        <ele>118</ele>
        <time>2015-06-10T12:20:24.000Z</time>
      </trkpt>
      <trkpt lat="48.76249" lon="1.72053">
        <ele>118</ele>
        <time>2015-06-10T12:20:30.000Z</time>
      </trkpt>
      <trkpt lat="48.76245" lon="1.72087">
        <ele>119</ele>
        <time>2015-06-10T12:20:36.000Z</time>
      </trkpt>
      <trkpt lat="48.76246" lon="1.7211">
        <ele>119</ele>
        <time>2015-06-10T12:20:40.000Z</time>
      </trkpt>
      <trkpt lat="48.76246" lon="1.7213">
        <ele>118.4</ele>
        <time>2015-06-10T12:20:46.000Z</time>
      </trkpt>
      <trkpt lat="48.76245" lon="1.72141">
        <ele>118.2</ele>
        <time>2015-06-10T12:20:50.000Z</time>
      </trkpt>
      <trkpt lat="48.76244" lon="1.72146">
        <ele>118.4</ele>
        <time>2015-06-10T12:20:52.000Z</time>
      </trkpt>
      <trkpt lat="48.76247" lon="1.7215">
        <ele>118.5</ele>
        <time>2015-06-10T12:20:55.000Z</time>
      </trkpt>
      <trkpt lat="48.76246" lon="1.72168">
        <ele>119</ele>
        <time>2015-06-10T12:21:01.000Z</time>
      </trkpt>
      <trkpt lat="48.76245" lon="1.72183">
        <ele>119</ele>
        <time>2015-06-10T12:21:06.000Z</time>
      </trkpt>
      <trkpt lat="48.76246" lon="1.72185">
        <ele>119</ele>
        <time>2015-06-10T12:21:07.000Z</time>
      </trkpt>
      <trkpt lat="48.76248" lon="1.72202">
        <ele>119</ele>
        <time>2015-06-10T12:21:13.000Z</time>
      </trkpt>
      <trkpt lat="48.76249" lon="1.72212">
        <ele>119</ele>
        <time>2015-06-10T12:21:17.000Z</time>
      </trkpt>
      <trkpt lat="48.76245" lon="1.72228">
        <ele>119</ele>
        <time>2015-06-10T12:21:23.000Z</time>
      </trkpt>
      <trkpt lat="48.76246" lon="1.72233">
        <ele>119</ele>
        <time>2015-06-10T12:21:25.000Z</time>
      </trkpt>
      <trkpt lat="48.76252" lon="1.72247">
        <ele>119</ele>
        <time>2015-06-10T12:21:32.000Z</time>
      </trkpt>
      <trkpt lat="48.7625" lon="1.72262">
        <ele>119</ele>
        <time>2015-06-10T12:21:38.000Z</time>
      </trkpt>
      <trkpt lat="48.7625" lon="1.72265">
        <ele>119</ele>
        <time>2015-06-10T12:21:39.000Z</time>
      </trkpt>
      <trkpt lat="48.76244" lon="1.72284">
        <ele>119</ele>
        <time>2015-06-10T12:21:46.000Z</time>
      </trkpt>
      <trkpt lat="48.76238" lon="1.72303">
        <ele>119</ele>
        <time>2015-06-10T12:21:54.000Z</time>
      </trkpt>
      <trkpt lat="48.76232" lon="1.72315">
        <ele>118.9</ele>
        <time>2015-06-10T12:22:00.000Z</time>
      </trkpt>
      <trkpt lat="48.76225" lon="1.72328">
        <ele>118.9</ele>
        <time>2015-06-10T12:22:06.000Z</time>
      </trkpt>
      <trkpt lat="48.76219" lon="1.72337">
        <ele>119.1</ele>
        <time>2015-06-10T12:22:10.000Z</time>
      </trkpt>
      <trkpt lat="48.76213" lon="1.7235">
        <ele>119.3</ele>
        <time>2015-06-10T12:22:16.000Z</time>
      </trkpt>
      <trkpt lat="48.7621" lon="1.72353">
        <ele>119.4</ele>
        <time>2015-06-10T12:22:18.000Z</time>
      </trkpt>
      <trkpt lat="48.76203" lon="1.72364">
        <ele>119.7</ele>
        <time>2015-06-10T12:22:24.000Z</time>
      </trkpt>
      <trkpt lat="48.762" lon="1.72368">
        <ele>119.8</ele>
        <time>2015-06-10T12:22:26.000Z</time>
      </trkpt>
      <trkpt lat="48.76191" lon="1.72382">
        <ele>120.1</ele>
        <time>2015-06-10T12:22:35.000Z</time>
      </trkpt>
      <trkpt lat="48.76185" lon="1.72391">
        <ele>120.3</ele>
        <time>2015-06-10T12:22:41.000Z</time>
      </trkpt>
      <trkpt lat="48.76178" lon="1.72404">
        <ele>120.4</ele>
        <time>2015-06-10T12:22:47.000Z</time>
      </trkpt>
      <trkpt lat="48.7617" lon="1.72418">
        <ele>120.7</ele>
        <time>2015-06-10T12:22:54.000Z</time>
      </trkpt>
      <trkpt lat="48.76163" lon="1.72429">
        <ele>120.6</ele>
        <time>2015-06-10T12:23:00.000Z</time>
      </trkpt>
      <trkpt lat="48.76155" lon="1.72443">
        <ele>120.4</ele>
        <time>2015-06-10T12:23:07.000Z</time>
      </trkpt>
      <trkpt lat="48.76148" lon="1.72454">
        <ele>120.7</ele>
        <time>2015-06-10T12:23:13.000Z</time>
      </trkpt>
      <trkpt lat="48.76143" lon="1.72461">
        <ele>120.9</ele>
        <time>2015-06-10T12:23:17.000Z</time>
      </trkpt>
      <trkpt lat="48.76134" lon="1.72478">
        <ele>121.2</ele>
        <time>2015-06-10T12:23:25.000Z</time>
      </trkpt>
      <trkpt lat="48.76128" lon="1.72487">
        <ele>121.4</ele>
        <time>2015-06-10T12:23:31.000Z</time>
      </trkpt>
      <trkpt lat="48.76119" lon="1.72499">
        <ele>121.7</ele>
        <time>2015-06-10T12:23:38.000Z</time>
      </trkpt>
      <trkpt lat="48.7611" lon="1.72515">
        <ele>122</ele>
        <time>2015-06-10T12:23:45.000Z</time>
      </trkpt>
      <trkpt lat="48.76103" lon="1.72531">
        <ele>122.3</ele>
        <time>2015-06-10T12:23:52.000Z</time>
      </trkpt>
      <trkpt lat="48.76096" lon="1.72543">
        <ele>122.5</ele>
        <time>2015-06-10T12:23:58.000Z</time>
      </trkpt>
      <trkpt lat="48.76086" lon="1.72553">
        <ele>122.9</ele>
        <time>2015-06-10T12:24:04.000Z</time>
      </trkpt>
      <trkpt lat="48.76082" lon="1.72561">
        <ele>123</ele>
        <time>2015-06-10T12:24:07.000Z</time>
      </trkpt>
      <trkpt lat="48.76076" lon="1.7257">
        <ele>123.3</ele>
        <time>2015-06-10T12:24:14.000Z</time>
      </trkpt>
      <trkpt lat="48.76072" lon="1.72574">
        <ele>123.4</ele>
        <time>2015-06-10T12:24:21.000Z</time>
      </trkpt>
      <trkpt lat="48.76066" lon="1.72581">
        <ele>123.6</ele>
        <time>2015-06-10T12:24:25.000Z</time>
      </trkpt>
      <trkpt lat="48.76057" lon="1.72583">
        <ele>124</ele>
        <time>2015-06-10T12:24:31.000Z</time>
      </trkpt>
      <trkpt lat="48.76056" lon="1.72584">
        <ele>124</ele>
        <time>2015-06-10T12:24:32.000Z</time>
      </trkpt>
      <trkpt lat="48.76046" lon="1.72592">
        <ele>124.2</ele>
        <time>2015-06-10T12:24:39.000Z</time>
      </trkpt>
      <trkpt lat="48.76035" lon="1.72603">
        <ele>124.2</ele>
        <time>2015-06-10T12:24:47.000Z</time>
      </trkpt>
      <trkpt lat="48.76028" lon="1.7261">
        <ele>124</ele>
        <time>2015-06-10T12:24:52.000Z</time>
      </trkpt>
      <trkpt lat="48.76024" lon="1.72618">
        <ele>124.2</ele>
        <time>2015-06-10T12:24:56.000Z</time>
      </trkpt>
      <trkpt lat="48.76018" lon="1.72625">
        <ele>124.3</ele>
        <time>2015-06-10T12:25:01.000Z</time>
      </trkpt>
      <trkpt lat="48.76003" lon="1.72638">
        <ele>124.9</ele>
        <time>2015-06-10T12:25:09.000Z</time>
      </trkpt>
      <trkpt lat="48.75996" lon="1.72647">
        <ele>125.2</ele>
        <time>2015-06-10T12:25:14.000Z</time>
      </trkpt>
      <trkpt lat="48.75987" lon="1.72656">
        <ele>125.5</ele>
        <time>2015-06-10T12:25:20.000Z</time>
      </trkpt>
      <trkpt lat="48.75976" lon="1.72666">
        <ele>125.8</ele>
        <time>2015-06-10T12:25:26.000Z</time>
      </trkpt>
      <trkpt lat="48.75972" lon="1.72671">
        <ele>126</ele>
        <time>2015-06-10T12:25:30.000Z</time>
      </trkpt>
      <trkpt lat="48.75966" lon="1.72678">
        <ele>126</ele>
        <time>2015-06-10T12:25:34.000Z</time>
      </trkpt>
      <trkpt lat="48.75958" lon="1.72686">
        <ele>126</ele>
        <time>2015-06-10T12:25:40.000Z</time>
      </trkpt>
      <trkpt lat="48.75948" lon="1.72695">
        <ele>126</ele>
        <time>2015-06-10T12:25:46.000Z</time>
      </trkpt>
      <trkpt lat="48.75942" lon="1.72701">
        <ele>126.1</ele>
        <time>2015-06-10T12:25:50.000Z</time>
      </trkpt>
      <trkpt lat="48.75932" lon="1.72709">
        <ele>126.4</ele>
        <time>2015-06-10T12:25:56.000Z</time>
      </trkpt>
      <trkpt lat="48.75924" lon="1.72717">
        <ele>126.7</ele>
        <time>2015-06-10T12:26:01.000Z</time>
      </trkpt>
      <trkpt lat="48.75917" lon="1.72724">
        <ele>126.9</ele>
        <time>2015-06-10T12:26:07.000Z</time>
      </trkpt>
      <trkpt lat="48.75907" lon="1.72732">
        <ele>126.8</ele>
        <time>2015-06-10T12:26:13.000Z</time>
      </trkpt>
      <trkpt lat="48.75901" lon="1.72736">
        <ele>126.8</ele>
        <time>2015-06-10T12:26:17.000Z</time>
      </trkpt>
      <trkpt lat="48.75888" lon="1.72746">
        <ele>127</ele>
        <time>2015-06-10T12:26:24.000Z</time>
      </trkpt>
      <trkpt lat="48.7588" lon="1.72754">
        <ele>127.3</ele>
        <time>2015-06-10T12:26:29.000Z</time>
      </trkpt>
      <trkpt lat="48.7587" lon="1.72761">
        <ele>127.7</ele>
        <time>2015-06-10T12:26:36.000Z</time>
      </trkpt>
      <trkpt lat="48.75863" lon="1.72767">
        <ele>127.9</ele>
        <time>2015-06-10T12:26:41.000Z</time>
      </trkpt>
      <trkpt lat="48.75858" lon="1.72778">
        <ele>128.1</ele>
        <time>2015-06-10T12:26:46.000Z</time>
      </trkpt>
      <trkpt lat="48.75853" lon="1.72782">
        <ele>128.3</ele>
        <time>2015-06-10T12:26:50.000Z</time>
      </trkpt>
      <trkpt lat="48.75845" lon="1.72791">
        <ele>128.6</ele>
        <time>2015-06-10T12:26:56.000Z</time>
      </trkpt>
      <trkpt lat="48.75841" lon="1.72798">
        <ele>128.7</ele>
        <time>2015-06-10T12:27:01.000Z</time>
      </trkpt>
      <trkpt lat="48.75836" lon="1.72802">
        <ele>128.9</ele>
        <time>2015-06-10T12:27:04.000Z</time>
      </trkpt>
      <trkpt lat="48.75821" lon="1.72817">
        <ele>129.2</ele>
        <time>2015-06-10T12:27:12.000Z</time>
      </trkpt>
      <trkpt lat="48.75812" lon="1.72823">
        <ele>129.6</ele>
        <time>2015-06-10T12:27:18.000Z</time>
      </trkpt>
      <trkpt lat="48.75809" lon="1.72825">
        <ele>129.8</ele>
        <time>2015-06-10T12:27:20.000Z</time>
      </trkpt>
      <trkpt lat="48.75802" lon="1.72834">
        <ele>130.1</ele>
        <time>2015-06-10T12:27:26.000Z</time>
      </trkpt>
      <trkpt lat="48.75795" lon="1.72832">
        <ele>130.4</ele>
        <time>2015-06-10T12:27:32.000Z</time>
      </trkpt>
      <trkpt lat="48.75796" lon="1.72829">
        <ele>130.4</ele>
        <time>2015-06-10T12:27:33.000Z</time>
      </trkpt>
      <trkpt lat="48.75797" lon="1.72821">
        <ele>130.3</ele>
        <time>2015-06-10T12:27:36.000Z</time>
      </trkpt>
      <trkpt lat="48.75797" lon="1.72809">
        <ele>130.3</ele>
        <time>2015-06-10T12:27:41.000Z</time>
      </trkpt>
      <trkpt lat="48.75798" lon="1.72803">
        <ele>130.3</ele>
        <time>2015-06-10T12:27:43.000Z</time>
      </trkpt>
      <trkpt lat="48.75801" lon="1.72787">
        <ele>130.2</ele>
        <time>2015-06-10T12:27:49.000Z</time>
      </trkpt>
      <trkpt lat="48.75805" lon="1.72769">
        <ele>130</ele>
        <time>2015-06-10T12:27:56.000Z</time>
      </trkpt>
      <trkpt lat="48.75808" lon="1.72755">
        <ele>129.9</ele>
        <time>2015-06-10T12:28:01.000Z</time>
      </trkpt>
      <trkpt lat="48.75811" lon="1.7275">
        <ele>129.8</ele>
        <time>2015-06-10T12:28:05.000Z</time>
      </trkpt>
      <trkpt lat="48.75812" lon="1.72748">
        <ele>129.8</ele>
        <time>2015-06-10T12:28:08.000Z</time>
      </trkpt>
      <trkpt lat="48.75812" lon="1.72736">
        <ele>129.8</ele>
        <time>2015-06-10T12:28:14.000Z</time>
      </trkpt>
      <trkpt lat="48.75814" lon="1.72719">
        <ele>129.7</ele>
        <time>2015-06-10T12:28:21.000Z</time>
      </trkpt>
      <trkpt lat="48.75814" lon="1.72708">
        <ele>129.7</ele>
        <time>2015-06-10T12:28:26.000Z</time>
      </trkpt>
      <trkpt lat="48.75808" lon="1.72697">
        <ele>129.9</ele>
        <time>2015-06-10T12:28:31.000Z</time>
      </trkpt>
      <trkpt lat="48.75805" lon="1.7268">
        <ele>130.6</ele>
        <time>2015-06-10T12:28:38.000Z</time>
      </trkpt>
      <trkpt lat="48.758" lon="1.72666">
        <ele>131.2</ele>
        <time>2015-06-10T12:28:44.000Z</time>
      </trkpt>
      <trkpt lat="48.75797" lon="1.72648">
        <ele>131.5</ele>
        <time>2015-06-10T12:28:51.000Z</time>
      </trkpt>
      <trkpt lat="48.75795" lon="1.72628">
        <ele>132</ele>
        <time>2015-06-10T12:28:58.000Z</time>
      </trkpt>
      <trkpt lat="48.75789" lon="1.72615">
        <ele>132.5</ele>
        <time>2015-06-10T12:29:04.000Z</time>
      </trkpt>
      <trkpt lat="48.75789" lon="1.72613">
        <ele>132.6</ele>
        <time>2015-06-10T12:29:05.000Z</time>
      </trkpt>
      <trkpt lat="48.75781" lon="1.72602">
        <ele>133.1</ele>
        <time>2015-06-10T12:29:11.000Z</time>
      </trkpt>
      <trkpt lat="48.75767" lon="1.72586">
        <ele>134.3</ele>
        <time>2015-06-10T12:29:18.000Z</time>
      </trkpt>
      <trkpt lat="48.75756" lon="1.72566">
        <ele>135.9</ele>
        <time>2015-06-10T12:29:24.000Z</time>
      </trkpt>
      <trkpt lat="48.75744" lon="1.72546">
        <ele>137.9</ele>
        <time>2015-06-10T12:29:29.000Z</time>
      </trkpt>
      <trkpt lat="48.75729" lon="1.72522">
        <ele>140</ele>
        <time>2015-06-10T12:29:35.000Z</time>
      </trkpt>
      <trkpt lat="48.75711" lon="1.72503">
        <ele>141.7</ele>
        <time>2015-06-10T12:29:41.000Z</time>
      </trkpt>
      <trkpt lat="48.75688" lon="1.72478">
        <ele>144.8</ele>
        <time>2015-06-10T12:29:49.000Z</time>
      </trkpt>
      <trkpt lat="48.75669" lon="1.72455">
        <ele>147</ele>
        <time>2015-06-10T12:29:56.000Z</time>
      </trkpt>
      <trkpt lat="48.75657" lon="1.72434">
        <ele>149.4</ele>
        <time>2015-06-10T12:30:01.000Z</time>
      </trkpt>
      <trkpt lat="48.75646" lon="1.72409">
        <ele>151.3</ele>
        <time>2015-06-10T12:30:06.000Z</time>
      </trkpt>
      <trkpt lat="48.7564" lon="1.72387">
        <ele>153</ele>
        <time>2015-06-10T12:30:11.000Z</time>
      </trkpt>
      <trkpt lat="48.75633" lon="1.72359">
        <ele>154</ele>
        <time>2015-06-10T12:30:17.000Z</time>
      </trkpt>
      <trkpt lat="48.75623" lon="1.72336">
        <ele>154.5</ele>
        <time>2015-06-10T12:30:22.000Z</time>
      </trkpt>
      <trkpt lat="48.7561" lon="1.72316">
        <ele>155.6</ele>
        <time>2015-06-10T12:30:27.000Z</time>
      </trkpt>
      <trkpt lat="48.75597" lon="1.72297">
        <ele>156.8</ele>
        <time>2015-06-10T12:30:33.000Z</time>
      </trkpt>
      <trkpt lat="48.75581" lon="1.7228">
        <ele>158</ele>
        <time>2015-06-10T12:30:39.000Z</time>
      </trkpt>
      <trkpt lat="48.75561" lon="1.72263">
        <ele>159.3</ele>
        <time>2015-06-10T12:30:45.000Z</time>
      </trkpt>
      <trkpt lat="48.75546" lon="1.72251">
        <ele>160.3</ele>
        <time>2015-06-10T12:30:50.000Z</time>
      </trkpt>
      <trkpt lat="48.75523" lon="1.72232">
        <ele>161.8</ele>
        <time>2015-06-10T12:30:57.000Z</time>
      </trkpt>
      <trkpt lat="48.75506" lon="1.72216">
        <ele>162.8</ele>
        <time>2015-06-10T12:31:03.000Z</time>
      </trkpt>
      <trkpt lat="48.75492" lon="1.72205">
        <ele>163.2</ele>
        <time>2015-06-10T12:31:08.000Z</time>
      </trkpt>
      <trkpt lat="48.75489" lon="1.72203">
        <ele>163.3</ele>
        <time>2015-06-10T12:31:12.000Z</time>
      </trkpt>
      <trkpt lat="48.7548" lon="1.72196">
        <ele>163.7</ele>
        <time>2015-06-10T12:31:19.000Z</time>
      </trkpt>
      <trkpt lat="48.75468" lon="1.72185">
        <ele>164.4</ele>
        <time>2015-06-10T12:31:27.000Z</time>
      </trkpt>
      <trkpt lat="48.75458" lon="1.72174">
        <ele>164.9</ele>
        <time>2015-06-10T12:31:35.000Z</time>
      </trkpt>
      <trkpt lat="48.75451" lon="1.72167">
        <ele>165</ele>
        <time>2015-06-10T12:31:40.000Z</time>
      </trkpt>
      <trkpt lat="48.75443" lon="1.72158">
        <ele>165.3</ele>
        <time>2015-06-10T12:31:46.000Z</time>
      </trkpt>
      <trkpt lat="48.75434" lon="1.72151">
        <ele>165.5</ele>
        <time>2015-06-10T12:31:52.000Z</time>
      </trkpt>
      <trkpt lat="48.75432" lon="1.7215">
        <ele>165.5</ele>
        <time>2015-06-10T12:31:53.000Z</time>
      </trkpt>
      <trkpt lat="48.75427" lon="1.72146">
        <ele>165.4</ele>
        <time>2015-06-10T12:31:57.000Z</time>
      </trkpt>
      <trkpt lat="48.75412" lon="1.72132">
        <ele>165</ele>
        <time>2015-06-10T12:32:06.000Z</time>
      </trkpt>
      <trkpt lat="48.75401" lon="1.72123">
        <ele>165</ele>
        <time>2015-06-10T12:32:13.000Z</time>
      </trkpt>
      <trkpt lat="48.7539" lon="1.72111">
        <ele>165</ele>
        <time>2015-06-10T12:32:20.000Z</time>
      </trkpt>
      <trkpt lat="48.7538" lon="1.72102">
        <ele>164.4</ele>
        <time>2015-06-10T12:32:26.000Z</time>
      </trkpt>
      <trkpt lat="48.7537" lon="1.72093">
        <ele>163.7</ele>
        <time>2015-06-10T12:32:32.000Z</time>
      </trkpt>
      <trkpt lat="48.75361" lon="1.72084">
        <ele>163</ele>
        <time>2015-06-10T12:32:38.000Z</time>
      </trkpt>
      <trkpt lat="48.75348" lon="1.72069">
        <ele>162</ele>
        <time>2015-06-10T12:32:47.000Z</time>
      </trkpt>
      <trkpt lat="48.75337" lon="1.72057">
        <ele>161.1</ele>
        <time>2015-06-10T12:32:54.000Z</time>
      </trkpt>
      <trkpt lat="48.75329" lon="1.72045">
        <ele>160.9</ele>
        <time>2015-06-10T12:33:01.000Z</time>
      </trkpt>
      <trkpt lat="48.75325" lon="1.7203">
        <ele>160.4</ele>
        <time>2015-06-10T12:33:07.000Z</time>
      </trkpt>
      <trkpt lat="48.75322" lon="1.72018">
        <ele>160.1</ele>
        <time>2015-06-10T12:33:12.000Z</time>
      </trkpt>
      <trkpt lat="48.75317" lon="1.72001">
        <ele>159.6</ele>
        <time>2015-06-10T12:33:19.000Z</time>
      </trkpt>
      <trkpt lat="48.75313" lon="1.71989">
        <ele>158.6</ele>
        <time>2015-06-10T12:33:24.000Z</time>
      </trkpt>
      <trkpt lat="48.7531" lon="1.71973">
        <ele>157.1</ele>
        <time>2015-06-10T12:33:30.000Z</time>
      </trkpt>
      <trkpt lat="48.75307" lon="1.71958">
        <ele>156.5</ele>
        <time>2015-06-10T12:33:36.000Z</time>
      </trkpt>
      <trkpt lat="48.75303" lon="1.71943">
        <ele>156</ele>
        <time>2015-06-10T12:33:42.000Z</time>
      </trkpt>
      <trkpt lat="48.75297" lon="1.71922">
        <ele>155.1</ele>
        <time>2015-06-10T12:33:50.000Z</time>
      </trkpt>
      <trkpt lat="48.75293" lon="1.71901">
        <ele>155.1</ele>
        <time>2015-06-10T12:33:58.000Z</time>
      </trkpt>
      <trkpt lat="48.75288" lon="1.71884">
        <ele>155.4</ele>
        <time>2015-06-10T12:34:05.000Z</time>
      </trkpt>
      <trkpt lat="48.75284" lon="1.71869">
        <ele>155.5</ele>
        <time>2015-06-10T12:34:11.000Z</time>
      </trkpt>
      <trkpt lat="48.75279" lon="1.71844">
        <ele>155.9</ele>
        <time>2015-06-10T12:34:21.000Z</time>
      </trkpt>
      <trkpt lat="48.75275" lon="1.71827">
        <ele>156.2</ele>
        <time>2015-06-10T12:34:28.000Z</time>
      </trkpt>
      <trkpt lat="48.75272" lon="1.71811">
        <ele>156.4</ele>
        <time>2015-06-10T12:34:34.000Z</time>
      </trkpt>
      <trkpt lat="48.75263" lon="1.71794">
        <ele>157.5</ele>
        <time>2015-06-10T12:34:42.000Z</time>
      </trkpt>
      <trkpt lat="48.75259" lon="1.71791">
        <ele>157.9</ele>
        <time>2015-06-10T12:34:45.000Z</time>
      </trkpt>
      <trkpt lat="48.75252" lon="1.71795">
        <ele>158.2</ele>
        <time>2015-06-10T12:34:49.000Z</time>
      </trkpt>
      <trkpt lat="48.75234" lon="1.71807">
        <ele>159.2</ele>
        <time>2015-06-10T12:34:56.000Z</time>
      </trkpt>
      <trkpt lat="48.7522" lon="1.71816">
        <ele>160.2</ele>
        <time>2015-06-10T12:35:01.000Z</time>
      </trkpt>
      <trkpt lat="48.75206" lon="1.71823">
        <ele>161.5</ele>
        <time>2015-06-10T12:35:09.000Z</time>
      </trkpt>
      <trkpt lat="48.75193" lon="1.71831">
        <ele>163</ele>
        <time>2015-06-10T12:35:16.000Z</time>
      </trkpt>
      <trkpt lat="48.75182" lon="1.71839">
        <ele>164.6</ele>
        <time>2015-06-10T12:35:22.000Z</time>
      </trkpt>
      <trkpt lat="48.75163" lon="1.71852">
        <ele>168.4</ele>
        <time>2015-06-10T12:35:28.000Z</time>
      </trkpt>
      <trkpt lat="48.75138" lon="1.71866">
        <ele>171.2</ele>
        <time>2015-06-10T12:35:36.000Z</time>
      </trkpt>
      <trkpt lat="48.75123" lon="1.71874">
        <ele>172.3</ele>
        <time>2015-06-10T12:35:41.000Z</time>
      </trkpt>
      <trkpt lat="48.75107" lon="1.71882">
        <ele>173.5</ele>
        <time>2015-06-10T12:35:47.000Z</time>
      </trkpt>
      <trkpt lat="48.75099" lon="1.71887">
        <ele>173.9</ele>
        <time>2015-06-10T12:35:52.000Z</time>
      </trkpt>
      <trkpt lat="48.75087" lon="1.71894">
        <ele>174.2</ele>
        <time>2015-06-10T12:35:59.000Z</time>
      </trkpt>
      <trkpt lat="48.75077" lon="1.71902">
        <ele>174.5</ele>
        <time>2015-06-10T12:36:06.000Z</time>
      </trkpt>
      <trkpt lat="48.7507" lon="1.71906">
        <ele>174.6</ele>
        <time>2015-06-10T12:36:11.000Z</time>
      </trkpt>
      <trkpt lat="48.75066" lon="1.71921">
        <ele>175.1</ele>
        <time>2015-06-10T12:36:18.000Z</time>
      </trkpt>
      <trkpt lat="48.7506" lon="1.71935">
        <ele>175.1</ele>
        <time>2015-06-10T12:36:24.000Z</time>
      </trkpt>
      <trkpt lat="48.75053" lon="1.71961">
        <ele>175.6</ele>
        <time>2015-06-10T12:36:35.000Z</time>
      </trkpt>
      <trkpt lat="48.75049" lon="1.71979">
        <ele>175.8</ele>
        <time>2015-06-10T12:36:42.000Z</time>
      </trkpt>
      <trkpt lat="48.75041" lon="1.71997">
        <ele>175.9</ele>
        <time>2015-06-10T12:36:49.000Z</time>
      </trkpt>
      <trkpt lat="48.75038" lon="1.72015">
        <ele>176</ele>
        <time>2015-06-10T12:36:57.000Z</time>
      </trkpt>
      <trkpt lat="48.75033" lon="1.7203">
        <ele>175.9</ele>
        <time>2015-06-10T12:37:03.000Z</time>
      </trkpt>
      <trkpt lat="48.7503" lon="1.72045">
        <ele>175.4</ele>
        <time>2015-06-10T12:37:10.000Z</time>
      </trkpt>
      <trkpt lat="48.75022" lon="1.72057">
        <ele>174.8</ele>
        <time>2015-06-10T12:37:17.000Z</time>
      </trkpt>
      <trkpt lat="48.75015" lon="1.72068">
        <ele>174.5</ele>
        <time>2015-06-10T12:37:23.000Z</time>
      </trkpt>
      <trkpt lat="48.75008" lon="1.72082">
        <ele>174.3</ele>
        <time>2015-06-10T12:37:29.000Z</time>
      </trkpt>
      <trkpt lat="48.75005" lon="1.72096">
        <ele>174.2</ele>
        <time>2015-06-10T12:37:35.000Z</time>
      </trkpt>
      <trkpt lat="48.75003" lon="1.72115">
        <ele>174.1</ele>
        <time>2015-06-10T12:37:42.000Z</time>
      </trkpt>
      <trkpt lat="48.75003" lon="1.7212">
        <ele>174.1</ele>
        <time>2015-06-10T12:37:44.000Z</time>
      </trkpt>
      <trkpt lat="48.75002" lon="1.72128">
        <ele>174.1</ele>
        <time>2015-06-10T12:37:48.000Z</time>
      </trkpt>
      <trkpt lat="48.74997" lon="1.7214">
        <ele>173.8</ele>
        <time>2015-06-10T12:37:54.000Z</time>
      </trkpt>
      <trkpt lat="48.74989" lon="1.72158">
        <ele>173.9</ele>
        <time>2015-06-10T12:38:03.000Z</time>
      </trkpt>
      <trkpt lat="48.74982" lon="1.72173">
        <ele>173.8</ele>
        <time>2015-06-10T12:38:10.000Z</time>
      </trkpt>
      <trkpt lat="48.7498" lon="1.72177">
        <ele>173.8</ele>
        <time>2015-06-10T12:38:12.000Z</time>
      </trkpt>
      <trkpt lat="48.74975" lon="1.72194">
        <ele>174.1</ele>
        <time>2015-06-10T12:38:20.000Z</time>
      </trkpt>
      <trkpt lat="48.7497" lon="1.72209">
        <ele>173.7</ele>
        <time>2015-06-10T12:38:26.000Z</time>
      </trkpt>
      <trkpt lat="48.74966" lon="1.7222">
        <ele>173.5</ele>
        <time>2015-06-10T12:38:31.000Z</time>
      </trkpt>
      <trkpt lat="48.74963" lon="1.72228">
        <ele>173.6</ele>
        <time>2015-06-10T12:38:34.000Z</time>
      </trkpt>
      <trkpt lat="48.74954" lon="1.72245">
        <ele>173.5</ele>
        <time>2015-06-10T12:38:41.000Z</time>
      </trkpt>
      <trkpt lat="48.74945" lon="1.72263">
        <ele>173.5</ele>
        <time>2015-06-10T12:38:46.000Z</time>
      </trkpt>
      <trkpt lat="48.74928" lon="1.72303">
        <ele>173.3</ele>
        <time>2015-06-10T12:38:54.000Z</time>
      </trkpt>
      <trkpt lat="48.74923" lon="1.72314">
        <ele>173.5</ele>
        <time>2015-06-10T12:38:56.000Z</time>
      </trkpt>
      <trkpt lat="48.74906" lon="1.72353">
        <ele>173.5</ele>
        <time>2015-06-10T12:39:02.000Z</time>
      </trkpt>
      <trkpt lat="48.74898" lon="1.72373">
        <ele>173.5</ele>
        <time>2015-06-10T12:39:05.000Z</time>
      </trkpt>
      <trkpt lat="48.74888" lon="1.72395">
        <ele>173.2</ele>
        <time>2015-06-10T12:39:09.000Z</time>
      </trkpt>
      <trkpt lat="48.74871" lon="1.72439">
        <ele>173.2</ele>
        <time>2015-06-10T12:39:16.000Z</time>
      </trkpt>
      <trkpt lat="48.7485" lon="1.72488">
        <ele>172.6</ele>
        <time>2015-06-10T12:39:23.000Z</time>
      </trkpt>
      <trkpt lat="48.74843" lon="1.72504">
        <ele>172.3</ele>
        <time>2015-06-10T12:39:26.000Z</time>
      </trkpt>
      <trkpt lat="48.74834" lon="1.72525">
        <ele>172</ele>
        <time>2015-06-10T12:39:30.000Z</time>
      </trkpt>
      <trkpt lat="48.74823" lon="1.72553">
        <ele>171.2</ele>
        <time>2015-06-10T12:39:35.000Z</time>
      </trkpt>
      <trkpt lat="48.74814" lon="1.72572">
        <ele>171.2</ele>
        <time>2015-06-10T12:39:39.000Z</time>
      </trkpt>
      <trkpt lat="48.74798" lon="1.72609">
        <ele>171.7</ele>
        <time>2015-06-10T12:39:46.000Z</time>
      </trkpt>
      <trkpt lat="48.74789" lon="1.72632">
        <ele>171.9</ele>
        <time>2015-06-10T12:39:50.000Z</time>
      </trkpt>
      <trkpt lat="48.74777" lon="1.72662">
        <ele>172</ele>
        <time>2015-06-10T12:39:55.000Z</time>
      </trkpt>
      <trkpt lat="48.74768" lon="1.72681">
        <ele>172.3</ele>
        <time>2015-06-10T12:39:59.000Z</time>
      </trkpt>
      <trkpt lat="48.74756" lon="1.72689">
        <ele>172.7</ele>
        <time>2015-06-10T12:40:04.000Z</time>
      </trkpt>
      <trkpt lat="48.74752" lon="1.72689">
        <ele>172.6</ele>
        <time>2015-06-10T12:40:05.000Z</time>
      </trkpt>
      <trkpt lat="48.74729" lon="1.72684">
        <ele>171.8</ele>
        <time>2015-06-10T12:40:11.000Z</time>
      </trkpt>
      <trkpt lat="48.74713" lon="1.72682">
        <ele>171.5</ele>
        <time>2015-06-10T12:40:16.000Z</time>
      </trkpt>
      <trkpt lat="48.74697" lon="1.72677">
        <ele>171.4</ele>
        <time>2015-06-10T12:40:21.000Z</time>
      </trkpt>
      <trkpt lat="48.74681" lon="1.72669">
        <ele>171.6</ele>
        <time>2015-06-10T12:40:26.000Z</time>
      </trkpt>
      <trkpt lat="48.74662" lon="1.72654">
        <ele>171.6</ele>
        <time>2015-06-10T12:40:32.000Z</time>
      </trkpt>
      <trkpt lat="48.74643" lon="1.72637">
        <ele>171.8</ele>
        <time>2015-06-10T12:40:38.000Z</time>
      </trkpt>
      <trkpt lat="48.74627" lon="1.72624">
        <ele>171.7</ele>
        <time>2015-06-10T12:40:43.000Z</time>
      </trkpt>
      <trkpt lat="48.74605" lon="1.72604">
        <ele>171.7</ele>
        <time>2015-06-10T12:40:50.000Z</time>
      </trkpt>
      <trkpt lat="48.74595" lon="1.72598">
        <ele>171.5</ele>
        <time>2015-06-10T12:40:55.000Z</time>
      </trkpt>
      <trkpt lat="48.74584" lon="1.72591">
        <ele>171.3</ele>
        <time>2015-06-10T12:41:01.000Z</time>
      </trkpt>
      <trkpt lat="48.74575" lon="1.72584">
        <ele>171</ele>
        <time>2015-06-10T12:41:07.000Z</time>
      </trkpt>
      <trkpt lat="48.74563" lon="1.72574">
        <ele>170.7</ele>
        <time>2015-06-10T12:41:15.000Z</time>
      </trkpt>
      <trkpt lat="48.74551" lon="1.72563">
        <ele>170.1</ele>
        <time>2015-06-10T12:41:24.000Z</time>
      </trkpt>
      <trkpt lat="48.74541" lon="1.72553">
        <ele>169.3</ele>
        <time>2015-06-10T12:41:31.000Z</time>
      </trkpt>
      <trkpt lat="48.74526" lon="1.72542">
        <ele>168</ele>
        <time>2015-06-10T12:41:41.000Z</time>
      </trkpt>
      <trkpt lat="48.74514" lon="1.72533">
        <ele>167.4</ele>
        <time>2015-06-10T12:41:48.000Z</time>
      </trkpt>
      <trkpt lat="48.74498" lon="1.72522">
        <ele>166.3</ele>
        <time>2015-06-10T12:41:58.000Z</time>
      </trkpt>
      <trkpt lat="48.74487" lon="1.72513">
        <ele>165.4</ele>
        <time>2015-06-10T12:42:05.000Z</time>
      </trkpt>
      <trkpt lat="48.74477" lon="1.72503">
        <ele>164.4</ele>
        <time>2015-06-10T12:42:12.000Z</time>
      </trkpt>
      <trkpt lat="48.74469" lon="1.72494">
        <ele>163.6</ele>
        <time>2015-06-10T12:42:17.000Z</time>
      </trkpt>
      <trkpt lat="48.74462" lon="1.72483">
        <ele>162.8</ele>
        <time>2015-06-10T12:42:23.000Z</time>
      </trkpt>
      <trkpt lat="48.7445" lon="1.72461">
        <ele>161.5</ele>
        <time>2015-06-10T12:42:33.000Z</time>
      </trkpt>
      <trkpt lat="48.74444" lon="1.72447">
        <ele>161.1</ele>
        <time>2015-06-10T12:42:39.000Z</time>
      </trkpt>
      <trkpt lat="48.7444" lon="1.72434">
        <ele>160.6</ele>
        <time>2015-06-10T12:42:44.000Z</time>
      </trkpt>
      <trkpt lat="48.74436" lon="1.72419">
        <ele>160.1</ele>
        <time>2015-06-10T12:42:50.000Z</time>
      </trkpt>
      <trkpt lat="48.74431" lon="1.72407">
        <ele>159.1</ele>
        <time>2015-06-10T12:42:55.000Z</time>
      </trkpt>
      <trkpt lat="48.74425" lon="1.72393">
        <ele>157.7</ele>
        <time>2015-06-10T12:43:01.000Z</time>
      </trkpt>
      <trkpt lat="48.74424" lon="1.72378">
        <ele>156.5</ele>
        <time>2015-06-10T12:43:07.000Z</time>
      </trkpt>
      <trkpt lat="48.7442" lon="1.72352">
        <ele>154.4</ele>
        <time>2015-06-10T12:43:16.000Z</time>
      </trkpt>
      <trkpt lat="48.74416" lon="1.72332">
        <ele>152.8</ele>
        <time>2015-06-10T12:43:23.000Z</time>
      </trkpt>
      <trkpt lat="48.74415" lon="1.72329">
        <ele>152.6</ele>
        <time>2015-06-10T12:43:24.000Z</time>
      </trkpt>
      <trkpt lat="48.74407" lon="1.72309">
        <ele>150.9</ele>
        <time>2015-06-10T12:43:33.000Z</time>
      </trkpt>
      <trkpt lat="48.74399" lon="1.72295">
        <ele>149.8</ele>
        <time>2015-06-10T12:43:40.000Z</time>
      </trkpt>
      <trkpt lat="48.74389" lon="1.72282">
        <ele>149.2</ele>
        <time>2015-06-10T12:43:47.000Z</time>
      </trkpt>
      <trkpt lat="48.74379" lon="1.72269">
        <ele>148.3</ele>
        <time>2015-06-10T12:43:55.000Z</time>
      </trkpt>
      <trkpt lat="48.7437" lon="1.72254">
        <ele>147.5</ele>
        <time>2015-06-10T12:44:02.000Z</time>
      </trkpt>
      <trkpt lat="48.74362" lon="1.72242">
        <ele>146.7</ele>
        <time>2015-06-10T12:44:08.000Z</time>
      </trkpt>
      <trkpt lat="48.74361" lon="1.72241">
        <ele>146.7</ele>
        <time>2015-06-10T12:44:09.000Z</time>
      </trkpt>
      <trkpt lat="48.74349" lon="1.72225">
        <ele>145.7</ele>
        <time>2015-06-10T12:44:18.000Z</time>
      </trkpt>
      <trkpt lat="48.74343" lon="1.72214">
        <ele>145.1</ele>
        <time>2015-06-10T12:44:23.000Z</time>
      </trkpt>
      <trkpt lat="48.74334" lon="1.72204">
        <ele>144.4</ele>
        <time>2015-06-10T12:44:29.000Z</time>
      </trkpt>
      <trkpt lat="48.74324" lon="1.72188">
        <ele>143.8</ele>
        <time>2015-06-10T12:44:37.000Z</time>
      </trkpt>
      <trkpt lat="48.74312" lon="1.72171">
        <ele>143.2</ele>
        <time>2015-06-10T12:44:46.000Z</time>
      </trkpt>
      <trkpt lat="48.74302" lon="1.72165">
        <ele>142.8</ele>
        <time>2015-06-10T12:44:52.000Z</time>
      </trkpt>
      <trkpt lat="48.74293" lon="1.72157">
        <ele>142.2</ele>
        <time>2015-06-10T12:44:58.000Z</time>
      </trkpt>
      <trkpt lat="48.74286" lon="1.72148">
        <ele>141.6</ele>
        <time>2015-06-10T12:45:04.000Z</time>
      </trkpt>
      <trkpt lat="48.74276" lon="1.72137">
        <ele>141</ele>
        <time>2015-06-10T12:45:11.000Z</time>
      </trkpt>
      <trkpt lat="48.74268" lon="1.72129">
        <ele>140.9</ele>
        <time>2015-06-10T12:45:16.000Z</time>
      </trkpt>
      <trkpt lat="48.74261" lon="1.72119">
        <ele>140.6</ele>
        <time>2015-06-10T12:45:22.000Z</time>
      </trkpt>
      <trkpt lat="48.74257" lon="1.72107">
        <ele>140.2</ele>
        <time>2015-06-10T12:45:28.000Z</time>
      </trkpt>
      <trkpt lat="48.74252" lon="1.72098">
        <ele>140</ele>
        <time>2015-06-10T12:45:33.000Z</time>
      </trkpt>
      <trkpt lat="48.74244" lon="1.72084">
        <ele>139.8</ele>
        <time>2015-06-10T12:45:40.000Z</time>
      </trkpt>
      <trkpt lat="48.74237" lon="1.72072">
        <ele>139.3</ele>
        <time>2015-06-10T12:45:46.000Z</time>
      </trkpt>
      <trkpt lat="48.74228" lon="1.72058">
        <ele>139</ele>
        <time>2015-06-10T12:45:53.000Z</time>
      </trkpt>
      <trkpt lat="48.7422" lon="1.72043">
        <ele>138.5</ele>
        <time>2015-06-10T12:46:00.000Z</time>
      </trkpt>
      <trkpt lat="48.74209" lon="1.72026">
        <ele>138</ele>
        <time>2015-06-10T12:46:09.000Z</time>
      </trkpt>
      <trkpt lat="48.74203" lon="1.72014">
        <ele>137.7</ele>
        <time>2015-06-10T12:46:15.000Z</time>
      </trkpt>
      <trkpt lat="48.7419" lon="1.71998">
        <ele>137</ele>
        <time>2015-06-10T12:46:24.000Z</time>
      </trkpt>
      <trkpt lat="48.74183" lon="1.71986">
        <ele>137</ele>
        <time>2015-06-10T12:46:30.000Z</time>
      </trkpt>
      <trkpt lat="48.74172" lon="1.71969">
        <ele>136.9</ele>
        <time>2015-06-10T12:46:39.000Z</time>
      </trkpt>
      <trkpt lat="48.74161" lon="1.71952">
        <ele>136.2</ele>
        <time>2015-06-10T12:46:48.000Z</time>
      </trkpt>
      <trkpt lat="48.74153" lon="1.7194">
        <ele>135.9</ele>
        <time>2015-06-10T12:46:54.000Z</time>
      </trkpt>
      <trkpt lat="48.74146" lon="1.71927">
        <ele>135.5</ele>
        <time>2015-06-10T12:47:00.000Z</time>
      </trkpt>
      <trkpt lat="48.74133" lon="1.71907">
        <ele>135</ele>
        <time>2015-06-10T12:47:10.000Z</time>
      </trkpt>
      <trkpt lat="48.74122" lon="1.71891">
        <ele>135</ele>
        <time>2015-06-10T12:47:18.000Z</time>
      </trkpt>
      <trkpt lat="48.74114" lon="1.7188">
        <ele>135</ele>
        <time>2015-06-10T12:47:24.000Z</time>
      </trkpt>
      <trkpt lat="48.74105" lon="1.71864">
        <ele>134.8</ele>
        <time>2015-06-10T12:47:32.000Z</time>
      </trkpt>
      <trkpt lat="48.74095" lon="1.71849">
        <ele>134.2</ele>
        <time>2015-06-10T12:47:40.000Z</time>
      </trkpt>
      <trkpt lat="48.74094" lon="1.71846">
        <ele>134.2</ele>
        <time>2015-06-10T12:47:41.000Z</time>
      </trkpt>
      <trkpt lat="48.74083" lon="1.71832">
        <ele>134</ele>
        <time>2015-06-10T12:47:49.000Z</time>
      </trkpt>
      <trkpt lat="48.74073" lon="1.71816">
        <ele>133.8</ele>
        <time>2015-06-10T12:47:57.000Z</time>
      </trkpt>
      <trkpt lat="48.74066" lon="1.71804">
        <ele>133.3</ele>
        <time>2015-06-10T12:48:03.000Z</time>
      </trkpt>
      <trkpt lat="48.74052" lon="1.71782">
        <ele>133</ele>
        <time>2015-06-10T12:48:14.000Z</time>
      </trkpt>
      <trkpt lat="48.74041" lon="1.71767">
        <ele>132.8</ele>
        <time>2015-06-10T12:48:22.000Z</time>
      </trkpt>
      <trkpt lat="48.74035" lon="1.71756">
        <ele>132.4</ele>
        <time>2015-06-10T12:48:27.000Z</time>
      </trkpt>
      <trkpt lat="48.74028" lon="1.71747">
        <ele>132</ele>
        <time>2015-06-10T12:48:32.000Z</time>
      </trkpt>
      <trkpt lat="48.7402" lon="1.71736">
        <ele>132</ele>
        <time>2015-06-10T12:48:39.000Z</time>
      </trkpt>
      <trkpt lat="48.7401" lon="1.71722">
        <ele>132</ele>
        <time>2015-06-10T12:48:47.000Z</time>
      </trkpt>
      <trkpt lat="48.74001" lon="1.71711">
        <ele>131.6</ele>
        <time>2015-06-10T12:48:54.000Z</time>
      </trkpt>
      <trkpt lat="48.73992" lon="1.71698">
        <ele>131.1</ele>
        <time>2015-06-10T12:49:01.000Z</time>
      </trkpt>
      <trkpt lat="48.73979" lon="1.71677">
        <ele>130.5</ele>
        <time>2015-06-10T12:49:11.000Z</time>
      </trkpt>
      <trkpt lat="48.73971" lon="1.71662">
        <ele>130</ele>
        <time>2015-06-10T12:49:18.000Z</time>
      </trkpt>
      <trkpt lat="48.73964" lon="1.71649">
        <ele>130</ele>
        <time>2015-06-10T12:49:24.000Z</time>
      </trkpt>
      <trkpt lat="48.73957" lon="1.71638">
        <ele>130</ele>
        <time>2015-06-10T12:49:30.000Z</time>
      </trkpt>
      <trkpt lat="48.73947" lon="1.71621">
        <ele>129.4</ele>
        <time>2015-06-10T12:49:38.000Z</time>
      </trkpt>
      <trkpt lat="48.73938" lon="1.71607">
        <ele>129</ele>
        <time>2015-06-10T12:49:45.000Z</time>
      </trkpt>
      <trkpt lat="48.73927" lon="1.71591">
        <ele>128.5</ele>
        <time>2015-06-10T12:49:53.000Z</time>
      </trkpt>
      <trkpt lat="48.73915" lon="1.71577">
        <ele>128</ele>
        <time>2015-06-10T12:50:01.000Z</time>
      </trkpt>
      <trkpt lat="48.73907" lon="1.71563">
        <ele>127.7</ele>
        <time>2015-06-10T12:50:08.000Z</time>
      </trkpt>
      <trkpt lat="48.73899" lon="1.71551">
        <ele>127.3</ele>
        <time>2015-06-10T12:50:14.000Z</time>
      </trkpt>
      <trkpt lat="48.73893" lon="1.71541">
        <ele>127.1</ele>
        <time>2015-06-10T12:50:19.000Z</time>
      </trkpt>
      <trkpt lat="48.73884" lon="1.71527">
        <ele>127</ele>
        <time>2015-06-10T12:50:26.000Z</time>
      </trkpt>
      <trkpt lat="48.73873" lon="1.71509">
        <ele>126.3</ele>
        <time>2015-06-10T12:50:35.000Z</time>
      </trkpt>
      <trkpt lat="48.73864" lon="1.71495">
        <ele>125.8</ele>
        <time>2015-06-10T12:50:42.000Z</time>
      </trkpt>
      <trkpt lat="48.73853" lon="1.7148">
        <ele>125</ele>
        <time>2015-06-10T12:50:50.000Z</time>
      </trkpt>
      <trkpt lat="48.7385" lon="1.71476">
        <ele>124.7</ele>
        <time>2015-06-10T12:50:52.000Z</time>
      </trkpt>
      <trkpt lat="48.73846" lon="1.71473">
        <ele>124.5</ele>
        <time>2015-06-10T12:50:55.000Z</time>
      </trkpt>
      <trkpt lat="48.73839" lon="1.7146">
        <ele>124.2</ele>
        <time>2015-06-10T12:51:01.000Z</time>
      </trkpt>
      <trkpt lat="48.73833" lon="1.71452">
        <ele>124</ele>
        <time>2015-06-10T12:51:05.000Z</time>
      </trkpt>
      <trkpt lat="48.73828" lon="1.71443">
        <ele>124</ele>
        <time>2015-06-10T12:51:11.000Z</time>
      </trkpt>
      <trkpt lat="48.73828" lon="1.71443">
        <ele>124</ele>
        <time>2015-06-10T12:51:12.000Z</time>
      </trkpt>
      <trkpt lat="48.73831" lon="1.71446">
        <ele>124</ele>
        <time>2015-06-10T12:51:15.000Z</time>
      </trkpt>
      <trkpt lat="48.73837" lon="1.71453">
        <ele>124.1</ele>
        <time>2015-06-10T12:51:20.000Z</time>
      </trkpt>
      <trkpt lat="48.73838" lon="1.71454">
        <ele>124.2</ele>
        <time>2015-06-10T12:51:21.000Z</time>
      </trkpt>
      <trkpt lat="48.73839" lon="1.71453">
        <ele>124.2</ele>
        <time>2015-06-10T12:51:26.000Z</time>
      </trkpt>
      <trkpt lat="48.7384" lon="1.71444">
        <ele>124.2</ele>
        <time>2015-06-10T12:51:33.000Z</time>
      </trkpt>
      <trkpt lat="48.73838" lon="1.71438">
        <ele>123.9</ele>
        <time>2015-06-10T12:51:36.000Z</time>
      </trkpt>
      <trkpt lat="48.73837" lon="1.71437">
        <ele>123.9</ele>
        <time>2015-06-10T12:51:37.000Z</time>
      </trkpt>
      <trkpt lat="48.73826" lon="1.71427">
        <ele>123.5</ele>
        <time>2015-06-10T12:51:45.000Z</time>
      </trkpt>
      <trkpt lat="48.73816" lon="1.71418">
        <ele>123.6</ele>
        <time>2015-06-10T12:51:52.000Z</time>
      </trkpt>
      <trkpt lat="48.73807" lon="1.71407">
        <ele>123.6</ele>
        <time>2015-06-10T12:51:58.000Z</time>
      </trkpt>
      <trkpt lat="48.73797" lon="1.7139">
        <ele>123.3</ele>
        <time>2015-06-10T12:52:06.000Z</time>
      </trkpt>
      <trkpt lat="48.73791" lon="1.71382">
        <ele>123.4</ele>
        <time>2015-06-10T12:52:12.000Z</time>
      </trkpt>
      <trkpt lat="48.73788" lon="1.71378">
        <ele>123.4</ele>
        <time>2015-06-10T12:52:14.000Z</time>
      </trkpt>
      <trkpt lat="48.73781" lon="1.71366">
        <ele>123.1</ele>
        <time>2015-06-10T12:52:21.000Z</time>
      </trkpt>
      <trkpt lat="48.73774" lon="1.71352">
        <ele>123.1</ele>
        <time>2015-06-10T12:52:27.000Z</time>
      </trkpt>
      <trkpt lat="48.73766" lon="1.71344">
        <ele>123.4</ele>
        <time>2015-06-10T12:52:33.000Z</time>
      </trkpt>
      <trkpt lat="48.73758" lon="1.71334">
        <ele>123.7</ele>
        <time>2015-06-10T12:52:39.000Z</time>
      </trkpt>
      <trkpt lat="48.73752" lon="1.71324">
        <ele>123.9</ele>
        <time>2015-06-10T12:52:44.000Z</time>
      </trkpt>
      <trkpt lat="48.73742" lon="1.71308">
        <ele>124</ele>
        <time>2015-06-10T12:52:52.000Z</time>
      </trkpt>
      <trkpt lat="48.73734" lon="1.71295">
        <ele>123.8</ele>
        <time>2015-06-10T12:52:59.000Z</time>
      </trkpt>
      <trkpt lat="48.73725" lon="1.71283">
        <ele>123.9</ele>
        <time>2015-06-10T12:53:05.000Z</time>
      </trkpt>
      <trkpt lat="48.73715" lon="1.71266">
        <ele>124.6</ele>
        <time>2015-06-10T12:53:13.000Z</time>
      </trkpt>
      <trkpt lat="48.73706" lon="1.71251">
        <ele>125</ele>
        <time>2015-06-10T12:53:21.000Z</time>
      </trkpt>
      <trkpt lat="48.73698" lon="1.71241">
        <ele>125</ele>
        <time>2015-06-10T12:53:27.000Z</time>
      </trkpt>
      <trkpt lat="48.7369" lon="1.71227">
        <ele>125</ele>
        <time>2015-06-10T12:53:34.000Z</time>
      </trkpt>
      <trkpt lat="48.7368" lon="1.71213">
        <ele>125</ele>
        <time>2015-06-10T12:53:42.000Z</time>
      </trkpt>
      <trkpt lat="48.73672" lon="1.71202">
        <ele>125</ele>
        <time>2015-06-10T12:53:48.000Z</time>
      </trkpt>
      <trkpt lat="48.73663" lon="1.71189">
        <ele>125.1</ele>
        <time>2015-06-10T12:53:55.000Z</time>
      </trkpt>
      <trkpt lat="48.73658" lon="1.71181">
        <ele>125.2</ele>
        <time>2015-06-10T12:54:00.000Z</time>
      </trkpt>
      <trkpt lat="48.73656" lon="1.7118">
        <ele>125.2</ele>
        <time>2015-06-10T12:54:01.000Z</time>
      </trkpt>
      <trkpt lat="48.73649" lon="1.71169">
        <ele>125</ele>
        <time>2015-06-10T12:54:07.000Z</time>
      </trkpt>
      <trkpt lat="48.73639" lon="1.71153">
        <ele>125</ele>
        <time>2015-06-10T12:54:15.000Z</time>
      </trkpt>
      <trkpt lat="48.73636" lon="1.7115">
        <ele>125</ele>
        <time>2015-06-10T12:54:17.000Z</time>
      </trkpt>
      <trkpt lat="48.73626" lon="1.71156">
        <ele>125.3</ele>
        <time>2015-06-10T12:54:24.000Z</time>
      </trkpt>
      <trkpt lat="48.73626" lon="1.71159">
        <ele>125.3</ele>
        <time>2015-06-10T12:54:28.000Z</time>
      </trkpt>
      <trkpt lat="48.73624" lon="1.71165">
        <ele>125.5</ele>
        <time>2015-06-10T12:54:37.000Z</time>
      </trkpt>
      <trkpt lat="48.73616" lon="1.71172">
        <ele>125.8</ele>
        <time>2015-06-10T12:54:42.000Z</time>
      </trkpt>
      <trkpt lat="48.73605" lon="1.71174">
        <ele>126</ele>
        <time>2015-06-10T12:54:49.000Z</time>
      </trkpt>
      <trkpt lat="48.73591" lon="1.71181">
        <ele>126</ele>
        <time>2015-06-10T12:54:57.000Z</time>
      </trkpt>
      <trkpt lat="48.73583" lon="1.71183">
        <ele>126</ele>
        <time>2015-06-10T12:55:02.000Z</time>
      </trkpt>
      <trkpt lat="48.73572" lon="1.71182">
        <ele>126</ele>
        <time>2015-06-10T12:55:08.000Z</time>
      </trkpt>
      <trkpt lat="48.73555" lon="1.71177">
        <ele>126</ele>
        <time>2015-06-10T12:55:14.000Z</time>
      </trkpt>
      <trkpt lat="48.73537" lon="1.71177">
        <ele>126</ele>
        <time>2015-06-10T12:55:20.000Z</time>
      </trkpt>
      <trkpt lat="48.73525" lon="1.71187">
        <ele>126</ele>
        <time>2015-06-10T12:55:24.000Z</time>
      </trkpt>
      <trkpt lat="48.73505" lon="1.71212">
        <ele>126.6</ele>
        <time>2015-06-10T12:55:31.000Z</time>
      </trkpt>
      <trkpt lat="48.73492" lon="1.71206">
        <ele>126.3</ele>
        <time>2015-06-10T12:55:35.000Z</time>
      </trkpt>
      <trkpt lat="48.73476" lon="1.71194">
        <ele>126</ele>
        <time>2015-06-10T12:55:40.000Z</time>
      </trkpt>
      <trkpt lat="48.73455" lon="1.71187">
        <ele>126</ele>
        <time>2015-06-10T12:55:46.000Z</time>
      </trkpt>
      <trkpt lat="48.73438" lon="1.71194">
        <ele>125.8</ele>
        <time>2015-06-10T12:55:51.000Z</time>
      </trkpt>
      <trkpt lat="48.73414" lon="1.71211">
        <ele>125</ele>
        <time>2015-06-10T12:55:58.000Z</time>
      </trkpt>
      <trkpt lat="48.73399" lon="1.7123">
        <ele>125</ele>
        <time>2015-06-10T12:56:03.000Z</time>
      </trkpt>
      <trkpt lat="48.73389" lon="1.71237">
        <ele>125</ele>
        <time>2015-06-10T12:56:06.000Z</time>
      </trkpt>
      <trkpt lat="48.73359" lon="1.71228">
        <ele>124</ele>
        <time>2015-06-10T12:56:14.000Z</time>
      </trkpt>
      <trkpt lat="48.73336" lon="1.71212">
        <ele>124</ele>
        <time>2015-06-10T12:56:21.000Z</time>
      </trkpt>
      <trkpt lat="48.73315" lon="1.71207">
        <ele>123.4</ele>
        <time>2015-06-10T12:56:27.000Z</time>
      </trkpt>
      <trkpt lat="48.7329" lon="1.71214">
        <ele>122.4</ele>
        <time>2015-06-10T12:56:34.000Z</time>
      </trkpt>
      <trkpt lat="48.73283" lon="1.71215">
        <ele>122.2</ele>
        <time>2015-06-10T12:56:37.000Z</time>
      </trkpt>
      <trkpt lat="48.73279" lon="1.71217">
        <ele>122</ele>
        <time>2015-06-10T12:56:41.000Z</time>
      </trkpt>
      <trkpt lat="48.7327" lon="1.71224">
        <ele>121.8</ele>
        <time>2015-06-10T12:56:47.000Z</time>
      </trkpt>
      <trkpt lat="48.73262" lon="1.71238">
        <ele>122</ele>
        <time>2015-06-10T12:56:53.000Z</time>
      </trkpt>
      <trkpt lat="48.7325" lon="1.71244">
        <ele>121.8</ele>
        <time>2015-06-10T12:57:00.000Z</time>
      </trkpt>
      <trkpt lat="48.73247" lon="1.71243">
        <ele>121.8</ele>
        <time>2015-06-10T12:57:02.000Z</time>
      </trkpt>
      <trkpt lat="48.73241" lon="1.71243">
        <ele>121.8</ele>
        <time>2015-06-10T12:57:06.000Z</time>
      </trkpt>
      <trkpt lat="48.73228" lon="1.71231">
        <ele>121.9</ele>
        <time>2015-06-10T12:57:15.000Z</time>
      </trkpt>
      <trkpt lat="48.7322" lon="1.71228">
        <ele>121.9</ele>
        <time>2015-06-10T12:57:20.000Z</time>
      </trkpt>
      <trkpt lat="48.73214" lon="1.71228">
        <ele>121.8</ele>
        <time>2015-06-10T12:57:23.000Z</time>
      </trkpt>
      <trkpt lat="48.73207" lon="1.71227">
        <ele>121.5</ele>
        <time>2015-06-10T12:57:28.000Z</time>
      </trkpt>
      <trkpt lat="48.73198" lon="1.71227">
        <ele>121.3</ele>
        <time>2015-06-10T12:57:33.000Z</time>
      </trkpt>
      <trkpt lat="48.7319" lon="1.71222">
        <ele>121</ele>
        <time>2015-06-10T12:57:38.000Z</time>
      </trkpt>
      <trkpt lat="48.73183" lon="1.71216">
        <ele>120.9</ele>
        <time>2015-06-10T12:57:43.000Z</time>
      </trkpt>
      <trkpt lat="48.73176" lon="1.71201">
        <ele>120.5</ele>
        <time>2015-06-10T12:57:50.000Z</time>
      </trkpt>
      <trkpt lat="48.73167" lon="1.71189">
        <ele>119.8</ele>
        <time>2015-06-10T12:57:56.000Z</time>
      </trkpt>
      <trkpt lat="48.73158" lon="1.71174">
        <ele>119.3</ele>
        <time>2015-06-10T12:58:03.000Z</time>
      </trkpt>
      <trkpt lat="48.73149" lon="1.71166">
        <ele>119</ele>
        <time>2015-06-10T12:58:09.000Z</time>
      </trkpt>
      <trkpt lat="48.73135" lon="1.71168">
        <ele>119</ele>
        <time>2015-06-10T12:58:17.000Z</time>
      </trkpt>
      <trkpt lat="48.73124" lon="1.71172">
        <ele>119.1</ele>
        <time>2015-06-10T12:58:24.000Z</time>
      </trkpt>
      <trkpt lat="48.73111" lon="1.71163">
        <ele>118.9</ele>
        <time>2015-06-10T12:58:31.000Z</time>
      </trkpt>
      <trkpt lat="48.73103" lon="1.7116">
        <ele>118.6</ele>
        <time>2015-06-10T12:58:37.000Z</time>
      </trkpt>
      <trkpt lat="48.73096" lon="1.71159">
        <ele>118.3</ele>
        <time>2015-06-10T12:58:42.000Z</time>
      </trkpt>
      <trkpt lat="48.73096" lon="1.71158">
        <ele>118.3</ele>
        <time>2015-06-10T12:58:45.000Z</time>
      </trkpt>
      <trkpt lat="48.73091" lon="1.71156">
        <ele>118.2</ele>
        <time>2015-06-10T12:58:50.000Z</time>
      </trkpt>
      <trkpt lat="48.73078" lon="1.71156">
        <ele>117.8</ele>
        <time>2015-06-10T12:58:57.000Z</time>
      </trkpt>
      <trkpt lat="48.73065" lon="1.71156">
        <ele>117.4</ele>
        <time>2015-06-10T12:59:04.000Z</time>
      </trkpt>
      <trkpt lat="48.73054" lon="1.71158">
        <ele>116.9</ele>
        <time>2015-06-10T12:59:11.000Z</time>
      </trkpt>
      <trkpt lat="48.73048" lon="1.7116">
        <ele>116.7</ele>
        <time>2015-06-10T12:59:14.000Z</time>
      </trkpt>
      <trkpt lat="48.73041" lon="1.7116">
        <ele>116.5</ele>
        <time>2015-06-10T12:59:18.000Z</time>
      </trkpt>
      <trkpt lat="48.7303" lon="1.71159">
        <ele>116.1</ele>
        <time>2015-06-10T12:59:24.000Z</time>
      </trkpt>
      <trkpt lat="48.73021" lon="1.71156">
        <ele>115.7</ele>
        <time>2015-06-10T12:59:29.000Z</time>
      </trkpt>
      <trkpt lat="48.73011" lon="1.71154">
        <ele>115.4</ele>
        <time>2015-06-10T12:59:35.000Z</time>
      </trkpt>
      <trkpt lat="48.72996" lon="1.71156">
        <ele>114.9</ele>
        <time>2015-06-10T12:59:43.000Z</time>
      </trkpt>
      <trkpt lat="48.72984" lon="1.7115">
        <ele>114.4</ele>
        <time>2015-06-10T12:59:50.000Z</time>
      </trkpt>
      <trkpt lat="48.72969" lon="1.71143">
        <ele>113.9</ele>
        <time>2015-06-10T12:59:59.000Z</time>
      </trkpt>
      <trkpt lat="48.72954" lon="1.71135">
        <ele>113.3</ele>
        <time>2015-06-10T13:00:08.000Z</time>
      </trkpt>
      <trkpt lat="48.72942" lon="1.7113">
        <ele>113</ele>
        <time>2015-06-10T13:00:15.000Z</time>
      </trkpt>
      <trkpt lat="48.72922" lon="1.71121">
        <ele>113</ele>
        <time>2015-06-10T13:00:26.000Z</time>
      </trkpt>
      <trkpt lat="48.72907" lon="1.71112">
        <ele>113</ele>
        <time>2015-06-10T13:00:35.000Z</time>
      </trkpt>
      <trkpt lat="48.72895" lon="1.71106">
        <ele>113</ele>
        <time>2015-06-10T13:00:42.000Z</time>
      </trkpt>
      <trkpt lat="48.72885" lon="1.71101">
        <ele>113</ele>
        <time>2015-06-10T13:00:47.000Z</time>
      </trkpt>
      <trkpt lat="48.72869" lon="1.71093">
        <ele>113.5</ele>
        <time>2015-06-10T13:00:52.000Z</time>
      </trkpt>
      <trkpt lat="48.72856" lon="1.71088">
        <ele>113.9</ele>
        <time>2015-06-10T13:00:56.000Z</time>
      </trkpt>
      <trkpt lat="48.72828" lon="1.71073">
        <ele>114</ele>
        <time>2015-06-10T13:01:04.000Z</time>
      </trkpt>
      <trkpt lat="48.72804" lon="1.7106">
        <ele>114</ele>
        <time>2015-06-10T13:01:11.000Z</time>
      </trkpt>
      <trkpt lat="48.72772" lon="1.71041">
        <ele>115</ele>
        <time>2015-06-10T13:01:20.000Z</time>
      </trkpt>
      <trkpt lat="48.72743" lon="1.71027">
        <ele>115.2</ele>
        <time>2015-06-10T13:01:28.000Z</time>
      </trkpt>
      <trkpt lat="48.72724" lon="1.71016">
        <ele>116.3</ele>
        <time>2015-06-10T13:01:34.000Z</time>
      </trkpt>
      <trkpt lat="48.72714" lon="1.71013">
        <ele>116.8</ele>
        <time>2015-06-10T13:01:39.000Z</time>
      </trkpt>
      <trkpt lat="48.72714" lon="1.71013">
        <ele>116.8</ele>
        <time>2015-06-10T13:01:40.000Z</time>
      </trkpt>
      <trkpt lat="48.72709" lon="1.71018">
        <ele>116.8</ele>
        <time>2015-06-10T13:01:46.000Z</time>
      </trkpt>
      <trkpt lat="48.72702" lon="1.71018">
        <ele>117.1</ele>
        <time>2015-06-10T13:01:49.000Z</time>
      </trkpt>
      <trkpt lat="48.72699" lon="1.71019">
        <ele>117.2</ele>
        <time>2015-06-10T13:01:51.000Z</time>
      </trkpt>
      <trkpt lat="48.72685" lon="1.71021">
        <ele>117.6</ele>
        <time>2015-06-10T13:01:58.000Z</time>
      </trkpt>
      <trkpt lat="48.72679" lon="1.71022">
        <ele>117.8</ele>
        <time>2015-06-10T13:02:01.000Z</time>
      </trkpt>
      <trkpt lat="48.72668" lon="1.71021">
        <ele>118.2</ele>
        <time>2015-06-10T13:02:08.000Z</time>
      </trkpt>
      <trkpt lat="48.72666" lon="1.71021">
        <ele>118.3</ele>
        <time>2015-06-10T13:02:09.000Z</time>
      </trkpt>
      <trkpt lat="48.72654" lon="1.71021">
        <ele>118.6</ele>
        <time>2015-06-10T13:02:16.000Z</time>
      </trkpt>
      <trkpt lat="48.72653" lon="1.7102">
        <ele>118.6</ele>
        <time>2015-06-10T13:02:17.000Z</time>
      </trkpt>
      <trkpt lat="48.72642" lon="1.7102">
        <ele>118.9</ele>
        <time>2015-06-10T13:02:24.000Z</time>
      </trkpt>
      <trkpt lat="48.72636" lon="1.71017">
        <ele>119</ele>
        <time>2015-06-10T13:02:28.000Z</time>
      </trkpt>
      <trkpt lat="48.72622" lon="1.71017">
        <ele>119.2</ele>
        <time>2015-06-10T13:02:36.000Z</time>
      </trkpt>
      <trkpt lat="48.72618" lon="1.71014">
        <ele>119.4</ele>
        <time>2015-06-10T13:02:38.000Z</time>
      </trkpt>
      <trkpt lat="48.72606" lon="1.71011">
        <ele>119.6</ele>
        <time>2015-06-10T13:02:43.000Z</time>
      </trkpt>
      <trkpt lat="48.72589" lon="1.71009">
        <ele>119.7</ele>
        <time>2015-06-10T13:02:50.000Z</time>
      </trkpt>
      <trkpt lat="48.72565" lon="1.71016">
        <ele>119.8</ele>
        <time>2015-06-10T13:02:58.000Z</time>
      </trkpt>
      <trkpt lat="48.72546" lon="1.71022">
        <ele>119.7</ele>
        <time>2015-06-10T13:03:04.000Z</time>
      </trkpt>
      <trkpt lat="48.72522" lon="1.7103">
        <ele>119.2</ele>
        <time>2015-06-10T13:03:11.000Z</time>
      </trkpt>
      <trkpt lat="48.72502" lon="1.71038">
        <ele>119.6</ele>
        <time>2015-06-10T13:03:17.000Z</time>
      </trkpt>
      <trkpt lat="48.72486" lon="1.71046">
        <ele>119.4</ele>
        <time>2015-06-10T13:03:22.000Z</time>
      </trkpt>
      <trkpt lat="48.7247" lon="1.71049">
        <ele>119.2</ele>
        <time>2015-06-10T13:03:27.000Z</time>
      </trkpt>
      <trkpt lat="48.72454" lon="1.71053">
        <ele>119.1</ele>
        <time>2015-06-10T13:03:32.000Z</time>
      </trkpt>
      <trkpt lat="48.72437" lon="1.71061">
        <ele>118.9</ele>
        <time>2015-06-10T13:03:38.000Z</time>
      </trkpt>
      <trkpt lat="48.7242" lon="1.71066">
        <ele>118.7</ele>
        <time>2015-06-10T13:03:43.000Z</time>
      </trkpt>
      <trkpt lat="48.72405" lon="1.71073">
        <ele>118.6</ele>
        <time>2015-06-10T13:03:48.000Z</time>
      </trkpt>
      <trkpt lat="48.72378" lon="1.71084">
        <ele>119</ele>
        <time>2015-06-10T13:03:56.000Z</time>
      </trkpt>
      <trkpt lat="48.72364" lon="1.7109">
        <ele>118.8</ele>
        <time>2015-06-10T13:04:01.000Z</time>
      </trkpt>
      <trkpt lat="48.72363" lon="1.7109">
        <ele>118.8</ele>
        <time>2015-06-10T13:04:04.000Z</time>
      </trkpt>
      <trkpt lat="48.72361" lon="1.7109">
        <ele>118.7</ele>
        <time>2015-06-10T13:04:07.000Z</time>
      </trkpt>
      <trkpt lat="48.72351" lon="1.71094">
        <ele>118.7</ele>
        <time>2015-06-10T13:04:12.000Z</time>
      </trkpt>
      <trkpt lat="48.72343" lon="1.71098">
        <ele>118.8</ele>
        <time>2015-06-10T13:04:17.000Z</time>
      </trkpt>
      <trkpt lat="48.72325" lon="1.71106">
        <ele>119</ele>
        <time>2015-06-10T13:04:25.000Z</time>
      </trkpt>
      <trkpt lat="48.72313" lon="1.71108">
        <ele>119</ele>
        <time>2015-06-10T13:04:32.000Z</time>
      </trkpt>
      <trkpt lat="48.72302" lon="1.71114">
        <ele>118.9</ele>
        <time>2015-06-10T13:04:38.000Z</time>
      </trkpt>
      <trkpt lat="48.7229" lon="1.7112">
        <ele>118.7</ele>
        <time>2015-06-10T13:04:44.000Z</time>
      </trkpt>
      <trkpt lat="48.72278" lon="1.71127">
        <ele>118.4</ele>
        <time>2015-06-10T13:04:50.000Z</time>
      </trkpt>
      <trkpt lat="48.72272" lon="1.71131">
        <ele>118.4</ele>
        <time>2015-06-10T13:04:54.000Z</time>
      </trkpt>
      <trkpt lat="48.7226" lon="1.71133">
        <ele>118.7</ele>
        <time>2015-06-10T13:05:01.000Z</time>
      </trkpt>
      <trkpt lat="48.72253" lon="1.71137">
        <ele>118.9</ele>
        <time>2015-06-10T13:05:06.000Z</time>
      </trkpt>
      <trkpt lat="48.72246" lon="1.71137">
        <ele>119</ele>
        <time>2015-06-10T13:05:10.000Z</time>
      </trkpt>
      <trkpt lat="48.72236" lon="1.71141">
        <ele>119</ele>
        <time>2015-06-10T13:05:16.000Z</time>
      </trkpt>
      <trkpt lat="48.7222" lon="1.71146">
        <ele>119</ele>
        <time>2015-06-10T13:05:26.000Z</time>
      </trkpt>
      <trkpt lat="48.72212" lon="1.71149">
        <ele>119</ele>
        <time>2015-06-10T13:05:31.000Z</time>
      </trkpt>
      <trkpt lat="48.72199" lon="1.71155">
        <ele>119</ele>
        <time>2015-06-10T13:05:38.000Z</time>
      </trkpt>
      <trkpt lat="48.72191" lon="1.71161">
        <ele>119</ele>
        <time>2015-06-10T13:05:44.000Z</time>
      </trkpt>
      <trkpt lat="48.72187" lon="1.7116">
        <ele>119.1</ele>
        <time>2015-06-10T13:05:46.000Z</time>
      </trkpt>
      <trkpt lat="48.7218" lon="1.71161">
        <ele>119.1</ele>
        <time>2015-06-10T13:05:51.000Z</time>
      </trkpt>
      <trkpt lat="48.72178" lon="1.71161">
        <ele>119.1</ele>
        <time>2015-06-10T13:05:52.000Z</time>
      </trkpt>
      <trkpt lat="48.72169" lon="1.71164">
        <ele>119.1</ele>
        <time>2015-06-10T13:05:58.000Z</time>
      </trkpt>
      <trkpt lat="48.72158" lon="1.7117">
        <ele>119</ele>
        <time>2015-06-10T13:06:04.000Z</time>
      </trkpt>
      <trkpt lat="48.72145" lon="1.71177">
        <ele>119</ele>
        <time>2015-06-10T13:06:11.000Z</time>
      </trkpt>
      <trkpt lat="48.72136" lon="1.71179">
        <ele>119.1</ele>
        <time>2015-06-10T13:06:17.000Z</time>
      </trkpt>
      <trkpt lat="48.72122" lon="1.71185">
        <ele>119.6</ele>
        <time>2015-06-10T13:06:25.000Z</time>
      </trkpt>
      <trkpt lat="48.72114" lon="1.71187">
        <ele>119.9</ele>
        <time>2015-06-10T13:06:31.000Z</time>
      </trkpt>
      <trkpt lat="48.72101" lon="1.71189">
        <ele>120</ele>
        <time>2015-06-10T13:06:38.000Z</time>
      </trkpt>
      <trkpt lat="48.72093" lon="1.71194">
        <ele>120</ele>
        <time>2015-06-10T13:06:43.000Z</time>
      </trkpt>
      <trkpt lat="48.72083" lon="1.71198">
        <ele>120</ele>
        <time>2015-06-10T13:06:49.000Z</time>
      </trkpt>
      <trkpt lat="48.72073" lon="1.71204">
        <ele>120</ele>
        <time>2015-06-10T13:06:55.000Z</time>
      </trkpt>
      <trkpt lat="48.72066" lon="1.71206">
        <ele>120</ele>
        <time>2015-06-10T13:06:59.000Z</time>
      </trkpt>
      <trkpt lat="48.72057" lon="1.71208">
        <ele>120</ele>
        <time>2015-06-10T13:07:05.000Z</time>
      </trkpt>
      <trkpt lat="48.72047" lon="1.7121">
        <ele>120</ele>
        <time>2015-06-10T13:07:11.000Z</time>
      </trkpt>
      <trkpt lat="48.72046" lon="1.71211">
        <ele>120</ele>
        <time>2015-06-10T13:07:12.000Z</time>
      </trkpt>
      <trkpt lat="48.7204" lon="1.71214">
        <ele>120</ele>
        <time>2015-06-10T13:07:16.000Z</time>
      </trkpt>
      <trkpt lat="48.72029" lon="1.71217">
        <ele>120</ele>
        <time>2015-06-10T13:07:23.000Z</time>
      </trkpt>
      <trkpt lat="48.72024" lon="1.71217">
        <ele>120.1</ele>
        <time>2015-06-10T13:07:26.000Z</time>
      </trkpt>
      <trkpt lat="48.72018" lon="1.71221">
        <ele>120.3</ele>
        <time>2015-06-10T13:07:30.000Z</time>
      </trkpt>
      <trkpt lat="48.7201" lon="1.7123">
        <ele>120.5</ele>
        <time>2015-06-10T13:07:37.000Z</time>
      </trkpt>
      <trkpt lat="48.72003" lon="1.71232">
        <ele>120.6</ele>
        <time>2015-06-10T13:07:41.000Z</time>
      </trkpt>
      <trkpt lat="48.71992" lon="1.71238">
        <ele>120.6</ele>
        <time>2015-06-10T13:07:47.000Z</time>
      </trkpt>
      <trkpt lat="48.71978" lon="1.71239">
        <ele>120.9</ele>
        <time>2015-06-10T13:07:55.000Z</time>
      </trkpt>
      <trkpt lat="48.71973" lon="1.71242">
        <ele>121</ele>
        <time>2015-06-10T13:07:58.000Z</time>
      </trkpt>
      <trkpt lat="48.71965" lon="1.71245">
        <ele>121</ele>
        <time>2015-06-10T13:08:02.000Z</time>
      </trkpt>
      <trkpt lat="48.71951" lon="1.71251">
        <ele>121</ele>
        <time>2015-06-10T13:08:10.000Z</time>
      </trkpt>
      <trkpt lat="48.7194" lon="1.71254">
        <ele>121</ele>
        <time>2015-06-10T13:08:17.000Z</time>
      </trkpt>
      <trkpt lat="48.71938" lon="1.71255">
        <ele>121</ele>
        <time>2015-06-10T13:08:18.000Z</time>
      </trkpt>
      <trkpt lat="48.7193" lon="1.71255">
        <ele>121.1</ele>
        <time>2015-06-10T13:08:23.000Z</time>
      </trkpt>
      <trkpt lat="48.71922" lon="1.71258">
        <ele>121.2</ele>
        <time>2015-06-10T13:08:29.000Z</time>
      </trkpt>
      <trkpt lat="48.71913" lon="1.7126">
        <ele>121.5</ele>
        <time>2015-06-10T13:08:33.000Z</time>
      </trkpt>
      <trkpt lat="48.71898" lon="1.71265">
        <ele>122.2</ele>
        <time>2015-06-10T13:08:38.000Z</time>
      </trkpt>
      <trkpt lat="48.71873" lon="1.71275">
        <ele>123</ele>
        <time>2015-06-10T13:08:45.000Z</time>
      </trkpt>
      <trkpt lat="48.71847" lon="1.71284">
        <ele>123.2</ele>
        <time>2015-06-10T13:08:52.000Z</time>
      </trkpt>
      <trkpt lat="48.71818" lon="1.71296">
        <ele>124.2</ele>
        <time>2015-06-10T13:08:59.000Z</time>
      </trkpt>
      <trkpt lat="48.71787" lon="1.71306">
        <ele>125</ele>
        <time>2015-06-10T13:09:06.000Z</time>
      </trkpt>
      <trkpt lat="48.71743" lon="1.7132">
        <ele>126.1</ele>
        <time>2015-06-10T13:09:15.000Z</time>
      </trkpt>
      <trkpt lat="48.71704" lon="1.71334">
        <ele>127</ele>
        <time>2015-06-10T13:09:23.000Z</time>
      </trkpt>
      <trkpt lat="48.71677" lon="1.71343">
        <ele>127.8</ele>
        <time>2015-06-10T13:09:28.000Z</time>
      </trkpt>
      <trkpt lat="48.71669" lon="1.71346">
        <ele>128</ele>
        <time>2015-06-10T13:09:30.000Z</time>
      </trkpt>
      <trkpt lat="48.71655" lon="1.71355">
        <ele>128.4</ele>
        <time>2015-06-10T13:09:35.000Z</time>
      </trkpt>
      <trkpt lat="48.71653" lon="1.71357">
        <ele>128.5</ele>
        <time>2015-06-10T13:09:37.000Z</time>
      </trkpt>
      <trkpt lat="48.71647" lon="1.7136">
        <ele>128.7</ele>
        <time>2015-06-10T13:09:43.000Z</time>
      </trkpt>
      <trkpt lat="48.71632" lon="1.71365">
        <ele>129.3</ele>
        <time>2015-06-10T13:09:49.000Z</time>
      </trkpt>
      <trkpt lat="48.71618" lon="1.71369">
        <ele>129.8</ele>
        <time>2015-06-10T13:09:54.000Z</time>
      </trkpt>
      <trkpt lat="48.71596" lon="1.71376">
        <ele>130</ele>
        <time>2015-06-10T13:10:01.000Z</time>
      </trkpt>
      <trkpt lat="48.71581" lon="1.71382">
        <ele>130.1</ele>
        <time>2015-06-10T13:10:06.000Z</time>
      </trkpt>
      <trkpt lat="48.71556" lon="1.7139">
        <ele>131</ele>
        <time>2015-06-10T13:10:13.000Z</time>
      </trkpt>
      <trkpt lat="48.71524" lon="1.71401">
        <ele>132.1</ele>
        <time>2015-06-10T13:10:22.000Z</time>
      </trkpt>
      <trkpt lat="48.71503" lon="1.71409">
        <ele>132.7</ele>
        <time>2015-06-10T13:10:28.000Z</time>
      </trkpt>
      <trkpt lat="48.71485" lon="1.71414">
        <ele>133</ele>
        <time>2015-06-10T13:10:33.000Z</time>
      </trkpt>
      <trkpt lat="48.71451" lon="1.71426">
        <ele>133.8</ele>
        <time>2015-06-10T13:10:42.000Z</time>
      </trkpt>
      <trkpt lat="48.71419" lon="1.71436">
        <ele>134</ele>
        <time>2015-06-10T13:10:50.000Z</time>
      </trkpt>
      <trkpt lat="48.71411" lon="1.71439">
        <ele>134.4</ele>
        <time>2015-06-10T13:10:52.000Z</time>
      </trkpt>
      <trkpt lat="48.71378" lon="1.71453">
        <ele>136.4</ele>
        <time>2015-06-10T13:11:00.000Z</time>
      </trkpt>
      <trkpt lat="48.71355" lon="1.71462">
        <ele>137.2</ele>
        <time>2015-06-10T13:11:06.000Z</time>
      </trkpt>
      <trkpt lat="48.71346" lon="1.71467">
        <ele>137.6</ele>
        <time>2015-06-10T13:11:11.000Z</time>
      </trkpt>
      <trkpt lat="48.71333" lon="1.71474">
        <ele>138.1</ele>
        <time>2015-06-10T13:11:18.000Z</time>
      </trkpt>
      <trkpt lat="48.71319" lon="1.71482">
        <ele>139.4</ele>
        <time>2015-06-10T13:11:25.000Z</time>
      </trkpt>
      <trkpt lat="48.71314" lon="1.71488">
        <ele>139.9</ele>
        <time>2015-06-10T13:11:29.000Z</time>
      </trkpt>
      <trkpt lat="48.71313" lon="1.71498">
        <ele>140.4</ele>
        <time>2015-06-10T13:11:36.000Z</time>
      </trkpt>
      <trkpt lat="48.71315" lon="1.71516">
        <ele>140.3</ele>
        <time>2015-06-10T13:11:44.000Z</time>
      </trkpt>
      <trkpt lat="48.71315" lon="1.71536">
        <ele>140.4</ele>
        <time>2015-06-10T13:11:52.000Z</time>
      </trkpt>
      <trkpt lat="48.71316" lon="1.7156">
        <ele>140.8</ele>
        <time>2015-06-10T13:12:01.000Z</time>
      </trkpt>
      <trkpt lat="48.71318" lon="1.71575">
        <ele>141.3</ele>
        <time>2015-06-10T13:12:08.000Z</time>
      </trkpt>
      <trkpt lat="48.71318" lon="1.71599">
        <ele>141.8</ele>
        <time>2015-06-10T13:12:17.000Z</time>
      </trkpt>
      <trkpt lat="48.71318" lon="1.71613">
        <ele>142.1</ele>
        <time>2015-06-10T13:12:23.000Z</time>
      </trkpt>
      <trkpt lat="48.7132" lon="1.7163">
        <ele>142.7</ele>
        <time>2015-06-10T13:12:31.000Z</time>
      </trkpt>
      <trkpt lat="48.71321" lon="1.71643">
        <ele>143.1</ele>
        <time>2015-06-10T13:12:38.000Z</time>
      </trkpt>
      <trkpt lat="48.71323" lon="1.71663">
        <ele>143.3</ele>
        <time>2015-06-10T13:12:46.000Z</time>
      </trkpt>
      <trkpt lat="48.71323" lon="1.71675">
        <ele>143.8</ele>
        <time>2015-06-10T13:12:51.000Z</time>
      </trkpt>
      <trkpt lat="48.71322" lon="1.71694">
        <ele>144.8</ele>
        <time>2015-06-10T13:12:57.000Z</time>
      </trkpt>
      <trkpt lat="48.71322" lon="1.71706">
        <ele>145.2</ele>
        <time>2015-06-10T13:13:02.000Z</time>
      </trkpt>
      <trkpt lat="48.71323" lon="1.71728">
        <ele>145.7</ele>
        <time>2015-06-10T13:13:10.000Z</time>
      </trkpt>
      <trkpt lat="48.71323" lon="1.71747">
        <ele>145.8</ele>
        <time>2015-06-10T13:13:18.000Z</time>
      </trkpt>
      <trkpt lat="48.71324" lon="1.71765">
        <ele>146.2</ele>
        <time>2015-06-10T13:13:25.000Z</time>
      </trkpt>
      <trkpt lat="48.71326" lon="1.71784">
        <ele>146.6</ele>
        <time>2015-06-10T13:13:33.000Z</time>
      </trkpt>
      <trkpt lat="48.71328" lon="1.71799">
        <ele>146.5</ele>
        <time>2015-06-10T13:13:39.000Z</time>
      </trkpt>
      <trkpt lat="48.71329" lon="1.7181">
        <ele>146.6</ele>
        <time>2015-06-10T13:13:43.000Z</time>
      </trkpt>
      <trkpt lat="48.71332" lon="1.71823">
        <ele>146.8</ele>
        <time>2015-06-10T13:13:48.000Z</time>
      </trkpt>
      <trkpt lat="48.71334" lon="1.71839">
        <ele>147</ele>
        <time>2015-06-10T13:13:54.000Z</time>
      </trkpt>
      <trkpt lat="48.71327" lon="1.71858">
        <ele>147.3</ele>
        <time>2015-06-10T13:14:01.000Z</time>
      </trkpt>
      <trkpt lat="48.71325" lon="1.71868">
        <ele>147.5</ele>
        <time>2015-06-10T13:14:06.000Z</time>
      </trkpt>
      <trkpt lat="48.71323" lon="1.71881">
        <ele>147.8</ele>
        <time>2015-06-10T13:14:12.000Z</time>
      </trkpt>
      <trkpt lat="48.7132" lon="1.71896">
        <ele>148.2</ele>
        <time>2015-06-10T13:14:18.000Z</time>
      </trkpt>
      <trkpt lat="48.71318" lon="1.71904">
        <ele>148.1</ele>
        <time>2015-06-10T13:14:22.000Z</time>
      </trkpt>
      <trkpt lat="48.71316" lon="1.71919">
        <ele>147.6</ele>
        <time>2015-06-10T13:14:26.000Z</time>
      </trkpt>
      <trkpt lat="48.71313" lon="1.71936">
        <ele>145.3</ele>
        <time>2015-06-10T13:14:32.000Z</time>
      </trkpt>
      <trkpt lat="48.71314" lon="1.71951">
        <ele>143.8</ele>
        <time>2015-06-10T13:14:38.000Z</time>
      </trkpt>
      <trkpt lat="48.71315" lon="1.71955">
        <ele>143.4</ele>
        <time>2015-06-10T13:14:40.000Z</time>
      </trkpt>
      <trkpt lat="48.71318" lon="1.71965">
        <ele>142.2</ele>
        <time>2015-06-10T13:14:44.000Z</time>
      </trkpt>
      <trkpt lat="48.71332" lon="1.71975">
        <ele>140.1</ele>
        <time>2015-06-10T13:14:53.000Z</time>
      </trkpt>
      <trkpt lat="48.71333" lon="1.71976">
        <ele>140</ele>
        <time>2015-06-10T13:14:54.000Z</time>
      </trkpt>
      <trkpt lat="48.71342" lon="1.7199">
        <ele>139.8</ele>
        <time>2015-06-10T13:15:01.000Z</time>
      </trkpt>
      <trkpt lat="48.71347" lon="1.71994">
        <ele>139.5</ele>
        <time>2015-06-10T13:15:04.000Z</time>
      </trkpt>
      <trkpt lat="48.71356" lon="1.71998">
        <ele>138.6</ele>
        <time>2015-06-10T13:15:10.000Z</time>
      </trkpt>
      <trkpt lat="48.71357" lon="1.71999">
        <ele>138.4</ele>
        <time>2015-06-10T13:15:11.000Z</time>
      </trkpt>
      <trkpt lat="48.71368" lon="1.72005">
        <ele>137.8</ele>
        <time>2015-06-10T13:15:18.000Z</time>
      </trkpt>
      <trkpt lat="48.71372" lon="1.72006">
        <ele>137.6</ele>
        <time>2015-06-10T13:15:20.000Z</time>
      </trkpt>
      <trkpt lat="48.71383" lon="1.72017">
        <ele>137.2</ele>
        <time>2015-06-10T13:15:27.000Z</time>
      </trkpt>
      <trkpt lat="48.71393" lon="1.72032">
        <ele>136.6</ele>
        <time>2015-06-10T13:15:33.000Z</time>
      </trkpt>
      <trkpt lat="48.71401" lon="1.72045">
        <ele>135.8</ele>
        <time>2015-06-10T13:15:39.000Z</time>
      </trkpt>
      <trkpt lat="48.71411" lon="1.72061">
        <ele>135.3</ele>
        <time>2015-06-10T13:15:47.000Z</time>
      </trkpt>
      <trkpt lat="48.71414" lon="1.72075">
        <ele>135.2</ele>
        <time>2015-06-10T13:15:53.000Z</time>
      </trkpt>
      <trkpt lat="48.71417" lon="1.72085">
        <ele>135</ele>
        <time>2015-06-10T13:15:57.000Z</time>
      </trkpt>
      <trkpt lat="48.71418" lon="1.72099">
        <ele>135.5</ele>
        <time>2015-06-10T13:16:03.000Z</time>
      </trkpt>
      <trkpt lat="48.71422" lon="1.72113">
        <ele>135.7</ele>
        <time>2015-06-10T13:16:07.000Z</time>
      </trkpt>
      <trkpt lat="48.71424" lon="1.72127">
        <ele>136</ele>
        <time>2015-06-10T13:16:10.000Z</time>
      </trkpt>
      <trkpt lat="48.71428" lon="1.72158">
        <ele>136.6</ele>
        <time>2015-06-10T13:16:16.000Z</time>
      </trkpt>
      <trkpt lat="48.71437" lon="1.72175">
        <ele>136</ele>
        <time>2015-06-10T13:16:20.000Z</time>
      </trkpt>
      <trkpt lat="48.71456" lon="1.72192">
        <ele>135.5</ele>
        <time>2015-06-10T13:16:25.000Z</time>
      </trkpt>
      <trkpt lat="48.71463" lon="1.72199">
        <ele>135.5</ele>
        <time>2015-06-10T13:16:27.000Z</time>
      </trkpt>
      <trkpt lat="48.71471" lon="1.72224">
        <ele>136</ele>
        <time>2015-06-10T13:16:32.000Z</time>
      </trkpt>
      <trkpt lat="48.71472" lon="1.72229">
        <ele>136</ele>
        <time>2015-06-10T13:16:33.000Z</time>
      </trkpt>
      <trkpt lat="48.71481" lon="1.7226">
        <ele>135.4</ele>
        <time>2015-06-10T13:16:39.000Z</time>
      </trkpt>
      <trkpt lat="48.71489" lon="1.72297">
        <ele>134.8</ele>
        <time>2015-06-10T13:16:45.000Z</time>
      </trkpt>
      <trkpt lat="48.71494" lon="1.72327">
        <ele>134.4</ele>
        <time>2015-06-10T13:16:50.000Z</time>
      </trkpt>
      <trkpt lat="48.71494" lon="1.72339">
        <ele>134.6</ele>
        <time>2015-06-10T13:16:52.000Z</time>
      </trkpt>
      <trkpt lat="48.71493" lon="1.72357">
        <ele>135.2</ele>
        <time>2015-06-10T13:16:55.000Z</time>
      </trkpt>
      <trkpt lat="48.71492" lon="1.72378">
        <ele>135.7</ele>
        <time>2015-06-10T13:17:01.000Z</time>
      </trkpt>
      <trkpt lat="48.71493" lon="1.72384">
        <ele>135.9</ele>
        <time>2015-06-10T13:17:03.000Z</time>
      </trkpt>
      <trkpt lat="48.71492" lon="1.72404">
        <ele>136.5</ele>
        <time>2015-06-10T13:17:11.000Z</time>
      </trkpt>
      <trkpt lat="48.71492" lon="1.72408">
        <ele>136.7</ele>
        <time>2015-06-10T13:17:13.000Z</time>
      </trkpt>
      <trkpt lat="48.71494" lon="1.72424">
        <ele>137</ele>
        <time>2015-06-10T13:17:19.000Z</time>
      </trkpt>
      <trkpt lat="48.71493" lon="1.72438">
        <ele>137</ele>
        <time>2015-06-10T13:17:24.000Z</time>
      </trkpt>
      <trkpt lat="48.71494" lon="1.72452">
        <ele>136.5</ele>
        <time>2015-06-10T13:17:30.000Z</time>
      </trkpt>
      <trkpt lat="48.71493" lon="1.72461">
        <ele>136.1</ele>
        <time>2015-06-10T13:17:33.000Z</time>
      </trkpt>
      <trkpt lat="48.71493" lon="1.72473">
        <ele>135.5</ele>
        <time>2015-06-10T13:17:37.000Z</time>
      </trkpt>
      <trkpt lat="48.71494" lon="1.7248">
        <ele>135.5</ele>
        <time>2015-06-10T13:17:40.000Z</time>
      </trkpt>
      <trkpt lat="48.71493" lon="1.72484">
        <ele>135.5</ele>
        <time>2015-06-10T13:17:42.000Z</time>
      </trkpt>
      <trkpt lat="48.71495" lon="1.72496">
        <ele>135.4</ele>
        <time>2015-06-10T13:17:47.000Z</time>
      </trkpt>
      <trkpt lat="48.71499" lon="1.72514">
        <ele>135.1</ele>
        <time>2015-06-10T13:17:54.000Z</time>
      </trkpt>
      <trkpt lat="48.71504" lon="1.72537">
        <ele>135</ele>
        <time>2015-06-10T13:18:02.000Z</time>
      </trkpt>
      <trkpt lat="48.71506" lon="1.72557">
        <ele>135.6</ele>
        <time>2015-06-10T13:18:10.000Z</time>
      </trkpt>
      <trkpt lat="48.71506" lon="1.72569">
        <ele>135.6</ele>
        <time>2015-06-10T13:18:15.000Z</time>
      </trkpt>
      <trkpt lat="48.71506" lon="1.72585">
        <ele>135.5</ele>
        <time>2015-06-10T13:18:21.000Z</time>
      </trkpt>
      <trkpt lat="48.71509" lon="1.72599">
        <ele>135.3</ele>
        <time>2015-06-10T13:18:27.000Z</time>
      </trkpt>
      <trkpt lat="48.71511" lon="1.72616">
        <ele>135.3</ele>
        <time>2015-06-10T13:18:34.000Z</time>
      </trkpt>
      <trkpt lat="48.71511" lon="1.72618">
        <ele>135.3</ele>
        <time>2015-06-10T13:18:35.000Z</time>
      </trkpt>
      <trkpt lat="48.71511" lon="1.72623">
        <ele>135.3</ele>
        <time>2015-06-10T13:18:37.000Z</time>
      </trkpt>
      <trkpt lat="48.71515" lon="1.72637">
        <ele>135.4</ele>
        <time>2015-06-10T13:18:43.000Z</time>
      </trkpt>
      <trkpt lat="48.71519" lon="1.72651">
        <ele>135.3</ele>
        <time>2015-06-10T13:18:49.000Z</time>
      </trkpt>
      <trkpt lat="48.7152" lon="1.72655">
        <ele>135.3</ele>
        <time>2015-06-10T13:18:51.000Z</time>
      </trkpt>
      <trkpt lat="48.71522" lon="1.72664">
        <ele>135.2</ele>
        <time>2015-06-10T13:18:55.000Z</time>
      </trkpt>
      <trkpt lat="48.71526" lon="1.72674">
        <ele>135.3</ele>
        <time>2015-06-10T13:19:00.000Z</time>
      </trkpt>
      <trkpt lat="48.71529" lon="1.72681">
        <ele>135.6</ele>
        <time>2015-06-10T13:19:04.000Z</time>
      </trkpt>
      <trkpt lat="48.71533" lon="1.7269">
        <ele>136</ele>
        <time>2015-06-10T13:19:08.000Z</time>
      </trkpt>
      <trkpt lat="48.71538" lon="1.72708">
        <ele>137</ele>
        <time>2015-06-10T13:19:15.000Z</time>
      </trkpt>
      <trkpt lat="48.71545" lon="1.72723">
        <ele>137.4</ele>
        <time>2015-06-10T13:19:19.000Z</time>
      </trkpt>
      <trkpt lat="48.71556" lon="1.72752">
        <ele>139</ele>
        <time>2015-06-10T13:19:26.000Z</time>
      </trkpt>
      <trkpt lat="48.71564" lon="1.72774">
        <ele>138.7</ele>
        <time>2015-06-10T13:19:32.000Z</time>
      </trkpt>
      <trkpt lat="48.71571" lon="1.72797">
        <ele>137.7</ele>
        <time>2015-06-10T13:19:38.000Z</time>
      </trkpt>
      <trkpt lat="48.71578" lon="1.72819">
        <ele>137.2</ele>
        <time>2015-06-10T13:19:43.000Z</time>
      </trkpt>
      <trkpt lat="48.71591" lon="1.72842">
        <ele>137</ele>
        <time>2015-06-10T13:19:49.000Z</time>
      </trkpt>
      <trkpt lat="48.71598" lon="1.72856">
        <ele>136.8</ele>
        <time>2015-06-10T13:19:53.000Z</time>
      </trkpt>
      <trkpt lat="48.71608" lon="1.72881">
        <ele>137</ele>
        <time>2015-06-10T13:19:59.000Z</time>
      </trkpt>
      <trkpt lat="48.71613" lon="1.72886">
        <ele>136.7</ele>
        <time>2015-06-10T13:20:01.000Z</time>
      </trkpt>
      <trkpt lat="48.7162" lon="1.729">
        <ele>136.5</ele>
        <time>2015-06-10T13:20:05.000Z</time>
      </trkpt>
      <trkpt lat="48.71632" lon="1.72921">
        <ele>135.4</ele>
        <time>2015-06-10T13:20:11.000Z</time>
      </trkpt>
      <trkpt lat="48.71633" lon="1.72924">
        <ele>135.3</ele>
        <time>2015-06-10T13:20:12.000Z</time>
      </trkpt>
      <trkpt lat="48.71642" lon="1.72941">
        <ele>134.7</ele>
        <time>2015-06-10T13:20:18.000Z</time>
      </trkpt>
      <trkpt lat="48.71644" lon="1.72944">
        <ele>134.6</ele>
        <time>2015-06-10T13:20:20.000Z</time>
      </trkpt>
      <trkpt lat="48.71649" lon="1.72958">
        <ele>134.3</ele>
        <time>2015-06-10T13:20:26.000Z</time>
      </trkpt>
      <trkpt lat="48.7165" lon="1.72961">
        <ele>134.2</ele>
        <time>2015-06-10T13:20:27.000Z</time>
      </trkpt>
      <trkpt lat="48.71657" lon="1.72977">
        <ele>133.7</ele>
        <time>2015-06-10T13:20:33.000Z</time>
      </trkpt>
      <trkpt lat="48.71663" lon="1.72992">
        <ele>133.2</ele>
        <time>2015-06-10T13:20:39.000Z</time>
      </trkpt>
      <trkpt lat="48.71667" lon="1.73007">
        <ele>133</ele>
        <time>2015-06-10T13:20:44.000Z</time>
      </trkpt>
      <trkpt lat="48.71669" lon="1.73012">
        <ele>133</ele>
        <time>2015-06-10T13:20:46.000Z</time>
      </trkpt>
      <trkpt lat="48.71674" lon="1.7303">
        <ele>133</ele>
        <time>2015-06-10T13:20:53.000Z</time>
      </trkpt>
      <trkpt lat="48.71678" lon="1.73046">
        <ele>133</ele>
        <time>2015-06-10T13:20:59.000Z</time>
      </trkpt>
      <trkpt lat="48.71681" lon="1.73068">
        <ele>133.2</ele>
        <time>2015-06-10T13:21:07.000Z</time>
      </trkpt>
      <trkpt lat="48.71684" lon="1.73084">
        <ele>133.4</ele>
        <time>2015-06-10T13:21:13.000Z</time>
      </trkpt>
      <trkpt lat="48.71689" lon="1.73103">
        <ele>133.2</ele>
        <time>2015-06-10T13:21:20.000Z</time>
      </trkpt>
      <trkpt lat="48.71693" lon="1.73117">
        <ele>133.3</ele>
        <time>2015-06-10T13:21:25.000Z</time>
      </trkpt>
      <trkpt lat="48.71699" lon="1.73139">
        <ele>133.7</ele>
        <time>2015-06-10T13:21:33.000Z</time>
      </trkpt>
      <trkpt lat="48.71703" lon="1.73157">
        <ele>133.4</ele>
        <time>2015-06-10T13:21:40.000Z</time>
      </trkpt>
      <trkpt lat="48.71703" lon="1.73162">
        <ele>133.4</ele>
        <time>2015-06-10T13:21:42.000Z</time>
      </trkpt>
      <trkpt lat="48.71702" lon="1.73176">
        <ele>133.2</ele>
        <time>2015-06-10T13:21:48.000Z</time>
      </trkpt>
      <trkpt lat="48.71703" lon="1.73179">
        <ele>133.1</ele>
        <time>2015-06-10T13:21:49.000Z</time>
      </trkpt>
      <trkpt lat="48.71704" lon="1.73191">
        <ele>132.7</ele>
        <time>2015-06-10T13:21:54.000Z</time>
      </trkpt>
      <trkpt lat="48.71706" lon="1.73204">
        <ele>132.8</ele>
        <time>2015-06-10T13:21:59.000Z</time>
      </trkpt>
      <trkpt lat="48.71709" lon="1.73222">
        <ele>133</ele>
        <time>2015-06-10T13:22:06.000Z</time>
      </trkpt>
      <trkpt lat="48.71711" lon="1.7324">
        <ele>132.8</ele>
        <time>2015-06-10T13:22:13.000Z</time>
      </trkpt>
      <trkpt lat="48.71713" lon="1.73255">
        <ele>132.7</ele>
        <time>2015-06-10T13:22:19.000Z</time>
      </trkpt>
      <trkpt lat="48.71716" lon="1.73278">
        <ele>132.5</ele>
        <time>2015-06-10T13:22:28.000Z</time>
      </trkpt>
      <trkpt lat="48.71717" lon="1.73285">
        <ele>132.6</ele>
        <time>2015-06-10T13:22:31.000Z</time>
      </trkpt>
      <trkpt lat="48.71719" lon="1.73299">
        <ele>132.9</ele>
        <time>2015-06-10T13:22:37.000Z</time>
      </trkpt>
      <trkpt lat="48.7172" lon="1.7331">
        <ele>133.1</ele>
        <time>2015-06-10T13:22:41.000Z</time>
      </trkpt>
      <trkpt lat="48.71721" lon="1.73325">
        <ele>133.1</ele>
        <time>2015-06-10T13:22:47.000Z</time>
      </trkpt>
      <trkpt lat="48.71722" lon="1.7333">
        <ele>133</ele>
        <time>2015-06-10T13:22:49.000Z</time>
      </trkpt>
      <trkpt lat="48.71725" lon="1.7335">
        <ele>133.4</ele>
        <time>2015-06-10T13:22:58.000Z</time>
      </trkpt>
      <trkpt lat="48.71728" lon="1.73364">
        <ele>133.6</ele>
        <time>2015-06-10T13:23:04.000Z</time>
      </trkpt>
      <trkpt lat="48.71731" lon="1.73379">
        <ele>133.3</ele>
        <time>2015-06-10T13:23:10.000Z</time>
      </trkpt>
      <trkpt lat="48.71733" lon="1.73387">
        <ele>133.3</ele>
        <time>2015-06-10T13:23:13.000Z</time>
      </trkpt>
      <trkpt lat="48.71737" lon="1.73397">
        <ele>133.2</ele>
        <time>2015-06-10T13:23:18.000Z</time>
      </trkpt>
      <trkpt lat="48.71742" lon="1.73413">
        <ele>133.5</ele>
        <time>2015-06-10T13:23:25.000Z</time>
      </trkpt>
      <trkpt lat="48.71743" lon="1.73419">
        <ele>133.6</ele>
        <time>2015-06-10T13:23:28.000Z</time>
      </trkpt>
      <trkpt lat="48.71746" lon="1.73441">
        <ele>134.2</ele>
        <time>2015-06-10T13:23:37.000Z</time>
      </trkpt>
      <trkpt lat="48.71749" lon="1.73456">
        <ele>134.1</ele>
        <time>2015-06-10T13:23:43.000Z</time>
      </trkpt>
      <trkpt lat="48.71754" lon="1.73473">
        <ele>133.7</ele>
        <time>2015-06-10T13:23:50.000Z</time>
      </trkpt>
      <trkpt lat="48.71754" lon="1.73492">
        <ele>133.1</ele>
        <time>2015-06-10T13:23:57.000Z</time>
      </trkpt>
      <trkpt lat="48.71751" lon="1.73495">
        <ele>133.2</ele>
        <time>2015-06-10T13:23:59.000Z</time>
      </trkpt>
      <trkpt lat="48.7173" lon="1.73503">
        <ele>134.6</ele>
        <time>2015-06-10T13:24:06.000Z</time>
      </trkpt>
      <trkpt lat="48.71701" lon="1.73508">
        <ele>137.4</ele>
        <time>2015-06-10T13:24:13.000Z</time>
      </trkpt>
      <trkpt lat="48.71667" lon="1.73516">
        <ele>140</ele>
        <time>2015-06-10T13:24:21.000Z</time>
      </trkpt>
      <trkpt lat="48.71642" lon="1.73521">
        <ele>141.1</ele>
        <time>2015-06-10T13:24:27.000Z</time>
      </trkpt>
      <trkpt lat="48.71616" lon="1.73531">
        <ele>141.7</ele>
        <time>2015-06-10T13:24:33.000Z</time>
      </trkpt>
      <trkpt lat="48.7159" lon="1.73538">
        <ele>143.2</ele>
        <time>2015-06-10T13:24:39.000Z</time>
      </trkpt>
      <trkpt lat="48.7158" lon="1.73541">
        <ele>143.8</ele>
        <time>2015-06-10T13:24:41.000Z</time>
      </trkpt>
      <trkpt lat="48.71553" lon="1.73549">
        <ele>145.8</ele>
        <time>2015-06-10T13:24:47.000Z</time>
      </trkpt>
      <trkpt lat="48.71531" lon="1.73554">
        <ele>146.9</ele>
        <time>2015-06-10T13:24:53.000Z</time>
      </trkpt>
      <trkpt lat="48.71507" lon="1.7356">
        <ele>149.1</ele>
        <time>2015-06-10T13:24:59.000Z</time>
      </trkpt>
      <trkpt lat="48.71503" lon="1.73559">
        <ele>149.6</ele>
        <time>2015-06-10T13:25:01.000Z</time>
      </trkpt>
      <trkpt lat="48.71497" lon="1.73559">
        <ele>150.2</ele>
        <time>2015-06-10T13:25:05.000Z</time>
      </trkpt>
      <trkpt lat="48.71488" lon="1.73562">
        <ele>151.2</ele>
        <time>2015-06-10T13:25:11.000Z</time>
      </trkpt>
      <trkpt lat="48.71479" lon="1.7356">
        <ele>152.2</ele>
        <time>2015-06-10T13:25:17.000Z</time>
      </trkpt>
      <trkpt lat="48.71478" lon="1.73559">
        <ele>152.4</ele>
        <time>2015-06-10T13:25:18.000Z</time>
      </trkpt>
      <trkpt lat="48.7147" lon="1.73561">
        <ele>153.3</ele>
        <time>2015-06-10T13:25:24.000Z</time>
      </trkpt>
      <trkpt lat="48.71468" lon="1.73562">
        <ele>153.6</ele>
        <time>2015-06-10T13:25:25.000Z</time>
      </trkpt>
      <trkpt lat="48.71466" lon="1.73563">
        <ele>154</ele>
        <time>2015-06-10T13:25:27.000Z</time>
      </trkpt>
      <trkpt lat="48.71455" lon="1.7357">
        <ele>155.9</ele>
        <time>2015-06-10T13:25:35.000Z</time>
      </trkpt>
      <trkpt lat="48.71432" lon="1.73579">
        <ele>159.3</ele>
        <time>2015-06-10T13:25:41.000Z</time>
      </trkpt>
      <trkpt lat="48.71421" lon="1.73578">
        <ele>160.7</ele>
        <time>2015-06-10T13:25:45.000Z</time>
      </trkpt>
      <trkpt lat="48.71418" lon="1.73578">
        <ele>161.1</ele>
        <time>2015-06-10T13:25:47.000Z</time>
      </trkpt>
      <trkpt lat="48.7141" lon="1.73581">
        <ele>161.6</ele>
        <time>2015-06-10T13:25:51.000Z</time>
      </trkpt>
      <trkpt lat="48.71398" lon="1.73586">
        <ele>162</ele>
        <time>2015-06-10T13:25:56.000Z</time>
      </trkpt>
      <trkpt lat="48.71393" lon="1.73586">
        <ele>162.2</ele>
        <time>2015-06-10T13:26:00.000Z</time>
      </trkpt>
      <trkpt lat="48.71387" lon="1.73582">
        <ele>162.9</ele>
        <time>2015-06-10T13:26:05.000Z</time>
      </trkpt>
      <trkpt lat="48.71377" lon="1.73572">
        <ele>163.1</ele>
        <time>2015-06-10T13:26:12.000Z</time>
      </trkpt>
      <trkpt lat="48.71372" lon="1.73564">
        <ele>163.8</ele>
        <time>2015-06-10T13:26:17.000Z</time>
      </trkpt>
      <trkpt lat="48.7137" lon="1.73562">
        <ele>164.1</ele>
        <time>2015-06-10T13:26:19.000Z</time>
      </trkpt>
      <trkpt lat="48.71367" lon="1.7356">
        <ele>164.3</ele>
        <time>2015-06-10T13:26:21.000Z</time>
      </trkpt>
      <trkpt lat="48.71364" lon="1.73554">
        <ele>165.4</ele>
        <time>2015-06-10T13:26:26.000Z</time>
      </trkpt>
      <trkpt lat="48.71363" lon="1.73551">
        <ele>166</ele>
        <time>2015-06-10T13:26:28.000Z</time>
      </trkpt>
      <trkpt lat="48.71354" lon="1.7354">
        <ele>167.5</ele>
        <time>2015-06-10T13:26:33.000Z</time>
      </trkpt>
      <trkpt lat="48.7135" lon="1.73536">
        <ele>167.8</ele>
        <time>2015-06-10T13:26:35.000Z</time>
      </trkpt>
      <trkpt lat="48.71336" lon="1.73528">
        <ele>168.3</ele>
        <time>2015-06-10T13:26:40.000Z</time>
      </trkpt>
      <trkpt lat="48.71333" lon="1.73529">
        <ele>167.7</ele>
        <time>2015-06-10T13:26:41.000Z</time>
      </trkpt>
      <trkpt lat="48.71314" lon="1.73543">
        <ele>170.1</ele>
        <time>2015-06-10T13:26:47.000Z</time>
      </trkpt>
      <trkpt lat="48.71305" lon="1.7356">
        <ele>171.7</ele>
        <time>2015-06-10T13:26:51.000Z</time>
      </trkpt>
      <trkpt lat="48.71297" lon="1.73585">
        <ele>171.7</ele>
        <time>2015-06-10T13:26:56.000Z</time>
      </trkpt>
      <trkpt lat="48.71281" lon="1.73608">
        <ele>174.4</ele>
        <time>2015-06-10T13:27:02.000Z</time>
      </trkpt>
      <trkpt lat="48.71267" lon="1.7362">
        <ele>176</ele>
        <time>2015-06-10T13:27:07.000Z</time>
      </trkpt>
      <trkpt lat="48.7126" lon="1.73621">
        <ele>176.4</ele>
        <time>2015-06-10T13:27:13.000Z</time>
      </trkpt>
      <trkpt lat="48.71247" lon="1.73624">
        <ele>177.1</ele>
        <time>2015-06-10T13:27:20.000Z</time>
      </trkpt>
      <trkpt lat="48.7124" lon="1.73624">
        <ele>177.4</ele>
        <time>2015-06-10T13:27:24.000Z</time>
      </trkpt>
      <trkpt lat="48.71228" lon="1.73623">
        <ele>177.8</ele>
        <time>2015-06-10T13:27:30.000Z</time>
      </trkpt>
      <trkpt lat="48.71215" lon="1.73624">
        <ele>178</ele>
        <time>2015-06-10T13:27:37.000Z</time>
      </trkpt>
      <trkpt lat="48.7121" lon="1.73624">
        <ele>178</ele>
        <time>2015-06-10T13:27:40.000Z</time>
      </trkpt>
      <trkpt lat="48.71203" lon="1.73614">
        <ele>178</ele>
        <time>2015-06-10T13:27:45.000Z</time>
      </trkpt>
      <trkpt lat="48.71195" lon="1.73613">
        <ele>178</ele>
        <time>2015-06-10T13:27:50.000Z</time>
      </trkpt>
      <trkpt lat="48.71187" lon="1.73627">
        <ele>178</ele>
        <time>2015-06-10T13:27:57.000Z</time>
      </trkpt>
      <trkpt lat="48.71182" lon="1.73631">
        <ele>178</ele>
        <time>2015-06-10T13:28:03.000Z</time>
      </trkpt>
      <trkpt lat="48.71175" lon="1.73638">
        <ele>178</ele>
        <time>2015-06-10T13:28:08.000Z</time>
      </trkpt>
      <trkpt lat="48.7117" lon="1.73643">
        <ele>178</ele>
        <time>2015-06-10T13:28:12.000Z</time>
      </trkpt>
      <trkpt lat="48.7116" lon="1.73653">
        <ele>178</ele>
        <time>2015-06-10T13:28:19.000Z</time>
      </trkpt>
      <trkpt lat="48.71155" lon="1.73657">
        <ele>178</ele>
        <time>2015-06-10T13:28:22.000Z</time>
      </trkpt>
      <trkpt lat="48.71148" lon="1.73665">
        <ele>178</ele>
        <time>2015-06-10T13:28:27.000Z</time>
      </trkpt>
      <trkpt lat="48.71143" lon="1.73671">
        <ele>178</ele>
        <time>2015-06-10T13:28:31.000Z</time>
      </trkpt>
      <trkpt lat="48.71131" lon="1.73683">
        <ele>178</ele>
        <time>2015-06-10T13:28:38.000Z</time>
      </trkpt>
      <trkpt lat="48.7112" lon="1.73694">
        <ele>178</ele>
        <time>2015-06-10T13:28:45.000Z</time>
      </trkpt>
      <trkpt lat="48.7111" lon="1.73704">
        <ele>177.7</ele>
        <time>2015-06-10T13:28:52.000Z</time>
      </trkpt>
      <trkpt lat="48.71099" lon="1.73717">
        <ele>177.2</ele>
        <time>2015-06-10T13:29:00.000Z</time>
      </trkpt>
      <trkpt lat="48.71091" lon="1.73724">
        <ele>177</ele>
        <time>2015-06-10T13:29:05.000Z</time>
      </trkpt>
      <trkpt lat="48.7108" lon="1.73736">
        <ele>177.1</ele>
        <time>2015-06-10T13:29:13.000Z</time>
      </trkpt>
      <trkpt lat="48.71069" lon="1.73744">
        <ele>177.1</ele>
        <time>2015-06-10T13:29:19.000Z</time>
      </trkpt>
      <trkpt lat="48.7106" lon="1.73755">
        <ele>177</ele>
        <time>2015-06-10T13:29:25.000Z</time>
      </trkpt>
      <trkpt lat="48.71048" lon="1.73771">
        <ele>177.3</ele>
        <time>2015-06-10T13:29:32.000Z</time>
      </trkpt>
      <trkpt lat="48.71039" lon="1.73781">
        <ele>177.6</ele>
        <time>2015-06-10T13:29:40.000Z</time>
      </trkpt>
      <trkpt lat="48.71032" lon="1.73787">
        <ele>177.8</ele>
        <time>2015-06-10T13:29:46.000Z</time>
      </trkpt>
      <trkpt lat="48.71027" lon="1.73787">
        <ele>178</ele>
        <time>2015-06-10T13:29:49.000Z</time>
      </trkpt>
      <trkpt lat="48.71022" lon="1.73794">
        <ele>178</ele>
        <time>2015-06-10T13:29:55.000Z</time>
      </trkpt>
      <trkpt lat="48.71021" lon="1.73796">
        <ele>178</ele>
        <time>2015-06-10T13:29:56.000Z</time>
      </trkpt>
      <trkpt lat="48.71009" lon="1.7381">
        <ele>177.9</ele>
        <time>2015-06-10T13:30:03.000Z</time>
      </trkpt>
      <trkpt lat="48.71002" lon="1.7382">
        <ele>178</ele>
        <time>2015-06-10T13:30:08.000Z</time>
      </trkpt>
      <trkpt lat="48.70999" lon="1.73837">
        <ele>178</ele>
        <time>2015-06-10T13:30:14.000Z</time>
      </trkpt>
      <trkpt lat="48.70996" lon="1.73855">
        <ele>178</ele>
        <time>2015-06-10T13:30:21.000Z</time>
      </trkpt>
      <trkpt lat="48.70993" lon="1.73872">
        <ele>178</ele>
        <time>2015-06-10T13:30:27.000Z</time>
      </trkpt>
      <trkpt lat="48.7099" lon="1.7388">
        <ele>178</ele>
        <time>2015-06-10T13:30:32.000Z</time>
      </trkpt>
      <trkpt lat="48.70989" lon="1.73885">
        <ele>178</ele>
        <time>2015-06-10T13:30:34.000Z</time>
      </trkpt>
      <trkpt lat="48.70988" lon="1.73896">
        <ele>178</ele>
        <time>2015-06-10T13:30:39.000Z</time>
      </trkpt>
      <trkpt lat="48.70985" lon="1.73913">
        <ele>178</ele>
        <time>2015-06-10T13:30:46.000Z</time>
      </trkpt>
      <trkpt lat="48.70982" lon="1.73922">
        <ele>177.9</ele>
        <time>2015-06-10T13:30:49.000Z</time>
      </trkpt>
      <trkpt lat="48.70982" lon="1.73929">
        <ele>177.7</ele>
        <time>2015-06-10T13:30:52.000Z</time>
      </trkpt>
      <trkpt lat="48.7098" lon="1.73937">
        <ele>177.5</ele>
        <time>2015-06-10T13:30:58.000Z</time>
      </trkpt>
      <trkpt lat="48.70978" lon="1.73944">
        <ele>177.2</ele>
        <time>2015-06-10T13:31:01.000Z</time>
      </trkpt>
      <trkpt lat="48.70976" lon="1.73955">
        <ele>177.5</ele>
        <time>2015-06-10T13:31:06.000Z</time>
      </trkpt>
      <trkpt lat="48.70973" lon="1.73966">
        <ele>177.8</ele>
        <time>2015-06-10T13:31:09.000Z</time>
      </trkpt>
      <trkpt lat="48.70969" lon="1.73984">
        <ele>178</ele>
        <time>2015-06-10T13:31:17.000Z</time>
      </trkpt>
      <trkpt lat="48.70969" lon="1.73988">
        <ele>178</ele>
        <time>2015-06-10T13:31:18.000Z</time>
      </trkpt>
      <trkpt lat="48.70967" lon="1.73995">
        <ele>178</ele>
        <time>2015-06-10T13:31:21.000Z</time>
      </trkpt>
      <trkpt lat="48.70964" lon="1.74007">
        <ele>178</ele>
        <time>2015-06-10T13:31:27.000Z</time>
      </trkpt>
      <trkpt lat="48.70961" lon="1.74017">
        <ele>178</ele>
        <time>2015-06-10T13:31:31.000Z</time>
      </trkpt>
      <trkpt lat="48.7096" lon="1.7402">
        <ele>178</ele>
        <time>2015-06-10T13:31:33.000Z</time>
      </trkpt>
      <trkpt lat="48.70956" lon="1.74034">
        <ele>177.9</ele>
        <time>2015-06-10T13:31:39.000Z</time>
      </trkpt>
      <trkpt lat="48.70953" lon="1.74051">
        <ele>177.4</ele>
        <time>2015-06-10T13:31:46.000Z</time>
      </trkpt>
      <trkpt lat="48.7095" lon="1.74064">
        <ele>177.1</ele>
        <time>2015-06-10T13:31:51.000Z</time>
      </trkpt>
      <trkpt lat="48.70944" lon="1.74084">
        <ele>177</ele>
        <time>2015-06-10T13:31:58.000Z</time>
      </trkpt>
      <trkpt lat="48.7094" lon="1.74102">
        <ele>177.1</ele>
        <time>2015-06-10T13:32:03.000Z</time>
      </trkpt>
      <trkpt lat="48.70934" lon="1.74121">
        <ele>177</ele>
        <time>2015-06-10T13:32:10.000Z</time>
      </trkpt>
      <trkpt lat="48.70934" lon="1.74122">
        <ele>177</ele>
        <time>2015-06-10T13:32:11.000Z</time>
      </trkpt>
      <trkpt lat="48.70933" lon="1.74135">
        <ele>177</ele>
        <time>2015-06-10T13:32:18.000Z</time>
      </trkpt>
      <trkpt lat="48.70932" lon="1.74141">
        <ele>177</ele>
        <time>2015-06-10T13:32:20.000Z</time>
      </trkpt>
      <trkpt lat="48.7093" lon="1.74148">
        <ele>177</ele>
        <time>2015-06-10T13:32:23.000Z</time>
      </trkpt>
      <trkpt lat="48.70926" lon="1.74161">
        <ele>177</ele>
        <time>2015-06-10T13:32:29.000Z</time>
      </trkpt>
      <trkpt lat="48.70925" lon="1.74168">
        <ele>177</ele>
        <time>2015-06-10T13:32:32.000Z</time>
      </trkpt>
      <trkpt lat="48.70922" lon="1.74176">
        <ele>177</ele>
        <time>2015-06-10T13:32:35.000Z</time>
      </trkpt>
      <trkpt lat="48.70916" lon="1.74195">
        <ele>177</ele>
        <time>2015-06-10T13:32:42.000Z</time>
      </trkpt>
      <trkpt lat="48.70915" lon="1.74199">
        <ele>177</ele>
        <time>2015-06-10T13:32:44.000Z</time>
      </trkpt>
      <trkpt lat="48.70908" lon="1.74223">
        <ele>177</ele>
        <time>2015-06-10T13:32:52.000Z</time>
      </trkpt>
      <trkpt lat="48.70908" lon="1.74238">
        <ele>176.6</ele>
        <time>2015-06-10T13:32:58.000Z</time>
      </trkpt>
      <trkpt lat="48.70904" lon="1.74257">
        <ele>176.4</ele>
        <time>2015-06-10T13:33:05.000Z</time>
      </trkpt>
      <trkpt lat="48.70896" lon="1.74271">
        <ele>176.2</ele>
        <time>2015-06-10T13:33:11.000Z</time>
      </trkpt>
      <trkpt lat="48.70888" lon="1.74284">
        <ele>176</ele>
        <time>2015-06-10T13:33:17.000Z</time>
      </trkpt>
      <trkpt lat="48.70881" lon="1.74296">
        <ele>176.1</ele>
        <time>2015-06-10T13:33:23.000Z</time>
      </trkpt>
      <trkpt lat="48.70874" lon="1.74316">
        <ele>176</ele>
        <time>2015-06-10T13:33:31.000Z</time>
      </trkpt>
      <trkpt lat="48.70869" lon="1.74324">
        <ele>176</ele>
        <time>2015-06-10T13:33:37.000Z</time>
      </trkpt>
      <trkpt lat="48.70863" lon="1.74334">
        <ele>176</ele>
        <time>2015-06-10T13:33:43.000Z</time>
      </trkpt>
      <trkpt lat="48.70862" lon="1.74335">
        <ele>176</ele>
        <time>2015-06-10T13:33:44.000Z</time>
      </trkpt>
      <trkpt lat="48.7086" lon="1.74341">
        <ele>176</ele>
        <time>2015-06-10T13:33:48.000Z</time>
      </trkpt>
      <trkpt lat="48.70853" lon="1.74357">
        <ele>176</ele>
        <time>2015-06-10T13:33:55.000Z</time>
      </trkpt>
      <trkpt lat="48.70839" lon="1.74377">
        <ele>176</ele>
        <time>2015-06-10T13:34:05.000Z</time>
      </trkpt>
      <trkpt lat="48.7083" lon="1.74389">
        <ele>176</ele>
        <time>2015-06-10T13:34:12.000Z</time>
      </trkpt>
      <trkpt lat="48.70812" lon="1.74405">
        <ele>176</ele>
        <time>2015-06-10T13:34:23.000Z</time>
      </trkpt>
      <trkpt lat="48.70796" lon="1.74414">
        <ele>176</ele>
        <time>2015-06-10T13:34:32.000Z</time>
      </trkpt>
      <trkpt lat="48.70786" lon="1.74419">
        <ele>176</ele>
        <time>2015-06-10T13:34:39.000Z</time>
      </trkpt>
      <trkpt lat="48.70775" lon="1.74426">
        <ele>176</ele>
        <time>2015-06-10T13:34:46.000Z</time>
      </trkpt>
      <trkpt lat="48.70757" lon="1.74439">
        <ele>176</ele>
        <time>2015-06-10T13:34:57.000Z</time>
      </trkpt>
      <trkpt lat="48.70743" lon="1.74447">
        <ele>176</ele>
        <time>2015-06-10T13:35:05.000Z</time>
      </trkpt>
      <trkpt lat="48.70733" lon="1.74456">
        <ele>176</ele>
        <time>2015-06-10T13:35:13.000Z</time>
      </trkpt>
      <trkpt lat="48.70729" lon="1.74471">
        <ele>176</ele>
        <time>2015-06-10T13:35:20.000Z</time>
      </trkpt>
      <trkpt lat="48.70736" lon="1.74481">
        <ele>176</ele>
        <time>2015-06-10T13:35:26.000Z</time>
      </trkpt>
      <trkpt lat="48.70751" lon="1.74497">
        <ele>176</ele>
        <time>2015-06-10T13:35:36.000Z</time>
      </trkpt>
      <trkpt lat="48.70766" lon="1.74513">
        <ele>176</ele>
        <time>2015-06-10T13:35:46.000Z</time>
      </trkpt>
      <trkpt lat="48.7078" lon="1.7453">
        <ele>176.1</ele>
        <time>2015-06-10T13:35:56.000Z</time>
      </trkpt>
      <trkpt lat="48.70791" lon="1.7454">
        <ele>176.2</ele>
        <time>2015-06-10T13:36:03.000Z</time>
      </trkpt>
      <trkpt lat="48.70798" lon="1.74551">
        <ele>176.2</ele>
        <time>2015-06-10T13:36:09.000Z</time>
      </trkpt>
      <trkpt lat="48.70804" lon="1.74555">
        <ele>176.1</ele>
        <time>2015-06-10T13:36:13.000Z</time>
      </trkpt>
      <trkpt lat="48.70816" lon="1.74572">
        <ele>176</ele>
        <time>2015-06-10T13:36:23.000Z</time>
      </trkpt>
      <trkpt lat="48.70824" lon="1.74586">
        <ele>176</ele>
        <time>2015-06-10T13:36:30.000Z</time>
      </trkpt>
      <trkpt lat="48.70828" lon="1.74595">
        <ele>176</ele>
        <time>2015-06-10T13:36:34.000Z</time>
      </trkpt>
      <trkpt lat="48.70842" lon="1.74614">
        <ele>176</ele>
        <time>2015-06-10T13:36:44.000Z</time>
      </trkpt>
      <trkpt lat="48.7085" lon="1.74623">
        <ele>175.7</ele>
        <time>2015-06-10T13:36:49.000Z</time>
      </trkpt>
      <trkpt lat="48.70854" lon="1.74629">
        <ele>175.5</ele>
        <time>2015-06-10T13:36:52.000Z</time>
      </trkpt>
      <trkpt lat="48.70865" lon="1.74644">
        <ele>175.3</ele>
        <time>2015-06-10T13:37:01.000Z</time>
      </trkpt>
      <trkpt lat="48.70873" lon="1.74655">
        <ele>175.5</ele>
        <time>2015-06-10T13:37:08.000Z</time>
      </trkpt>
      <trkpt lat="48.70885" lon="1.74671">
        <ele>175.3</ele>
        <time>2015-06-10T13:37:17.000Z</time>
      </trkpt>
      <trkpt lat="48.70903" lon="1.74694">
        <ele>175.5</ele>
        <time>2015-06-10T13:37:30.000Z</time>
      </trkpt>
      <trkpt lat="48.70913" lon="1.74708">
        <ele>175.6</ele>
        <time>2015-06-10T13:37:38.000Z</time>
      </trkpt>
      <trkpt lat="48.70915" lon="1.74711">
        <ele>175.6</ele>
        <time>2015-06-10T13:37:40.000Z</time>
      </trkpt>
      <trkpt lat="48.70925" lon="1.74724">
        <ele>176</ele>
        <time>2015-06-10T13:37:47.000Z</time>
      </trkpt>
      <trkpt lat="48.70939" lon="1.74743">
        <ele>176</ele>
        <time>2015-06-10T13:37:57.000Z</time>
      </trkpt>
      <trkpt lat="48.70945" lon="1.74752">
        <ele>176</ele>
        <time>2015-06-10T13:38:03.000Z</time>
      </trkpt>
      <trkpt lat="48.70954" lon="1.74763">
        <ele>176</ele>
        <time>2015-06-10T13:38:10.000Z</time>
      </trkpt>
      <trkpt lat="48.70964" lon="1.74776">
        <ele>176</ele>
        <time>2015-06-10T13:38:19.000Z</time>
      </trkpt>
      <trkpt lat="48.70973" lon="1.74785">
        <ele>176</ele>
        <time>2015-06-10T13:38:26.000Z</time>
      </trkpt>
      <trkpt lat="48.70981" lon="1.7479">
        <ele>176</ele>
        <time>2015-06-10T13:38:31.000Z</time>
      </trkpt>
      <trkpt lat="48.70985" lon="1.74791">
        <ele>176</ele>
        <time>2015-06-10T13:38:34.000Z</time>
      </trkpt>
      <trkpt lat="48.70996" lon="1.74802">
        <ele>176</ele>
        <time>2015-06-10T13:38:41.000Z</time>
      </trkpt>
      <trkpt lat="48.71006" lon="1.74816">
        <ele>176</ele>
        <time>2015-06-10T13:38:48.000Z</time>
      </trkpt>
      <trkpt lat="48.71013" lon="1.74836">
        <ele>176</ele>
        <time>2015-06-10T13:38:56.000Z</time>
      </trkpt>
      <trkpt lat="48.7101" lon="1.74854">
        <ele>176</ele>
        <time>2015-06-10T13:39:02.000Z</time>
      </trkpt>
      <trkpt lat="48.71004" lon="1.74864">
        <ele>176</ele>
        <time>2015-06-10T13:39:08.000Z</time>
      </trkpt>
      <trkpt lat="48.71003" lon="1.74866">
        <ele>176</ele>
        <time>2015-06-10T13:39:09.000Z</time>
      </trkpt>
      <trkpt lat="48.70995" lon="1.74881">
        <ele>176</ele>
        <time>2015-06-10T13:39:16.000Z</time>
      </trkpt>
      <trkpt lat="48.70985" lon="1.74895">
        <ele>176</ele>
        <time>2015-06-10T13:39:23.000Z</time>
      </trkpt>
      <trkpt lat="48.7098" lon="1.749">
        <ele>176</ele>
        <time>2015-06-10T13:39:27.000Z</time>
      </trkpt>
      <trkpt lat="48.70967" lon="1.74913">
        <ele>176</ele>
        <time>2015-06-10T13:39:35.000Z</time>
      </trkpt>
      <trkpt lat="48.7096" lon="1.74921">
        <ele>176</ele>
        <time>2015-06-10T13:39:39.000Z</time>
      </trkpt>
      <trkpt lat="48.70952" lon="1.74931">
        <ele>176</ele>
        <time>2015-06-10T13:39:45.000Z</time>
      </trkpt>
      <trkpt lat="48.70945" lon="1.74939">
        <ele>176</ele>
        <time>2015-06-10T13:39:50.000Z</time>
      </trkpt>
      <trkpt lat="48.70934" lon="1.74955">
        <ele>175.9</ele>
        <time>2015-06-10T13:39:58.000Z</time>
      </trkpt>
      <trkpt lat="48.70926" lon="1.74969">
        <ele>175.4</ele>
        <time>2015-06-10T13:40:05.000Z</time>
      </trkpt>
      <trkpt lat="48.70918" lon="1.74982">
        <ele>175.1</ele>
        <time>2015-06-10T13:40:13.000Z</time>
      </trkpt>
      <trkpt lat="48.70918" lon="1.74984">
        <ele>175</ele>
        <time>2015-06-10T13:40:16.000Z</time>
      </trkpt>
      <trkpt lat="48.70917" lon="1.74993">
        <ele>175</ele>
        <time>2015-06-10T13:40:55.000Z</time>
      </trkpt>
      <trkpt lat="48.70913" lon="1.75001">
        <ele>175</ele>
        <time>2015-06-10T13:40:58.000Z</time>
      </trkpt>
      <trkpt lat="48.70912" lon="1.75007">
        <ele>175.2</ele>
        <time>2015-06-10T13:41:01.000Z</time>
      </trkpt>
      <trkpt lat="48.70908" lon="1.75018">
        <ele>175.4</ele>
        <time>2015-06-10T13:41:08.000Z</time>
      </trkpt>
      <trkpt lat="48.70907" lon="1.75022">
        <ele>175.5</ele>
        <time>2015-06-10T13:41:11.000Z</time>
      </trkpt>
      <trkpt lat="48.70902" lon="1.75031">
        <ele>175.4</ele>
        <time>2015-06-10T13:41:16.000Z</time>
      </trkpt>
      <trkpt lat="48.70899" lon="1.75036">
        <ele>175.3</ele>
        <time>2015-06-10T13:41:19.000Z</time>
      </trkpt>
      <trkpt lat="48.70894" lon="1.75049">
        <ele>175</ele>
        <time>2015-06-10T13:41:26.000Z</time>
      </trkpt>
      <trkpt lat="48.70889" lon="1.7506">
        <ele>175</ele>
        <time>2015-06-10T13:41:31.000Z</time>
      </trkpt>
      <trkpt lat="48.70885" lon="1.75069">
        <ele>175</ele>
        <time>2015-06-10T13:41:36.000Z</time>
      </trkpt>
      <trkpt lat="48.70879" lon="1.75082">
        <ele>175</ele>
        <time>2015-06-10T13:41:43.000Z</time>
      </trkpt>
      <trkpt lat="48.70873" lon="1.75094">
        <ele>175</ele>
        <time>2015-06-10T13:41:50.000Z</time>
      </trkpt>
      <trkpt lat="48.70873" lon="1.75093">
        <ele>175</ele>
        <time>2015-06-10T13:41:52.000Z</time>
      </trkpt>
      <trkpt lat="48.70868" lon="1.751">
        <ele>175</ele>
        <time>2015-06-10T13:42:12.000Z</time>
      </trkpt>
      <trkpt lat="48.70866" lon="1.75102">
        <ele>175</ele>
        <time>2015-06-10T13:42:13.000Z</time>
      </trkpt>
      <trkpt lat="48.70865" lon="1.75109">
        <ele>175</ele>
        <time>2015-06-10T13:42:16.000Z</time>
      </trkpt>
      <trkpt lat="48.7086" lon="1.75121">
        <ele>175</ele>
        <time>2015-06-10T13:42:22.000Z</time>
      </trkpt>
      <trkpt lat="48.70852" lon="1.75138">
        <ele>175</ele>
        <time>2015-06-10T13:42:31.000Z</time>
      </trkpt>
      <trkpt lat="48.70847" lon="1.75151">
        <ele>175</ele>
        <time>2015-06-10T13:42:38.000Z</time>
      </trkpt>
      <trkpt lat="48.70841" lon="1.75164">
        <ele>175</ele>
        <time>2015-06-10T13:42:46.000Z</time>
      </trkpt>
      <trkpt lat="48.70837" lon="1.75177">
        <ele>175</ele>
        <time>2015-06-10T13:42:53.000Z</time>
      </trkpt>
      <trkpt lat="48.70834" lon="1.75185">
        <ele>175</ele>
        <time>2015-06-10T13:42:57.000Z</time>
      </trkpt>
      <trkpt lat="48.7083" lon="1.75196">
        <ele>175</ele>
        <time>2015-06-10T13:43:03.000Z</time>
      </trkpt>
      <trkpt lat="48.70825" lon="1.75206">
        <ele>175</ele>
        <time>2015-06-10T13:43:08.000Z</time>
      </trkpt>
      <trkpt lat="48.70819" lon="1.75218">
        <ele>175</ele>
        <time>2015-06-10T13:43:15.000Z</time>
      </trkpt>
      <trkpt lat="48.70813" lon="1.75229">
        <ele>175</ele>
        <time>2015-06-10T13:43:21.000Z</time>
      </trkpt>
      <trkpt lat="48.70807" lon="1.75241">
        <ele>175</ele>
        <time>2015-06-10T13:43:27.000Z</time>
      </trkpt>
      <trkpt lat="48.70805" lon="1.75246">
        <ele>175</ele>
        <time>2015-06-10T13:43:30.000Z</time>
      </trkpt>
      <trkpt lat="48.70803" lon="1.75254">
        <ele>174.9</ele>
        <time>2015-06-10T13:43:35.000Z</time>
      </trkpt>
      <trkpt lat="48.708" lon="1.75262">
        <ele>174.8</ele>
        <time>2015-06-10T13:43:40.000Z</time>
      </trkpt>
      <trkpt lat="48.70798" lon="1.75266">
        <ele>174.7</ele>
        <time>2015-06-10T13:43:43.000Z</time>
      </trkpt>
      <trkpt lat="48.70796" lon="1.75277">
        <ele>174.7</ele>
        <time>2015-06-10T13:43:50.000Z</time>
      </trkpt>
      <trkpt lat="48.70791" lon="1.7529">
        <ele>174.3</ele>
        <time>2015-06-10T13:43:56.000Z</time>
      </trkpt>
      <trkpt lat="48.70788" lon="1.75299">
        <ele>174.1</ele>
        <time>2015-06-10T13:44:01.000Z</time>
      </trkpt>
      <trkpt lat="48.70783" lon="1.75311">
        <ele>174</ele>
        <time>2015-06-10T13:44:07.000Z</time>
      </trkpt>
      <trkpt lat="48.7078" lon="1.75325">
        <ele>174</ele>
        <time>2015-06-10T13:44:14.000Z</time>
      </trkpt>
      <trkpt lat="48.70776" lon="1.75337">
        <ele>174</ele>
        <time>2015-06-10T13:44:21.000Z</time>
      </trkpt>
      <trkpt lat="48.7077" lon="1.75352">
        <ele>174</ele>
        <time>2015-06-10T13:44:28.000Z</time>
      </trkpt>
      <trkpt lat="48.70761" lon="1.7537">
        <ele>173.8</ele>
        <time>2015-06-10T13:44:38.000Z</time>
      </trkpt>
      <trkpt lat="48.70757" lon="1.75381">
        <ele>173.5</ele>
        <time>2015-06-10T13:44:44.000Z</time>
      </trkpt>
      <trkpt lat="48.70753" lon="1.75389">
        <ele>173.1</ele>
        <time>2015-06-10T13:44:48.000Z</time>
      </trkpt>
      <trkpt lat="48.70741" lon="1.75405">
        <ele>173.1</ele>
        <time>2015-06-10T13:44:58.000Z</time>
      </trkpt>
      <trkpt lat="48.70736" lon="1.75412">
        <ele>173.1</ele>
        <time>2015-06-10T13:45:04.000Z</time>
      </trkpt>
      <trkpt lat="48.70734" lon="1.75412">
        <ele>173.1</ele>
        <time>2015-06-10T13:45:12.000Z</time>
      </trkpt>
      <trkpt lat="48.70732" lon="1.75418">
        <ele>173</ele>
        <time>2015-06-10T13:45:18.000Z</time>
      </trkpt>
      <trkpt lat="48.70726" lon="1.75431">
        <ele>173</ele>
        <time>2015-06-10T13:45:24.000Z</time>
      </trkpt>
    </trkseg>
  </trk>
</gpx>